<?xml version="1.0" encoding="UTF-8" standalone="no" ?>
<gpx xmlns="http://www.topografix.com/GPX/1/1" xmlns:xsi="http://www.w3.org/2001/XMLSchema-instance" xsi:schemaLocation="http://www.topografix.com/GPX/1/1 http://www.topografix.com/GPX/1/1/gpx.xsd" version="1.1" creator="VisuGPX - https://www.visugpx.com">
  <metadata>
    <name>2022 06 05 Lischpach</name>
    <desc><![CDATA[
Le tour du lac de LISCHPACH]]></desc>
  </metadata>
  <trk>
    <name><![CDATA[Parcours du 05/06/2022 13h55]]></name>
    <trkseg>
      <trkpt lat="48.04711" lon="6.96737">
        <ele>1004.1</ele>
        <time>2022-06-05T07:04:32Z</time>
      </trkpt>
      <trkpt lat="48.04711" lon="6.96729">
        <ele>996.9</ele>
        <time>2022-06-05T07:04:43Z</time>
      </trkpt>
      <trkpt lat="48.04714" lon="6.96725">
        <ele>996.7</ele>
        <time>2022-06-05T07:05:18Z</time>
      </trkpt>
      <trkpt lat="48.04711" lon="6.9673">
        <ele>993.4</ele>
        <time>2022-06-05T07:06:36Z</time>
      </trkpt>
      <trkpt lat="48.04714" lon="6.96724">
        <ele>989.9</ele>
        <time>2022-06-05T07:06:53Z</time>
      </trkpt>
      <trkpt lat="48.0471" lon="6.96729">
        <ele>992.1</ele>
        <time>2022-06-05T07:07:20Z</time>
      </trkpt>
      <trkpt lat="48.04706" lon="6.96736">
        <ele>991.8</ele>
        <time>2022-06-05T07:07:24Z</time>
      </trkpt>
      <trkpt lat="48.047" lon="6.96735">
        <ele>997.2</ele>
        <time>2022-06-05T07:07:29Z</time>
      </trkpt>
      <trkpt lat="48.04695" lon="6.96731">
        <ele>997.8</ele>
        <time>2022-06-05T07:07:33Z</time>
      </trkpt>
      <trkpt lat="48.04691" lon="6.96726">
        <ele>1000.6</ele>
        <time>2022-06-05T07:07:37Z</time>
      </trkpt>
      <trkpt lat="48.04688" lon="6.96719">
        <ele>1001.1</ele>
        <time>2022-06-05T07:07:40Z</time>
      </trkpt>
      <trkpt lat="48.04683" lon="6.96714">
        <ele>1001.8</ele>
        <time>2022-06-05T07:07:45Z</time>
      </trkpt>
      <trkpt lat="48.04679" lon="6.96709">
        <ele>1003.1</ele>
        <time>2022-06-05T07:07:49Z</time>
      </trkpt>
      <trkpt lat="48.04675" lon="6.96705">
        <ele>1004.3</ele>
        <time>2022-06-05T07:07:53Z</time>
      </trkpt>
      <trkpt lat="48.04671" lon="6.967">
        <ele>1004.9</ele>
        <time>2022-06-05T07:07:57Z</time>
      </trkpt>
      <trkpt lat="48.04666" lon="6.96695">
        <ele>1006.3</ele>
        <time>2022-06-05T07:08:01Z</time>
      </trkpt>
      <trkpt lat="48.04662" lon="6.9669">
        <ele>1006.8</ele>
        <time>2022-06-05T07:08:05Z</time>
      </trkpt>
      <trkpt lat="48.04659" lon="6.96683">
        <ele>1004.2</ele>
        <time>2022-06-05T07:08:10Z</time>
      </trkpt>
      <trkpt lat="48.04654" lon="6.96678">
        <ele>1001</ele>
        <time>2022-06-05T07:08:15Z</time>
      </trkpt>
      <trkpt lat="48.0465" lon="6.96673">
        <ele>1004</ele>
        <time>2022-06-05T07:08:20Z</time>
      </trkpt>
      <trkpt lat="48.04646" lon="6.96668">
        <ele>1003.6</ele>
        <time>2022-06-05T07:08:25Z</time>
      </trkpt>
      <trkpt lat="48.04643" lon="6.96663">
        <ele>1004.8</ele>
        <time>2022-06-05T07:08:31Z</time>
      </trkpt>
      <trkpt lat="48.0464" lon="6.96657">
        <ele>1007.3</ele>
        <time>2022-06-05T07:08:38Z</time>
      </trkpt>
      <trkpt lat="48.04636" lon="6.96653">
        <ele>1004</ele>
        <time>2022-06-05T07:08:43Z</time>
      </trkpt>
      <trkpt lat="48.04631" lon="6.96652">
        <ele>1004.4</ele>
        <time>2022-06-05T07:08:48Z</time>
      </trkpt>
      <trkpt lat="48.0463" lon="6.96645">
        <ele>1005</ele>
        <time>2022-06-05T07:08:54Z</time>
      </trkpt>
      <trkpt lat="48.04625" lon="6.96644">
        <ele>1006.6</ele>
        <time>2022-06-05T07:09:01Z</time>
      </trkpt>
      <trkpt lat="48.04622" lon="6.96638">
        <ele>1006</ele>
        <time>2022-06-05T07:09:09Z</time>
      </trkpt>
      <trkpt lat="48.04619" lon="6.9663">
        <ele>1005</ele>
        <time>2022-06-05T07:09:15Z</time>
      </trkpt>
      <trkpt lat="48.04618" lon="6.96624">
        <ele>1006.3</ele>
        <time>2022-06-05T07:09:20Z</time>
      </trkpt>
      <trkpt lat="48.04615" lon="6.96618">
        <ele>1008.6</ele>
        <time>2022-06-05T07:09:28Z</time>
      </trkpt>
      <trkpt lat="48.0461" lon="6.96614">
        <ele>1012.7</ele>
        <time>2022-06-05T07:09:35Z</time>
      </trkpt>
      <trkpt lat="48.04606" lon="6.9661">
        <ele>1015.5</ele>
        <time>2022-06-05T07:09:42Z</time>
      </trkpt>
      <trkpt lat="48.04605" lon="6.96603">
        <ele>1016.8</ele>
        <time>2022-06-05T07:09:48Z</time>
      </trkpt>
      <trkpt lat="48.04603" lon="6.96597">
        <ele>1017.4</ele>
        <time>2022-06-05T07:09:53Z</time>
      </trkpt>
      <trkpt lat="48.046" lon="6.96591">
        <ele>1020.1</ele>
        <time>2022-06-05T07:09:59Z</time>
      </trkpt>
      <trkpt lat="48.04596" lon="6.96587">
        <ele>1019.9</ele>
        <time>2022-06-05T07:10:06Z</time>
      </trkpt>
      <trkpt lat="48.04593" lon="6.9658">
        <ele>1021.3</ele>
        <time>2022-06-05T07:10:15Z</time>
      </trkpt>
      <trkpt lat="48.04588" lon="6.96577">
        <ele>1017.9</ele>
        <time>2022-06-05T07:10:20Z</time>
      </trkpt>
      <trkpt lat="48.04583" lon="6.96574">
        <ele>1017.7</ele>
        <time>2022-06-05T07:10:25Z</time>
      </trkpt>
      <trkpt lat="48.04579" lon="6.96569">
        <ele>1016.8</ele>
        <time>2022-06-05T07:10:33Z</time>
      </trkpt>
      <trkpt lat="48.04579" lon="6.96561">
        <ele>1011.7</ele>
        <time>2022-06-05T07:10:41Z</time>
      </trkpt>
      <trkpt lat="48.04582" lon="6.96556">
        <ele>1011.8</ele>
        <time>2022-06-05T07:10:48Z</time>
      </trkpt>
      <trkpt lat="48.04588" lon="6.96552">
        <ele>1018</ele>
        <time>2022-06-05T07:10:54Z</time>
      </trkpt>
      <trkpt lat="48.04591" lon="6.96546">
        <ele>1020.5</ele>
        <time>2022-06-05T07:10:59Z</time>
      </trkpt>
      <trkpt lat="48.04589" lon="6.9654">
        <ele>1016.2</ele>
        <time>2022-06-05T07:11:06Z</time>
      </trkpt>
      <trkpt lat="48.04584" lon="6.96536">
        <ele>1014.1</ele>
        <time>2022-06-05T07:11:10Z</time>
      </trkpt>
      <trkpt lat="48.04582" lon="6.96529">
        <ele>1015.2</ele>
        <time>2022-06-05T07:11:20Z</time>
      </trkpt>
      <trkpt lat="48.04582" lon="6.96522">
        <ele>1015</ele>
        <time>2022-06-05T07:11:30Z</time>
      </trkpt>
      <trkpt lat="48.04583" lon="6.96516">
        <ele>1015.1</ele>
        <time>2022-06-05T07:11:37Z</time>
      </trkpt>
      <trkpt lat="48.04582" lon="6.96509">
        <ele>1020.4</ele>
        <time>2022-06-05T07:11:46Z</time>
      </trkpt>
      <trkpt lat="48.04584" lon="6.96502">
        <ele>1023.8</ele>
        <time>2022-06-05T07:11:52Z</time>
      </trkpt>
      <trkpt lat="48.04587" lon="6.96495">
        <ele>1026.1</ele>
        <time>2022-06-05T07:11:58Z</time>
      </trkpt>
      <trkpt lat="48.04589" lon="6.96489">
        <ele>1027.8</ele>
        <time>2022-06-05T07:12:04Z</time>
      </trkpt>
      <trkpt lat="48.04593" lon="6.96483">
        <ele>1026.6</ele>
        <time>2022-06-05T07:12:09Z</time>
      </trkpt>
      <trkpt lat="48.04591" lon="6.96477">
        <ele>1024.8</ele>
        <time>2022-06-05T07:12:14Z</time>
      </trkpt>
      <trkpt lat="48.04588" lon="6.96472">
        <ele>1026.9</ele>
        <time>2022-06-05T07:12:18Z</time>
      </trkpt>
      <trkpt lat="48.04586" lon="6.96466">
        <ele>1025.5</ele>
        <time>2022-06-05T07:12:22Z</time>
      </trkpt>
      <trkpt lat="48.04585" lon="6.96459">
        <ele>1022.8</ele>
        <time>2022-06-05T07:12:28Z</time>
      </trkpt>
      <trkpt lat="48.04583" lon="6.96452">
        <ele>1024.4</ele>
        <time>2022-06-05T07:12:32Z</time>
      </trkpt>
      <trkpt lat="48.04581" lon="6.96444">
        <ele>1028.3</ele>
        <time>2022-06-05T07:12:37Z</time>
      </trkpt>
      <trkpt lat="48.04581" lon="6.96436">
        <ele>1027.2</ele>
        <time>2022-06-05T07:12:44Z</time>
      </trkpt>
      <trkpt lat="48.0458" lon="6.96427">
        <ele>1029.9</ele>
        <time>2022-06-05T07:12:49Z</time>
      </trkpt>
      <trkpt lat="48.0458" lon="6.96421">
        <ele>1028.1</ele>
        <time>2022-06-05T07:12:54Z</time>
      </trkpt>
      <trkpt lat="48.0458" lon="6.96413">
        <ele>1028.6</ele>
        <time>2022-06-05T07:13:00Z</time>
      </trkpt>
      <trkpt lat="48.0458" lon="6.96405">
        <ele>1025.7</ele>
        <time>2022-06-05T07:13:05Z</time>
      </trkpt>
      <trkpt lat="48.04582" lon="6.96398">
        <ele>1025</ele>
        <time>2022-06-05T07:13:10Z</time>
      </trkpt>
      <trkpt lat="48.04582" lon="6.96389">
        <ele>1024.7</ele>
        <time>2022-06-05T07:13:16Z</time>
      </trkpt>
      <trkpt lat="48.0458" lon="6.96382">
        <ele>1027.1</ele>
        <time>2022-06-05T07:13:20Z</time>
      </trkpt>
      <trkpt lat="48.04582" lon="6.96376">
        <ele>1024.3</ele>
        <time>2022-06-05T07:13:23Z</time>
      </trkpt>
      <trkpt lat="48.04583" lon="6.96369">
        <ele>1026.2</ele>
        <time>2022-06-05T07:13:28Z</time>
      </trkpt>
      <trkpt lat="48.04583" lon="6.96361">
        <ele>1028.1</ele>
        <time>2022-06-05T07:13:33Z</time>
      </trkpt>
      <trkpt lat="48.04581" lon="6.96353">
        <ele>1026.9</ele>
        <time>2022-06-05T07:13:38Z</time>
      </trkpt>
      <trkpt lat="48.04579" lon="6.96346">
        <ele>1027.3</ele>
        <time>2022-06-05T07:13:43Z</time>
      </trkpt>
      <trkpt lat="48.04578" lon="6.96339">
        <ele>1027.5</ele>
        <time>2022-06-05T07:13:48Z</time>
      </trkpt>
      <trkpt lat="48.04578" lon="6.96331">
        <ele>1022.7</ele>
        <time>2022-06-05T07:13:53Z</time>
      </trkpt>
      <trkpt lat="48.04575" lon="6.96325">
        <ele>1023.4</ele>
        <time>2022-06-05T07:13:58Z</time>
      </trkpt>
      <trkpt lat="48.04572" lon="6.96319">
        <ele>1024.4</ele>
        <time>2022-06-05T07:14:03Z</time>
      </trkpt>
      <trkpt lat="48.04574" lon="6.96312">
        <ele>1023.2</ele>
        <time>2022-06-05T07:14:06Z</time>
      </trkpt>
      <trkpt lat="48.04578" lon="6.96306">
        <ele>1021.9</ele>
        <time>2022-06-05T07:14:10Z</time>
      </trkpt>
      <trkpt lat="48.04579" lon="6.963">
        <ele>1019.7</ele>
        <time>2022-06-05T07:14:13Z</time>
      </trkpt>
      <trkpt lat="48.04575" lon="6.96293">
        <ele>1019.1</ele>
        <time>2022-06-05T07:14:17Z</time>
      </trkpt>
      <trkpt lat="48.04569" lon="6.96291">
        <ele>1019.7</ele>
        <time>2022-06-05T07:14:22Z</time>
      </trkpt>
      <trkpt lat="48.04567" lon="6.96283">
        <ele>1023.7</ele>
        <time>2022-06-05T07:14:35Z</time>
      </trkpt>
      <trkpt lat="48.04568" lon="6.96276">
        <ele>1024.6</ele>
        <time>2022-06-05T07:14:38Z</time>
      </trkpt>
      <trkpt lat="48.04568" lon="6.96268">
        <ele>1028.5</ele>
        <time>2022-06-05T07:14:43Z</time>
      </trkpt>
      <trkpt lat="48.04565" lon="6.96262">
        <ele>1024.4</ele>
        <time>2022-06-05T07:14:50Z</time>
      </trkpt>
      <trkpt lat="48.04562" lon="6.96255">
        <ele>1017</ele>
        <time>2022-06-05T07:14:58Z</time>
      </trkpt>
      <trkpt lat="48.04563" lon="6.96248">
        <ele>1012</ele>
        <time>2022-06-05T07:15:05Z</time>
      </trkpt>
      <trkpt lat="48.04561" lon="6.9624">
        <ele>1008.4</ele>
        <time>2022-06-05T07:15:12Z</time>
      </trkpt>
      <trkpt lat="48.04555" lon="6.9624">
        <ele>1010.8</ele>
        <time>2022-06-05T07:15:18Z</time>
      </trkpt>
      <trkpt lat="48.04552" lon="6.96235">
        <ele>1011.9</ele>
        <time>2022-06-05T07:15:25Z</time>
      </trkpt>
      <trkpt lat="48.04551" lon="6.96228">
        <ele>1011.6</ele>
        <time>2022-06-05T07:15:30Z</time>
      </trkpt>
      <trkpt lat="48.04551" lon="6.96219">
        <ele>1011.7</ele>
        <time>2022-06-05T07:15:36Z</time>
      </trkpt>
      <trkpt lat="48.04554" lon="6.96213">
        <ele>1010.5</ele>
        <time>2022-06-05T07:15:41Z</time>
      </trkpt>
      <trkpt lat="48.04553" lon="6.96206">
        <ele>1008.9</ele>
        <time>2022-06-05T07:15:46Z</time>
      </trkpt>
      <trkpt lat="48.04548" lon="6.96205">
        <ele>1007.9</ele>
        <time>2022-06-05T07:15:49Z</time>
      </trkpt>
      <trkpt lat="48.04542" lon="6.96203">
        <ele>1003.2</ele>
        <time>2022-06-05T07:15:53Z</time>
      </trkpt>
      <trkpt lat="48.04537" lon="6.962">
        <ele>1002.6</ele>
        <time>2022-06-05T07:15:58Z</time>
      </trkpt>
      <trkpt lat="48.04532" lon="6.96198">
        <ele>1003.3</ele>
        <time>2022-06-05T07:16:03Z</time>
      </trkpt>
      <trkpt lat="48.04528" lon="6.96193">
        <ele>1003</ele>
        <time>2022-06-05T07:16:08Z</time>
      </trkpt>
      <trkpt lat="48.04527" lon="6.96186">
        <ele>1004.1</ele>
        <time>2022-06-05T07:16:13Z</time>
      </trkpt>
      <trkpt lat="48.04523" lon="6.96179">
        <ele>1007</ele>
        <time>2022-06-05T07:16:19Z</time>
      </trkpt>
      <trkpt lat="48.04527" lon="6.96176">
        <ele>998.8</ele>
        <time>2022-06-05T07:16:31Z</time>
      </trkpt>
      <trkpt lat="48.04525" lon="6.96168">
        <ele>1000.5</ele>
        <time>2022-06-05T07:16:44Z</time>
      </trkpt>
      <trkpt lat="48.0452" lon="6.96162">
        <ele>1001.9</ele>
        <time>2022-06-05T07:16:49Z</time>
      </trkpt>
      <trkpt lat="48.04515" lon="6.96155">
        <ele>1003.3</ele>
        <time>2022-06-05T07:16:53Z</time>
      </trkpt>
      <trkpt lat="48.04513" lon="6.96148">
        <ele>1004.2</ele>
        <time>2022-06-05T07:16:59Z</time>
      </trkpt>
      <trkpt lat="48.04509" lon="6.96145">
        <ele>1001</ele>
        <time>2022-06-05T07:17:07Z</time>
      </trkpt>
      <trkpt lat="48.04511" lon="6.9614">
        <ele>1001.9</ele>
        <time>2022-06-05T07:17:27Z</time>
      </trkpt>
      <trkpt lat="48.04516" lon="6.96138">
        <ele>994.6</ele>
        <time>2022-06-05T07:17:34Z</time>
      </trkpt>
      <trkpt lat="48.04515" lon="6.96129">
        <ele>993.4</ele>
        <time>2022-06-05T07:17:43Z</time>
      </trkpt>
      <trkpt lat="48.0451" lon="6.96124">
        <ele>993.3</ele>
        <time>2022-06-05T07:17:49Z</time>
      </trkpt>
      <trkpt lat="48.04511" lon="6.96116">
        <ele>992</ele>
        <time>2022-06-05T07:17:59Z</time>
      </trkpt>
      <trkpt lat="48.04509" lon="6.96109">
        <ele>997</ele>
        <time>2022-06-05T07:18:09Z</time>
      </trkpt>
      <trkpt lat="48.04508" lon="6.96102">
        <ele>1000.4</ele>
        <time>2022-06-05T07:18:13Z</time>
      </trkpt>
      <trkpt lat="48.04504" lon="6.96095">
        <ele>999.6</ele>
        <time>2022-06-05T07:18:17Z</time>
      </trkpt>
      <trkpt lat="48.04499" lon="6.96088">
        <ele>1000.3</ele>
        <time>2022-06-05T07:18:22Z</time>
      </trkpt>
      <trkpt lat="48.04495" lon="6.96082">
        <ele>998.4</ele>
        <time>2022-06-05T07:18:29Z</time>
      </trkpt>
      <trkpt lat="48.04491" lon="6.96085">
        <ele>998</ele>
        <time>2022-06-05T07:18:40Z</time>
      </trkpt>
      <trkpt lat="48.04486" lon="6.96084">
        <ele>997</ele>
        <time>2022-06-05T07:18:46Z</time>
      </trkpt>
      <trkpt lat="48.04483" lon="6.96078">
        <ele>999.9</ele>
        <time>2022-06-05T07:18:52Z</time>
      </trkpt>
      <trkpt lat="48.04486" lon="6.96073">
        <ele>1001.4</ele>
        <time>2022-06-05T07:18:56Z</time>
      </trkpt>
      <trkpt lat="48.04488" lon="6.96067">
        <ele>1003.6</ele>
        <time>2022-06-05T07:19:01Z</time>
      </trkpt>
      <trkpt lat="48.04487" lon="6.9606">
        <ele>1001.8</ele>
        <time>2022-06-05T07:19:05Z</time>
      </trkpt>
      <trkpt lat="48.04484" lon="6.96053">
        <ele>1003.3</ele>
        <time>2022-06-05T07:19:10Z</time>
      </trkpt>
      <trkpt lat="48.04479" lon="6.96051">
        <ele>1004.7</ele>
        <time>2022-06-05T07:19:14Z</time>
      </trkpt>
      <trkpt lat="48.04475" lon="6.96048">
        <ele>1002.2</ele>
        <time>2022-06-05T07:19:19Z</time>
      </trkpt>
      <trkpt lat="48.0447" lon="6.96046">
        <ele>1001.8</ele>
        <time>2022-06-05T07:19:23Z</time>
      </trkpt>
      <trkpt lat="48.04465" lon="6.96048">
        <ele>999.2</ele>
        <time>2022-06-05T07:19:28Z</time>
      </trkpt>
      <trkpt lat="48.04461" lon="6.96052">
        <ele>995.3</ele>
        <time>2022-06-05T07:19:35Z</time>
      </trkpt>
      <trkpt lat="48.04456" lon="6.9605">
        <ele>995.1</ele>
        <time>2022-06-05T07:19:40Z</time>
      </trkpt>
      <trkpt lat="48.04452" lon="6.96045">
        <ele>995.2</ele>
        <time>2022-06-05T07:19:43Z</time>
      </trkpt>
      <trkpt lat="48.04449" lon="6.96039">
        <ele>994.8</ele>
        <time>2022-06-05T07:19:47Z</time>
      </trkpt>
      <trkpt lat="48.04446" lon="6.96031">
        <ele>997.5</ele>
        <time>2022-06-05T07:19:53Z</time>
      </trkpt>
      <trkpt lat="48.04443" lon="6.96026">
        <ele>998.5</ele>
        <time>2022-06-05T07:20:00Z</time>
      </trkpt>
      <trkpt lat="48.0444" lon="6.9602">
        <ele>998.2</ele>
        <time>2022-06-05T07:20:07Z</time>
      </trkpt>
      <trkpt lat="48.04437" lon="6.96013">
        <ele>1002.9</ele>
        <time>2022-06-05T07:20:13Z</time>
      </trkpt>
      <trkpt lat="48.04436" lon="6.96006">
        <ele>1000.1</ele>
        <time>2022-06-05T07:20:20Z</time>
      </trkpt>
      <trkpt lat="48.04434" lon="6.96">
        <ele>998</ele>
        <time>2022-06-05T07:20:26Z</time>
      </trkpt>
      <trkpt lat="48.0443" lon="6.95995">
        <ele>1000.4</ele>
        <time>2022-06-05T07:20:33Z</time>
      </trkpt>
      <trkpt lat="48.04426" lon="6.95991">
        <ele>1008</ele>
        <time>2022-06-05T07:20:40Z</time>
      </trkpt>
      <trkpt lat="48.04423" lon="6.95985">
        <ele>1008.9</ele>
        <time>2022-06-05T07:20:46Z</time>
      </trkpt>
      <trkpt lat="48.04419" lon="6.95982">
        <ele>1007.3</ele>
        <time>2022-06-05T07:20:51Z</time>
      </trkpt>
      <trkpt lat="48.04415" lon="6.95977">
        <ele>1005.9</ele>
        <time>2022-06-05T07:20:56Z</time>
      </trkpt>
      <trkpt lat="48.04414" lon="6.9597">
        <ele>1011.4</ele>
        <time>2022-06-05T07:21:02Z</time>
      </trkpt>
      <trkpt lat="48.04413" lon="6.9596">
        <ele>1007.5</ele>
        <time>2022-06-05T07:21:08Z</time>
      </trkpt>
      <trkpt lat="48.0441" lon="6.95954">
        <ele>1008.6</ele>
        <time>2022-06-05T07:21:16Z</time>
      </trkpt>
      <trkpt lat="48.04406" lon="6.95954">
        <ele>1006.8</ele>
        <time>2022-06-05T07:21:21Z</time>
      </trkpt>
      <trkpt lat="48.04401" lon="6.95953">
        <ele>1007.3</ele>
        <time>2022-06-05T07:21:26Z</time>
      </trkpt>
      <trkpt lat="48.04399" lon="6.95947">
        <ele>1009.7</ele>
        <time>2022-06-05T07:21:33Z</time>
      </trkpt>
      <trkpt lat="48.04399" lon="6.9594">
        <ele>1010.7</ele>
        <time>2022-06-05T07:21:40Z</time>
      </trkpt>
      <trkpt lat="48.04396" lon="6.95933">
        <ele>1009.9</ele>
        <time>2022-06-05T07:21:47Z</time>
      </trkpt>
      <trkpt lat="48.04391" lon="6.95929">
        <ele>1008.1</ele>
        <time>2022-06-05T07:21:53Z</time>
      </trkpt>
      <trkpt lat="48.04386" lon="6.95926">
        <ele>1008.3</ele>
        <time>2022-06-05T07:21:58Z</time>
      </trkpt>
      <trkpt lat="48.04381" lon="6.95923">
        <ele>1012.3</ele>
        <time>2022-06-05T07:22:09Z</time>
      </trkpt>
      <trkpt lat="48.04377" lon="6.9592">
        <ele>1013.4</ele>
        <time>2022-06-05T07:22:18Z</time>
      </trkpt>
      <trkpt lat="48.04376" lon="6.95928">
        <ele>1015.3</ele>
        <time>2022-06-05T07:22:25Z</time>
      </trkpt>
      <trkpt lat="48.04379" lon="6.95935">
        <ele>1015.1</ele>
        <time>2022-06-05T07:22:29Z</time>
      </trkpt>
      <trkpt lat="48.04381" lon="6.95945">
        <ele>1015.8</ele>
        <time>2022-06-05T07:22:34Z</time>
      </trkpt>
      <trkpt lat="48.0438" lon="6.95952">
        <ele>1014.7</ele>
        <time>2022-06-05T07:22:37Z</time>
      </trkpt>
      <trkpt lat="48.0438" lon="6.95945">
        <ele>1014.2</ele>
        <time>2022-06-05T07:22:42Z</time>
      </trkpt>
      <trkpt lat="48.04382" lon="6.95952">
        <ele>1015.6</ele>
        <time>2022-06-05T07:22:49Z</time>
      </trkpt>
      <trkpt lat="48.04384" lon="6.95958">
        <ele>1016.9</ele>
        <time>2022-06-05T07:22:55Z</time>
      </trkpt>
      <trkpt lat="48.04387" lon="6.95963">
        <ele>1018.2</ele>
        <time>2022-06-05T07:23:00Z</time>
      </trkpt>
      <trkpt lat="48.04383" lon="6.95961">
        <ele>1010.9</ele>
        <time>2022-06-05T07:23:11Z</time>
      </trkpt>
      <trkpt lat="48.04379" lon="6.95955">
        <ele>1009.5</ele>
        <time>2022-06-05T07:23:16Z</time>
      </trkpt>
      <trkpt lat="48.04377" lon="6.95947">
        <ele>1012.9</ele>
        <time>2022-06-05T07:23:22Z</time>
      </trkpt>
      <trkpt lat="48.04375" lon="6.95939">
        <ele>1016.1</ele>
        <time>2022-06-05T07:23:29Z</time>
      </trkpt>
      <trkpt lat="48.04369" lon="6.95936">
        <ele>1015.6</ele>
        <time>2022-06-05T07:23:39Z</time>
      </trkpt>
      <trkpt lat="48.04365" lon="6.95933">
        <ele>1014.6</ele>
        <time>2022-06-05T07:23:43Z</time>
      </trkpt>
      <trkpt lat="48.04361" lon="6.95929">
        <ele>1012.3</ele>
        <time>2022-06-05T07:23:49Z</time>
      </trkpt>
      <trkpt lat="48.04357" lon="6.95923">
        <ele>1014</ele>
        <time>2022-06-05T07:23:59Z</time>
      </trkpt>
      <trkpt lat="48.04354" lon="6.95917">
        <ele>1016.7</ele>
        <time>2022-06-05T07:24:06Z</time>
      </trkpt>
      <trkpt lat="48.04349" lon="6.95914">
        <ele>1017</ele>
        <time>2022-06-05T07:24:13Z</time>
      </trkpt>
      <trkpt lat="48.04342" lon="6.95912">
        <ele>1022.5</ele>
        <time>2022-06-05T07:24:20Z</time>
      </trkpt>
      <trkpt lat="48.04337" lon="6.9591">
        <ele>1018.3</ele>
        <time>2022-06-05T07:24:29Z</time>
      </trkpt>
      <trkpt lat="48.04333" lon="6.95907">
        <ele>1020.6</ele>
        <time>2022-06-05T07:24:37Z</time>
      </trkpt>
      <trkpt lat="48.0433" lon="6.95903">
        <ele>1021.8</ele>
        <time>2022-06-05T07:24:43Z</time>
      </trkpt>
      <trkpt lat="48.04324" lon="6.959">
        <ele>1016.9</ele>
        <time>2022-06-05T07:24:49Z</time>
      </trkpt>
      <trkpt lat="48.04319" lon="6.95897">
        <ele>1016.6</ele>
        <time>2022-06-05T07:24:56Z</time>
      </trkpt>
      <trkpt lat="48.04316" lon="6.95892">
        <ele>1016.1</ele>
        <time>2022-06-05T07:25:02Z</time>
      </trkpt>
      <trkpt lat="48.04312" lon="6.95888">
        <ele>1020.3</ele>
        <time>2022-06-05T07:25:08Z</time>
      </trkpt>
      <trkpt lat="48.04308" lon="6.95883">
        <ele>1025.7</ele>
        <time>2022-06-05T07:25:14Z</time>
      </trkpt>
      <trkpt lat="48.04304" lon="6.95882">
        <ele>1027.2</ele>
        <time>2022-06-05T07:25:22Z</time>
      </trkpt>
      <trkpt lat="48.04297" lon="6.9588">
        <ele>1028</ele>
        <time>2022-06-05T07:25:30Z</time>
      </trkpt>
      <trkpt lat="48.04292" lon="6.9588">
        <ele>1029.4</ele>
        <time>2022-06-05T07:25:40Z</time>
      </trkpt>
      <trkpt lat="48.04286" lon="6.95878">
        <ele>1026.1</ele>
        <time>2022-06-05T07:25:45Z</time>
      </trkpt>
      <trkpt lat="48.04281" lon="6.95876">
        <ele>1028.7</ele>
        <time>2022-06-05T07:25:50Z</time>
      </trkpt>
      <trkpt lat="48.04278" lon="6.95872">
        <ele>1028.2</ele>
        <time>2022-06-05T07:25:57Z</time>
      </trkpt>
      <trkpt lat="48.04273" lon="6.95869">
        <ele>1028.7</ele>
        <time>2022-06-05T07:26:03Z</time>
      </trkpt>
      <trkpt lat="48.04269" lon="6.95868">
        <ele>1026.2</ele>
        <time>2022-06-05T07:26:09Z</time>
      </trkpt>
      <trkpt lat="48.04264" lon="6.95869">
        <ele>1023.8</ele>
        <time>2022-06-05T07:26:15Z</time>
      </trkpt>
      <trkpt lat="48.0426" lon="6.95864">
        <ele>1025.9</ele>
        <time>2022-06-05T07:26:22Z</time>
      </trkpt>
      <trkpt lat="48.04255" lon="6.95861">
        <ele>1024.2</ele>
        <time>2022-06-05T07:26:29Z</time>
      </trkpt>
      <trkpt lat="48.04251" lon="6.95857">
        <ele>1023.8</ele>
        <time>2022-06-05T07:26:35Z</time>
      </trkpt>
      <trkpt lat="48.04248" lon="6.95852">
        <ele>1024.1</ele>
        <time>2022-06-05T07:26:41Z</time>
      </trkpt>
      <trkpt lat="48.04245" lon="6.95845">
        <ele>1026.1</ele>
        <time>2022-06-05T07:26:48Z</time>
      </trkpt>
      <trkpt lat="48.04241" lon="6.9584">
        <ele>1026.6</ele>
        <time>2022-06-05T07:26:55Z</time>
      </trkpt>
      <trkpt lat="48.04238" lon="6.95834">
        <ele>1032.5</ele>
        <time>2022-06-05T07:27:04Z</time>
      </trkpt>
      <trkpt lat="48.04235" lon="6.95829">
        <ele>1033.3</ele>
        <time>2022-06-05T07:27:10Z</time>
      </trkpt>
      <trkpt lat="48.0423" lon="6.95826">
        <ele>1035.6</ele>
        <time>2022-06-05T07:27:17Z</time>
      </trkpt>
      <trkpt lat="48.04226" lon="6.95823">
        <ele>1035.7</ele>
        <time>2022-06-05T07:27:23Z</time>
      </trkpt>
      <trkpt lat="48.04222" lon="6.95819">
        <ele>1033.5</ele>
        <time>2022-06-05T07:27:29Z</time>
      </trkpt>
      <trkpt lat="48.04218" lon="6.95816">
        <ele>1029.5</ele>
        <time>2022-06-05T07:27:42Z</time>
      </trkpt>
      <trkpt lat="48.04211" lon="6.95811">
        <ele>1035.3</ele>
        <time>2022-06-05T07:27:47Z</time>
      </trkpt>
      <trkpt lat="48.04207" lon="6.95809">
        <ele>1036.8</ele>
        <time>2022-06-05T07:27:55Z</time>
      </trkpt>
      <trkpt lat="48.04204" lon="6.95804">
        <ele>1042</ele>
        <time>2022-06-05T07:28:03Z</time>
      </trkpt>
      <trkpt lat="48.04201" lon="6.95796">
        <ele>1039.3</ele>
        <time>2022-06-05T07:28:08Z</time>
      </trkpt>
      <trkpt lat="48.04202" lon="6.95788">
        <ele>1038.2</ele>
        <time>2022-06-05T07:28:12Z</time>
      </trkpt>
      <trkpt lat="48.04204" lon="6.95781">
        <ele>1043.4</ele>
        <time>2022-06-05T07:28:16Z</time>
      </trkpt>
      <trkpt lat="48.04209" lon="6.95778">
        <ele>1044.7</ele>
        <time>2022-06-05T07:28:22Z</time>
      </trkpt>
      <trkpt lat="48.04214" lon="6.95774">
        <ele>1045.4</ele>
        <time>2022-06-05T07:28:27Z</time>
      </trkpt>
      <trkpt lat="48.04219" lon="6.9577">
        <ele>1042.5</ele>
        <time>2022-06-05T07:28:36Z</time>
      </trkpt>
      <trkpt lat="48.04222" lon="6.95764">
        <ele>1045.7</ele>
        <time>2022-06-05T07:28:43Z</time>
      </trkpt>
      <trkpt lat="48.04221" lon="6.95756">
        <ele>1044.7</ele>
        <time>2022-06-05T07:28:49Z</time>
      </trkpt>
      <trkpt lat="48.04218" lon="6.95749">
        <ele>1045.9</ele>
        <time>2022-06-05T07:28:54Z</time>
      </trkpt>
      <trkpt lat="48.04214" lon="6.95743">
        <ele>1043.7</ele>
        <time>2022-06-05T07:28:58Z</time>
      </trkpt>
      <trkpt lat="48.04214" lon="6.95736">
        <ele>1042.9</ele>
        <time>2022-06-05T07:29:04Z</time>
      </trkpt>
      <trkpt lat="48.04217" lon="6.95729">
        <ele>1049.8</ele>
        <time>2022-06-05T07:29:12Z</time>
      </trkpt>
      <trkpt lat="48.04221" lon="6.95724">
        <ele>1051.3</ele>
        <time>2022-06-05T07:29:19Z</time>
      </trkpt>
      <trkpt lat="48.04223" lon="6.95716">
        <ele>1051.2</ele>
        <time>2022-06-05T07:29:26Z</time>
      </trkpt>
      <trkpt lat="48.0422" lon="6.95711">
        <ele>1050.6</ele>
        <time>2022-06-05T07:29:34Z</time>
      </trkpt>
      <trkpt lat="48.04216" lon="6.95706">
        <ele>1055.1</ele>
        <time>2022-06-05T07:29:41Z</time>
      </trkpt>
      <trkpt lat="48.0421" lon="6.95703">
        <ele>1058.6</ele>
        <time>2022-06-05T07:29:47Z</time>
      </trkpt>
      <trkpt lat="48.04206" lon="6.95698">
        <ele>1060.4</ele>
        <time>2022-06-05T07:29:51Z</time>
      </trkpt>
      <trkpt lat="48.04177" lon="6.95685">
        <ele>1049.3</ele>
        <time>2022-06-05T07:30:18Z</time>
      </trkpt>
      <trkpt lat="48.04172" lon="6.95687">
        <ele>1046</ele>
        <time>2022-06-05T07:30:27Z</time>
      </trkpt>
      <trkpt lat="48.04169" lon="6.9568">
        <ele>1052.8</ele>
        <time>2022-06-05T07:30:36Z</time>
      </trkpt>
      <trkpt lat="48.0417" lon="6.95672">
        <ele>1050.3</ele>
        <time>2022-06-05T07:30:41Z</time>
      </trkpt>
      <trkpt lat="48.04175" lon="6.9567">
        <ele>1047.1</ele>
        <time>2022-06-05T07:30:49Z</time>
      </trkpt>
      <trkpt lat="48.0418" lon="6.95669">
        <ele>1047.1</ele>
        <time>2022-06-05T07:30:52Z</time>
      </trkpt>
      <trkpt lat="48.04184" lon="6.9567">
        <ele>1046.9</ele>
        <time>2022-06-05T07:30:58Z</time>
      </trkpt>
      <trkpt lat="48.04189" lon="6.95667">
        <ele>1045.9</ele>
        <time>2022-06-05T07:31:23Z</time>
      </trkpt>
      <trkpt lat="48.04185" lon="6.9567">
        <ele>1046.4</ele>
        <time>2022-06-05T07:31:31Z</time>
      </trkpt>
      <trkpt lat="48.04188" lon="6.95665">
        <ele>1012</ele>
        <time>2022-06-05T07:31:48Z</time>
      </trkpt>
      <trkpt lat="48.04191" lon="6.95658">
        <ele>1028.9</ele>
        <time>2022-06-05T07:31:54Z</time>
      </trkpt>
      <trkpt lat="48.04194" lon="6.95652">
        <ele>1031.6</ele>
        <time>2022-06-05T07:32:00Z</time>
      </trkpt>
      <trkpt lat="48.04197" lon="6.95646">
        <ele>1030.9</ele>
        <time>2022-06-05T07:32:06Z</time>
      </trkpt>
      <trkpt lat="48.04199" lon="6.95639">
        <ele>1037.3</ele>
        <time>2022-06-05T07:32:13Z</time>
      </trkpt>
      <trkpt lat="48.04197" lon="6.95633">
        <ele>1036.6</ele>
        <time>2022-06-05T07:32:18Z</time>
      </trkpt>
      <trkpt lat="48.04192" lon="6.95626">
        <ele>1035.2</ele>
        <time>2022-06-05T07:32:23Z</time>
      </trkpt>
      <trkpt lat="48.04196" lon="6.95623">
        <ele>1040.7</ele>
        <time>2022-06-05T07:32:29Z</time>
      </trkpt>
      <trkpt lat="48.04201" lon="6.95622">
        <ele>1043.6</ele>
        <time>2022-06-05T07:32:34Z</time>
      </trkpt>
      <trkpt lat="48.04206" lon="6.95621">
        <ele>1040.4</ele>
        <time>2022-06-05T07:32:39Z</time>
      </trkpt>
      <trkpt lat="48.04211" lon="6.95619">
        <ele>1048</ele>
        <time>2022-06-05T07:32:46Z</time>
      </trkpt>
      <trkpt lat="48.04212" lon="6.95612">
        <ele>1056.2</ele>
        <time>2022-06-05T07:32:55Z</time>
      </trkpt>
      <trkpt lat="48.04217" lon="6.9561">
        <ele>1058</ele>
        <time>2022-06-05T07:33:11Z</time>
      </trkpt>
      <trkpt lat="48.04219" lon="6.95595">
        <ele>1054.2</ele>
        <time>2022-06-05T07:33:19Z</time>
      </trkpt>
      <trkpt lat="48.04224" lon="6.956">
        <ele>1060.6</ele>
        <time>2022-06-05T07:33:32Z</time>
      </trkpt>
      <trkpt lat="48.04227" lon="6.95605">
        <ele>1065.3</ele>
        <time>2022-06-05T07:33:37Z</time>
      </trkpt>
      <trkpt lat="48.04232" lon="6.95605">
        <ele>1058.9</ele>
        <time>2022-06-05T07:33:48Z</time>
      </trkpt>
      <trkpt lat="48.04234" lon="6.95597">
        <ele>1051.8</ele>
        <time>2022-06-05T07:33:54Z</time>
      </trkpt>
      <trkpt lat="48.04236" lon="6.95591">
        <ele>1043.4</ele>
        <time>2022-06-05T07:34:04Z</time>
      </trkpt>
      <trkpt lat="48.04235" lon="6.95584">
        <ele>1035.6</ele>
        <time>2022-06-05T07:34:13Z</time>
      </trkpt>
      <trkpt lat="48.04231" lon="6.9558">
        <ele>1035.4</ele>
        <time>2022-06-05T07:34:25Z</time>
      </trkpt>
      <trkpt lat="48.04235" lon="6.95577">
        <ele>1032.9</ele>
        <time>2022-06-05T07:34:36Z</time>
      </trkpt>
      <trkpt lat="48.04239" lon="6.95573">
        <ele>1038.4</ele>
        <time>2022-06-05T07:34:45Z</time>
      </trkpt>
      <trkpt lat="48.04243" lon="6.95571">
        <ele>1032.8</ele>
        <time>2022-06-05T07:34:56Z</time>
      </trkpt>
      <trkpt lat="48.04248" lon="6.95571">
        <ele>1032.1</ele>
        <time>2022-06-05T07:35:06Z</time>
      </trkpt>
      <trkpt lat="48.04252" lon="6.95577">
        <ele>1036.6</ele>
        <time>2022-06-05T07:35:11Z</time>
      </trkpt>
      <trkpt lat="48.04255" lon="6.95583">
        <ele>1035.7</ele>
        <time>2022-06-05T07:35:14Z</time>
      </trkpt>
      <trkpt lat="48.04259" lon="6.95584">
        <ele>1035.2</ele>
        <time>2022-06-05T07:35:23Z</time>
      </trkpt>
      <trkpt lat="48.04263" lon="6.95579">
        <ele>1032.7</ele>
        <time>2022-06-05T07:35:28Z</time>
      </trkpt>
      <trkpt lat="48.04268" lon="6.95577">
        <ele>1036.7</ele>
        <time>2022-06-05T07:35:35Z</time>
      </trkpt>
      <trkpt lat="48.0427" lon="6.95585">
        <ele>1036.2</ele>
        <time>2022-06-05T07:35:43Z</time>
      </trkpt>
      <trkpt lat="48.04274" lon="6.95582">
        <ele>1031.7</ele>
        <time>2022-06-05T07:36:05Z</time>
      </trkpt>
      <trkpt lat="48.04278" lon="6.95576">
        <ele>1029.7</ele>
        <time>2022-06-05T07:36:10Z</time>
      </trkpt>
      <trkpt lat="48.0428" lon="6.9557">
        <ele>1027.6</ele>
        <time>2022-06-05T07:36:17Z</time>
      </trkpt>
      <trkpt lat="48.04283" lon="6.95562">
        <ele>1025.9</ele>
        <time>2022-06-05T07:36:20Z</time>
      </trkpt>
      <trkpt lat="48.04284" lon="6.95554">
        <ele>1025</ele>
        <time>2022-06-05T07:36:25Z</time>
      </trkpt>
      <trkpt lat="48.04286" lon="6.95547">
        <ele>1014.1</ele>
        <time>2022-06-05T07:36:37Z</time>
      </trkpt>
      <trkpt lat="48.04291" lon="6.95547">
        <ele>1012.2</ele>
        <time>2022-06-05T07:36:44Z</time>
      </trkpt>
      <trkpt lat="48.04296" lon="6.95548">
        <ele>1009.6</ele>
        <time>2022-06-05T07:36:51Z</time>
      </trkpt>
      <trkpt lat="48.043" lon="6.95553">
        <ele>1007.9</ele>
        <time>2022-06-05T07:36:57Z</time>
      </trkpt>
      <trkpt lat="48.04304" lon="6.95559">
        <ele>1008.2</ele>
        <time>2022-06-05T07:37:03Z</time>
      </trkpt>
      <trkpt lat="48.04308" lon="6.95563">
        <ele>1010.9</ele>
        <time>2022-06-05T07:37:08Z</time>
      </trkpt>
      <trkpt lat="48.04311" lon="6.95568">
        <ele>1013.6</ele>
        <time>2022-06-05T07:37:18Z</time>
      </trkpt>
      <trkpt lat="48.04316" lon="6.95572">
        <ele>1018.6</ele>
        <time>2022-06-05T07:37:29Z</time>
      </trkpt>
      <trkpt lat="48.0432" lon="6.95577">
        <ele>1021.4</ele>
        <time>2022-06-05T07:37:36Z</time>
      </trkpt>
      <trkpt lat="48.04326" lon="6.95592">
        <ele>1026.9</ele>
        <time>2022-06-05T07:37:45Z</time>
      </trkpt>
      <trkpt lat="48.0433" lon="6.95596">
        <ele>1029.3</ele>
        <time>2022-06-05T07:37:57Z</time>
      </trkpt>
      <trkpt lat="48.04334" lon="6.95594">
        <ele>1027.6</ele>
        <time>2022-06-05T07:38:16Z</time>
      </trkpt>
      <trkpt lat="48.04336" lon="6.95587">
        <ele>1026.2</ele>
        <time>2022-06-05T07:38:22Z</time>
      </trkpt>
      <trkpt lat="48.0434" lon="6.95582">
        <ele>1025.2</ele>
        <time>2022-06-05T07:38:28Z</time>
      </trkpt>
      <trkpt lat="48.04343" lon="6.95575">
        <ele>1023.1</ele>
        <time>2022-06-05T07:38:34Z</time>
      </trkpt>
      <trkpt lat="48.04346" lon="6.9557">
        <ele>1022.7</ele>
        <time>2022-06-05T07:38:42Z</time>
      </trkpt>
      <trkpt lat="48.04351" lon="6.95566">
        <ele>1023.3</ele>
        <time>2022-06-05T07:38:49Z</time>
      </trkpt>
      <trkpt lat="48.04356" lon="6.95565">
        <ele>1018.2</ele>
        <time>2022-06-05T07:38:56Z</time>
      </trkpt>
      <trkpt lat="48.0436" lon="6.95563">
        <ele>1015.8</ele>
        <time>2022-06-05T07:39:09Z</time>
      </trkpt>
      <trkpt lat="48.04366" lon="6.95564">
        <ele>1018.7</ele>
        <time>2022-06-05T07:39:15Z</time>
      </trkpt>
      <trkpt lat="48.0437" lon="6.95566">
        <ele>1017.7</ele>
        <time>2022-06-05T07:39:20Z</time>
      </trkpt>
      <trkpt lat="48.04375" lon="6.95569">
        <ele>1019.7</ele>
        <time>2022-06-05T07:39:26Z</time>
      </trkpt>
      <trkpt lat="48.04379" lon="6.95573">
        <ele>1019.6</ele>
        <time>2022-06-05T07:39:31Z</time>
      </trkpt>
      <trkpt lat="48.04383" lon="6.95578">
        <ele>1022.8</ele>
        <time>2022-06-05T07:39:36Z</time>
      </trkpt>
      <trkpt lat="48.04388" lon="6.95577">
        <ele>1020</ele>
        <time>2022-06-05T07:39:42Z</time>
      </trkpt>
      <trkpt lat="48.04392" lon="6.95576">
        <ele>1020</ele>
        <time>2022-06-05T07:39:47Z</time>
      </trkpt>
      <trkpt lat="48.04398" lon="6.95573">
        <ele>1021.6</ele>
        <time>2022-06-05T07:39:51Z</time>
      </trkpt>
      <trkpt lat="48.04403" lon="6.95574">
        <ele>1024.9</ele>
        <time>2022-06-05T07:39:56Z</time>
      </trkpt>
      <trkpt lat="48.04408" lon="6.95577">
        <ele>1025.9</ele>
        <time>2022-06-05T07:40:01Z</time>
      </trkpt>
      <trkpt lat="48.04413" lon="6.95578">
        <ele>1027.7</ele>
        <time>2022-06-05T07:40:06Z</time>
      </trkpt>
      <trkpt lat="48.04418" lon="6.95581">
        <ele>1026.4</ele>
        <time>2022-06-05T07:40:11Z</time>
      </trkpt>
      <trkpt lat="48.04423" lon="6.95581">
        <ele>1025.7</ele>
        <time>2022-06-05T07:40:17Z</time>
      </trkpt>
      <trkpt lat="48.04428" lon="6.95578">
        <ele>1024.7</ele>
        <time>2022-06-05T07:40:22Z</time>
      </trkpt>
      <trkpt lat="48.04433" lon="6.95578">
        <ele>1030.1</ele>
        <time>2022-06-05T07:40:29Z</time>
      </trkpt>
      <trkpt lat="48.04438" lon="6.95576">
        <ele>1031</ele>
        <time>2022-06-05T07:40:35Z</time>
      </trkpt>
      <trkpt lat="48.04443" lon="6.95578">
        <ele>1029.5</ele>
        <time>2022-06-05T07:40:42Z</time>
      </trkpt>
      <trkpt lat="48.04445" lon="6.95572">
        <ele>1026.4</ele>
        <time>2022-06-05T07:40:49Z</time>
      </trkpt>
      <trkpt lat="48.04448" lon="6.95566">
        <ele>1028.6</ele>
        <time>2022-06-05T07:40:55Z</time>
      </trkpt>
      <trkpt lat="48.04453" lon="6.95564">
        <ele>1028</ele>
        <time>2022-06-05T07:41:00Z</time>
      </trkpt>
      <trkpt lat="48.04458" lon="6.95564">
        <ele>1028.1</ele>
        <time>2022-06-05T07:41:04Z</time>
      </trkpt>
      <trkpt lat="48.04463" lon="6.95561">
        <ele>1024.4</ele>
        <time>2022-06-05T07:41:10Z</time>
      </trkpt>
      <trkpt lat="48.04466" lon="6.95555">
        <ele>1027</ele>
        <time>2022-06-05T07:41:14Z</time>
      </trkpt>
      <trkpt lat="48.04471" lon="6.95553">
        <ele>1026.7</ele>
        <time>2022-06-05T07:41:22Z</time>
      </trkpt>
      <trkpt lat="48.04476" lon="6.95555">
        <ele>1024.2</ele>
        <time>2022-06-05T07:41:30Z</time>
      </trkpt>
      <trkpt lat="48.04481" lon="6.95553">
        <ele>1022.8</ele>
        <time>2022-06-05T07:41:36Z</time>
      </trkpt>
      <trkpt lat="48.04485" lon="6.95549">
        <ele>1019.6</ele>
        <time>2022-06-05T07:41:43Z</time>
      </trkpt>
      <trkpt lat="48.04489" lon="6.95549">
        <ele>1018.9</ele>
        <time>2022-06-05T07:41:54Z</time>
      </trkpt>
      <trkpt lat="48.04493" lon="6.95545">
        <ele>1017.1</ele>
        <time>2022-06-05T07:42:29Z</time>
      </trkpt>
      <trkpt lat="48.04491" lon="6.95538">
        <ele>1014</ele>
        <time>2022-06-05T07:42:40Z</time>
      </trkpt>
      <trkpt lat="48.04496" lon="6.95533">
        <ele>1013.9</ele>
        <time>2022-06-05T07:42:45Z</time>
      </trkpt>
      <trkpt lat="48.04501" lon="6.95529">
        <ele>1016.4</ele>
        <time>2022-06-05T07:42:53Z</time>
      </trkpt>
      <trkpt lat="48.04501" lon="6.95522">
        <ele>1021</ele>
        <time>2022-06-05T07:43:08Z</time>
      </trkpt>
      <trkpt lat="48.045" lon="6.95515">
        <ele>1020.5</ele>
        <time>2022-06-05T07:43:17Z</time>
      </trkpt>
      <trkpt lat="48.04498" lon="6.95522">
        <ele>1017.2</ele>
        <time>2022-06-05T07:43:27Z</time>
      </trkpt>
      <trkpt lat="48.04497" lon="6.9553">
        <ele>1014.8</ele>
        <time>2022-06-05T07:43:32Z</time>
      </trkpt>
      <trkpt lat="48.04499" lon="6.95524">
        <ele>1015.7</ele>
        <time>2022-06-05T07:43:53Z</time>
      </trkpt>
      <trkpt lat="48.045" lon="6.95517">
        <ele>1018.7</ele>
        <time>2022-06-05T07:44:00Z</time>
      </trkpt>
      <trkpt lat="48.04504" lon="6.95512">
        <ele>1019.9</ele>
        <time>2022-06-05T07:44:08Z</time>
      </trkpt>
      <trkpt lat="48.04508" lon="6.9551">
        <ele>1013.9</ele>
        <time>2022-06-05T07:44:16Z</time>
      </trkpt>
      <trkpt lat="48.04507" lon="6.95503">
        <ele>1022.6</ele>
        <time>2022-06-05T07:44:30Z</time>
      </trkpt>
      <trkpt lat="48.04507" lon="6.95495">
        <ele>1020.5</ele>
        <time>2022-06-05T07:44:42Z</time>
      </trkpt>
      <trkpt lat="48.04509" lon="6.95489">
        <ele>1026.6</ele>
        <time>2022-06-05T07:44:46Z</time>
      </trkpt>
      <trkpt lat="48.04507" lon="6.9548">
        <ele>1028.6</ele>
        <time>2022-06-05T07:44:50Z</time>
      </trkpt>
      <trkpt lat="48.04502" lon="6.95477">
        <ele>1026</ele>
        <time>2022-06-05T07:44:54Z</time>
      </trkpt>
      <trkpt lat="48.04497" lon="6.9548">
        <ele>1025.5</ele>
        <time>2022-06-05T07:44:58Z</time>
      </trkpt>
      <trkpt lat="48.04493" lon="6.95474">
        <ele>1021.7</ele>
        <time>2022-06-05T07:45:04Z</time>
      </trkpt>
      <trkpt lat="48.04494" lon="6.95467">
        <ele>1019.4</ele>
        <time>2022-06-05T07:45:19Z</time>
      </trkpt>
      <trkpt lat="48.04498" lon="6.95464">
        <ele>1019.8</ele>
        <time>2022-06-05T07:45:22Z</time>
      </trkpt>
      <trkpt lat="48.04504" lon="6.95461">
        <ele>1019.7</ele>
        <time>2022-06-05T07:45:25Z</time>
      </trkpt>
      <trkpt lat="48.04507" lon="6.95453">
        <ele>1013.8</ele>
        <time>2022-06-05T07:45:37Z</time>
      </trkpt>
      <trkpt lat="48.04511" lon="6.95445">
        <ele>1015.6</ele>
        <time>2022-06-05T07:45:41Z</time>
      </trkpt>
      <trkpt lat="48.04512" lon="6.95437">
        <ele>1018.4</ele>
        <time>2022-06-05T07:45:46Z</time>
      </trkpt>
      <trkpt lat="48.04508" lon="6.95442">
        <ele>1013.4</ele>
        <time>2022-06-05T07:45:56Z</time>
      </trkpt>
      <trkpt lat="48.04503" lon="6.95443">
        <ele>1002.9</ele>
        <time>2022-06-05T07:46:07Z</time>
      </trkpt>
      <trkpt lat="48.04496" lon="6.95444">
        <ele>1003.7</ele>
        <time>2022-06-05T07:46:14Z</time>
      </trkpt>
      <trkpt lat="48.04499" lon="6.95437">
        <ele>1005.9</ele>
        <time>2022-06-05T07:46:26Z</time>
      </trkpt>
      <trkpt lat="48.045" lon="6.9543">
        <ele>1010</ele>
        <time>2022-06-05T07:46:33Z</time>
      </trkpt>
      <trkpt lat="48.04502" lon="6.95422">
        <ele>1011.3</ele>
        <time>2022-06-05T07:46:37Z</time>
      </trkpt>
      <trkpt lat="48.045" lon="6.95415">
        <ele>1011.4</ele>
        <time>2022-06-05T07:46:41Z</time>
      </trkpt>
      <trkpt lat="48.04496" lon="6.95408">
        <ele>1013.3</ele>
        <time>2022-06-05T07:46:46Z</time>
      </trkpt>
      <trkpt lat="48.04493" lon="6.95401">
        <ele>1012.9</ele>
        <time>2022-06-05T07:46:52Z</time>
      </trkpt>
      <trkpt lat="48.04494" lon="6.95393">
        <ele>1012.4</ele>
        <time>2022-06-05T07:46:57Z</time>
      </trkpt>
      <trkpt lat="48.04499" lon="6.95388">
        <ele>1016.5</ele>
        <time>2022-06-05T07:47:00Z</time>
      </trkpt>
      <trkpt lat="48.04504" lon="6.95384">
        <ele>1018.3</ele>
        <time>2022-06-05T07:47:04Z</time>
      </trkpt>
      <trkpt lat="48.04509" lon="6.95382">
        <ele>1020.6</ele>
        <time>2022-06-05T07:47:07Z</time>
      </trkpt>
      <trkpt lat="48.04514" lon="6.9538">
        <ele>1024.1</ele>
        <time>2022-06-05T07:47:11Z</time>
      </trkpt>
      <trkpt lat="48.04519" lon="6.9538">
        <ele>1024.7</ele>
        <time>2022-06-05T07:47:17Z</time>
      </trkpt>
      <trkpt lat="48.04522" lon="6.95375">
        <ele>1022.5</ele>
        <time>2022-06-05T07:47:24Z</time>
      </trkpt>
      <trkpt lat="48.0452" lon="6.95369">
        <ele>1025.2</ele>
        <time>2022-06-05T07:47:31Z</time>
      </trkpt>
      <trkpt lat="48.04519" lon="6.95361">
        <ele>1016</ele>
        <time>2022-06-05T07:47:39Z</time>
      </trkpt>
      <trkpt lat="48.04519" lon="6.95354">
        <ele>1016.9</ele>
        <time>2022-06-05T07:47:45Z</time>
      </trkpt>
      <trkpt lat="48.04525" lon="6.95352">
        <ele>1019.2</ele>
        <time>2022-06-05T07:47:52Z</time>
      </trkpt>
      <trkpt lat="48.04528" lon="6.95347">
        <ele>1015.6</ele>
        <time>2022-06-05T07:48:00Z</time>
      </trkpt>
      <trkpt lat="48.0453" lon="6.95338">
        <ele>1017.6</ele>
        <time>2022-06-05T07:48:07Z</time>
      </trkpt>
      <trkpt lat="48.04533" lon="6.95333">
        <ele>984</ele>
        <time>2022-06-05T07:48:12Z</time>
      </trkpt>
      <trkpt lat="48.04531" lon="6.95325">
        <ele>1008</ele>
        <time>2022-06-05T07:48:22Z</time>
      </trkpt>
      <trkpt lat="48.04533" lon="6.95319">
        <ele>1004.3</ele>
        <time>2022-06-05T07:48:31Z</time>
      </trkpt>
      <trkpt lat="48.04534" lon="6.95311">
        <ele>1002.5</ele>
        <time>2022-06-05T07:48:37Z</time>
      </trkpt>
      <trkpt lat="48.04537" lon="6.95305">
        <ele>1000.5</ele>
        <time>2022-06-05T07:48:42Z</time>
      </trkpt>
      <trkpt lat="48.04541" lon="6.95301">
        <ele>1001.8</ele>
        <time>2022-06-05T07:48:47Z</time>
      </trkpt>
      <trkpt lat="48.04545" lon="6.95302">
        <ele>1005</ele>
        <time>2022-06-05T07:48:53Z</time>
      </trkpt>
      <trkpt lat="48.0455" lon="6.95302">
        <ele>1007.2</ele>
        <time>2022-06-05T07:48:59Z</time>
      </trkpt>
      <trkpt lat="48.04554" lon="6.95299">
        <ele>1011.3</ele>
        <time>2022-06-05T07:49:04Z</time>
      </trkpt>
      <trkpt lat="48.04555" lon="6.95292">
        <ele>1009.7</ele>
        <time>2022-06-05T07:49:24Z</time>
      </trkpt>
      <trkpt lat="48.04555" lon="6.95285">
        <ele>1005.4</ele>
        <time>2022-06-05T07:49:33Z</time>
      </trkpt>
      <trkpt lat="48.04559" lon="6.9528">
        <ele>1005.6</ele>
        <time>2022-06-05T07:49:44Z</time>
      </trkpt>
      <trkpt lat="48.04563" lon="6.95272">
        <ele>1006.2</ele>
        <time>2022-06-05T07:49:47Z</time>
      </trkpt>
      <trkpt lat="48.04566" lon="6.95264">
        <ele>1004.3</ele>
        <time>2022-06-05T07:49:52Z</time>
      </trkpt>
      <trkpt lat="48.04569" lon="6.95258">
        <ele>1002.3</ele>
        <time>2022-06-05T07:49:58Z</time>
      </trkpt>
      <trkpt lat="48.04572" lon="6.9525">
        <ele>998.8</ele>
        <time>2022-06-05T07:50:06Z</time>
      </trkpt>
      <trkpt lat="48.04575" lon="6.95243">
        <ele>1004.2</ele>
        <time>2022-06-05T07:50:10Z</time>
      </trkpt>
      <trkpt lat="48.04578" lon="6.95237">
        <ele>1005.9</ele>
        <time>2022-06-05T07:50:13Z</time>
      </trkpt>
      <trkpt lat="48.04582" lon="6.95233">
        <ele>1005.1</ele>
        <time>2022-06-05T07:50:17Z</time>
      </trkpt>
      <trkpt lat="48.04585" lon="6.95227">
        <ele>1007.9</ele>
        <time>2022-06-05T07:50:22Z</time>
      </trkpt>
      <trkpt lat="48.04584" lon="6.9522">
        <ele>1001.8</ele>
        <time>2022-06-05T07:50:29Z</time>
      </trkpt>
      <trkpt lat="48.0458" lon="6.95215">
        <ele>998.5</ele>
        <time>2022-06-05T07:50:34Z</time>
      </trkpt>
      <trkpt lat="48.04577" lon="6.95209">
        <ele>994.8</ele>
        <time>2022-06-05T07:50:40Z</time>
      </trkpt>
      <trkpt lat="48.0458" lon="6.95201">
        <ele>994.8</ele>
        <time>2022-06-05T07:50:48Z</time>
      </trkpt>
      <trkpt lat="48.04577" lon="6.95196">
        <ele>993.2</ele>
        <time>2022-06-05T07:50:58Z</time>
      </trkpt>
      <trkpt lat="48.04579" lon="6.9519">
        <ele>992.4</ele>
        <time>2022-06-05T07:51:04Z</time>
      </trkpt>
      <trkpt lat="48.04582" lon="6.95184">
        <ele>990.3</ele>
        <time>2022-06-05T07:51:11Z</time>
      </trkpt>
      <trkpt lat="48.04584" lon="6.95178">
        <ele>991.5</ele>
        <time>2022-06-05T07:51:17Z</time>
      </trkpt>
      <trkpt lat="48.04587" lon="6.95173">
        <ele>992.8</ele>
        <time>2022-06-05T07:51:21Z</time>
      </trkpt>
      <trkpt lat="48.0459" lon="6.95167">
        <ele>997.3</ele>
        <time>2022-06-05T07:51:26Z</time>
      </trkpt>
      <trkpt lat="48.04593" lon="6.95161">
        <ele>999.6</ele>
        <time>2022-06-05T07:51:31Z</time>
      </trkpt>
      <trkpt lat="48.04597" lon="6.95154">
        <ele>1007.3</ele>
        <time>2022-06-05T07:51:38Z</time>
      </trkpt>
      <trkpt lat="48.046" lon="6.95144">
        <ele>1016.4</ele>
        <time>2022-06-05T07:51:51Z</time>
      </trkpt>
      <trkpt lat="48.046" lon="6.95138">
        <ele>1016.3</ele>
        <time>2022-06-05T07:52:02Z</time>
      </trkpt>
      <trkpt lat="48.04596" lon="6.95131">
        <ele>1012.4</ele>
        <time>2022-06-05T07:52:12Z</time>
      </trkpt>
      <trkpt lat="48.04592" lon="6.95128">
        <ele>1010</ele>
        <time>2022-06-05T07:52:18Z</time>
      </trkpt>
      <trkpt lat="48.04586" lon="6.95124">
        <ele>1007.5</ele>
        <time>2022-06-05T07:52:21Z</time>
      </trkpt>
      <trkpt lat="48.04583" lon="6.95119">
        <ele>1004.5</ele>
        <time>2022-06-05T07:52:26Z</time>
      </trkpt>
      <trkpt lat="48.04579" lon="6.95113">
        <ele>1007.5</ele>
        <time>2022-06-05T07:52:33Z</time>
      </trkpt>
      <trkpt lat="48.04575" lon="6.9511">
        <ele>1007</ele>
        <time>2022-06-05T07:52:38Z</time>
      </trkpt>
      <trkpt lat="48.04571" lon="6.95106">
        <ele>1011.4</ele>
        <time>2022-06-05T07:52:45Z</time>
      </trkpt>
      <trkpt lat="48.04566" lon="6.95107">
        <ele>1016.1</ele>
        <time>2022-06-05T07:52:53Z</time>
      </trkpt>
      <trkpt lat="48.04568" lon="6.95101">
        <ele>1014.1</ele>
        <time>2022-06-05T07:52:59Z</time>
      </trkpt>
      <trkpt lat="48.04572" lon="6.95096">
        <ele>1012</ele>
        <time>2022-06-05T07:53:04Z</time>
      </trkpt>
      <trkpt lat="48.04577" lon="6.9509">
        <ele>1014.9</ele>
        <time>2022-06-05T07:53:09Z</time>
      </trkpt>
      <trkpt lat="48.04581" lon="6.95084">
        <ele>1012.5</ele>
        <time>2022-06-05T07:53:13Z</time>
      </trkpt>
      <trkpt lat="48.04591" lon="6.95078">
        <ele>1016.2</ele>
        <time>2022-06-05T07:53:18Z</time>
      </trkpt>
      <trkpt lat="48.04596" lon="6.95076">
        <ele>1010.6</ele>
        <time>2022-06-05T07:53:23Z</time>
      </trkpt>
      <trkpt lat="48.04593" lon="6.95071">
        <ele>1009</ele>
        <time>2022-06-05T07:53:33Z</time>
      </trkpt>
      <trkpt lat="48.04593" lon="6.95063">
        <ele>1009.8</ele>
        <time>2022-06-05T07:53:40Z</time>
      </trkpt>
      <trkpt lat="48.04592" lon="6.95056">
        <ele>1016.9</ele>
        <time>2022-06-05T07:53:45Z</time>
      </trkpt>
      <trkpt lat="48.04589" lon="6.9505">
        <ele>1018.3</ele>
        <time>2022-06-05T07:53:51Z</time>
      </trkpt>
      <trkpt lat="48.04584" lon="6.9505">
        <ele>1016.3</ele>
        <time>2022-06-05T07:53:57Z</time>
      </trkpt>
      <trkpt lat="48.04586" lon="6.95043">
        <ele>1015.1</ele>
        <time>2022-06-05T07:54:05Z</time>
      </trkpt>
      <trkpt lat="48.04591" lon="6.95045">
        <ele>1007.5</ele>
        <time>2022-06-05T07:54:09Z</time>
      </trkpt>
      <trkpt lat="48.0459" lon="6.95038">
        <ele>1005.7</ele>
        <time>2022-06-05T07:54:17Z</time>
      </trkpt>
      <trkpt lat="48.04593" lon="6.95032">
        <ele>1009.4</ele>
        <time>2022-06-05T07:54:24Z</time>
      </trkpt>
      <trkpt lat="48.04595" lon="6.95025">
        <ele>1007.3</ele>
        <time>2022-06-05T07:54:31Z</time>
      </trkpt>
      <trkpt lat="48.04596" lon="6.95018">
        <ele>1007.2</ele>
        <time>2022-06-05T07:54:45Z</time>
      </trkpt>
      <trkpt lat="48.04597" lon="6.9501">
        <ele>1006.6</ele>
        <time>2022-06-05T07:54:51Z</time>
      </trkpt>
      <trkpt lat="48.04593" lon="6.95006">
        <ele>1013.7</ele>
        <time>2022-06-05T07:55:01Z</time>
      </trkpt>
      <trkpt lat="48.04587" lon="6.95003">
        <ele>1014.7</ele>
        <time>2022-06-05T07:55:05Z</time>
      </trkpt>
      <trkpt lat="48.04586" lon="6.94996">
        <ele>1010.6</ele>
        <time>2022-06-05T07:55:11Z</time>
      </trkpt>
      <trkpt lat="48.0459" lon="6.94992">
        <ele>1012.7</ele>
        <time>2022-06-05T07:55:17Z</time>
      </trkpt>
      <trkpt lat="48.04596" lon="6.94988">
        <ele>1013.8</ele>
        <time>2022-06-05T07:55:21Z</time>
      </trkpt>
      <trkpt lat="48.04599" lon="6.94982">
        <ele>1012.7</ele>
        <time>2022-06-05T07:55:26Z</time>
      </trkpt>
      <trkpt lat="48.04603" lon="6.94978">
        <ele>1012.2</ele>
        <time>2022-06-05T07:55:30Z</time>
      </trkpt>
      <trkpt lat="48.04607" lon="6.94973">
        <ele>1012.3</ele>
        <time>2022-06-05T07:55:37Z</time>
      </trkpt>
      <trkpt lat="48.04606" lon="6.94965">
        <ele>1012.8</ele>
        <time>2022-06-05T07:55:43Z</time>
      </trkpt>
      <trkpt lat="48.04608" lon="6.94957">
        <ele>1012.4</ele>
        <time>2022-06-05T07:55:50Z</time>
      </trkpt>
      <trkpt lat="48.0461" lon="6.9495">
        <ele>1015.3</ele>
        <time>2022-06-05T07:55:57Z</time>
      </trkpt>
      <trkpt lat="48.04608" lon="6.94944">
        <ele>1014.9</ele>
        <time>2022-06-05T07:56:08Z</time>
      </trkpt>
      <trkpt lat="48.04608" lon="6.94937">
        <ele>1023.6</ele>
        <time>2022-06-05T07:56:30Z</time>
      </trkpt>
      <trkpt lat="48.04611" lon="6.94928">
        <ele>1027.7</ele>
        <time>2022-06-05T07:56:36Z</time>
      </trkpt>
      <trkpt lat="48.04616" lon="6.94921">
        <ele>1028.4</ele>
        <time>2022-06-05T07:56:46Z</time>
      </trkpt>
      <trkpt lat="48.04613" lon="6.94916">
        <ele>1030.4</ele>
        <time>2022-06-05T07:56:53Z</time>
      </trkpt>
      <trkpt lat="48.04608" lon="6.94912">
        <ele>1030.8</ele>
        <time>2022-06-05T07:57:04Z</time>
      </trkpt>
      <trkpt lat="48.04603" lon="6.94912">
        <ele>1031.2</ele>
        <time>2022-06-05T07:57:10Z</time>
      </trkpt>
      <trkpt lat="48.04605" lon="6.94904">
        <ele>1029.6</ele>
        <time>2022-06-05T07:57:46Z</time>
      </trkpt>
      <trkpt lat="48.0461" lon="6.94899">
        <ele>1031.7</ele>
        <time>2022-06-05T07:57:53Z</time>
      </trkpt>
      <trkpt lat="48.04613" lon="6.94894">
        <ele>1028.4</ele>
        <time>2022-06-05T07:57:58Z</time>
      </trkpt>
      <trkpt lat="48.04614" lon="6.94886">
        <ele>1025.6</ele>
        <time>2022-06-05T07:58:06Z</time>
      </trkpt>
      <trkpt lat="48.04615" lon="6.9488">
        <ele>1024</ele>
        <time>2022-06-05T07:58:13Z</time>
      </trkpt>
      <trkpt lat="48.04614" lon="6.94873">
        <ele>1024.4</ele>
        <time>2022-06-05T07:58:25Z</time>
      </trkpt>
      <trkpt lat="48.0461" lon="6.94876">
        <ele>1025</ele>
        <time>2022-06-05T07:58:28Z</time>
      </trkpt>
      <trkpt lat="48.04607" lon="6.94881">
        <ele>1026.1</ele>
        <time>2022-06-05T07:58:31Z</time>
      </trkpt>
      <trkpt lat="48.04602" lon="6.94883">
        <ele>1029.1</ele>
        <time>2022-06-05T07:58:35Z</time>
      </trkpt>
      <trkpt lat="48.046" lon="6.94877">
        <ele>1024</ele>
        <time>2022-06-05T07:58:44Z</time>
      </trkpt>
      <trkpt lat="48.04604" lon="6.94872">
        <ele>1028.4</ele>
        <time>2022-06-05T07:58:53Z</time>
      </trkpt>
      <trkpt lat="48.04606" lon="6.94865">
        <ele>1026.3</ele>
        <time>2022-06-05T07:59:00Z</time>
      </trkpt>
      <trkpt lat="48.0461" lon="6.94861">
        <ele>1023.6</ele>
        <time>2022-06-05T07:59:09Z</time>
      </trkpt>
      <trkpt lat="48.04613" lon="6.94855">
        <ele>1019.6</ele>
        <time>2022-06-05T07:59:15Z</time>
      </trkpt>
      <trkpt lat="48.04617" lon="6.94851">
        <ele>1031.7</ele>
        <time>2022-06-05T07:59:25Z</time>
      </trkpt>
      <trkpt lat="48.04621" lon="6.94846">
        <ele>1036.5</ele>
        <time>2022-06-05T07:59:32Z</time>
      </trkpt>
      <trkpt lat="48.04625" lon="6.94841">
        <ele>1037.2</ele>
        <time>2022-06-05T07:59:48Z</time>
      </trkpt>
      <trkpt lat="48.04629" lon="6.94836">
        <ele>1036.9</ele>
        <time>2022-06-05T07:59:53Z</time>
      </trkpt>
      <trkpt lat="48.04632" lon="6.94831">
        <ele>1037.4</ele>
        <time>2022-06-05T07:59:58Z</time>
      </trkpt>
      <trkpt lat="48.04636" lon="6.94827">
        <ele>1036.9</ele>
        <time>2022-06-05T08:00:06Z</time>
      </trkpt>
      <trkpt lat="48.04638" lon="6.94821">
        <ele>1040.2</ele>
        <time>2022-06-05T08:00:36Z</time>
      </trkpt>
      <trkpt lat="48.0464" lon="6.94814">
        <ele>1038.3</ele>
        <time>2022-06-05T08:00:48Z</time>
      </trkpt>
      <trkpt lat="48.04645" lon="6.94811">
        <ele>1033.1</ele>
        <time>2022-06-05T08:00:55Z</time>
      </trkpt>
      <trkpt lat="48.04646" lon="6.94804">
        <ele>1034.1</ele>
        <time>2022-06-05T08:01:02Z</time>
      </trkpt>
      <trkpt lat="48.04651" lon="6.94806">
        <ele>1029.8</ele>
        <time>2022-06-05T08:01:09Z</time>
      </trkpt>
      <trkpt lat="48.04652" lon="6.94812">
        <ele>1026.1</ele>
        <time>2022-06-05T08:01:14Z</time>
      </trkpt>
      <trkpt lat="48.04654" lon="6.94821">
        <ele>1027.1</ele>
        <time>2022-06-05T08:01:21Z</time>
      </trkpt>
      <trkpt lat="48.04653" lon="6.94828">
        <ele>1026.3</ele>
        <time>2022-06-05T08:01:25Z</time>
      </trkpt>
      <trkpt lat="48.04658" lon="6.94833">
        <ele>1030.2</ele>
        <time>2022-06-05T08:01:34Z</time>
      </trkpt>
      <trkpt lat="48.04664" lon="6.94833">
        <ele>1030.8</ele>
        <time>2022-06-05T08:01:39Z</time>
      </trkpt>
      <trkpt lat="48.04668" lon="6.94831">
        <ele>1029.1</ele>
        <time>2022-06-05T08:01:44Z</time>
      </trkpt>
      <trkpt lat="48.04672" lon="6.94827">
        <ele>1024.5</ele>
        <time>2022-06-05T08:01:51Z</time>
      </trkpt>
      <trkpt lat="48.04677" lon="6.94827">
        <ele>1010</ele>
        <time>2022-06-05T08:02:19Z</time>
      </trkpt>
      <trkpt lat="48.04677" lon="6.9482">
        <ele>1008.3</ele>
        <time>2022-06-05T08:02:25Z</time>
      </trkpt>
      <trkpt lat="48.04681" lon="6.94816">
        <ele>1011.2</ele>
        <time>2022-06-05T08:02:43Z</time>
      </trkpt>
      <trkpt lat="48.04684" lon="6.94821">
        <ele>1011</ele>
        <time>2022-06-05T08:02:46Z</time>
      </trkpt>
      <trkpt lat="48.04689" lon="6.94818">
        <ele>1006.4</ele>
        <time>2022-06-05T08:02:56Z</time>
      </trkpt>
      <trkpt lat="48.04694" lon="6.94811">
        <ele>1007.5</ele>
        <time>2022-06-05T08:03:07Z</time>
      </trkpt>
      <trkpt lat="48.04699" lon="6.94809">
        <ele>1007.4</ele>
        <time>2022-06-05T08:03:14Z</time>
      </trkpt>
      <trkpt lat="48.04704" lon="6.94808">
        <ele>1008.7</ele>
        <time>2022-06-05T08:03:30Z</time>
      </trkpt>
      <trkpt lat="48.04708" lon="6.94802">
        <ele>1003.1</ele>
        <time>2022-06-05T08:03:37Z</time>
      </trkpt>
      <trkpt lat="48.04712" lon="6.94796">
        <ele>1003.9</ele>
        <time>2022-06-05T08:03:43Z</time>
      </trkpt>
      <trkpt lat="48.04718" lon="6.94793">
        <ele>1007</ele>
        <time>2022-06-05T08:03:47Z</time>
      </trkpt>
      <trkpt lat="48.04722" lon="6.94789">
        <ele>1006.4</ele>
        <time>2022-06-05T08:03:50Z</time>
      </trkpt>
      <trkpt lat="48.04726" lon="6.94784">
        <ele>1002.2</ele>
        <time>2022-06-05T08:04:01Z</time>
      </trkpt>
      <trkpt lat="48.04731" lon="6.94784">
        <ele>998.7</ele>
        <time>2022-06-05T08:04:15Z</time>
      </trkpt>
      <trkpt lat="48.04735" lon="6.94784">
        <ele>995.4</ele>
        <time>2022-06-05T08:04:21Z</time>
      </trkpt>
      <trkpt lat="48.0474" lon="6.94786">
        <ele>999.1</ele>
        <time>2022-06-05T08:04:28Z</time>
      </trkpt>
      <trkpt lat="48.04745" lon="6.94783">
        <ele>996.2</ele>
        <time>2022-06-05T08:04:34Z</time>
      </trkpt>
      <trkpt lat="48.04747" lon="6.94777">
        <ele>999.2</ele>
        <time>2022-06-05T08:04:38Z</time>
      </trkpt>
      <trkpt lat="48.0475" lon="6.94772">
        <ele>1000.8</ele>
        <time>2022-06-05T08:04:43Z</time>
      </trkpt>
      <trkpt lat="48.04755" lon="6.94773">
        <ele>1007.5</ele>
        <time>2022-06-05T08:05:09Z</time>
      </trkpt>
      <trkpt lat="48.04761" lon="6.94768">
        <ele>1007.5</ele>
        <time>2022-06-05T08:05:16Z</time>
      </trkpt>
      <trkpt lat="48.04765" lon="6.94767">
        <ele>1011.6</ele>
        <time>2022-06-05T08:05:29Z</time>
      </trkpt>
      <trkpt lat="48.0477" lon="6.94764">
        <ele>1009</ele>
        <time>2022-06-05T08:05:35Z</time>
      </trkpt>
      <trkpt lat="48.04774" lon="6.94767">
        <ele>1013.8</ele>
        <time>2022-06-05T08:05:45Z</time>
      </trkpt>
      <trkpt lat="48.04779" lon="6.94768">
        <ele>1009.4</ele>
        <time>2022-06-05T08:05:51Z</time>
      </trkpt>
      <trkpt lat="48.04783" lon="6.94763">
        <ele>1006.8</ele>
        <time>2022-06-05T08:06:01Z</time>
      </trkpt>
      <trkpt lat="48.04788" lon="6.94766">
        <ele>1005.8</ele>
        <time>2022-06-05T08:06:11Z</time>
      </trkpt>
      <trkpt lat="48.0479" lon="6.94771">
        <ele>1004.5</ele>
        <time>2022-06-05T08:06:13Z</time>
      </trkpt>
      <trkpt lat="48.04795" lon="6.94772">
        <ele>1002.7</ele>
        <time>2022-06-05T08:06:19Z</time>
      </trkpt>
      <trkpt lat="48.04797" lon="6.94766">
        <ele>1002.7</ele>
        <time>2022-06-05T08:06:22Z</time>
      </trkpt>
      <trkpt lat="48.04802" lon="6.9476">
        <ele>999.3</ele>
        <time>2022-06-05T08:06:27Z</time>
      </trkpt>
      <trkpt lat="48.04807" lon="6.9476">
        <ele>1002.3</ele>
        <time>2022-06-05T08:06:42Z</time>
      </trkpt>
      <trkpt lat="48.04811" lon="6.94756">
        <ele>1002.2</ele>
        <time>2022-06-05T08:06:47Z</time>
      </trkpt>
      <trkpt lat="48.04813" lon="6.9475">
        <ele>1001.2</ele>
        <time>2022-06-05T08:06:56Z</time>
      </trkpt>
      <trkpt lat="48.04815" lon="6.94744">
        <ele>998</ele>
        <time>2022-06-05T08:07:31Z</time>
      </trkpt>
      <trkpt lat="48.04817" lon="6.94751">
        <ele>997</ele>
        <time>2022-06-05T08:07:37Z</time>
      </trkpt>
      <trkpt lat="48.04812" lon="6.9475">
        <ele>999</ele>
        <time>2022-06-05T08:08:50Z</time>
      </trkpt>
      <trkpt lat="48.04808" lon="6.94748">
        <ele>1004.6</ele>
        <time>2022-06-05T08:09:14Z</time>
      </trkpt>
      <trkpt lat="48.04813" lon="6.94747">
        <ele>996.5</ele>
        <time>2022-06-05T08:10:19Z</time>
      </trkpt>
      <trkpt lat="48.04816" lon="6.94739">
        <ele>992.7</ele>
        <time>2022-06-05T08:10:22Z</time>
      </trkpt>
      <trkpt lat="48.0482" lon="6.94741">
        <ele>997.3</ele>
        <time>2022-06-05T08:10:34Z</time>
      </trkpt>
      <trkpt lat="48.04826" lon="6.94741">
        <ele>993.8</ele>
        <time>2022-06-05T08:10:42Z</time>
      </trkpt>
      <trkpt lat="48.0483" lon="6.94736">
        <ele>991.8</ele>
        <time>2022-06-05T08:10:45Z</time>
      </trkpt>
      <trkpt lat="48.04834" lon="6.94733">
        <ele>992.3</ele>
        <time>2022-06-05T08:10:47Z</time>
      </trkpt>
      <trkpt lat="48.04839" lon="6.94734">
        <ele>991.5</ele>
        <time>2022-06-05T08:10:55Z</time>
      </trkpt>
      <trkpt lat="48.04843" lon="6.94735">
        <ele>993.4</ele>
        <time>2022-06-05T08:11:06Z</time>
      </trkpt>
      <trkpt lat="48.04848" lon="6.94734">
        <ele>988.1</ele>
        <time>2022-06-05T08:11:27Z</time>
      </trkpt>
      <trkpt lat="48.04854" lon="6.94735">
        <ele>988.6</ele>
        <time>2022-06-05T08:11:34Z</time>
      </trkpt>
      <trkpt lat="48.04859" lon="6.94732">
        <ele>988.7</ele>
        <time>2022-06-05T08:11:37Z</time>
      </trkpt>
      <trkpt lat="48.04865" lon="6.94728">
        <ele>989.5</ele>
        <time>2022-06-05T08:11:41Z</time>
      </trkpt>
      <trkpt lat="48.04869" lon="6.9472">
        <ele>988.5</ele>
        <time>2022-06-05T08:11:43Z</time>
      </trkpt>
      <trkpt lat="48.04873" lon="6.94709">
        <ele>986.1</ele>
        <time>2022-06-05T08:11:48Z</time>
      </trkpt>
      <trkpt lat="48.04875" lon="6.94703">
        <ele>989</ele>
        <time>2022-06-05T08:11:51Z</time>
      </trkpt>
      <trkpt lat="48.04881" lon="6.94697">
        <ele>993.9</ele>
        <time>2022-06-05T08:12:00Z</time>
      </trkpt>
      <trkpt lat="48.04886" lon="6.94698">
        <ele>995</ele>
        <time>2022-06-05T08:12:05Z</time>
      </trkpt>
      <trkpt lat="48.04889" lon="6.94704">
        <ele>994</ele>
        <time>2022-06-05T08:12:15Z</time>
      </trkpt>
      <trkpt lat="48.04894" lon="6.94702">
        <ele>990.1</ele>
        <time>2022-06-05T08:12:20Z</time>
      </trkpt>
      <trkpt lat="48.04899" lon="6.94697">
        <ele>991.1</ele>
        <time>2022-06-05T08:12:25Z</time>
      </trkpt>
      <trkpt lat="48.04902" lon="6.94693">
        <ele>990.6</ele>
        <time>2022-06-05T08:12:28Z</time>
      </trkpt>
      <trkpt lat="48.04906" lon="6.94687">
        <ele>990.4</ele>
        <time>2022-06-05T08:12:32Z</time>
      </trkpt>
      <trkpt lat="48.0491" lon="6.94681">
        <ele>989.2</ele>
        <time>2022-06-05T08:12:35Z</time>
      </trkpt>
      <trkpt lat="48.04915" lon="6.94677">
        <ele>985.9</ele>
        <time>2022-06-05T08:12:40Z</time>
      </trkpt>
      <trkpt lat="48.0492" lon="6.94674">
        <ele>982.5</ele>
        <time>2022-06-05T08:12:55Z</time>
      </trkpt>
      <trkpt lat="48.04924" lon="6.9467">
        <ele>982</ele>
        <time>2022-06-05T08:13:01Z</time>
      </trkpt>
      <trkpt lat="48.04929" lon="6.94668">
        <ele>980.6</ele>
        <time>2022-06-05T08:13:05Z</time>
      </trkpt>
      <trkpt lat="48.04934" lon="6.94668">
        <ele>979.6</ele>
        <time>2022-06-05T08:13:10Z</time>
      </trkpt>
      <trkpt lat="48.04937" lon="6.94663">
        <ele>976.3</ele>
        <time>2022-06-05T08:13:15Z</time>
      </trkpt>
      <trkpt lat="48.04939" lon="6.94656">
        <ele>976.2</ele>
        <time>2022-06-05T08:13:19Z</time>
      </trkpt>
      <trkpt lat="48.0494" lon="6.94648">
        <ele>980</ele>
        <time>2022-06-05T08:13:41Z</time>
      </trkpt>
      <trkpt lat="48.04945" lon="6.94645">
        <ele>983.2</ele>
        <time>2022-06-05T08:13:46Z</time>
      </trkpt>
      <trkpt lat="48.0495" lon="6.94645">
        <ele>980</ele>
        <time>2022-06-05T08:13:51Z</time>
      </trkpt>
      <trkpt lat="48.04955" lon="6.94644">
        <ele>976.6</ele>
        <time>2022-06-05T08:13:56Z</time>
      </trkpt>
      <trkpt lat="48.04961" lon="6.94645">
        <ele>974.9</ele>
        <time>2022-06-05T08:14:00Z</time>
      </trkpt>
      <trkpt lat="48.04967" lon="6.94644">
        <ele>973.3</ele>
        <time>2022-06-05T08:14:05Z</time>
      </trkpt>
      <trkpt lat="48.04972" lon="6.9464">
        <ele>971.9</ele>
        <time>2022-06-05T08:14:09Z</time>
      </trkpt>
      <trkpt lat="48.04976" lon="6.94636">
        <ele>969.8</ele>
        <time>2022-06-05T08:14:30Z</time>
      </trkpt>
      <trkpt lat="48.04979" lon="6.94629">
        <ele>968.6</ele>
        <time>2022-06-05T08:15:09Z</time>
      </trkpt>
      <trkpt lat="48.04982" lon="6.94623">
        <ele>967.8</ele>
        <time>2022-06-05T08:15:13Z</time>
      </trkpt>
      <trkpt lat="48.04986" lon="6.9462">
        <ele>968.9</ele>
        <time>2022-06-05T08:15:17Z</time>
      </trkpt>
      <trkpt lat="48.04991" lon="6.94618">
        <ele>968.2</ele>
        <time>2022-06-05T08:15:21Z</time>
      </trkpt>
      <trkpt lat="48.04996" lon="6.94615">
        <ele>968.7</ele>
        <time>2022-06-05T08:15:26Z</time>
      </trkpt>
      <trkpt lat="48.05001" lon="6.9462">
        <ele>969.5</ele>
        <time>2022-06-05T08:15:40Z</time>
      </trkpt>
      <trkpt lat="48.05008" lon="6.94613">
        <ele>969.6</ele>
        <time>2022-06-05T08:15:43Z</time>
      </trkpt>
      <trkpt lat="48.0501" lon="6.94607">
        <ele>968.3</ele>
        <time>2022-06-05T08:15:48Z</time>
      </trkpt>
      <trkpt lat="48.05013" lon="6.946">
        <ele>969.5</ele>
        <time>2022-06-05T08:15:53Z</time>
      </trkpt>
      <trkpt lat="48.05016" lon="6.94594">
        <ele>968.9</ele>
        <time>2022-06-05T08:15:57Z</time>
      </trkpt>
      <trkpt lat="48.05017" lon="6.94586">
        <ele>965.1</ele>
        <time>2022-06-05T08:16:02Z</time>
      </trkpt>
      <trkpt lat="48.05016" lon="6.94579">
        <ele>964.3</ele>
        <time>2022-06-05T08:16:05Z</time>
      </trkpt>
      <trkpt lat="48.05016" lon="6.94572">
        <ele>964.6</ele>
        <time>2022-06-05T08:16:08Z</time>
      </trkpt>
      <trkpt lat="48.05016" lon="6.94564">
        <ele>965.5</ele>
        <time>2022-06-05T08:16:13Z</time>
      </trkpt>
      <trkpt lat="48.05015" lon="6.94557">
        <ele>965.5</ele>
        <time>2022-06-05T08:16:17Z</time>
      </trkpt>
      <trkpt lat="48.05013" lon="6.94549">
        <ele>964.6</ele>
        <time>2022-06-05T08:16:21Z</time>
      </trkpt>
      <trkpt lat="48.05013" lon="6.94542">
        <ele>964.6</ele>
        <time>2022-06-05T08:16:24Z</time>
      </trkpt>
      <trkpt lat="48.05014" lon="6.94535">
        <ele>962.9</ele>
        <time>2022-06-05T08:16:29Z</time>
      </trkpt>
      <trkpt lat="48.05019" lon="6.94528">
        <ele>960.3</ele>
        <time>2022-06-05T08:16:33Z</time>
      </trkpt>
      <trkpt lat="48.05024" lon="6.94524">
        <ele>961</ele>
        <time>2022-06-05T08:16:38Z</time>
      </trkpt>
      <trkpt lat="48.05029" lon="6.94521">
        <ele>959.1</ele>
        <time>2022-06-05T08:16:43Z</time>
      </trkpt>
      <trkpt lat="48.05033" lon="6.94516">
        <ele>958.6</ele>
        <time>2022-06-05T08:16:47Z</time>
      </trkpt>
      <trkpt lat="48.05035" lon="6.94509">
        <ele>958.3</ele>
        <time>2022-06-05T08:16:52Z</time>
      </trkpt>
      <trkpt lat="48.05038" lon="6.94504">
        <ele>957.8</ele>
        <time>2022-06-05T08:16:56Z</time>
      </trkpt>
      <trkpt lat="48.05038" lon="6.94497">
        <ele>957.7</ele>
        <time>2022-06-05T08:17:00Z</time>
      </trkpt>
      <trkpt lat="48.05037" lon="6.94488">
        <ele>957.8</ele>
        <time>2022-06-05T08:17:04Z</time>
      </trkpt>
      <trkpt lat="48.05038" lon="6.94481">
        <ele>959.1</ele>
        <time>2022-06-05T08:17:08Z</time>
      </trkpt>
      <trkpt lat="48.05038" lon="6.94474">
        <ele>958.2</ele>
        <time>2022-06-05T08:17:13Z</time>
      </trkpt>
      <trkpt lat="48.0504" lon="6.94466">
        <ele>958.6</ele>
        <time>2022-06-05T08:17:17Z</time>
      </trkpt>
      <trkpt lat="48.05039" lon="6.94459">
        <ele>917.9</ele>
        <time>2022-06-05T08:17:21Z</time>
      </trkpt>
      <trkpt lat="48.0504" lon="6.94451">
        <ele>910.6</ele>
        <time>2022-06-05T08:17:26Z</time>
      </trkpt>
      <trkpt lat="48.0504" lon="6.94443">
        <ele>910.6</ele>
        <time>2022-06-05T08:17:30Z</time>
      </trkpt>
      <trkpt lat="48.05038" lon="6.94435">
        <ele>910.6</ele>
        <time>2022-06-05T08:17:36Z</time>
      </trkpt>
      <trkpt lat="48.05038" lon="6.94426">
        <ele>910.6</ele>
        <time>2022-06-05T08:17:40Z</time>
      </trkpt>
      <trkpt lat="48.05039" lon="6.94419">
        <ele>917.9</ele>
        <time>2022-06-05T08:17:44Z</time>
      </trkpt>
      <trkpt lat="48.0504" lon="6.94411">
        <ele>917.9</ele>
        <time>2022-06-05T08:17:49Z</time>
      </trkpt>
      <trkpt lat="48.05042" lon="6.94404">
        <ele>917.9</ele>
        <time>2022-06-05T08:17:52Z</time>
      </trkpt>
      <trkpt lat="48.05042" lon="6.94395">
        <ele>917.9</ele>
        <time>2022-06-05T08:17:57Z</time>
      </trkpt>
      <trkpt lat="48.05037" lon="6.9439">
        <ele>917.9</ele>
        <time>2022-06-05T08:18:00Z</time>
      </trkpt>
      <trkpt lat="48.05034" lon="6.94385">
        <ele>917.9</ele>
        <time>2022-06-05T08:18:05Z</time>
      </trkpt>
      <trkpt lat="48.05034" lon="6.94375">
        <ele>917.9</ele>
        <time>2022-06-05T08:18:10Z</time>
      </trkpt>
      <trkpt lat="48.05036" lon="6.94367">
        <ele>917.9</ele>
        <time>2022-06-05T08:18:16Z</time>
      </trkpt>
      <trkpt lat="48.05038" lon="6.94361">
        <ele>917.9</ele>
        <time>2022-06-05T08:18:21Z</time>
      </trkpt>
      <trkpt lat="48.0504" lon="6.94354">
        <ele>917.9</ele>
        <time>2022-06-05T08:18:25Z</time>
      </trkpt>
      <trkpt lat="48.05044" lon="6.94348">
        <ele>917.9</ele>
        <time>2022-06-05T08:18:29Z</time>
      </trkpt>
      <trkpt lat="48.05041" lon="6.94342">
        <ele>917.9</ele>
        <time>2022-06-05T08:18:34Z</time>
      </trkpt>
      <trkpt lat="48.05037" lon="6.94337">
        <ele>917.9</ele>
        <time>2022-06-05T08:18:37Z</time>
      </trkpt>
      <trkpt lat="48.05035" lon="6.94331">
        <ele>917.9</ele>
        <time>2022-06-05T08:18:40Z</time>
      </trkpt>
      <trkpt lat="48.05037" lon="6.94322">
        <ele>942.9</ele>
        <time>2022-06-05T08:18:46Z</time>
      </trkpt>
      <trkpt lat="48.05039" lon="6.94315">
        <ele>941.4</ele>
        <time>2022-06-05T08:18:50Z</time>
      </trkpt>
      <trkpt lat="48.0504" lon="6.94308">
        <ele>942.5</ele>
        <time>2022-06-05T08:18:54Z</time>
      </trkpt>
      <trkpt lat="48.05042" lon="6.943">
        <ele>941.1</ele>
        <time>2022-06-05T08:18:58Z</time>
      </trkpt>
      <trkpt lat="48.05045" lon="6.94294">
        <ele>941.9</ele>
        <time>2022-06-05T08:19:02Z</time>
      </trkpt>
      <trkpt lat="48.05044" lon="6.94286">
        <ele>941.3</ele>
        <time>2022-06-05T08:19:06Z</time>
      </trkpt>
      <trkpt lat="48.05041" lon="6.94279">
        <ele>938.3</ele>
        <time>2022-06-05T08:19:10Z</time>
      </trkpt>
      <trkpt lat="48.05038" lon="6.94273">
        <ele>936.8</ele>
        <time>2022-06-05T08:19:14Z</time>
      </trkpt>
      <trkpt lat="48.05038" lon="6.94264">
        <ele>937.9</ele>
        <time>2022-06-05T08:19:18Z</time>
      </trkpt>
      <trkpt lat="48.0504" lon="6.94257">
        <ele>940.5</ele>
        <time>2022-06-05T08:19:21Z</time>
      </trkpt>
      <trkpt lat="48.05039" lon="6.9425">
        <ele>939.9</ele>
        <time>2022-06-05T08:19:24Z</time>
      </trkpt>
      <trkpt lat="48.05036" lon="6.94241">
        <ele>942.1</ele>
        <time>2022-06-05T08:19:29Z</time>
      </trkpt>
      <trkpt lat="48.05034" lon="6.94231">
        <ele>944.4</ele>
        <time>2022-06-05T08:19:33Z</time>
      </trkpt>
      <trkpt lat="48.05033" lon="6.94223">
        <ele>944.5</ele>
        <time>2022-06-05T08:19:38Z</time>
      </trkpt>
      <trkpt lat="48.05033" lon="6.94215">
        <ele>946.3</ele>
        <time>2022-06-05T08:19:41Z</time>
      </trkpt>
      <trkpt lat="48.05031" lon="6.94208">
        <ele>947</ele>
        <time>2022-06-05T08:19:45Z</time>
      </trkpt>
      <trkpt lat="48.05028" lon="6.942">
        <ele>948.3</ele>
        <time>2022-06-05T08:19:49Z</time>
      </trkpt>
      <trkpt lat="48.05026" lon="6.94191">
        <ele>947.5</ele>
        <time>2022-06-05T08:19:53Z</time>
      </trkpt>
      <trkpt lat="48.05022" lon="6.94187">
        <ele>948.5</ele>
        <time>2022-06-05T08:19:58Z</time>
      </trkpt>
      <trkpt lat="48.05019" lon="6.94181">
        <ele>945.3</ele>
        <time>2022-06-05T08:20:02Z</time>
      </trkpt>
      <trkpt lat="48.05016" lon="6.94175">
        <ele>945.2</ele>
        <time>2022-06-05T08:20:05Z</time>
      </trkpt>
      <trkpt lat="48.05014" lon="6.94166">
        <ele>942.5</ele>
        <time>2022-06-05T08:20:10Z</time>
      </trkpt>
      <trkpt lat="48.05012" lon="6.94158">
        <ele>940</ele>
        <time>2022-06-05T08:20:14Z</time>
      </trkpt>
      <trkpt lat="48.0501" lon="6.94152">
        <ele>937.4</ele>
        <time>2022-06-05T08:20:18Z</time>
      </trkpt>
      <trkpt lat="48.05009" lon="6.94145">
        <ele>935.5</ele>
        <time>2022-06-05T08:20:23Z</time>
      </trkpt>
      <trkpt lat="48.05007" lon="6.94136">
        <ele>937.4</ele>
        <time>2022-06-05T08:20:28Z</time>
      </trkpt>
      <trkpt lat="48.05006" lon="6.94128">
        <ele>937</ele>
        <time>2022-06-05T08:20:32Z</time>
      </trkpt>
      <trkpt lat="48.05006" lon="6.9412">
        <ele>937</ele>
        <time>2022-06-05T08:20:36Z</time>
      </trkpt>
      <trkpt lat="48.05004" lon="6.94113">
        <ele>935.3</ele>
        <time>2022-06-05T08:20:41Z</time>
      </trkpt>
      <trkpt lat="48.05002" lon="6.94105">
        <ele>933</ele>
        <time>2022-06-05T08:20:45Z</time>
      </trkpt>
      <trkpt lat="48.05001" lon="6.94096">
        <ele>929.3</ele>
        <time>2022-06-05T08:20:49Z</time>
      </trkpt>
      <trkpt lat="48.04998" lon="6.94088">
        <ele>929</ele>
        <time>2022-06-05T08:20:54Z</time>
      </trkpt>
      <trkpt lat="48.04994" lon="6.9408">
        <ele>926.5</ele>
        <time>2022-06-05T08:20:59Z</time>
      </trkpt>
      <trkpt lat="48.0499" lon="6.94074">
        <ele>926.1</ele>
        <time>2022-06-05T08:21:04Z</time>
      </trkpt>
      <trkpt lat="48.04986" lon="6.94066">
        <ele>923.8</ele>
        <time>2022-06-05T08:21:09Z</time>
      </trkpt>
      <trkpt lat="48.04982" lon="6.94059">
        <ele>923</ele>
        <time>2022-06-05T08:21:14Z</time>
      </trkpt>
      <trkpt lat="48.0498" lon="6.94051">
        <ele>921.6</ele>
        <time>2022-06-05T08:21:19Z</time>
      </trkpt>
      <trkpt lat="48.04979" lon="6.94045">
        <ele>922.2</ele>
        <time>2022-06-05T08:21:23Z</time>
      </trkpt>
      <trkpt lat="48.04979" lon="6.94036">
        <ele>924.3</ele>
        <time>2022-06-05T08:21:29Z</time>
      </trkpt>
      <trkpt lat="48.04979" lon="6.94027">
        <ele>929.2</ele>
        <time>2022-06-05T08:21:35Z</time>
      </trkpt>
      <trkpt lat="48.04985" lon="6.94023">
        <ele>928.2</ele>
        <time>2022-06-05T08:21:40Z</time>
      </trkpt>
      <trkpt lat="48.05003" lon="6.94034">
        <ele>929.4</ele>
        <time>2022-06-05T08:21:51Z</time>
      </trkpt>
      <trkpt lat="48.05008" lon="6.94035">
        <ele>929.5</ele>
        <time>2022-06-05T08:21:54Z</time>
      </trkpt>
      <trkpt lat="48.05013" lon="6.94038">
        <ele>928.7</ele>
        <time>2022-06-05T08:21:57Z</time>
      </trkpt>
      <trkpt lat="48.05018" lon="6.94041">
        <ele>928</ele>
        <time>2022-06-05T08:21:59Z</time>
      </trkpt>
      <trkpt lat="48.05022" lon="6.94045">
        <ele>925.9</ele>
        <time>2022-06-05T08:22:04Z</time>
      </trkpt>
      <trkpt lat="48.05026" lon="6.94048">
        <ele>924.4</ele>
        <time>2022-06-05T08:22:08Z</time>
      </trkpt>
      <trkpt lat="48.05033" lon="6.94047">
        <ele>920.5</ele>
        <time>2022-06-05T08:22:14Z</time>
      </trkpt>
      <trkpt lat="48.05038" lon="6.94048">
        <ele>918.7</ele>
        <time>2022-06-05T08:22:19Z</time>
      </trkpt>
      <trkpt lat="48.05042" lon="6.94049">
        <ele>915.9</ele>
        <time>2022-06-05T08:22:24Z</time>
      </trkpt>
      <trkpt lat="48.05047" lon="6.94051">
        <ele>915</ele>
        <time>2022-06-05T08:22:29Z</time>
      </trkpt>
      <trkpt lat="48.05051" lon="6.94049">
        <ele>915.3</ele>
        <time>2022-06-05T08:22:33Z</time>
      </trkpt>
      <trkpt lat="48.05055" lon="6.94051">
        <ele>914.8</ele>
        <time>2022-06-05T08:22:37Z</time>
      </trkpt>
      <trkpt lat="48.0506" lon="6.94053">
        <ele>915.4</ele>
        <time>2022-06-05T08:22:42Z</time>
      </trkpt>
      <trkpt lat="48.05066" lon="6.94051">
        <ele>916</ele>
        <time>2022-06-05T08:22:48Z</time>
      </trkpt>
      <trkpt lat="48.05071" lon="6.94047">
        <ele>912.9</ele>
        <time>2022-06-05T08:22:53Z</time>
      </trkpt>
      <trkpt lat="48.05074" lon="6.94042">
        <ele>911.9</ele>
        <time>2022-06-05T08:22:56Z</time>
      </trkpt>
      <trkpt lat="48.05078" lon="6.94038">
        <ele>913.2</ele>
        <time>2022-06-05T08:22:59Z</time>
      </trkpt>
      <trkpt lat="48.05084" lon="6.94036">
        <ele>915.8</ele>
        <time>2022-06-05T08:23:05Z</time>
      </trkpt>
      <trkpt lat="48.0509" lon="6.94034">
        <ele>916.1</ele>
        <time>2022-06-05T08:23:09Z</time>
      </trkpt>
      <trkpt lat="48.05093" lon="6.94029">
        <ele>915.7</ele>
        <time>2022-06-05T08:23:13Z</time>
      </trkpt>
      <trkpt lat="48.05095" lon="6.94021">
        <ele>916.2</ele>
        <time>2022-06-05T08:23:17Z</time>
      </trkpt>
      <trkpt lat="48.05097" lon="6.94014">
        <ele>913.6</ele>
        <time>2022-06-05T08:23:21Z</time>
      </trkpt>
      <trkpt lat="48.05102" lon="6.9401">
        <ele>913</ele>
        <time>2022-06-05T08:23:56Z</time>
      </trkpt>
      <trkpt lat="48.05094" lon="6.94004">
        <ele>909.3</ele>
        <time>2022-06-05T08:24:08Z</time>
      </trkpt>
      <trkpt lat="48.05099" lon="6.94004">
        <ele>910.7</ele>
        <time>2022-06-05T08:24:16Z</time>
      </trkpt>
      <trkpt lat="48.0511" lon="6.94005">
        <ele>913</ele>
        <time>2022-06-05T08:24:22Z</time>
      </trkpt>
      <trkpt lat="48.05113" lon="6.93999">
        <ele>913.9</ele>
        <time>2022-06-05T08:24:25Z</time>
      </trkpt>
      <trkpt lat="48.05113" lon="6.93991">
        <ele>915.5</ele>
        <time>2022-06-05T08:24:30Z</time>
      </trkpt>
      <trkpt lat="48.0511" lon="6.93985">
        <ele>915</ele>
        <time>2022-06-05T08:24:35Z</time>
      </trkpt>
      <trkpt lat="48.05105" lon="6.93983">
        <ele>914</ele>
        <time>2022-06-05T08:24:39Z</time>
      </trkpt>
      <trkpt lat="48.05099" lon="6.93982">
        <ele>915.4</ele>
        <time>2022-06-05T08:24:44Z</time>
      </trkpt>
      <trkpt lat="48.05093" lon="6.93982">
        <ele>916</ele>
        <time>2022-06-05T08:24:49Z</time>
      </trkpt>
      <trkpt lat="48.05089" lon="6.93984">
        <ele>916.9</ele>
        <time>2022-06-05T08:24:52Z</time>
      </trkpt>
      <trkpt lat="48.05083" lon="6.93984">
        <ele>916.5</ele>
        <time>2022-06-05T08:24:56Z</time>
      </trkpt>
      <trkpt lat="48.05078" lon="6.93978">
        <ele>916.7</ele>
        <time>2022-06-05T08:25:00Z</time>
      </trkpt>
      <trkpt lat="48.05074" lon="6.93974">
        <ele>917.3</ele>
        <time>2022-06-05T08:25:03Z</time>
      </trkpt>
      <trkpt lat="48.0507" lon="6.93971">
        <ele>915.7</ele>
        <time>2022-06-05T08:25:07Z</time>
      </trkpt>
      <trkpt lat="48.05065" lon="6.93965">
        <ele>916.2</ele>
        <time>2022-06-05T08:25:11Z</time>
      </trkpt>
      <trkpt lat="48.05061" lon="6.93961">
        <ele>915.2</ele>
        <time>2022-06-05T08:25:16Z</time>
      </trkpt>
      <trkpt lat="48.05056" lon="6.93959">
        <ele>915.1</ele>
        <time>2022-06-05T08:25:21Z</time>
      </trkpt>
      <trkpt lat="48.05052" lon="6.93956">
        <ele>914.3</ele>
        <time>2022-06-05T08:25:24Z</time>
      </trkpt>
      <trkpt lat="48.05046" lon="6.93952">
        <ele>915.1</ele>
        <time>2022-06-05T08:25:29Z</time>
      </trkpt>
      <trkpt lat="48.05042" lon="6.93949">
        <ele>914.1</ele>
        <time>2022-06-05T08:25:33Z</time>
      </trkpt>
      <trkpt lat="48.05039" lon="6.93943">
        <ele>909.9</ele>
        <time>2022-06-05T08:25:36Z</time>
      </trkpt>
      <trkpt lat="48.05035" lon="6.93938">
        <ele>909.4</ele>
        <time>2022-06-05T08:25:41Z</time>
      </trkpt>
      <trkpt lat="48.05032" lon="6.93934">
        <ele>910.1</ele>
        <time>2022-06-05T08:25:44Z</time>
      </trkpt>
      <trkpt lat="48.05028" lon="6.93929">
        <ele>911.5</ele>
        <time>2022-06-05T08:25:48Z</time>
      </trkpt>
      <trkpt lat="48.05022" lon="6.93924">
        <ele>914.3</ele>
        <time>2022-06-05T08:25:53Z</time>
      </trkpt>
      <trkpt lat="48.05018" lon="6.93917">
        <ele>912.9</ele>
        <time>2022-06-05T08:25:59Z</time>
      </trkpt>
      <trkpt lat="48.05013" lon="6.93912">
        <ele>911.8</ele>
        <time>2022-06-05T08:26:03Z</time>
      </trkpt>
      <trkpt lat="48.05006" lon="6.93909">
        <ele>914.4</ele>
        <time>2022-06-05T08:26:09Z</time>
      </trkpt>
      <trkpt lat="48.05001" lon="6.93903">
        <ele>914.7</ele>
        <time>2022-06-05T08:26:13Z</time>
      </trkpt>
      <trkpt lat="48.05002" lon="6.93896">
        <ele>914.7</ele>
        <time>2022-06-05T08:26:17Z</time>
      </trkpt>
      <trkpt lat="48.05003" lon="6.93888">
        <ele>918</ele>
        <time>2022-06-05T08:26:20Z</time>
      </trkpt>
      <trkpt lat="48.05004" lon="6.9388">
        <ele>919.6</ele>
        <time>2022-06-05T08:26:24Z</time>
      </trkpt>
      <trkpt lat="48.05004" lon="6.9387">
        <ele>917.4</ele>
        <time>2022-06-05T08:26:29Z</time>
      </trkpt>
      <trkpt lat="48.05003" lon="6.93862">
        <ele>916.3</ele>
        <time>2022-06-05T08:26:34Z</time>
      </trkpt>
      <trkpt lat="48.05003" lon="6.93852">
        <ele>917</ele>
        <time>2022-06-05T08:26:39Z</time>
      </trkpt>
      <trkpt lat="48.05002" lon="6.93844">
        <ele>919.9</ele>
        <time>2022-06-05T08:26:44Z</time>
      </trkpt>
      <trkpt lat="48.05001" lon="6.93835">
        <ele>918.4</ele>
        <time>2022-06-05T08:26:49Z</time>
      </trkpt>
      <trkpt lat="48.05" lon="6.93827">
        <ele>923.2</ele>
        <time>2022-06-05T08:26:54Z</time>
      </trkpt>
      <trkpt lat="48.05" lon="6.93819">
        <ele>922.8</ele>
        <time>2022-06-05T08:26:59Z</time>
      </trkpt>
      <trkpt lat="48.05002" lon="6.93813">
        <ele>923.7</ele>
        <time>2022-06-05T08:27:03Z</time>
      </trkpt>
      <trkpt lat="48.05005" lon="6.93808">
        <ele>925.8</ele>
        <time>2022-06-05T08:27:07Z</time>
      </trkpt>
      <trkpt lat="48.05005" lon="6.938">
        <ele>922.5</ele>
        <time>2022-06-05T08:27:11Z</time>
      </trkpt>
      <trkpt lat="48.05002" lon="6.93794">
        <ele>921.9</ele>
        <time>2022-06-05T08:27:14Z</time>
      </trkpt>
      <trkpt lat="48.04997" lon="6.93787">
        <ele>922.2</ele>
        <time>2022-06-05T08:27:19Z</time>
      </trkpt>
      <trkpt lat="48.04993" lon="6.93782">
        <ele>919</ele>
        <time>2022-06-05T08:27:23Z</time>
      </trkpt>
      <trkpt lat="48.04988" lon="6.93779">
        <ele>917.7</ele>
        <time>2022-06-05T08:27:27Z</time>
      </trkpt>
      <trkpt lat="48.04983" lon="6.93775">
        <ele>913.3</ele>
        <time>2022-06-05T08:27:30Z</time>
      </trkpt>
      <trkpt lat="48.04979" lon="6.93772">
        <ele>910.6</ele>
        <time>2022-06-05T08:27:33Z</time>
      </trkpt>
      <trkpt lat="48.04975" lon="6.93769">
        <ele>910.4</ele>
        <time>2022-06-05T08:27:37Z</time>
      </trkpt>
      <trkpt lat="48.0497" lon="6.93767">
        <ele>909.7</ele>
        <time>2022-06-05T08:27:40Z</time>
      </trkpt>
      <trkpt lat="48.04966" lon="6.93763">
        <ele>910.4</ele>
        <time>2022-06-05T08:27:45Z</time>
      </trkpt>
      <trkpt lat="48.04961" lon="6.9376">
        <ele>910.4</ele>
        <time>2022-06-05T08:27:50Z</time>
      </trkpt>
      <trkpt lat="48.04966" lon="6.93755">
        <ele>897.1</ele>
        <time>2022-06-05T08:28:34Z</time>
      </trkpt>
      <trkpt lat="48.04972" lon="6.93754">
        <ele>895.2</ele>
        <time>2022-06-05T08:28:39Z</time>
      </trkpt>
      <trkpt lat="48.04977" lon="6.93754">
        <ele>896.6</ele>
        <time>2022-06-05T08:28:43Z</time>
      </trkpt>
      <trkpt lat="48.04983" lon="6.93753">
        <ele>896.7</ele>
        <time>2022-06-05T08:28:47Z</time>
      </trkpt>
      <trkpt lat="48.04987" lon="6.93747">
        <ele>898.2</ele>
        <time>2022-06-05T08:28:52Z</time>
      </trkpt>
      <trkpt lat="48.04989" lon="6.93741">
        <ele>897.7</ele>
        <time>2022-06-05T08:28:57Z</time>
      </trkpt>
      <trkpt lat="48.04993" lon="6.93737">
        <ele>898.1</ele>
        <time>2022-06-05T08:29:04Z</time>
      </trkpt>
      <trkpt lat="48.04998" lon="6.93731">
        <ele>898.7</ele>
        <time>2022-06-05T08:29:10Z</time>
      </trkpt>
      <trkpt lat="48.04998" lon="6.93724">
        <ele>900</ele>
        <time>2022-06-05T08:29:15Z</time>
      </trkpt>
      <trkpt lat="48.04999" lon="6.93717">
        <ele>897.9</ele>
        <time>2022-06-05T08:29:20Z</time>
      </trkpt>
      <trkpt lat="48.05001" lon="6.93711">
        <ele>900.6</ele>
        <time>2022-06-05T08:29:26Z</time>
      </trkpt>
      <trkpt lat="48.05005" lon="6.93707">
        <ele>902.9</ele>
        <time>2022-06-05T08:29:33Z</time>
      </trkpt>
      <trkpt lat="48.05011" lon="6.93704">
        <ele>899.9</ele>
        <time>2022-06-05T08:29:40Z</time>
      </trkpt>
      <trkpt lat="48.05016" lon="6.93705">
        <ele>903.4</ele>
        <time>2022-06-05T08:29:46Z</time>
      </trkpt>
      <trkpt lat="48.05021" lon="6.93702">
        <ele>903.7</ele>
        <time>2022-06-05T08:29:53Z</time>
      </trkpt>
      <trkpt lat="48.05027" lon="6.937">
        <ele>901</ele>
        <time>2022-06-05T08:30:00Z</time>
      </trkpt>
      <trkpt lat="48.0503" lon="6.93694">
        <ele>900.2</ele>
        <time>2022-06-05T08:30:05Z</time>
      </trkpt>
      <trkpt lat="48.05032" lon="6.93688">
        <ele>898.5</ele>
        <time>2022-06-05T08:30:08Z</time>
      </trkpt>
      <trkpt lat="48.05034" lon="6.93681">
        <ele>897.9</ele>
        <time>2022-06-05T08:30:11Z</time>
      </trkpt>
      <trkpt lat="48.05035" lon="6.93674">
        <ele>898.8</ele>
        <time>2022-06-05T08:30:15Z</time>
      </trkpt>
      <trkpt lat="48.05035" lon="6.93667">
        <ele>898.9</ele>
        <time>2022-06-05T08:30:19Z</time>
      </trkpt>
      <trkpt lat="48.05034" lon="6.93659">
        <ele>904</ele>
        <time>2022-06-05T08:30:23Z</time>
      </trkpt>
      <trkpt lat="48.05037" lon="6.93653">
        <ele>904.8</ele>
        <time>2022-06-05T08:30:27Z</time>
      </trkpt>
      <trkpt lat="48.0504" lon="6.93645">
        <ele>904.7</ele>
        <time>2022-06-05T08:30:32Z</time>
      </trkpt>
      <trkpt lat="48.05043" lon="6.93638">
        <ele>905.3</ele>
        <time>2022-06-05T08:30:37Z</time>
      </trkpt>
      <trkpt lat="48.05042" lon="6.93629">
        <ele>906.4</ele>
        <time>2022-06-05T08:30:41Z</time>
      </trkpt>
      <trkpt lat="48.05032" lon="6.93618">
        <ele>906.8</ele>
        <time>2022-06-05T08:30:50Z</time>
      </trkpt>
      <trkpt lat="48.05029" lon="6.93613">
        <ele>907.2</ele>
        <time>2022-06-05T08:30:54Z</time>
      </trkpt>
      <trkpt lat="48.05026" lon="6.93607">
        <ele>907.5</ele>
        <time>2022-06-05T08:30:57Z</time>
      </trkpt>
      <trkpt lat="48.05023" lon="6.93601">
        <ele>906.3</ele>
        <time>2022-06-05T08:30:59Z</time>
      </trkpt>
      <trkpt lat="48.0502" lon="6.93595">
        <ele>906.2</ele>
        <time>2022-06-05T08:31:04Z</time>
      </trkpt>
      <trkpt lat="48.05016" lon="6.93589">
        <ele>908.6</ele>
        <time>2022-06-05T08:31:07Z</time>
      </trkpt>
      <trkpt lat="48.05013" lon="6.93582">
        <ele>910.1</ele>
        <time>2022-06-05T08:31:10Z</time>
      </trkpt>
      <trkpt lat="48.0501" lon="6.93575">
        <ele>908.1</ele>
        <time>2022-06-05T08:31:14Z</time>
      </trkpt>
      <trkpt lat="48.05007" lon="6.93568">
        <ele>907.5</ele>
        <time>2022-06-05T08:31:19Z</time>
      </trkpt>
      <trkpt lat="48.05002" lon="6.93563">
        <ele>903.7</ele>
        <time>2022-06-05T08:31:22Z</time>
      </trkpt>
      <trkpt lat="48.04998" lon="6.93563">
        <ele>902.6</ele>
        <time>2022-06-05T08:31:27Z</time>
      </trkpt>
      <trkpt lat="48.04992" lon="6.93563">
        <ele>906.8</ele>
        <time>2022-06-05T08:31:31Z</time>
      </trkpt>
      <trkpt lat="48.04988" lon="6.9356">
        <ele>907.3</ele>
        <time>2022-06-05T08:31:34Z</time>
      </trkpt>
      <trkpt lat="48.04983" lon="6.93555">
        <ele>907.7</ele>
        <time>2022-06-05T08:31:38Z</time>
      </trkpt>
      <trkpt lat="48.04978" lon="6.93547">
        <ele>907.8</ele>
        <time>2022-06-05T08:31:42Z</time>
      </trkpt>
      <trkpt lat="48.04973" lon="6.93543">
        <ele>904.7</ele>
        <time>2022-06-05T08:31:47Z</time>
      </trkpt>
      <trkpt lat="48.04969" lon="6.93538">
        <ele>905</ele>
        <time>2022-06-05T08:31:52Z</time>
      </trkpt>
      <trkpt lat="48.04966" lon="6.93533">
        <ele>904.5</ele>
        <time>2022-06-05T08:31:55Z</time>
      </trkpt>
      <trkpt lat="48.04963" lon="6.93528">
        <ele>904.1</ele>
        <time>2022-06-05T08:31:59Z</time>
      </trkpt>
      <trkpt lat="48.0496" lon="6.93521">
        <ele>898.5</ele>
        <time>2022-06-05T08:32:03Z</time>
      </trkpt>
      <trkpt lat="48.04958" lon="6.93512">
        <ele>897</ele>
        <time>2022-06-05T08:32:07Z</time>
      </trkpt>
      <trkpt lat="48.04955" lon="6.93504">
        <ele>899.7</ele>
        <time>2022-06-05T08:32:13Z</time>
      </trkpt>
      <trkpt lat="48.04952" lon="6.93497">
        <ele>898</ele>
        <time>2022-06-05T08:32:18Z</time>
      </trkpt>
      <trkpt lat="48.04946" lon="6.93492">
        <ele>899.2</ele>
        <time>2022-06-05T08:32:23Z</time>
      </trkpt>
      <trkpt lat="48.0494" lon="6.93489">
        <ele>900.4</ele>
        <time>2022-06-05T08:32:28Z</time>
      </trkpt>
      <trkpt lat="48.04935" lon="6.93484">
        <ele>901</ele>
        <time>2022-06-05T08:32:33Z</time>
      </trkpt>
      <trkpt lat="48.0493" lon="6.9348">
        <ele>902.9</ele>
        <time>2022-06-05T08:32:38Z</time>
      </trkpt>
      <trkpt lat="48.04925" lon="6.93473">
        <ele>904</ele>
        <time>2022-06-05T08:32:43Z</time>
      </trkpt>
      <trkpt lat="48.04922" lon="6.93465">
        <ele>904.6</ele>
        <time>2022-06-05T08:32:48Z</time>
      </trkpt>
      <trkpt lat="48.04924" lon="6.93457">
        <ele>905.9</ele>
        <time>2022-06-05T08:32:53Z</time>
      </trkpt>
      <trkpt lat="48.04919" lon="6.93456">
        <ele>898.9</ele>
        <time>2022-06-05T08:33:05Z</time>
      </trkpt>
      <trkpt lat="48.04919" lon="6.93441">
        <ele>898.4</ele>
        <time>2022-06-05T08:33:13Z</time>
      </trkpt>
      <trkpt lat="48.04921" lon="6.93449">
        <ele>890.3</ele>
        <time>2022-06-05T08:33:24Z</time>
      </trkpt>
      <trkpt lat="48.04923" lon="6.93455">
        <ele>889.7</ele>
        <time>2022-06-05T08:33:27Z</time>
      </trkpt>
      <trkpt lat="48.04928" lon="6.93465">
        <ele>887.8</ele>
        <time>2022-06-05T08:33:31Z</time>
      </trkpt>
      <trkpt lat="48.0493" lon="6.93472">
        <ele>886</ele>
        <time>2022-06-05T08:33:35Z</time>
      </trkpt>
      <trkpt lat="48.04927" lon="6.93478">
        <ele>886.1</ele>
        <time>2022-06-05T08:33:39Z</time>
      </trkpt>
      <trkpt lat="48.04921" lon="6.93477">
        <ele>886.4</ele>
        <time>2022-06-05T08:33:43Z</time>
      </trkpt>
      <trkpt lat="48.04906" lon="6.93465">
        <ele>888.1</ele>
        <time>2022-06-05T08:33:54Z</time>
      </trkpt>
      <trkpt lat="48.04901" lon="6.93464">
        <ele>886.4</ele>
        <time>2022-06-05T08:33:58Z</time>
      </trkpt>
      <trkpt lat="48.04897" lon="6.93464">
        <ele>887.7</ele>
        <time>2022-06-05T08:34:01Z</time>
      </trkpt>
      <trkpt lat="48.04892" lon="6.93463">
        <ele>886.8</ele>
        <time>2022-06-05T08:34:03Z</time>
      </trkpt>
      <trkpt lat="48.04887" lon="6.93463">
        <ele>886.4</ele>
        <time>2022-06-05T08:34:07Z</time>
      </trkpt>
      <trkpt lat="48.04883" lon="6.93462">
        <ele>885.8</ele>
        <time>2022-06-05T08:34:11Z</time>
      </trkpt>
      <trkpt lat="48.04877" lon="6.93461">
        <ele>890.4</ele>
        <time>2022-06-05T08:34:15Z</time>
      </trkpt>
      <trkpt lat="48.04872" lon="6.93459">
        <ele>886.8</ele>
        <time>2022-06-05T08:34:19Z</time>
      </trkpt>
      <trkpt lat="48.0486" lon="6.93441">
        <ele>883.6</ele>
        <time>2022-06-05T08:34:32Z</time>
      </trkpt>
      <trkpt lat="48.04856" lon="6.93437">
        <ele>879.5</ele>
        <time>2022-06-05T08:34:35Z</time>
      </trkpt>
      <trkpt lat="48.0485" lon="6.93435">
        <ele>893.1</ele>
        <time>2022-06-05T08:34:41Z</time>
      </trkpt>
      <trkpt lat="48.04844" lon="6.93433">
        <ele>893.1</ele>
        <time>2022-06-05T08:34:45Z</time>
      </trkpt>
      <trkpt lat="48.04838" lon="6.93429">
        <ele>893.1</ele>
        <time>2022-06-05T08:34:51Z</time>
      </trkpt>
      <trkpt lat="48.04833" lon="6.93427">
        <ele>893.1</ele>
        <time>2022-06-05T08:34:56Z</time>
      </trkpt>
      <trkpt lat="48.04828" lon="6.93425">
        <ele>876.9</ele>
        <time>2022-06-05T08:35:01Z</time>
      </trkpt>
      <trkpt lat="48.04825" lon="6.93431">
        <ele>893.1</ele>
        <time>2022-06-05T08:35:06Z</time>
      </trkpt>
      <trkpt lat="48.04828" lon="6.93436">
        <ele>869.6</ele>
        <time>2022-06-05T08:35:38Z</time>
      </trkpt>
      <trkpt lat="48.04827" lon="6.93429">
        <ele>872.5</ele>
        <time>2022-06-05T08:35:50Z</time>
      </trkpt>
      <trkpt lat="48.04824" lon="6.93423">
        <ele>871.2</ele>
        <time>2022-06-05T08:35:53Z</time>
      </trkpt>
      <trkpt lat="48.0482" lon="6.9342">
        <ele>872.1</ele>
        <time>2022-06-05T08:35:57Z</time>
      </trkpt>
      <trkpt lat="48.04813" lon="6.93415">
        <ele>872.7</ele>
        <time>2022-06-05T08:36:01Z</time>
      </trkpt>
      <trkpt lat="48.0481" lon="6.9341">
        <ele>872.3</ele>
        <time>2022-06-05T08:36:05Z</time>
      </trkpt>
      <trkpt lat="48.04806" lon="6.93405">
        <ele>874.1</ele>
        <time>2022-06-05T08:36:09Z</time>
      </trkpt>
      <trkpt lat="48.04803" lon="6.93401">
        <ele>874.2</ele>
        <time>2022-06-05T08:36:12Z</time>
      </trkpt>
      <trkpt lat="48.04798" lon="6.93395">
        <ele>875.6</ele>
        <time>2022-06-05T08:36:17Z</time>
      </trkpt>
      <trkpt lat="48.04793" lon="6.93391">
        <ele>874.4</ele>
        <time>2022-06-05T08:36:21Z</time>
      </trkpt>
      <trkpt lat="48.04788" lon="6.93387">
        <ele>878.5</ele>
        <time>2022-06-05T08:36:26Z</time>
      </trkpt>
      <trkpt lat="48.04784" lon="6.93382">
        <ele>880.9</ele>
        <time>2022-06-05T08:36:31Z</time>
      </trkpt>
      <trkpt lat="48.04779" lon="6.93379">
        <ele>880.2</ele>
        <time>2022-06-05T08:36:35Z</time>
      </trkpt>
      <trkpt lat="48.04774" lon="6.93378">
        <ele>880</ele>
        <time>2022-06-05T08:36:39Z</time>
      </trkpt>
      <trkpt lat="48.0477" lon="6.93376">
        <ele>876.5</ele>
        <time>2022-06-05T08:36:43Z</time>
      </trkpt>
      <trkpt lat="48.04765" lon="6.93373">
        <ele>874.9</ele>
        <time>2022-06-05T08:36:47Z</time>
      </trkpt>
      <trkpt lat="48.04758" lon="6.93371">
        <ele>865.5</ele>
        <time>2022-06-05T08:36:51Z</time>
      </trkpt>
      <trkpt lat="48.04754" lon="6.93371">
        <ele>869.9</ele>
        <time>2022-06-05T08:36:55Z</time>
      </trkpt>
      <trkpt lat="48.04748" lon="6.9337">
        <ele>870.1</ele>
        <time>2022-06-05T08:37:00Z</time>
      </trkpt>
      <trkpt lat="48.04743" lon="6.93371">
        <ele>871.3</ele>
        <time>2022-06-05T08:37:04Z</time>
      </trkpt>
      <trkpt lat="48.04737" lon="6.93375">
        <ele>872.8</ele>
        <time>2022-06-05T08:37:09Z</time>
      </trkpt>
      <trkpt lat="48.04733" lon="6.93378">
        <ele>869.6</ele>
        <time>2022-06-05T08:37:13Z</time>
      </trkpt>
      <trkpt lat="48.04727" lon="6.93383">
        <ele>863.8</ele>
        <time>2022-06-05T08:37:17Z</time>
      </trkpt>
      <trkpt lat="48.04721" lon="6.93386">
        <ele>863.2</ele>
        <time>2022-06-05T08:37:22Z</time>
      </trkpt>
      <trkpt lat="48.04716" lon="6.93387">
        <ele>864.3</ele>
        <time>2022-06-05T08:37:26Z</time>
      </trkpt>
      <trkpt lat="48.04711" lon="6.93386">
        <ele>867.1</ele>
        <time>2022-06-05T08:37:30Z</time>
      </trkpt>
      <trkpt lat="48.04706" lon="6.93385">
        <ele>868.6</ele>
        <time>2022-06-05T08:37:34Z</time>
      </trkpt>
      <trkpt lat="48.04701" lon="6.93383">
        <ele>869.8</ele>
        <time>2022-06-05T08:37:38Z</time>
      </trkpt>
      <trkpt lat="48.04697" lon="6.93378">
        <ele>870.8</ele>
        <time>2022-06-05T08:37:43Z</time>
      </trkpt>
      <trkpt lat="48.04692" lon="6.93373">
        <ele>870.2</ele>
        <time>2022-06-05T08:37:47Z</time>
      </trkpt>
      <trkpt lat="48.04688" lon="6.93366">
        <ele>873</ele>
        <time>2022-06-05T08:37:52Z</time>
      </trkpt>
      <trkpt lat="48.04686" lon="6.9336">
        <ele>873.8</ele>
        <time>2022-06-05T08:37:57Z</time>
      </trkpt>
      <trkpt lat="48.04683" lon="6.93354">
        <ele>876.1</ele>
        <time>2022-06-05T08:38:01Z</time>
      </trkpt>
      <trkpt lat="48.0468" lon="6.93347">
        <ele>879.4</ele>
        <time>2022-06-05T08:38:05Z</time>
      </trkpt>
      <trkpt lat="48.04678" lon="6.93339">
        <ele>879</ele>
        <time>2022-06-05T08:38:09Z</time>
      </trkpt>
      <trkpt lat="48.04676" lon="6.93332">
        <ele>880.4</ele>
        <time>2022-06-05T08:38:13Z</time>
      </trkpt>
      <trkpt lat="48.04675" lon="6.93323">
        <ele>878.5</ele>
        <time>2022-06-05T08:38:18Z</time>
      </trkpt>
      <trkpt lat="48.04673" lon="6.93314">
        <ele>877.8</ele>
        <time>2022-06-05T08:38:23Z</time>
      </trkpt>
      <trkpt lat="48.04669" lon="6.93308">
        <ele>877.6</ele>
        <time>2022-06-05T08:38:28Z</time>
      </trkpt>
      <trkpt lat="48.04665" lon="6.933">
        <ele>878.5</ele>
        <time>2022-06-05T08:38:33Z</time>
      </trkpt>
      <trkpt lat="48.04661" lon="6.93293">
        <ele>881.4</ele>
        <time>2022-06-05T08:38:38Z</time>
      </trkpt>
      <trkpt lat="48.04656" lon="6.93288">
        <ele>882.1</ele>
        <time>2022-06-05T08:38:42Z</time>
      </trkpt>
      <trkpt lat="48.04651" lon="6.93286">
        <ele>882.4</ele>
        <time>2022-06-05T08:38:47Z</time>
      </trkpt>
      <trkpt lat="48.04645" lon="6.93285">
        <ele>879</ele>
        <time>2022-06-05T08:38:51Z</time>
      </trkpt>
      <trkpt lat="48.04639" lon="6.93284">
        <ele>879.5</ele>
        <time>2022-06-05T08:38:54Z</time>
      </trkpt>
      <trkpt lat="48.04635" lon="6.93286">
        <ele>875.2</ele>
        <time>2022-06-05T08:39:04Z</time>
      </trkpt>
      <trkpt lat="48.0463" lon="6.93289">
        <ele>872.8</ele>
        <time>2022-06-05T08:39:36Z</time>
      </trkpt>
      <trkpt lat="48.04625" lon="6.9329">
        <ele>873.3</ele>
        <time>2022-06-05T08:39:38Z</time>
      </trkpt>
      <trkpt lat="48.04621" lon="6.93293">
        <ele>873.5</ele>
        <time>2022-06-05T08:39:42Z</time>
      </trkpt>
      <trkpt lat="48.04625" lon="6.93299">
        <ele>865.8</ele>
        <time>2022-06-05T08:40:39Z</time>
      </trkpt>
      <trkpt lat="48.04622" lon="6.93305">
        <ele>865.3</ele>
        <time>2022-06-05T08:40:53Z</time>
      </trkpt>
      <trkpt lat="48.04624" lon="6.93298">
        <ele>868.2</ele>
        <time>2022-06-05T08:41:04Z</time>
      </trkpt>
      <trkpt lat="48.0462" lon="6.93299">
        <ele>863.9</ele>
        <time>2022-06-05T08:41:54Z</time>
      </trkpt>
      <trkpt lat="48.04615" lon="6.93302">
        <ele>864</ele>
        <time>2022-06-05T08:41:59Z</time>
      </trkpt>
      <trkpt lat="48.04609" lon="6.93304">
        <ele>863</ele>
        <time>2022-06-05T08:42:03Z</time>
      </trkpt>
      <trkpt lat="48.04604" lon="6.93305">
        <ele>862.5</ele>
        <time>2022-06-05T08:42:06Z</time>
      </trkpt>
      <trkpt lat="48.04598" lon="6.93307">
        <ele>862.4</ele>
        <time>2022-06-05T08:42:11Z</time>
      </trkpt>
      <trkpt lat="48.04593" lon="6.93308">
        <ele>862.5</ele>
        <time>2022-06-05T08:42:14Z</time>
      </trkpt>
      <trkpt lat="48.04589" lon="6.93311">
        <ele>857.7</ele>
        <time>2022-06-05T08:42:18Z</time>
      </trkpt>
      <trkpt lat="48.04585" lon="6.93314">
        <ele>852.2</ele>
        <time>2022-06-05T08:42:21Z</time>
      </trkpt>
      <trkpt lat="48.0458" lon="6.93316">
        <ele>848.6</ele>
        <time>2022-06-05T08:42:25Z</time>
      </trkpt>
      <trkpt lat="48.04574" lon="6.9332">
        <ele>852.4</ele>
        <time>2022-06-05T08:42:30Z</time>
      </trkpt>
      <trkpt lat="48.04568" lon="6.93324">
        <ele>851.1</ele>
        <time>2022-06-05T08:42:34Z</time>
      </trkpt>
      <trkpt lat="48.04563" lon="6.93326">
        <ele>850.9</ele>
        <time>2022-06-05T08:42:38Z</time>
      </trkpt>
      <trkpt lat="48.04557" lon="6.93327">
        <ele>853.6</ele>
        <time>2022-06-05T08:42:43Z</time>
      </trkpt>
      <trkpt lat="48.04552" lon="6.93327">
        <ele>857.7</ele>
        <time>2022-06-05T08:42:47Z</time>
      </trkpt>
      <trkpt lat="48.04545" lon="6.93329">
        <ele>863</ele>
        <time>2022-06-05T08:42:51Z</time>
      </trkpt>
      <trkpt lat="48.0454" lon="6.93329">
        <ele>869.3</ele>
        <time>2022-06-05T08:42:54Z</time>
      </trkpt>
      <trkpt lat="48.04533" lon="6.93329">
        <ele>865.7</ele>
        <time>2022-06-05T08:42:59Z</time>
      </trkpt>
      <trkpt lat="48.04527" lon="6.93328">
        <ele>865.7</ele>
        <time>2022-06-05T08:43:04Z</time>
      </trkpt>
      <trkpt lat="48.04522" lon="6.93327">
        <ele>864.9</ele>
        <time>2022-06-05T08:43:07Z</time>
      </trkpt>
      <trkpt lat="48.04518" lon="6.93325">
        <ele>862.4</ele>
        <time>2022-06-05T08:43:11Z</time>
      </trkpt>
      <trkpt lat="48.04512" lon="6.93323">
        <ele>862.1</ele>
        <time>2022-06-05T08:43:15Z</time>
      </trkpt>
      <trkpt lat="48.04506" lon="6.9332">
        <ele>865.6</ele>
        <time>2022-06-05T08:43:19Z</time>
      </trkpt>
      <trkpt lat="48.04501" lon="6.93319">
        <ele>864.2</ele>
        <time>2022-06-05T08:43:24Z</time>
      </trkpt>
      <trkpt lat="48.04496" lon="6.93317">
        <ele>865</ele>
        <time>2022-06-05T08:43:28Z</time>
      </trkpt>
      <trkpt lat="48.04491" lon="6.93316">
        <ele>864.5</ele>
        <time>2022-06-05T08:43:31Z</time>
      </trkpt>
      <trkpt lat="48.04486" lon="6.93314">
        <ele>864.7</ele>
        <time>2022-06-05T08:43:34Z</time>
      </trkpt>
      <trkpt lat="48.04482" lon="6.93312">
        <ele>861.6</ele>
        <time>2022-06-05T08:43:37Z</time>
      </trkpt>
      <trkpt lat="48.04477" lon="6.93311">
        <ele>867.8</ele>
        <time>2022-06-05T08:43:41Z</time>
      </trkpt>
      <trkpt lat="48.0447" lon="6.93309">
        <ele>874.9</ele>
        <time>2022-06-05T08:43:44Z</time>
      </trkpt>
      <trkpt lat="48.04465" lon="6.93305">
        <ele>873</ele>
        <time>2022-06-05T08:43:49Z</time>
      </trkpt>
      <trkpt lat="48.04461" lon="6.93301">
        <ele>870.3</ele>
        <time>2022-06-05T08:43:52Z</time>
      </trkpt>
      <trkpt lat="48.04461" lon="6.93294">
        <ele>871.7</ele>
        <time>2022-06-05T08:43:57Z</time>
      </trkpt>
      <trkpt lat="48.04463" lon="6.93287">
        <ele>869.4</ele>
        <time>2022-06-05T08:44:04Z</time>
      </trkpt>
      <trkpt lat="48.04468" lon="6.93287">
        <ele>865</ele>
        <time>2022-06-05T08:44:09Z</time>
      </trkpt>
      <trkpt lat="48.04473" lon="6.93287">
        <ele>862.6</ele>
        <time>2022-06-05T08:44:12Z</time>
      </trkpt>
      <trkpt lat="48.04478" lon="6.93286">
        <ele>859.8</ele>
        <time>2022-06-05T08:44:16Z</time>
      </trkpt>
      <trkpt lat="48.04483" lon="6.93285">
        <ele>860.9</ele>
        <time>2022-06-05T08:44:20Z</time>
      </trkpt>
      <trkpt lat="48.04488" lon="6.93284">
        <ele>863.1</ele>
        <time>2022-06-05T08:44:25Z</time>
      </trkpt>
      <trkpt lat="48.04493" lon="6.93281">
        <ele>859.3</ele>
        <time>2022-06-05T08:44:30Z</time>
      </trkpt>
      <trkpt lat="48.04497" lon="6.93275">
        <ele>860.9</ele>
        <time>2022-06-05T08:44:35Z</time>
      </trkpt>
      <trkpt lat="48.04501" lon="6.93269">
        <ele>862.9</ele>
        <time>2022-06-05T08:44:40Z</time>
      </trkpt>
      <trkpt lat="48.04504" lon="6.93264">
        <ele>864</ele>
        <time>2022-06-05T08:44:47Z</time>
      </trkpt>
      <trkpt lat="48.04508" lon="6.93258">
        <ele>862.7</ele>
        <time>2022-06-05T08:44:52Z</time>
      </trkpt>
      <trkpt lat="48.0451" lon="6.93253">
        <ele>862.5</ele>
        <time>2022-06-05T08:44:55Z</time>
      </trkpt>
      <trkpt lat="48.04513" lon="6.93247">
        <ele>864.3</ele>
        <time>2022-06-05T08:45:00Z</time>
      </trkpt>
      <trkpt lat="48.04516" lon="6.93242">
        <ele>863.6</ele>
        <time>2022-06-05T08:45:05Z</time>
      </trkpt>
      <trkpt lat="48.04521" lon="6.93238">
        <ele>867.1</ele>
        <time>2022-06-05T08:45:09Z</time>
      </trkpt>
      <trkpt lat="48.04525" lon="6.93235">
        <ele>866.6</ele>
        <time>2022-06-05T08:45:14Z</time>
      </trkpt>
      <trkpt lat="48.04529" lon="6.93231">
        <ele>868.4</ele>
        <time>2022-06-05T08:45:19Z</time>
      </trkpt>
      <trkpt lat="48.04535" lon="6.93232">
        <ele>870</ele>
        <time>2022-06-05T08:45:24Z</time>
      </trkpt>
      <trkpt lat="48.04539" lon="6.93231">
        <ele>868.6</ele>
        <time>2022-06-05T08:45:28Z</time>
      </trkpt>
      <trkpt lat="48.04544" lon="6.93232">
        <ele>867.5</ele>
        <time>2022-06-05T08:45:32Z</time>
      </trkpt>
      <trkpt lat="48.04549" lon="6.93229">
        <ele>867.4</ele>
        <time>2022-06-05T08:45:37Z</time>
      </trkpt>
      <trkpt lat="48.04553" lon="6.93225">
        <ele>867.2</ele>
        <time>2022-06-05T08:45:40Z</time>
      </trkpt>
      <trkpt lat="48.04557" lon="6.93219">
        <ele>867.7</ele>
        <time>2022-06-05T08:45:45Z</time>
      </trkpt>
      <trkpt lat="48.04561" lon="6.93213">
        <ele>868.8</ele>
        <time>2022-06-05T08:45:51Z</time>
      </trkpt>
      <trkpt lat="48.04566" lon="6.93208">
        <ele>871.9</ele>
        <time>2022-06-05T08:45:56Z</time>
      </trkpt>
      <trkpt lat="48.0457" lon="6.93203">
        <ele>872.7</ele>
        <time>2022-06-05T08:46:01Z</time>
      </trkpt>
      <trkpt lat="48.04575" lon="6.93198">
        <ele>871.9</ele>
        <time>2022-06-05T08:46:06Z</time>
      </trkpt>
      <trkpt lat="48.04578" lon="6.93194">
        <ele>870.5</ele>
        <time>2022-06-05T08:46:10Z</time>
      </trkpt>
      <trkpt lat="48.04582" lon="6.93188">
        <ele>871.4</ele>
        <time>2022-06-05T08:46:15Z</time>
      </trkpt>
      <trkpt lat="48.04585" lon="6.93183">
        <ele>873.1</ele>
        <time>2022-06-05T08:46:20Z</time>
      </trkpt>
      <trkpt lat="48.04588" lon="6.93177">
        <ele>873.5</ele>
        <time>2022-06-05T08:46:25Z</time>
      </trkpt>
      <trkpt lat="48.04591" lon="6.93171">
        <ele>872.9</ele>
        <time>2022-06-05T08:46:30Z</time>
      </trkpt>
      <trkpt lat="48.04591" lon="6.93164">
        <ele>873.3</ele>
        <time>2022-06-05T08:46:35Z</time>
      </trkpt>
      <trkpt lat="48.04594" lon="6.93158">
        <ele>874.3</ele>
        <time>2022-06-05T08:46:40Z</time>
      </trkpt>
      <trkpt lat="48.04598" lon="6.93153">
        <ele>879</ele>
        <time>2022-06-05T08:46:46Z</time>
      </trkpt>
      <trkpt lat="48.04601" lon="6.93146">
        <ele>881.3</ele>
        <time>2022-06-05T08:46:51Z</time>
      </trkpt>
      <trkpt lat="48.04602" lon="6.9314">
        <ele>881.6</ele>
        <time>2022-06-05T08:46:55Z</time>
      </trkpt>
      <trkpt lat="48.04606" lon="6.93133">
        <ele>882.9</ele>
        <time>2022-06-05T08:47:00Z</time>
      </trkpt>
      <trkpt lat="48.0461" lon="6.93128">
        <ele>885</ele>
        <time>2022-06-05T08:47:05Z</time>
      </trkpt>
      <trkpt lat="48.04613" lon="6.93123">
        <ele>884.6</ele>
        <time>2022-06-05T08:47:09Z</time>
      </trkpt>
      <trkpt lat="48.04617" lon="6.93117">
        <ele>884.7</ele>
        <time>2022-06-05T08:47:14Z</time>
      </trkpt>
      <trkpt lat="48.0462" lon="6.93112">
        <ele>885</ele>
        <time>2022-06-05T08:47:20Z</time>
      </trkpt>
      <trkpt lat="48.04623" lon="6.93106">
        <ele>887.3</ele>
        <time>2022-06-05T08:47:24Z</time>
      </trkpt>
      <trkpt lat="48.04627" lon="6.93101">
        <ele>888.7</ele>
        <time>2022-06-05T08:47:26Z</time>
      </trkpt>
      <trkpt lat="48.0463" lon="6.93093">
        <ele>889</ele>
        <time>2022-06-05T08:47:32Z</time>
      </trkpt>
      <trkpt lat="48.04631" lon="6.93082">
        <ele>891.3</ele>
        <time>2022-06-05T08:47:37Z</time>
      </trkpt>
      <trkpt lat="48.04631" lon="6.93074">
        <ele>891.9</ele>
        <time>2022-06-05T08:47:42Z</time>
      </trkpt>
      <trkpt lat="48.04634" lon="6.93067">
        <ele>894.5</ele>
        <time>2022-06-05T08:47:47Z</time>
      </trkpt>
      <trkpt lat="48.04636" lon="6.9306">
        <ele>892.3</ele>
        <time>2022-06-05T08:47:51Z</time>
      </trkpt>
      <trkpt lat="48.0464" lon="6.93056">
        <ele>892.5</ele>
        <time>2022-06-05T08:47:55Z</time>
      </trkpt>
      <trkpt lat="48.04642" lon="6.93049">
        <ele>895.2</ele>
        <time>2022-06-05T08:47:59Z</time>
      </trkpt>
      <trkpt lat="48.0464" lon="6.93042">
        <ele>890.2</ele>
        <time>2022-06-05T08:48:02Z</time>
      </trkpt>
      <trkpt lat="48.04641" lon="6.93035">
        <ele>894.1</ele>
        <time>2022-06-05T08:48:08Z</time>
      </trkpt>
      <trkpt lat="48.04644" lon="6.93029">
        <ele>894.2</ele>
        <time>2022-06-05T08:48:15Z</time>
      </trkpt>
      <trkpt lat="48.04648" lon="6.93025">
        <ele>891.3</ele>
        <time>2022-06-05T08:48:20Z</time>
      </trkpt>
      <trkpt lat="48.0465" lon="6.93017">
        <ele>894.6</ele>
        <time>2022-06-05T08:48:27Z</time>
      </trkpt>
      <trkpt lat="48.04649" lon="6.9301">
        <ele>894.4</ele>
        <time>2022-06-05T08:48:34Z</time>
      </trkpt>
      <trkpt lat="48.04654" lon="6.9301">
        <ele>897.3</ele>
        <time>2022-06-05T08:48:49Z</time>
      </trkpt>
      <trkpt lat="48.04659" lon="6.93011">
        <ele>899.4</ele>
        <time>2022-06-05T08:48:57Z</time>
      </trkpt>
      <trkpt lat="48.04657" lon="6.93002">
        <ele>904.8</ele>
        <time>2022-06-05T08:49:08Z</time>
      </trkpt>
      <trkpt lat="48.04651" lon="6.92998">
        <ele>903.4</ele>
        <time>2022-06-05T08:49:13Z</time>
      </trkpt>
      <trkpt lat="48.04648" lon="6.92989">
        <ele>905.1</ele>
        <time>2022-06-05T08:49:18Z</time>
      </trkpt>
      <trkpt lat="48.04647" lon="6.92982">
        <ele>909.2</ele>
        <time>2022-06-05T08:49:23Z</time>
      </trkpt>
      <trkpt lat="48.04644" lon="6.92974">
        <ele>917.5</ele>
        <time>2022-06-05T08:49:40Z</time>
      </trkpt>
      <trkpt lat="48.0464" lon="6.92967">
        <ele>915.8</ele>
        <time>2022-06-05T08:49:45Z</time>
      </trkpt>
      <trkpt lat="48.04637" lon="6.92961">
        <ele>916</ele>
        <time>2022-06-05T08:49:49Z</time>
      </trkpt>
      <trkpt lat="48.04633" lon="6.92957">
        <ele>911.7</ele>
        <time>2022-06-05T08:49:56Z</time>
      </trkpt>
      <trkpt lat="48.04628" lon="6.92955">
        <ele>913</ele>
        <time>2022-06-05T08:50:04Z</time>
      </trkpt>
      <trkpt lat="48.04628" lon="6.92947">
        <ele>917.2</ele>
        <time>2022-06-05T08:50:12Z</time>
      </trkpt>
      <trkpt lat="48.04625" lon="6.92932">
        <ele>919.5</ele>
        <time>2022-06-05T08:50:21Z</time>
      </trkpt>
      <trkpt lat="48.04624" lon="6.92925">
        <ele>919.6</ele>
        <time>2022-06-05T08:50:35Z</time>
      </trkpt>
      <trkpt lat="48.04622" lon="6.92918">
        <ele>921.2</ele>
        <time>2022-06-05T08:50:44Z</time>
      </trkpt>
      <trkpt lat="48.04619" lon="6.92912">
        <ele>925.1</ele>
        <time>2022-06-05T08:50:50Z</time>
      </trkpt>
      <trkpt lat="48.04616" lon="6.92906">
        <ele>929.1</ele>
        <time>2022-06-05T08:50:55Z</time>
      </trkpt>
      <trkpt lat="48.04616" lon="6.92895">
        <ele>931.8</ele>
        <time>2022-06-05T08:51:01Z</time>
      </trkpt>
      <trkpt lat="48.04614" lon="6.92888">
        <ele>931.3</ele>
        <time>2022-06-05T08:51:06Z</time>
      </trkpt>
      <trkpt lat="48.04609" lon="6.92884">
        <ele>931.7</ele>
        <time>2022-06-05T08:51:11Z</time>
      </trkpt>
      <trkpt lat="48.04603" lon="6.92885">
        <ele>930.4</ele>
        <time>2022-06-05T08:51:16Z</time>
      </trkpt>
      <trkpt lat="48.04599" lon="6.92885">
        <ele>930.3</ele>
        <time>2022-06-05T08:51:21Z</time>
      </trkpt>
      <trkpt lat="48.04595" lon="6.92881">
        <ele>933.6</ele>
        <time>2022-06-05T08:51:28Z</time>
      </trkpt>
      <trkpt lat="48.04592" lon="6.92876">
        <ele>931.9</ele>
        <time>2022-06-05T08:51:34Z</time>
      </trkpt>
      <trkpt lat="48.04588" lon="6.9287">
        <ele>928.5</ele>
        <time>2022-06-05T08:51:39Z</time>
      </trkpt>
      <trkpt lat="48.04585" lon="6.92865">
        <ele>927.7</ele>
        <time>2022-06-05T08:51:44Z</time>
      </trkpt>
      <trkpt lat="48.04581" lon="6.9286">
        <ele>925.8</ele>
        <time>2022-06-05T08:51:50Z</time>
      </trkpt>
      <trkpt lat="48.04579" lon="6.92852">
        <ele>930.3</ele>
        <time>2022-06-05T08:51:56Z</time>
      </trkpt>
      <trkpt lat="48.04579" lon="6.92845">
        <ele>938.2</ele>
        <time>2022-06-05T08:52:05Z</time>
      </trkpt>
      <trkpt lat="48.04582" lon="6.92836">
        <ele>936.1</ele>
        <time>2022-06-05T08:52:11Z</time>
      </trkpt>
      <trkpt lat="48.04583" lon="6.92829">
        <ele>938.3</ele>
        <time>2022-06-05T08:52:18Z</time>
      </trkpt>
      <trkpt lat="48.04587" lon="6.92825">
        <ele>941.2</ele>
        <time>2022-06-05T08:52:24Z</time>
      </trkpt>
      <trkpt lat="48.04592" lon="6.92825">
        <ele>930</ele>
        <time>2022-06-05T08:52:34Z</time>
      </trkpt>
      <trkpt lat="48.04595" lon="6.92843">
        <ele>929.2</ele>
        <time>2022-06-05T08:52:44Z</time>
      </trkpt>
      <trkpt lat="48.04597" lon="6.92849">
        <ele>931.2</ele>
        <time>2022-06-05T08:52:49Z</time>
      </trkpt>
      <trkpt lat="48.04602" lon="6.92852">
        <ele>932.5</ele>
        <time>2022-06-05T08:52:54Z</time>
      </trkpt>
      <trkpt lat="48.04606" lon="6.92853">
        <ele>934</ele>
        <time>2022-06-05T08:53:01Z</time>
      </trkpt>
      <trkpt lat="48.04611" lon="6.92854">
        <ele>934</ele>
        <time>2022-06-05T08:53:07Z</time>
      </trkpt>
      <trkpt lat="48.04616" lon="6.92853">
        <ele>938.1</ele>
        <time>2022-06-05T08:53:14Z</time>
      </trkpt>
      <trkpt lat="48.0462" lon="6.92852">
        <ele>936.3</ele>
        <time>2022-06-05T08:53:20Z</time>
      </trkpt>
      <trkpt lat="48.04626" lon="6.92849">
        <ele>938.1</ele>
        <time>2022-06-05T08:53:26Z</time>
      </trkpt>
      <trkpt lat="48.04631" lon="6.92849">
        <ele>939</ele>
        <time>2022-06-05T08:53:32Z</time>
      </trkpt>
      <trkpt lat="48.04634" lon="6.92855">
        <ele>942.4</ele>
        <time>2022-06-05T08:53:36Z</time>
      </trkpt>
      <trkpt lat="48.04637" lon="6.9286">
        <ele>944.6</ele>
        <time>2022-06-05T08:53:41Z</time>
      </trkpt>
      <trkpt lat="48.04641" lon="6.92863">
        <ele>943.7</ele>
        <time>2022-06-05T08:53:47Z</time>
      </trkpt>
      <trkpt lat="48.04646" lon="6.9286">
        <ele>947.4</ele>
        <time>2022-06-05T08:53:52Z</time>
      </trkpt>
      <trkpt lat="48.04655" lon="6.92861">
        <ele>941.2</ele>
        <time>2022-06-05T08:54:02Z</time>
      </trkpt>
      <trkpt lat="48.04658" lon="6.92856">
        <ele>938.2</ele>
        <time>2022-06-05T08:54:11Z</time>
      </trkpt>
      <trkpt lat="48.04663" lon="6.92855">
        <ele>941.5</ele>
        <time>2022-06-05T08:54:18Z</time>
      </trkpt>
      <trkpt lat="48.04669" lon="6.92866">
        <ele>949.2</ele>
        <time>2022-06-05T08:54:26Z</time>
      </trkpt>
      <trkpt lat="48.04672" lon="6.92872">
        <ele>950</ele>
        <time>2022-06-05T08:54:31Z</time>
      </trkpt>
      <trkpt lat="48.04676" lon="6.92877">
        <ele>954.5</ele>
        <time>2022-06-05T08:54:39Z</time>
      </trkpt>
      <trkpt lat="48.04681" lon="6.92879">
        <ele>950.9</ele>
        <time>2022-06-05T08:54:45Z</time>
      </trkpt>
      <trkpt lat="48.04687" lon="6.92856">
        <ele>950</ele>
        <time>2022-06-05T08:54:53Z</time>
      </trkpt>
      <trkpt lat="48.04691" lon="6.92851">
        <ele>947.3</ele>
        <time>2022-06-05T08:54:58Z</time>
      </trkpt>
      <trkpt lat="48.04695" lon="6.92856">
        <ele>948.6</ele>
        <time>2022-06-05T08:55:05Z</time>
      </trkpt>
      <trkpt lat="48.04698" lon="6.92862">
        <ele>950.3</ele>
        <time>2022-06-05T08:55:14Z</time>
      </trkpt>
      <trkpt lat="48.04703" lon="6.92829">
        <ele>956.8</ele>
        <time>2022-06-05T08:55:39Z</time>
      </trkpt>
      <trkpt lat="48.04706" lon="6.92823">
        <ele>953</ele>
        <time>2022-06-05T08:55:48Z</time>
      </trkpt>
      <trkpt lat="48.04706" lon="6.92815">
        <ele>949.5</ele>
        <time>2022-06-05T08:55:54Z</time>
      </trkpt>
      <trkpt lat="48.04705" lon="6.92808">
        <ele>949.6</ele>
        <time>2022-06-05T08:56:00Z</time>
      </trkpt>
      <trkpt lat="48.04702" lon="6.92801">
        <ele>950.9</ele>
        <time>2022-06-05T08:56:06Z</time>
      </trkpt>
      <trkpt lat="48.04701" lon="6.92794">
        <ele>950.2</ele>
        <time>2022-06-05T08:56:13Z</time>
      </trkpt>
      <trkpt lat="48.04703" lon="6.92786">
        <ele>951.6</ele>
        <time>2022-06-05T08:56:21Z</time>
      </trkpt>
      <trkpt lat="48.04704" lon="6.92778">
        <ele>953.1</ele>
        <time>2022-06-05T08:56:28Z</time>
      </trkpt>
      <trkpt lat="48.04707" lon="6.92784">
        <ele>948.3</ele>
        <time>2022-06-05T08:56:38Z</time>
      </trkpt>
      <trkpt lat="48.04711" lon="6.92789">
        <ele>949.1</ele>
        <time>2022-06-05T08:56:45Z</time>
      </trkpt>
      <trkpt lat="48.04712" lon="6.92796">
        <ele>950.7</ele>
        <time>2022-06-05T08:56:48Z</time>
      </trkpt>
      <trkpt lat="48.04712" lon="6.92805">
        <ele>958.7</ele>
        <time>2022-06-05T08:56:59Z</time>
      </trkpt>
      <trkpt lat="48.04711" lon="6.92812">
        <ele>957.3</ele>
        <time>2022-06-05T08:57:07Z</time>
      </trkpt>
      <trkpt lat="48.04716" lon="6.92816">
        <ele>954.7</ele>
        <time>2022-06-05T08:57:13Z</time>
      </trkpt>
      <trkpt lat="48.04721" lon="6.92819">
        <ele>957.6</ele>
        <time>2022-06-05T08:57:19Z</time>
      </trkpt>
      <trkpt lat="48.04726" lon="6.92822">
        <ele>963.2</ele>
        <time>2022-06-05T08:57:27Z</time>
      </trkpt>
      <trkpt lat="48.0473" lon="6.92827">
        <ele>964.5</ele>
        <time>2022-06-05T08:57:32Z</time>
      </trkpt>
      <trkpt lat="48.04734" lon="6.92833">
        <ele>966.8</ele>
        <time>2022-06-05T08:57:37Z</time>
      </trkpt>
      <trkpt lat="48.04738" lon="6.92837">
        <ele>968.6</ele>
        <time>2022-06-05T08:57:42Z</time>
      </trkpt>
      <trkpt lat="48.04743" lon="6.92842">
        <ele>971.5</ele>
        <time>2022-06-05T08:57:49Z</time>
      </trkpt>
      <trkpt lat="48.04748" lon="6.92847">
        <ele>971</ele>
        <time>2022-06-05T08:58:07Z</time>
      </trkpt>
      <trkpt lat="48.04749" lon="6.92854">
        <ele>972.4</ele>
        <time>2022-06-05T08:58:16Z</time>
      </trkpt>
      <trkpt lat="48.04753" lon="6.92859">
        <ele>974.2</ele>
        <time>2022-06-05T08:58:22Z</time>
      </trkpt>
      <trkpt lat="48.04756" lon="6.92864">
        <ele>975.2</ele>
        <time>2022-06-05T08:58:28Z</time>
      </trkpt>
      <trkpt lat="48.04762" lon="6.92868">
        <ele>977.8</ele>
        <time>2022-06-05T08:58:35Z</time>
      </trkpt>
      <trkpt lat="48.04766" lon="6.92874">
        <ele>978.5</ele>
        <time>2022-06-05T08:58:40Z</time>
      </trkpt>
      <trkpt lat="48.0477" lon="6.92875">
        <ele>977.9</ele>
        <time>2022-06-05T08:58:45Z</time>
      </trkpt>
      <trkpt lat="48.04775" lon="6.92876">
        <ele>975.6</ele>
        <time>2022-06-05T08:58:52Z</time>
      </trkpt>
      <trkpt lat="48.04778" lon="6.92867">
        <ele>975.3</ele>
        <time>2022-06-05T08:58:57Z</time>
      </trkpt>
      <trkpt lat="48.04781" lon="6.92861">
        <ele>975</ele>
        <time>2022-06-05T08:59:02Z</time>
      </trkpt>
      <trkpt lat="48.04784" lon="6.92854">
        <ele>970.6</ele>
        <time>2022-06-05T08:59:07Z</time>
      </trkpt>
      <trkpt lat="48.04786" lon="6.92847">
        <ele>970.5</ele>
        <time>2022-06-05T08:59:12Z</time>
      </trkpt>
      <trkpt lat="48.0479" lon="6.9285">
        <ele>973.9</ele>
        <time>2022-06-05T08:59:18Z</time>
      </trkpt>
      <trkpt lat="48.04785" lon="6.92846">
        <ele>969.1</ele>
        <time>2022-06-05T08:59:37Z</time>
      </trkpt>
      <trkpt lat="48.04782" lon="6.92839">
        <ele>969</ele>
        <time>2022-06-05T08:59:40Z</time>
      </trkpt>
      <trkpt lat="48.0478" lon="6.9283">
        <ele>967.5</ele>
        <time>2022-06-05T08:59:42Z</time>
      </trkpt>
      <trkpt lat="48.04778" lon="6.92823">
        <ele>967.5</ele>
        <time>2022-06-05T08:59:45Z</time>
      </trkpt>
      <trkpt lat="48.04776" lon="6.92816">
        <ele>966.6</ele>
        <time>2022-06-05T08:59:49Z</time>
      </trkpt>
      <trkpt lat="48.04773" lon="6.92811">
        <ele>967.9</ele>
        <time>2022-06-05T08:59:52Z</time>
      </trkpt>
      <trkpt lat="48.04768" lon="6.92807">
        <ele>972.6</ele>
        <time>2022-06-05T09:00:03Z</time>
      </trkpt>
      <trkpt lat="48.04769" lon="6.928">
        <ele>972.7</ele>
        <time>2022-06-05T09:00:09Z</time>
      </trkpt>
      <trkpt lat="48.0477" lon="6.92793">
        <ele>976.8</ele>
        <time>2022-06-05T09:00:16Z</time>
      </trkpt>
      <trkpt lat="48.04767" lon="6.92787">
        <ele>976.3</ele>
        <time>2022-06-05T09:00:25Z</time>
      </trkpt>
      <trkpt lat="48.04771" lon="6.9278">
        <ele>977.2</ele>
        <time>2022-06-05T09:00:31Z</time>
      </trkpt>
      <trkpt lat="48.04776" lon="6.92779">
        <ele>978.4</ele>
        <time>2022-06-05T09:00:37Z</time>
      </trkpt>
      <trkpt lat="48.0478" lon="6.92773">
        <ele>975.9</ele>
        <time>2022-06-05T09:00:43Z</time>
      </trkpt>
      <trkpt lat="48.04782" lon="6.92767">
        <ele>975.9</ele>
        <time>2022-06-05T09:00:48Z</time>
      </trkpt>
      <trkpt lat="48.04785" lon="6.92761">
        <ele>972.6</ele>
        <time>2022-06-05T09:00:53Z</time>
      </trkpt>
      <trkpt lat="48.04787" lon="6.92754">
        <ele>973.7</ele>
        <time>2022-06-05T09:00:58Z</time>
      </trkpt>
      <trkpt lat="48.04792" lon="6.9275">
        <ele>972.5</ele>
        <time>2022-06-05T09:01:07Z</time>
      </trkpt>
      <trkpt lat="48.04797" lon="6.9275">
        <ele>970</ele>
        <time>2022-06-05T09:01:13Z</time>
      </trkpt>
      <trkpt lat="48.04792" lon="6.92749">
        <ele>968.1</ele>
        <time>2022-06-05T09:01:39Z</time>
      </trkpt>
      <trkpt lat="48.04793" lon="6.92756">
        <ele>965.5</ele>
        <time>2022-06-05T09:02:40Z</time>
      </trkpt>
      <trkpt lat="48.04796" lon="6.9275">
        <ele>966.7</ele>
        <time>2022-06-05T09:02:45Z</time>
      </trkpt>
      <trkpt lat="48.048" lon="6.92745">
        <ele>966.2</ele>
        <time>2022-06-05T09:02:49Z</time>
      </trkpt>
      <trkpt lat="48.04804" lon="6.92738">
        <ele>967.6</ele>
        <time>2022-06-05T09:02:54Z</time>
      </trkpt>
      <trkpt lat="48.04809" lon="6.9274">
        <ele>975.5</ele>
        <time>2022-06-05T09:03:02Z</time>
      </trkpt>
      <trkpt lat="48.04812" lon="6.92747">
        <ele>977</ele>
        <time>2022-06-05T09:03:07Z</time>
      </trkpt>
      <trkpt lat="48.04817" lon="6.92749">
        <ele>976.2</ele>
        <time>2022-06-05T09:03:14Z</time>
      </trkpt>
      <trkpt lat="48.04821" lon="6.92744">
        <ele>974.4</ele>
        <time>2022-06-05T09:03:21Z</time>
      </trkpt>
      <trkpt lat="48.04821" lon="6.92736">
        <ele>973.3</ele>
        <time>2022-06-05T09:03:25Z</time>
      </trkpt>
      <trkpt lat="48.04822" lon="6.9273">
        <ele>973.1</ele>
        <time>2022-06-05T09:03:28Z</time>
      </trkpt>
      <trkpt lat="48.04826" lon="6.92724">
        <ele>974.5</ele>
        <time>2022-06-05T09:03:33Z</time>
      </trkpt>
      <trkpt lat="48.0483" lon="6.92722">
        <ele>976.3</ele>
        <time>2022-06-05T09:03:37Z</time>
      </trkpt>
      <trkpt lat="48.04836" lon="6.92723">
        <ele>975.6</ele>
        <time>2022-06-05T09:03:45Z</time>
      </trkpt>
      <trkpt lat="48.0484" lon="6.92727">
        <ele>976.1</ele>
        <time>2022-06-05T09:03:52Z</time>
      </trkpt>
      <trkpt lat="48.04839" lon="6.92734">
        <ele>980.3</ele>
        <time>2022-06-05T09:03:56Z</time>
      </trkpt>
      <trkpt lat="48.04841" lon="6.9274">
        <ele>984.1</ele>
        <time>2022-06-05T09:04:00Z</time>
      </trkpt>
      <trkpt lat="48.04846" lon="6.92742">
        <ele>984.5</ele>
        <time>2022-06-05T09:04:10Z</time>
      </trkpt>
      <trkpt lat="48.04851" lon="6.92732">
        <ele>984.6</ele>
        <time>2022-06-05T09:04:19Z</time>
      </trkpt>
      <trkpt lat="48.04853" lon="6.92719">
        <ele>983.9</ele>
        <time>2022-06-05T09:04:27Z</time>
      </trkpt>
      <trkpt lat="48.04849" lon="6.92713">
        <ele>990.2</ele>
        <time>2022-06-05T09:04:36Z</time>
      </trkpt>
      <trkpt lat="48.04845" lon="6.92707">
        <ele>992.9</ele>
        <time>2022-06-05T09:04:41Z</time>
      </trkpt>
      <trkpt lat="48.04843" lon="6.92698">
        <ele>995.7</ele>
        <time>2022-06-05T09:04:46Z</time>
      </trkpt>
      <trkpt lat="48.04843" lon="6.92689">
        <ele>997.2</ele>
        <time>2022-06-05T09:04:51Z</time>
      </trkpt>
      <trkpt lat="48.0484" lon="6.92682">
        <ele>989.9</ele>
        <time>2022-06-05T09:05:01Z</time>
      </trkpt>
      <trkpt lat="48.04835" lon="6.92674">
        <ele>989.3</ele>
        <time>2022-06-05T09:05:04Z</time>
      </trkpt>
      <trkpt lat="48.04831" lon="6.92668">
        <ele>988.7</ele>
        <time>2022-06-05T09:05:07Z</time>
      </trkpt>
      <trkpt lat="48.04827" lon="6.92662">
        <ele>986.6</ele>
        <time>2022-06-05T09:05:11Z</time>
      </trkpt>
      <trkpt lat="48.04822" lon="6.92657">
        <ele>991.5</ele>
        <time>2022-06-05T09:05:16Z</time>
      </trkpt>
      <trkpt lat="48.04819" lon="6.9265">
        <ele>995.3</ele>
        <time>2022-06-05T09:05:22Z</time>
      </trkpt>
      <trkpt lat="48.04823" lon="6.92653">
        <ele>994.2</ele>
        <time>2022-06-05T09:05:33Z</time>
      </trkpt>
      <trkpt lat="48.04825" lon="6.92661">
        <ele>994.1</ele>
        <time>2022-06-05T09:05:37Z</time>
      </trkpt>
      <trkpt lat="48.04829" lon="6.92669">
        <ele>991</ele>
        <time>2022-06-05T09:05:41Z</time>
      </trkpt>
      <trkpt lat="48.04833" lon="6.92677">
        <ele>990.6</ele>
        <time>2022-06-05T09:05:46Z</time>
      </trkpt>
      <trkpt lat="48.04837" lon="6.92682">
        <ele>991.8</ele>
        <time>2022-06-05T09:05:52Z</time>
      </trkpt>
      <trkpt lat="48.04841" lon="6.92685">
        <ele>994.4</ele>
        <time>2022-06-05T09:05:58Z</time>
      </trkpt>
      <trkpt lat="48.04845" lon="6.92691">
        <ele>998.3</ele>
        <time>2022-06-05T09:06:04Z</time>
      </trkpt>
      <trkpt lat="48.04849" lon="6.92692">
        <ele>996</ele>
        <time>2022-06-05T09:06:09Z</time>
      </trkpt>
      <trkpt lat="48.04852" lon="6.92687">
        <ele>998.3</ele>
        <time>2022-06-05T09:06:14Z</time>
      </trkpt>
      <trkpt lat="48.04854" lon="6.92681">
        <ele>999.7</ele>
        <time>2022-06-05T09:06:17Z</time>
      </trkpt>
      <trkpt lat="48.04855" lon="6.92673">
        <ele>999.6</ele>
        <time>2022-06-05T09:06:23Z</time>
      </trkpt>
      <trkpt lat="48.04855" lon="6.92664">
        <ele>1003.1</ele>
        <time>2022-06-05T09:06:29Z</time>
      </trkpt>
      <trkpt lat="48.04854" lon="6.92656">
        <ele>1005.2</ele>
        <time>2022-06-05T09:06:35Z</time>
      </trkpt>
      <trkpt lat="48.04851" lon="6.9265">
        <ele>1006</ele>
        <time>2022-06-05T09:06:40Z</time>
      </trkpt>
      <trkpt lat="48.04848" lon="6.92644">
        <ele>1004.8</ele>
        <time>2022-06-05T09:06:44Z</time>
      </trkpt>
      <trkpt lat="48.04846" lon="6.92638">
        <ele>1002.3</ele>
        <time>2022-06-05T09:06:48Z</time>
      </trkpt>
      <trkpt lat="48.04844" lon="6.92631">
        <ele>1005.3</ele>
        <time>2022-06-05T09:06:53Z</time>
      </trkpt>
      <trkpt lat="48.04844" lon="6.92624">
        <ele>1001.8</ele>
        <time>2022-06-05T09:06:58Z</time>
      </trkpt>
      <trkpt lat="48.04845" lon="6.92617">
        <ele>1004.8</ele>
        <time>2022-06-05T09:07:03Z</time>
      </trkpt>
      <trkpt lat="48.04845" lon="6.92609">
        <ele>1005.5</ele>
        <time>2022-06-05T09:07:09Z</time>
      </trkpt>
      <trkpt lat="48.04846" lon="6.92602">
        <ele>1010.5</ele>
        <time>2022-06-05T09:07:15Z</time>
      </trkpt>
      <trkpt lat="48.04837" lon="6.92587">
        <ele>1013.9</ele>
        <time>2022-06-05T09:07:29Z</time>
      </trkpt>
      <trkpt lat="48.04841" lon="6.9258">
        <ele>1014.7</ele>
        <time>2022-06-05T09:07:38Z</time>
      </trkpt>
      <trkpt lat="48.04843" lon="6.92574">
        <ele>1015.2</ele>
        <time>2022-06-05T09:07:42Z</time>
      </trkpt>
      <trkpt lat="48.04843" lon="6.92566">
        <ele>1018.9</ele>
        <time>2022-06-05T09:07:48Z</time>
      </trkpt>
      <trkpt lat="48.04839" lon="6.92559">
        <ele>1020.9</ele>
        <time>2022-06-05T09:07:53Z</time>
      </trkpt>
      <trkpt lat="48.04836" lon="6.92554">
        <ele>1020.8</ele>
        <time>2022-06-05T09:07:59Z</time>
      </trkpt>
      <trkpt lat="48.04832" lon="6.92549">
        <ele>1023.3</ele>
        <time>2022-06-05T09:08:05Z</time>
      </trkpt>
      <trkpt lat="48.04829" lon="6.92544">
        <ele>1025</ele>
        <time>2022-06-05T09:08:10Z</time>
      </trkpt>
      <trkpt lat="48.0483" lon="6.92536">
        <ele>1026.2</ele>
        <time>2022-06-05T09:08:16Z</time>
      </trkpt>
      <trkpt lat="48.04833" lon="6.92531">
        <ele>1028.8</ele>
        <time>2022-06-05T09:08:21Z</time>
      </trkpt>
      <trkpt lat="48.04836" lon="6.92525">
        <ele>1027.4</ele>
        <time>2022-06-05T09:08:26Z</time>
      </trkpt>
      <trkpt lat="48.04834" lon="6.92517">
        <ele>1029.5</ele>
        <time>2022-06-05T09:08:33Z</time>
      </trkpt>
      <trkpt lat="48.04829" lon="6.92512">
        <ele>1028.1</ele>
        <time>2022-06-05T09:08:39Z</time>
      </trkpt>
      <trkpt lat="48.04824" lon="6.92511">
        <ele>1030.3</ele>
        <time>2022-06-05T09:08:44Z</time>
      </trkpt>
      <trkpt lat="48.0482" lon="6.92509">
        <ele>1030.2</ele>
        <time>2022-06-05T09:08:52Z</time>
      </trkpt>
      <trkpt lat="48.04815" lon="6.92508">
        <ele>1029.9</ele>
        <time>2022-06-05T09:09:00Z</time>
      </trkpt>
      <trkpt lat="48.04813" lon="6.92502">
        <ele>1031.8</ele>
        <time>2022-06-05T09:09:05Z</time>
      </trkpt>
      <trkpt lat="48.04812" lon="6.92495">
        <ele>1030.1</ele>
        <time>2022-06-05T09:09:10Z</time>
      </trkpt>
      <trkpt lat="48.04813" lon="6.92488">
        <ele>1027.3</ele>
        <time>2022-06-05T09:09:17Z</time>
      </trkpt>
      <trkpt lat="48.04816" lon="6.92481">
        <ele>1004.9</ele>
        <time>2022-06-05T09:09:20Z</time>
      </trkpt>
      <trkpt lat="48.04818" lon="6.92475">
        <ele>1019.1</ele>
        <time>2022-06-05T09:09:24Z</time>
      </trkpt>
      <trkpt lat="48.04821" lon="6.92468">
        <ele>1023.3</ele>
        <time>2022-06-05T09:09:28Z</time>
      </trkpt>
      <trkpt lat="48.04821" lon="6.92459">
        <ele>1032.4</ele>
        <time>2022-06-05T09:09:34Z</time>
      </trkpt>
      <trkpt lat="48.0482" lon="6.92452">
        <ele>1028.3</ele>
        <time>2022-06-05T09:09:46Z</time>
      </trkpt>
      <trkpt lat="48.04822" lon="6.92445">
        <ele>1024.9</ele>
        <time>2022-06-05T09:09:50Z</time>
      </trkpt>
      <trkpt lat="48.04824" lon="6.92438">
        <ele>1026.5</ele>
        <time>2022-06-05T09:09:54Z</time>
      </trkpt>
      <trkpt lat="48.04825" lon="6.92429">
        <ele>1031.6</ele>
        <time>2022-06-05T09:10:02Z</time>
      </trkpt>
      <trkpt lat="48.04823" lon="6.92423">
        <ele>1032.2</ele>
        <time>2022-06-05T09:10:08Z</time>
      </trkpt>
      <trkpt lat="48.0482" lon="6.92417">
        <ele>1034.9</ele>
        <time>2022-06-05T09:10:14Z</time>
      </trkpt>
      <trkpt lat="48.04817" lon="6.92412">
        <ele>1034.7</ele>
        <time>2022-06-05T09:10:21Z</time>
      </trkpt>
      <trkpt lat="48.04813" lon="6.92406">
        <ele>1038.2</ele>
        <time>2022-06-05T09:10:27Z</time>
      </trkpt>
      <trkpt lat="48.0481" lon="6.92398">
        <ele>1040</ele>
        <time>2022-06-05T09:10:34Z</time>
      </trkpt>
      <trkpt lat="48.04811" lon="6.92392">
        <ele>1042.5</ele>
        <time>2022-06-05T09:10:39Z</time>
      </trkpt>
      <trkpt lat="48.04807" lon="6.92387">
        <ele>1047.3</ele>
        <time>2022-06-05T09:10:47Z</time>
      </trkpt>
      <trkpt lat="48.04797" lon="6.92391">
        <ele>1047</ele>
        <time>2022-06-05T09:11:18Z</time>
      </trkpt>
      <trkpt lat="48.04796" lon="6.92383">
        <ele>1049.3</ele>
        <time>2022-06-05T09:11:27Z</time>
      </trkpt>
      <trkpt lat="48.04796" lon="6.92376">
        <ele>1050.5</ele>
        <time>2022-06-05T09:11:34Z</time>
      </trkpt>
      <trkpt lat="48.04795" lon="6.92368">
        <ele>1043.9</ele>
        <time>2022-06-05T09:11:48Z</time>
      </trkpt>
      <trkpt lat="48.04794" lon="6.92359">
        <ele>1042.8</ele>
        <time>2022-06-05T09:11:53Z</time>
      </trkpt>
      <trkpt lat="48.04792" lon="6.92336">
        <ele>1049.7</ele>
        <time>2022-06-05T09:12:10Z</time>
      </trkpt>
      <trkpt lat="48.04791" lon="6.92329">
        <ele>1048.8</ele>
        <time>2022-06-05T09:12:16Z</time>
      </trkpt>
      <trkpt lat="48.04789" lon="6.92322">
        <ele>1050.4</ele>
        <time>2022-06-05T09:12:22Z</time>
      </trkpt>
      <trkpt lat="48.04784" lon="6.92322">
        <ele>1053.1</ele>
        <time>2022-06-05T09:12:29Z</time>
      </trkpt>
      <trkpt lat="48.04781" lon="6.92316">
        <ele>1049.3</ele>
        <time>2022-06-05T09:12:34Z</time>
      </trkpt>
      <trkpt lat="48.0478" lon="6.92307">
        <ele>1048.5</ele>
        <time>2022-06-05T09:12:39Z</time>
      </trkpt>
      <trkpt lat="48.04782" lon="6.923">
        <ele>1046.7</ele>
        <time>2022-06-05T09:12:44Z</time>
      </trkpt>
      <trkpt lat="48.04783" lon="6.92292">
        <ele>1047.8</ele>
        <time>2022-06-05T09:12:49Z</time>
      </trkpt>
      <trkpt lat="48.04783" lon="6.92285">
        <ele>1044.9</ele>
        <time>2022-06-05T09:12:53Z</time>
      </trkpt>
      <trkpt lat="48.04784" lon="6.92278">
        <ele>1039.4</ele>
        <time>2022-06-05T09:12:58Z</time>
      </trkpt>
      <trkpt lat="48.04784" lon="6.9227">
        <ele>1037.6</ele>
        <time>2022-06-05T09:13:04Z</time>
      </trkpt>
      <trkpt lat="48.04782" lon="6.92264">
        <ele>1037.6</ele>
        <time>2022-06-05T09:13:10Z</time>
      </trkpt>
      <trkpt lat="48.04783" lon="6.92256">
        <ele>1038.3</ele>
        <time>2022-06-05T09:13:20Z</time>
      </trkpt>
      <trkpt lat="48.04785" lon="6.9225">
        <ele>1038.7</ele>
        <time>2022-06-05T09:13:26Z</time>
      </trkpt>
      <trkpt lat="48.04784" lon="6.92242">
        <ele>1042</ele>
        <time>2022-06-05T09:13:32Z</time>
      </trkpt>
      <trkpt lat="48.04784" lon="6.92235">
        <ele>1042.2</ele>
        <time>2022-06-05T09:13:39Z</time>
      </trkpt>
      <trkpt lat="48.04783" lon="6.92229">
        <ele>1041.9</ele>
        <time>2022-06-05T09:13:44Z</time>
      </trkpt>
      <trkpt lat="48.04781" lon="6.92221">
        <ele>1041.1</ele>
        <time>2022-06-05T09:13:51Z</time>
      </trkpt>
      <trkpt lat="48.04781" lon="6.92215">
        <ele>1042.9</ele>
        <time>2022-06-05T09:13:56Z</time>
      </trkpt>
      <trkpt lat="48.04778" lon="6.92208">
        <ele>1043.4</ele>
        <time>2022-06-05T09:14:02Z</time>
      </trkpt>
      <trkpt lat="48.04777" lon="6.922">
        <ele>1043.9</ele>
        <time>2022-06-05T09:14:10Z</time>
      </trkpt>
      <trkpt lat="48.04773" lon="6.92194">
        <ele>1044.7</ele>
        <time>2022-06-05T09:14:15Z</time>
      </trkpt>
      <trkpt lat="48.04771" lon="6.92188">
        <ele>1044.8</ele>
        <time>2022-06-05T09:14:21Z</time>
      </trkpt>
      <trkpt lat="48.0477" lon="6.92181">
        <ele>1049.5</ele>
        <time>2022-06-05T09:14:28Z</time>
      </trkpt>
      <trkpt lat="48.04772" lon="6.92174">
        <ele>1050.2</ele>
        <time>2022-06-05T09:14:38Z</time>
      </trkpt>
      <trkpt lat="48.04775" lon="6.92168">
        <ele>1048</ele>
        <time>2022-06-05T09:14:45Z</time>
      </trkpt>
      <trkpt lat="48.04774" lon="6.92161">
        <ele>1045.6</ele>
        <time>2022-06-05T09:14:50Z</time>
      </trkpt>
      <trkpt lat="48.04771" lon="6.92154">
        <ele>1045.7</ele>
        <time>2022-06-05T09:14:52Z</time>
      </trkpt>
      <trkpt lat="48.04768" lon="6.92148">
        <ele>1046.3</ele>
        <time>2022-06-05T09:14:57Z</time>
      </trkpt>
      <trkpt lat="48.04765" lon="6.92141">
        <ele>1046.2</ele>
        <time>2022-06-05T09:15:01Z</time>
      </trkpt>
      <trkpt lat="48.04761" lon="6.92136">
        <ele>1045.8</ele>
        <time>2022-06-05T09:15:05Z</time>
      </trkpt>
      <trkpt lat="48.04757" lon="6.92131">
        <ele>1047.8</ele>
        <time>2022-06-05T09:15:08Z</time>
      </trkpt>
      <trkpt lat="48.04753" lon="6.92124">
        <ele>1045.2</ele>
        <time>2022-06-05T09:15:12Z</time>
      </trkpt>
      <trkpt lat="48.04749" lon="6.92117">
        <ele>1043.7</ele>
        <time>2022-06-05T09:15:18Z</time>
      </trkpt>
      <trkpt lat="48.04745" lon="6.9211">
        <ele>1046.9</ele>
        <time>2022-06-05T09:15:23Z</time>
      </trkpt>
      <trkpt lat="48.0474" lon="6.92106">
        <ele>1044</ele>
        <time>2022-06-05T09:15:28Z</time>
      </trkpt>
      <trkpt lat="48.04734" lon="6.92104">
        <ele>1040.3</ele>
        <time>2022-06-05T09:15:33Z</time>
      </trkpt>
      <trkpt lat="48.04728" lon="6.92103">
        <ele>1039.1</ele>
        <time>2022-06-05T09:15:38Z</time>
      </trkpt>
      <trkpt lat="48.04722" lon="6.921">
        <ele>1039.2</ele>
        <time>2022-06-05T09:15:43Z</time>
      </trkpt>
      <trkpt lat="48.04718" lon="6.92097">
        <ele>1035.5</ele>
        <time>2022-06-05T09:15:48Z</time>
      </trkpt>
      <trkpt lat="48.04714" lon="6.92093">
        <ele>1042.9</ele>
        <time>2022-06-05T09:15:53Z</time>
      </trkpt>
      <trkpt lat="48.0471" lon="6.92089">
        <ele>1044.4</ele>
        <time>2022-06-05T09:15:56Z</time>
      </trkpt>
      <trkpt lat="48.04705" lon="6.92086">
        <ele>1045.6</ele>
        <time>2022-06-05T09:15:59Z</time>
      </trkpt>
      <trkpt lat="48.04699" lon="6.92081">
        <ele>1048.3</ele>
        <time>2022-06-05T09:16:04Z</time>
      </trkpt>
      <trkpt lat="48.04693" lon="6.92076">
        <ele>1045.4</ele>
        <time>2022-06-05T09:16:08Z</time>
      </trkpt>
      <trkpt lat="48.04687" lon="6.92071">
        <ele>1044.3</ele>
        <time>2022-06-05T09:16:13Z</time>
      </trkpt>
      <trkpt lat="48.04682" lon="6.92068">
        <ele>1043.5</ele>
        <time>2022-06-05T09:16:18Z</time>
      </trkpt>
      <trkpt lat="48.04678" lon="6.92067">
        <ele>1044.2</ele>
        <time>2022-06-05T09:16:21Z</time>
      </trkpt>
      <trkpt lat="48.04673" lon="6.92065">
        <ele>1048.3</ele>
        <time>2022-06-05T09:16:25Z</time>
      </trkpt>
      <trkpt lat="48.04667" lon="6.92063">
        <ele>1053.1</ele>
        <time>2022-06-05T09:16:28Z</time>
      </trkpt>
      <trkpt lat="48.04663" lon="6.92061">
        <ele>1051.5</ele>
        <time>2022-06-05T09:16:32Z</time>
      </trkpt>
      <trkpt lat="48.04658" lon="6.92059">
        <ele>1053</ele>
        <time>2022-06-05T09:16:36Z</time>
      </trkpt>
      <trkpt lat="48.04653" lon="6.92057">
        <ele>1056.3</ele>
        <time>2022-06-05T09:16:39Z</time>
      </trkpt>
      <trkpt lat="48.04648" lon="6.92057">
        <ele>1040.8</ele>
        <time>2022-06-05T09:16:43Z</time>
      </trkpt>
      <trkpt lat="48.04644" lon="6.92059">
        <ele>1052.1</ele>
        <time>2022-06-05T09:16:46Z</time>
      </trkpt>
      <trkpt lat="48.04639" lon="6.92062">
        <ele>1053.3</ele>
        <time>2022-06-05T09:16:49Z</time>
      </trkpt>
      <trkpt lat="48.04633" lon="6.92066">
        <ele>1056.5</ele>
        <time>2022-06-05T09:16:54Z</time>
      </trkpt>
      <trkpt lat="48.04627" lon="6.9207">
        <ele>1056.4</ele>
        <time>2022-06-05T09:16:58Z</time>
      </trkpt>
      <trkpt lat="48.04621" lon="6.92074">
        <ele>1060.7</ele>
        <time>2022-06-05T09:17:04Z</time>
      </trkpt>
      <trkpt lat="48.04615" lon="6.92075">
        <ele>1060.4</ele>
        <time>2022-06-05T09:17:09Z</time>
      </trkpt>
      <trkpt lat="48.04611" lon="6.92079">
        <ele>1058.3</ele>
        <time>2022-06-05T09:17:13Z</time>
      </trkpt>
      <trkpt lat="48.04606" lon="6.92081">
        <ele>1057.8</ele>
        <time>2022-06-05T09:17:16Z</time>
      </trkpt>
      <trkpt lat="48.04601" lon="6.92084">
        <ele>1029.7</ele>
        <time>2022-06-05T09:17:21Z</time>
      </trkpt>
      <trkpt lat="48.04597" lon="6.92088">
        <ele>1046.8</ele>
        <time>2022-06-05T09:17:24Z</time>
      </trkpt>
      <trkpt lat="48.04592" lon="6.92093">
        <ele>1043.9</ele>
        <time>2022-06-05T09:17:29Z</time>
      </trkpt>
      <trkpt lat="48.04587" lon="6.92093">
        <ele>1024.5</ele>
        <time>2022-06-05T09:17:35Z</time>
      </trkpt>
      <trkpt lat="48.04582" lon="6.92094">
        <ele>1035.9</ele>
        <time>2022-06-05T09:17:39Z</time>
      </trkpt>
      <trkpt lat="48.04577" lon="6.92094">
        <ele>1042.8</ele>
        <time>2022-06-05T09:17:46Z</time>
      </trkpt>
      <trkpt lat="48.04572" lon="6.92091">
        <ele>1044.3</ele>
        <time>2022-06-05T09:17:54Z</time>
      </trkpt>
      <trkpt lat="48.04568" lon="6.92085">
        <ele>1045.3</ele>
        <time>2022-06-05T09:17:59Z</time>
      </trkpt>
      <trkpt lat="48.04564" lon="6.92079">
        <ele>1039.7</ele>
        <time>2022-06-05T09:18:07Z</time>
      </trkpt>
      <trkpt lat="48.04559" lon="6.92081">
        <ele>1040.3</ele>
        <time>2022-06-05T09:18:16Z</time>
      </trkpt>
      <trkpt lat="48.04555" lon="6.92081">
        <ele>1044.1</ele>
        <time>2022-06-05T09:18:29Z</time>
      </trkpt>
      <trkpt lat="48.04549" lon="6.92084">
        <ele>1045.3</ele>
        <time>2022-06-05T09:18:36Z</time>
      </trkpt>
      <trkpt lat="48.04544" lon="6.92083">
        <ele>1045.8</ele>
        <time>2022-06-05T09:18:40Z</time>
      </trkpt>
      <trkpt lat="48.04539" lon="6.92083">
        <ele>1044.1</ele>
        <time>2022-06-05T09:18:46Z</time>
      </trkpt>
      <trkpt lat="48.04535" lon="6.92087">
        <ele>1048.6</ele>
        <time>2022-06-05T09:18:52Z</time>
      </trkpt>
      <trkpt lat="48.04531" lon="6.92092">
        <ele>1050.1</ele>
        <time>2022-06-05T09:18:57Z</time>
      </trkpt>
      <trkpt lat="48.04527" lon="6.92095">
        <ele>1052.6</ele>
        <time>2022-06-05T09:19:03Z</time>
      </trkpt>
      <trkpt lat="48.04521" lon="6.92095">
        <ele>1032.9</ele>
        <time>2022-06-05T09:19:10Z</time>
      </trkpt>
      <trkpt lat="48.04516" lon="6.92097">
        <ele>1055.3</ele>
        <time>2022-06-05T09:19:17Z</time>
      </trkpt>
      <trkpt lat="48.0451" lon="6.92098">
        <ele>1058.7</ele>
        <time>2022-06-05T09:19:23Z</time>
      </trkpt>
      <trkpt lat="48.04505" lon="6.921">
        <ele>1058.3</ele>
        <time>2022-06-05T09:19:29Z</time>
      </trkpt>
      <trkpt lat="48.04502" lon="6.92104">
        <ele>1055.3</ele>
        <time>2022-06-05T09:19:36Z</time>
      </trkpt>
      <trkpt lat="48.045" lon="6.92111">
        <ele>1060</ele>
        <time>2022-06-05T09:19:42Z</time>
      </trkpt>
      <trkpt lat="48.04498" lon="6.92118">
        <ele>1059.6</ele>
        <time>2022-06-05T09:19:47Z</time>
      </trkpt>
      <trkpt lat="48.04496" lon="6.92123">
        <ele>1062.5</ele>
        <time>2022-06-05T09:19:53Z</time>
      </trkpt>
      <trkpt lat="48.04492" lon="6.92129">
        <ele>1061.5</ele>
        <time>2022-06-05T09:20:00Z</time>
      </trkpt>
      <trkpt lat="48.04488" lon="6.92133">
        <ele>1065.9</ele>
        <time>2022-06-05T09:20:06Z</time>
      </trkpt>
      <trkpt lat="48.04483" lon="6.92135">
        <ele>1064.7</ele>
        <time>2022-06-05T09:20:11Z</time>
      </trkpt>
      <trkpt lat="48.04478" lon="6.92137">
        <ele>1062.9</ele>
        <time>2022-06-05T09:20:17Z</time>
      </trkpt>
      <trkpt lat="48.04474" lon="6.92141">
        <ele>1062.4</ele>
        <time>2022-06-05T09:20:24Z</time>
      </trkpt>
      <trkpt lat="48.04469" lon="6.92138">
        <ele>1059.4</ele>
        <time>2022-06-05T09:20:29Z</time>
      </trkpt>
      <trkpt lat="48.04465" lon="6.92133">
        <ele>1058.4</ele>
        <time>2022-06-05T09:20:33Z</time>
      </trkpt>
      <trkpt lat="48.0446" lon="6.92129">
        <ele>1063.7</ele>
        <time>2022-06-05T09:20:39Z</time>
      </trkpt>
      <trkpt lat="48.04456" lon="6.92128">
        <ele>1069</ele>
        <time>2022-06-05T09:20:46Z</time>
      </trkpt>
      <trkpt lat="48.0445" lon="6.92128">
        <ele>1072.1</ele>
        <time>2022-06-05T09:20:56Z</time>
      </trkpt>
      <trkpt lat="48.04446" lon="6.92134">
        <ele>1074.3</ele>
        <time>2022-06-05T09:21:04Z</time>
      </trkpt>
      <trkpt lat="48.04443" lon="6.9214">
        <ele>1074.3</ele>
        <time>2022-06-05T09:21:09Z</time>
      </trkpt>
      <trkpt lat="48.04439" lon="6.92146">
        <ele>1076.1</ele>
        <time>2022-06-05T09:21:13Z</time>
      </trkpt>
      <trkpt lat="48.04435" lon="6.92149">
        <ele>1076.2</ele>
        <time>2022-06-05T09:21:17Z</time>
      </trkpt>
      <trkpt lat="48.04431" lon="6.92153">
        <ele>1075.7</ele>
        <time>2022-06-05T09:21:21Z</time>
      </trkpt>
      <trkpt lat="48.04423" lon="6.9215">
        <ele>1070.6</ele>
        <time>2022-06-05T09:21:31Z</time>
      </trkpt>
      <trkpt lat="48.04418" lon="6.92148">
        <ele>1071</ele>
        <time>2022-06-05T09:21:36Z</time>
      </trkpt>
      <trkpt lat="48.04413" lon="6.92147">
        <ele>1070.3</ele>
        <time>2022-06-05T09:21:43Z</time>
      </trkpt>
      <trkpt lat="48.04409" lon="6.92149">
        <ele>1069.9</ele>
        <time>2022-06-05T09:21:49Z</time>
      </trkpt>
      <trkpt lat="48.04404" lon="6.9215">
        <ele>1070.7</ele>
        <time>2022-06-05T09:21:58Z</time>
      </trkpt>
      <trkpt lat="48.04399" lon="6.92149">
        <ele>1055.7</ele>
        <time>2022-06-05T09:22:03Z</time>
      </trkpt>
      <trkpt lat="48.04394" lon="6.92146">
        <ele>1064.5</ele>
        <time>2022-06-05T09:22:08Z</time>
      </trkpt>
      <trkpt lat="48.04389" lon="6.92141">
        <ele>1069.1</ele>
        <time>2022-06-05T09:22:12Z</time>
      </trkpt>
      <trkpt lat="48.04385" lon="6.92136">
        <ele>1069.1</ele>
        <time>2022-06-05T09:22:16Z</time>
      </trkpt>
      <trkpt lat="48.0438" lon="6.92134">
        <ele>1069.7</ele>
        <time>2022-06-05T09:22:20Z</time>
      </trkpt>
      <trkpt lat="48.04376" lon="6.9213">
        <ele>1070</ele>
        <time>2022-06-05T09:22:24Z</time>
      </trkpt>
      <trkpt lat="48.04372" lon="6.92125">
        <ele>1068.9</ele>
        <time>2022-06-05T09:22:29Z</time>
      </trkpt>
      <trkpt lat="48.04367" lon="6.92123">
        <ele>1071.4</ele>
        <time>2022-06-05T09:22:33Z</time>
      </trkpt>
      <trkpt lat="48.04367" lon="6.92115">
        <ele>1068.3</ele>
        <time>2022-06-05T09:22:42Z</time>
      </trkpt>
      <trkpt lat="48.04363" lon="6.9211">
        <ele>1064.9</ele>
        <time>2022-06-05T09:22:49Z</time>
      </trkpt>
      <trkpt lat="48.04361" lon="6.92103">
        <ele>1066.6</ele>
        <time>2022-06-05T09:22:54Z</time>
      </trkpt>
      <trkpt lat="48.04358" lon="6.92096">
        <ele>1068</ele>
        <time>2022-06-05T09:23:01Z</time>
      </trkpt>
      <trkpt lat="48.04354" lon="6.9209">
        <ele>1067.8</ele>
        <time>2022-06-05T09:23:06Z</time>
      </trkpt>
      <trkpt lat="48.0435" lon="6.92085">
        <ele>1063.9</ele>
        <time>2022-06-05T09:23:11Z</time>
      </trkpt>
      <trkpt lat="48.04348" lon="6.92079">
        <ele>1060.3</ele>
        <time>2022-06-05T09:23:15Z</time>
      </trkpt>
      <trkpt lat="48.04345" lon="6.92073">
        <ele>1059.2</ele>
        <time>2022-06-05T09:23:20Z</time>
      </trkpt>
      <trkpt lat="48.04343" lon="6.92067">
        <ele>1063.1</ele>
        <time>2022-06-05T09:23:24Z</time>
      </trkpt>
      <trkpt lat="48.04338" lon="6.92061">
        <ele>1068.1</ele>
        <time>2022-06-05T09:23:30Z</time>
      </trkpt>
      <trkpt lat="48.04336" lon="6.92055">
        <ele>1067.3</ele>
        <time>2022-06-05T09:23:33Z</time>
      </trkpt>
      <trkpt lat="48.04334" lon="6.92048">
        <ele>1069.5</ele>
        <time>2022-06-05T09:23:39Z</time>
      </trkpt>
      <trkpt lat="48.04329" lon="6.92043">
        <ele>1066.9</ele>
        <time>2022-06-05T09:23:54Z</time>
      </trkpt>
      <trkpt lat="48.04326" lon="6.92037">
        <ele>1067.7</ele>
        <time>2022-06-05T09:23:59Z</time>
      </trkpt>
      <trkpt lat="48.04324" lon="6.9203">
        <ele>1069.6</ele>
        <time>2022-06-05T09:24:04Z</time>
      </trkpt>
      <trkpt lat="48.04323" lon="6.92023">
        <ele>1072.7</ele>
        <time>2022-06-05T09:24:10Z</time>
      </trkpt>
      <trkpt lat="48.04318" lon="6.92025">
        <ele>1073.4</ele>
        <time>2022-06-05T09:24:23Z</time>
      </trkpt>
      <trkpt lat="48.04315" lon="6.92018">
        <ele>1073.2</ele>
        <time>2022-06-05T09:24:29Z</time>
      </trkpt>
      <trkpt lat="48.04314" lon="6.92011">
        <ele>1075</ele>
        <time>2022-06-05T09:24:33Z</time>
      </trkpt>
      <trkpt lat="48.04311" lon="6.92004">
        <ele>1076.8</ele>
        <time>2022-06-05T09:24:40Z</time>
      </trkpt>
      <trkpt lat="48.04308" lon="6.91998">
        <ele>1077.2</ele>
        <time>2022-06-05T09:24:45Z</time>
      </trkpt>
      <trkpt lat="48.04304" lon="6.91991">
        <ele>1075.8</ele>
        <time>2022-06-05T09:24:50Z</time>
      </trkpt>
      <trkpt lat="48.04302" lon="6.91984">
        <ele>1077.8</ele>
        <time>2022-06-05T09:24:54Z</time>
      </trkpt>
      <trkpt lat="48.04298" lon="6.91978">
        <ele>1077.3</ele>
        <time>2022-06-05T09:24:59Z</time>
      </trkpt>
      <trkpt lat="48.04295" lon="6.91972">
        <ele>1079.3</ele>
        <time>2022-06-05T09:25:03Z</time>
      </trkpt>
      <trkpt lat="48.04291" lon="6.91967">
        <ele>1081</ele>
        <time>2022-06-05T09:25:09Z</time>
      </trkpt>
      <trkpt lat="48.04287" lon="6.91961">
        <ele>1082.7</ele>
        <time>2022-06-05T09:25:14Z</time>
      </trkpt>
      <trkpt lat="48.04282" lon="6.91956">
        <ele>1085.7</ele>
        <time>2022-06-05T09:25:19Z</time>
      </trkpt>
      <trkpt lat="48.04276" lon="6.91951">
        <ele>1085</ele>
        <time>2022-06-05T09:25:24Z</time>
      </trkpt>
      <trkpt lat="48.04272" lon="6.91945">
        <ele>1086</ele>
        <time>2022-06-05T09:25:29Z</time>
      </trkpt>
      <trkpt lat="48.04269" lon="6.91938">
        <ele>1088.9</ele>
        <time>2022-06-05T09:25:34Z</time>
      </trkpt>
      <trkpt lat="48.04266" lon="6.91931">
        <ele>1090.2</ele>
        <time>2022-06-05T09:25:40Z</time>
      </trkpt>
      <trkpt lat="48.04263" lon="6.91926">
        <ele>1089</ele>
        <time>2022-06-05T09:25:44Z</time>
      </trkpt>
      <trkpt lat="48.04259" lon="6.91921">
        <ele>1090.4</ele>
        <time>2022-06-05T09:25:49Z</time>
      </trkpt>
      <trkpt lat="48.04256" lon="6.91914">
        <ele>1088.9</ele>
        <time>2022-06-05T09:25:54Z</time>
      </trkpt>
      <trkpt lat="48.04253" lon="6.91907">
        <ele>1091.8</ele>
        <time>2022-06-05T09:25:59Z</time>
      </trkpt>
      <trkpt lat="48.0425" lon="6.91902">
        <ele>1092</ele>
        <time>2022-06-05T09:26:06Z</time>
      </trkpt>
      <trkpt lat="48.04245" lon="6.91897">
        <ele>1093.4</ele>
        <time>2022-06-05T09:26:12Z</time>
      </trkpt>
      <trkpt lat="48.04242" lon="6.91891">
        <ele>1090.6</ele>
        <time>2022-06-05T09:26:17Z</time>
      </trkpt>
      <trkpt lat="48.04239" lon="6.91884">
        <ele>1091.8</ele>
        <time>2022-06-05T09:26:23Z</time>
      </trkpt>
      <trkpt lat="48.04237" lon="6.91878">
        <ele>1090.5</ele>
        <time>2022-06-05T09:26:29Z</time>
      </trkpt>
      <trkpt lat="48.04233" lon="6.91871">
        <ele>1089.3</ele>
        <time>2022-06-05T09:26:35Z</time>
      </trkpt>
      <trkpt lat="48.04228" lon="6.91866">
        <ele>1088.7</ele>
        <time>2022-06-05T09:26:40Z</time>
      </trkpt>
      <trkpt lat="48.04225" lon="6.91859">
        <ele>1089.7</ele>
        <time>2022-06-05T09:26:45Z</time>
      </trkpt>
      <trkpt lat="48.04222" lon="6.91855">
        <ele>1092.9</ele>
        <time>2022-06-05T09:26:51Z</time>
      </trkpt>
      <trkpt lat="48.04222" lon="6.91847">
        <ele>1096.4</ele>
        <time>2022-06-05T09:26:57Z</time>
      </trkpt>
      <trkpt lat="48.0422" lon="6.91841">
        <ele>1095.2</ele>
        <time>2022-06-05T09:27:03Z</time>
      </trkpt>
      <trkpt lat="48.04217" lon="6.91834">
        <ele>1095.6</ele>
        <time>2022-06-05T09:27:10Z</time>
      </trkpt>
      <trkpt lat="48.04223" lon="6.91824">
        <ele>1093.1</ele>
        <time>2022-06-05T09:27:18Z</time>
      </trkpt>
      <trkpt lat="48.04222" lon="6.91817">
        <ele>1091.3</ele>
        <time>2022-06-05T09:27:23Z</time>
      </trkpt>
      <trkpt lat="48.0422" lon="6.9181">
        <ele>1088.3</ele>
        <time>2022-06-05T09:27:29Z</time>
      </trkpt>
      <trkpt lat="48.04218" lon="6.91804">
        <ele>1085.6</ele>
        <time>2022-06-05T09:27:35Z</time>
      </trkpt>
      <trkpt lat="48.04215" lon="6.91795">
        <ele>1087.1</ele>
        <time>2022-06-05T09:27:42Z</time>
      </trkpt>
      <trkpt lat="48.04212" lon="6.9179">
        <ele>1087</ele>
        <time>2022-06-05T09:27:47Z</time>
      </trkpt>
      <trkpt lat="48.04209" lon="6.91783">
        <ele>1089.6</ele>
        <time>2022-06-05T09:27:52Z</time>
      </trkpt>
      <trkpt lat="48.04209" lon="6.91775">
        <ele>1091</ele>
        <time>2022-06-05T09:27:57Z</time>
      </trkpt>
      <trkpt lat="48.04209" lon="6.91768">
        <ele>1092.7</ele>
        <time>2022-06-05T09:28:03Z</time>
      </trkpt>
      <trkpt lat="48.04211" lon="6.91762">
        <ele>1098.4</ele>
        <time>2022-06-05T09:28:07Z</time>
      </trkpt>
      <trkpt lat="48.04216" lon="6.91757">
        <ele>1102.4</ele>
        <time>2022-06-05T09:28:12Z</time>
      </trkpt>
      <trkpt lat="48.0422" lon="6.91754">
        <ele>1102.5</ele>
        <time>2022-06-05T09:28:17Z</time>
      </trkpt>
      <trkpt lat="48.04224" lon="6.91747">
        <ele>1100.9</ele>
        <time>2022-06-05T09:28:22Z</time>
      </trkpt>
      <trkpt lat="48.04227" lon="6.91739">
        <ele>1101.2</ele>
        <time>2022-06-05T09:28:27Z</time>
      </trkpt>
      <trkpt lat="48.04229" lon="6.91732">
        <ele>1093.9</ele>
        <time>2022-06-05T09:28:32Z</time>
      </trkpt>
      <trkpt lat="48.04228" lon="6.91724">
        <ele>1094.7</ele>
        <time>2022-06-05T09:28:36Z</time>
      </trkpt>
      <trkpt lat="48.04228" lon="6.91717">
        <ele>1095.6</ele>
        <time>2022-06-05T09:28:40Z</time>
      </trkpt>
      <trkpt lat="48.04228" lon="6.91709">
        <ele>1093.6</ele>
        <time>2022-06-05T09:28:44Z</time>
      </trkpt>
      <trkpt lat="48.0423" lon="6.91703">
        <ele>1091.1</ele>
        <time>2022-06-05T09:28:48Z</time>
      </trkpt>
      <trkpt lat="48.04232" lon="6.91696">
        <ele>1090</ele>
        <time>2022-06-05T09:28:54Z</time>
      </trkpt>
      <trkpt lat="48.04229" lon="6.91688">
        <ele>1092.3</ele>
        <time>2022-06-05T09:29:00Z</time>
      </trkpt>
      <trkpt lat="48.04226" lon="6.91681">
        <ele>1093.8</ele>
        <time>2022-06-05T09:29:04Z</time>
      </trkpt>
      <trkpt lat="48.04224" lon="6.91674">
        <ele>1093.9</ele>
        <time>2022-06-05T09:29:08Z</time>
      </trkpt>
      <trkpt lat="48.04224" lon="6.91666">
        <ele>1096.6</ele>
        <time>2022-06-05T09:29:12Z</time>
      </trkpt>
      <trkpt lat="48.04224" lon="6.91654">
        <ele>1087.7</ele>
        <time>2022-06-05T09:29:21Z</time>
      </trkpt>
      <trkpt lat="48.04222" lon="6.91646">
        <ele>1086.9</ele>
        <time>2022-06-05T09:29:25Z</time>
      </trkpt>
      <trkpt lat="48.04218" lon="6.9164">
        <ele>1085</ele>
        <time>2022-06-05T09:29:30Z</time>
      </trkpt>
      <trkpt lat="48.04216" lon="6.91631">
        <ele>1085</ele>
        <time>2022-06-05T09:29:34Z</time>
      </trkpt>
      <trkpt lat="48.04217" lon="6.91625">
        <ele>1088.3</ele>
        <time>2022-06-05T09:29:38Z</time>
      </trkpt>
      <trkpt lat="48.04216" lon="6.91618">
        <ele>1084.2</ele>
        <time>2022-06-05T09:29:42Z</time>
      </trkpt>
      <trkpt lat="48.04212" lon="6.91613">
        <ele>1085.2</ele>
        <time>2022-06-05T09:29:48Z</time>
      </trkpt>
      <trkpt lat="48.04209" lon="6.91607">
        <ele>1080.3</ele>
        <time>2022-06-05T09:29:54Z</time>
      </trkpt>
      <trkpt lat="48.04206" lon="6.916">
        <ele>1079.3</ele>
        <time>2022-06-05T09:30:00Z</time>
      </trkpt>
      <trkpt lat="48.04204" lon="6.91593">
        <ele>1079.9</ele>
        <time>2022-06-05T09:30:06Z</time>
      </trkpt>
      <trkpt lat="48.04201" lon="6.91587">
        <ele>1082.1</ele>
        <time>2022-06-05T09:30:10Z</time>
      </trkpt>
      <trkpt lat="48.04203" lon="6.91578">
        <ele>1082.3</ele>
        <time>2022-06-05T09:30:15Z</time>
      </trkpt>
      <trkpt lat="48.04206" lon="6.91571">
        <ele>1084.1</ele>
        <time>2022-06-05T09:30:19Z</time>
      </trkpt>
      <trkpt lat="48.04205" lon="6.91563">
        <ele>1084.4</ele>
        <time>2022-06-05T09:30:25Z</time>
      </trkpt>
      <trkpt lat="48.04202" lon="6.91555">
        <ele>1082.6</ele>
        <time>2022-06-05T09:30:31Z</time>
      </trkpt>
      <trkpt lat="48.04201" lon="6.91548">
        <ele>1082</ele>
        <time>2022-06-05T09:30:35Z</time>
      </trkpt>
      <trkpt lat="48.04201" lon="6.91541">
        <ele>1079.3</ele>
        <time>2022-06-05T09:30:40Z</time>
      </trkpt>
      <trkpt lat="48.04199" lon="6.91533">
        <ele>1082.6</ele>
        <time>2022-06-05T09:30:44Z</time>
      </trkpt>
      <trkpt lat="48.04196" lon="6.91526">
        <ele>1081.8</ele>
        <time>2022-06-05T09:30:50Z</time>
      </trkpt>
      <trkpt lat="48.04194" lon="6.91519">
        <ele>1079</ele>
        <time>2022-06-05T09:30:56Z</time>
      </trkpt>
      <trkpt lat="48.04193" lon="6.91511">
        <ele>1077.7</ele>
        <time>2022-06-05T09:31:01Z</time>
      </trkpt>
      <trkpt lat="48.04193" lon="6.91502">
        <ele>1077.4</ele>
        <time>2022-06-05T09:31:05Z</time>
      </trkpt>
      <trkpt lat="48.04195" lon="6.91494">
        <ele>1077</ele>
        <time>2022-06-05T09:31:11Z</time>
      </trkpt>
      <trkpt lat="48.04195" lon="6.91486">
        <ele>1073.2</ele>
        <time>2022-06-05T09:31:17Z</time>
      </trkpt>
      <trkpt lat="48.04193" lon="6.91479">
        <ele>1074</ele>
        <time>2022-06-05T09:31:23Z</time>
      </trkpt>
      <trkpt lat="48.04191" lon="6.91473">
        <ele>1071.8</ele>
        <time>2022-06-05T09:31:27Z</time>
      </trkpt>
      <trkpt lat="48.04188" lon="6.91467">
        <ele>1072.1</ele>
        <time>2022-06-05T09:31:32Z</time>
      </trkpt>
      <trkpt lat="48.04185" lon="6.91462">
        <ele>1070.4</ele>
        <time>2022-06-05T09:31:35Z</time>
      </trkpt>
      <trkpt lat="48.04182" lon="6.91455">
        <ele>1068.6</ele>
        <time>2022-06-05T09:31:40Z</time>
      </trkpt>
      <trkpt lat="48.04182" lon="6.91447">
        <ele>1072.2</ele>
        <time>2022-06-05T09:31:44Z</time>
      </trkpt>
      <trkpt lat="48.04182" lon="6.9144">
        <ele>1072.2</ele>
        <time>2022-06-05T09:31:49Z</time>
      </trkpt>
      <trkpt lat="48.04184" lon="6.91433">
        <ele>1073.5</ele>
        <time>2022-06-05T09:31:55Z</time>
      </trkpt>
      <trkpt lat="48.04185" lon="6.91426">
        <ele>1073.3</ele>
        <time>2022-06-05T09:32:01Z</time>
      </trkpt>
      <trkpt lat="48.04185" lon="6.9142">
        <ele>1068.5</ele>
        <time>2022-06-05T09:32:05Z</time>
      </trkpt>
      <trkpt lat="48.04185" lon="6.91412">
        <ele>1066.9</ele>
        <time>2022-06-05T09:32:10Z</time>
      </trkpt>
      <trkpt lat="48.04186" lon="6.91405">
        <ele>1064.1</ele>
        <time>2022-06-05T09:32:15Z</time>
      </trkpt>
      <trkpt lat="48.04184" lon="6.91394">
        <ele>1066.5</ele>
        <time>2022-06-05T09:32:21Z</time>
      </trkpt>
      <trkpt lat="48.04183" lon="6.91386">
        <ele>1067.7</ele>
        <time>2022-06-05T09:32:27Z</time>
      </trkpt>
      <trkpt lat="48.04182" lon="6.91378">
        <ele>1068.3</ele>
        <time>2022-06-05T09:32:32Z</time>
      </trkpt>
      <trkpt lat="48.04184" lon="6.91371">
        <ele>1067</ele>
        <time>2022-06-05T09:32:39Z</time>
      </trkpt>
      <trkpt lat="48.04184" lon="6.91364">
        <ele>1064.1</ele>
        <time>2022-06-05T09:32:52Z</time>
      </trkpt>
      <trkpt lat="48.04183" lon="6.91357">
        <ele>1063.6</ele>
        <time>2022-06-05T09:32:57Z</time>
      </trkpt>
      <trkpt lat="48.04183" lon="6.91349">
        <ele>1066.4</ele>
        <time>2022-06-05T09:33:02Z</time>
      </trkpt>
      <trkpt lat="48.04182" lon="6.91341">
        <ele>1062.5</ele>
        <time>2022-06-05T09:33:06Z</time>
      </trkpt>
      <trkpt lat="48.04178" lon="6.91345">
        <ele>1063</ele>
        <time>2022-06-05T09:33:12Z</time>
      </trkpt>
      <trkpt lat="48.04177" lon="6.91352">
        <ele>1058.1</ele>
        <time>2022-06-05T09:33:19Z</time>
      </trkpt>
      <trkpt lat="48.04181" lon="6.91348">
        <ele>1059.9</ele>
        <time>2022-06-05T09:33:48Z</time>
      </trkpt>
      <trkpt lat="48.0418" lon="6.91341">
        <ele>1058</ele>
        <time>2022-06-05T09:33:54Z</time>
      </trkpt>
      <trkpt lat="48.04179" lon="6.91332">
        <ele>1056</ele>
        <time>2022-06-05T09:34:01Z</time>
      </trkpt>
      <trkpt lat="48.04181" lon="6.91324">
        <ele>1054.4</ele>
        <time>2022-06-05T09:34:04Z</time>
      </trkpt>
      <trkpt lat="48.04182" lon="6.91315">
        <ele>1055.2</ele>
        <time>2022-06-05T09:34:09Z</time>
      </trkpt>
      <trkpt lat="48.04183" lon="6.91309">
        <ele>1054.3</ele>
        <time>2022-06-05T09:34:12Z</time>
      </trkpt>
      <trkpt lat="48.04183" lon="6.91302">
        <ele>1052.9</ele>
        <time>2022-06-05T09:34:17Z</time>
      </trkpt>
      <trkpt lat="48.04179" lon="6.91295">
        <ele>1053.5</ele>
        <time>2022-06-05T09:34:22Z</time>
      </trkpt>
      <trkpt lat="48.04176" lon="6.9129">
        <ele>1050.6</ele>
        <time>2022-06-05T09:34:27Z</time>
      </trkpt>
      <trkpt lat="48.04173" lon="6.91285">
        <ele>1047.8</ele>
        <time>2022-06-05T09:34:32Z</time>
      </trkpt>
      <trkpt lat="48.04173" lon="6.91277">
        <ele>1047.2</ele>
        <time>2022-06-05T09:34:38Z</time>
      </trkpt>
      <trkpt lat="48.04178" lon="6.91273">
        <ele>1048.5</ele>
        <time>2022-06-05T09:34:43Z</time>
      </trkpt>
      <trkpt lat="48.04182" lon="6.9127">
        <ele>1048.7</ele>
        <time>2022-06-05T09:34:49Z</time>
      </trkpt>
      <trkpt lat="48.04183" lon="6.91263">
        <ele>1048.3</ele>
        <time>2022-06-05T09:34:55Z</time>
      </trkpt>
      <trkpt lat="48.04184" lon="6.91255">
        <ele>1047.8</ele>
        <time>2022-06-05T09:34:59Z</time>
      </trkpt>
      <trkpt lat="48.04183" lon="6.91248">
        <ele>1047.4</ele>
        <time>2022-06-05T09:35:05Z</time>
      </trkpt>
      <trkpt lat="48.04184" lon="6.91255">
        <ele>1049.9</ele>
        <time>2022-06-05T09:35:26Z</time>
      </trkpt>
      <trkpt lat="48.04187" lon="6.9126">
        <ele>1055.5</ele>
        <time>2022-06-05T09:36:01Z</time>
      </trkpt>
      <trkpt lat="48.04189" lon="6.91253">
        <ele>1055.5</ele>
        <time>2022-06-05T09:36:25Z</time>
      </trkpt>
      <trkpt lat="48.04186" lon="6.91258">
        <ele>1053.4</ele>
        <time>2022-06-05T09:36:44Z</time>
      </trkpt>
      <trkpt lat="48.04188" lon="6.91264">
        <ele>1054.2</ele>
        <time>2022-06-05T09:36:54Z</time>
      </trkpt>
      <trkpt lat="48.04184" lon="6.91271">
        <ele>1056.7</ele>
        <time>2022-06-05T09:37:00Z</time>
      </trkpt>
      <trkpt lat="48.04181" lon="6.91276">
        <ele>1059.1</ele>
        <time>2022-06-05T09:37:06Z</time>
      </trkpt>
      <trkpt lat="48.04177" lon="6.91282">
        <ele>1060.3</ele>
        <time>2022-06-05T09:37:13Z</time>
      </trkpt>
      <trkpt lat="48.04172" lon="6.91286">
        <ele>1059.8</ele>
        <time>2022-06-05T09:37:18Z</time>
      </trkpt>
      <trkpt lat="48.04168" lon="6.91288">
        <ele>1058.2</ele>
        <time>2022-06-05T09:37:22Z</time>
      </trkpt>
      <trkpt lat="48.04163" lon="6.91291">
        <ele>1058.8</ele>
        <time>2022-06-05T09:37:27Z</time>
      </trkpt>
      <trkpt lat="48.04159" lon="6.91297">
        <ele>1060.2</ele>
        <time>2022-06-05T09:37:32Z</time>
      </trkpt>
      <trkpt lat="48.04157" lon="6.91303">
        <ele>1059.5</ele>
        <time>2022-06-05T09:37:37Z</time>
      </trkpt>
      <trkpt lat="48.04156" lon="6.9131">
        <ele>1060.1</ele>
        <time>2022-06-05T09:37:43Z</time>
      </trkpt>
      <trkpt lat="48.04159" lon="6.91303">
        <ele>1050.4</ele>
        <time>2022-06-05T09:37:51Z</time>
      </trkpt>
      <trkpt lat="48.04159" lon="6.91294">
        <ele>1046.5</ele>
        <time>2022-06-05T09:37:56Z</time>
      </trkpt>
      <trkpt lat="48.04163" lon="6.9129">
        <ele>1047.8</ele>
        <time>2022-06-05T09:38:03Z</time>
      </trkpt>
      <trkpt lat="48.04166" lon="6.91295">
        <ele>1046</ele>
        <time>2022-06-05T09:38:09Z</time>
      </trkpt>
      <trkpt lat="48.0417" lon="6.91301">
        <ele>1050.5</ele>
        <time>2022-06-05T09:38:17Z</time>
      </trkpt>
      <trkpt lat="48.04174" lon="6.91306">
        <ele>1052.8</ele>
        <time>2022-06-05T09:38:21Z</time>
      </trkpt>
      <trkpt lat="48.04176" lon="6.91313">
        <ele>1052.2</ele>
        <time>2022-06-05T09:38:26Z</time>
      </trkpt>
      <trkpt lat="48.04179" lon="6.91319">
        <ele>1052</ele>
        <time>2022-06-05T09:38:34Z</time>
      </trkpt>
      <trkpt lat="48.0418" lon="6.91326">
        <ele>1050.8</ele>
        <time>2022-06-05T09:38:38Z</time>
      </trkpt>
      <trkpt lat="48.0418" lon="6.91334">
        <ele>1053.5</ele>
        <time>2022-06-05T09:38:42Z</time>
      </trkpt>
      <trkpt lat="48.04179" lon="6.91343">
        <ele>1056.5</ele>
        <time>2022-06-05T09:38:47Z</time>
      </trkpt>
      <trkpt lat="48.04179" lon="6.9135">
        <ele>1056.5</ele>
        <time>2022-06-05T09:38:50Z</time>
      </trkpt>
      <trkpt lat="48.04179" lon="6.91359">
        <ele>1057.8</ele>
        <time>2022-06-05T09:38:55Z</time>
      </trkpt>
      <trkpt lat="48.04179" lon="6.91366">
        <ele>1060</ele>
        <time>2022-06-05T09:39:01Z</time>
      </trkpt>
      <trkpt lat="48.04177" lon="6.91372">
        <ele>1062.4</ele>
        <time>2022-06-05T09:39:10Z</time>
      </trkpt>
      <trkpt lat="48.04179" lon="6.91381">
        <ele>1063.2</ele>
        <time>2022-06-05T09:39:15Z</time>
      </trkpt>
      <trkpt lat="48.04182" lon="6.91387">
        <ele>1065</ele>
        <time>2022-06-05T09:39:19Z</time>
      </trkpt>
      <trkpt lat="48.04185" lon="6.91393">
        <ele>1065</ele>
        <time>2022-06-05T09:39:23Z</time>
      </trkpt>
      <trkpt lat="48.04189" lon="6.91398">
        <ele>1067.9</ele>
        <time>2022-06-05T09:39:27Z</time>
      </trkpt>
      <trkpt lat="48.04191" lon="6.91406">
        <ele>1067.4</ele>
        <time>2022-06-05T09:39:33Z</time>
      </trkpt>
      <trkpt lat="48.04194" lon="6.91412">
        <ele>1068.7</ele>
        <time>2022-06-05T09:39:38Z</time>
      </trkpt>
      <trkpt lat="48.04198" lon="6.91417">
        <ele>1072.1</ele>
        <time>2022-06-05T09:39:44Z</time>
      </trkpt>
      <trkpt lat="48.04202" lon="6.91422">
        <ele>1074</ele>
        <time>2022-06-05T09:39:50Z</time>
      </trkpt>
      <trkpt lat="48.04205" lon="6.91428">
        <ele>1073</ele>
        <time>2022-06-05T09:39:56Z</time>
      </trkpt>
      <trkpt lat="48.04208" lon="6.91434">
        <ele>1071.2</ele>
        <time>2022-06-05T09:40:01Z</time>
      </trkpt>
      <trkpt lat="48.0421" lon="6.91441">
        <ele>1072.2</ele>
        <time>2022-06-05T09:40:07Z</time>
      </trkpt>
      <trkpt lat="48.04214" lon="6.91448">
        <ele>1071.4</ele>
        <time>2022-06-05T09:40:13Z</time>
      </trkpt>
      <trkpt lat="48.04218" lon="6.91451">
        <ele>1071.8</ele>
        <time>2022-06-05T09:40:19Z</time>
      </trkpt>
      <trkpt lat="48.04223" lon="6.9145">
        <ele>1073.7</ele>
        <time>2022-06-05T09:40:25Z</time>
      </trkpt>
      <trkpt lat="48.04227" lon="6.91453">
        <ele>1076.4</ele>
        <time>2022-06-05T09:40:32Z</time>
      </trkpt>
      <trkpt lat="48.04231" lon="6.91456">
        <ele>1076.4</ele>
        <time>2022-06-05T09:40:38Z</time>
      </trkpt>
      <trkpt lat="48.04235" lon="6.91463">
        <ele>1075</ele>
        <time>2022-06-05T09:40:45Z</time>
      </trkpt>
      <trkpt lat="48.04239" lon="6.91465">
        <ele>1076.3</ele>
        <time>2022-06-05T09:40:51Z</time>
      </trkpt>
      <trkpt lat="48.04244" lon="6.91468">
        <ele>1078.6</ele>
        <time>2022-06-05T09:40:57Z</time>
      </trkpt>
      <trkpt lat="48.04247" lon="6.91474">
        <ele>1080.7</ele>
        <time>2022-06-05T09:41:03Z</time>
      </trkpt>
      <trkpt lat="48.0425" lon="6.9148">
        <ele>1079.6</ele>
        <time>2022-06-05T09:41:08Z</time>
      </trkpt>
      <trkpt lat="48.04254" lon="6.91485">
        <ele>1078.7</ele>
        <time>2022-06-05T09:41:14Z</time>
      </trkpt>
      <trkpt lat="48.04259" lon="6.91489">
        <ele>1078.3</ele>
        <time>2022-06-05T09:41:20Z</time>
      </trkpt>
      <trkpt lat="48.04263" lon="6.91493">
        <ele>1079.7</ele>
        <time>2022-06-05T09:41:26Z</time>
      </trkpt>
      <trkpt lat="48.04267" lon="6.915">
        <ele>1080.2</ele>
        <time>2022-06-05T09:41:31Z</time>
      </trkpt>
      <trkpt lat="48.04271" lon="6.91506">
        <ele>1081.5</ele>
        <time>2022-06-05T09:41:36Z</time>
      </trkpt>
      <trkpt lat="48.04274" lon="6.91512">
        <ele>1079.6</ele>
        <time>2022-06-05T09:41:42Z</time>
      </trkpt>
      <trkpt lat="48.04278" lon="6.91515">
        <ele>1082</ele>
        <time>2022-06-05T09:41:49Z</time>
      </trkpt>
      <trkpt lat="48.04283" lon="6.91515">
        <ele>1084.5</ele>
        <time>2022-06-05T09:41:56Z</time>
      </trkpt>
      <trkpt lat="48.04288" lon="6.91517">
        <ele>1087.7</ele>
        <time>2022-06-05T09:42:03Z</time>
      </trkpt>
      <trkpt lat="48.04292" lon="6.9152">
        <ele>1090.3</ele>
        <time>2022-06-05T09:42:09Z</time>
      </trkpt>
      <trkpt lat="48.04296" lon="6.91523">
        <ele>1092</ele>
        <time>2022-06-05T09:42:16Z</time>
      </trkpt>
      <trkpt lat="48.04301" lon="6.91526">
        <ele>1090.8</ele>
        <time>2022-06-05T09:42:23Z</time>
      </trkpt>
      <trkpt lat="48.04306" lon="6.91528">
        <ele>1090</ele>
        <time>2022-06-05T09:42:29Z</time>
      </trkpt>
      <trkpt lat="48.0431" lon="6.91533">
        <ele>1089</ele>
        <time>2022-06-05T09:42:37Z</time>
      </trkpt>
      <trkpt lat="48.04313" lon="6.9154">
        <ele>1087.9</ele>
        <time>2022-06-05T09:42:43Z</time>
      </trkpt>
      <trkpt lat="48.04315" lon="6.91546">
        <ele>1088.8</ele>
        <time>2022-06-05T09:42:48Z</time>
      </trkpt>
      <trkpt lat="48.04318" lon="6.91553">
        <ele>1088.9</ele>
        <time>2022-06-05T09:42:54Z</time>
      </trkpt>
      <trkpt lat="48.04318" lon="6.9156">
        <ele>1089.1</ele>
        <time>2022-06-05T09:43:00Z</time>
      </trkpt>
      <trkpt lat="48.04317" lon="6.91567">
        <ele>1088.6</ele>
        <time>2022-06-05T09:43:05Z</time>
      </trkpt>
      <trkpt lat="48.04316" lon="6.91575">
        <ele>1087.6</ele>
        <time>2022-06-05T09:43:09Z</time>
      </trkpt>
      <trkpt lat="48.04315" lon="6.91582">
        <ele>1084.7</ele>
        <time>2022-06-05T09:43:15Z</time>
      </trkpt>
      <trkpt lat="48.04313" lon="6.9159">
        <ele>1084.9</ele>
        <time>2022-06-05T09:43:22Z</time>
      </trkpt>
      <trkpt lat="48.04314" lon="6.91598">
        <ele>1088.5</ele>
        <time>2022-06-05T09:43:27Z</time>
      </trkpt>
      <trkpt lat="48.04314" lon="6.91605">
        <ele>1088.7</ele>
        <time>2022-06-05T09:43:32Z</time>
      </trkpt>
      <trkpt lat="48.04315" lon="6.91612">
        <ele>1089.4</ele>
        <time>2022-06-05T09:43:38Z</time>
      </trkpt>
      <trkpt lat="48.04318" lon="6.91618">
        <ele>1089.8</ele>
        <time>2022-06-05T09:43:44Z</time>
      </trkpt>
      <trkpt lat="48.04322" lon="6.91623">
        <ele>1090.2</ele>
        <time>2022-06-05T09:43:50Z</time>
      </trkpt>
      <trkpt lat="48.04325" lon="6.91629">
        <ele>1090</ele>
        <time>2022-06-05T09:43:57Z</time>
      </trkpt>
      <trkpt lat="48.04327" lon="6.91637">
        <ele>1091.5</ele>
        <time>2022-06-05T09:44:04Z</time>
      </trkpt>
      <trkpt lat="48.04329" lon="6.91643">
        <ele>1096.1</ele>
        <time>2022-06-05T09:44:10Z</time>
      </trkpt>
      <trkpt lat="48.0433" lon="6.9165">
        <ele>1100.8</ele>
        <time>2022-06-05T09:44:15Z</time>
      </trkpt>
      <trkpt lat="48.04332" lon="6.91657">
        <ele>1103.6</ele>
        <time>2022-06-05T09:44:22Z</time>
      </trkpt>
      <trkpt lat="48.04337" lon="6.9166">
        <ele>1104.2</ele>
        <time>2022-06-05T09:44:29Z</time>
      </trkpt>
      <trkpt lat="48.04341" lon="6.91663">
        <ele>1104.9</ele>
        <time>2022-06-05T09:44:37Z</time>
      </trkpt>
      <trkpt lat="48.04345" lon="6.91668">
        <ele>1105.6</ele>
        <time>2022-06-05T09:44:44Z</time>
      </trkpt>
      <trkpt lat="48.0435" lon="6.91672">
        <ele>1109.5</ele>
        <time>2022-06-05T09:44:51Z</time>
      </trkpt>
      <trkpt lat="48.04356" lon="6.91672">
        <ele>1109.4</ele>
        <time>2022-06-05T09:44:57Z</time>
      </trkpt>
      <trkpt lat="48.04361" lon="6.91671">
        <ele>1107.7</ele>
        <time>2022-06-05T09:45:03Z</time>
      </trkpt>
      <trkpt lat="48.04366" lon="6.9167">
        <ele>1106.5</ele>
        <time>2022-06-05T09:45:09Z</time>
      </trkpt>
      <trkpt lat="48.04371" lon="6.91669">
        <ele>1104.3</ele>
        <time>2022-06-05T09:45:14Z</time>
      </trkpt>
      <trkpt lat="48.04376" lon="6.91671">
        <ele>1100.7</ele>
        <time>2022-06-05T09:45:19Z</time>
      </trkpt>
      <trkpt lat="48.0438" lon="6.91673">
        <ele>1092.7</ele>
        <time>2022-06-05T09:45:26Z</time>
      </trkpt>
      <trkpt lat="48.04386" lon="6.91675">
        <ele>1092.5</ele>
        <time>2022-06-05T09:45:32Z</time>
      </trkpt>
      <trkpt lat="48.04391" lon="6.91679">
        <ele>1092.1</ele>
        <time>2022-06-05T09:45:38Z</time>
      </trkpt>
      <trkpt lat="48.04395" lon="6.91682">
        <ele>1095.5</ele>
        <time>2022-06-05T09:45:45Z</time>
      </trkpt>
      <trkpt lat="48.04397" lon="6.91689">
        <ele>1100.8</ele>
        <time>2022-06-05T09:45:50Z</time>
      </trkpt>
      <trkpt lat="48.04398" lon="6.91696">
        <ele>1103.7</ele>
        <time>2022-06-05T09:45:54Z</time>
      </trkpt>
      <trkpt lat="48.04403" lon="6.91702">
        <ele>1108</ele>
        <time>2022-06-05T09:46:02Z</time>
      </trkpt>
      <trkpt lat="48.04407" lon="6.917">
        <ele>1108</ele>
        <time>2022-06-05T09:46:06Z</time>
      </trkpt>
      <trkpt lat="48.04412" lon="6.91697">
        <ele>1107.7</ele>
        <time>2022-06-05T09:46:11Z</time>
      </trkpt>
      <trkpt lat="48.04416" lon="6.917">
        <ele>1108.5</ele>
        <time>2022-06-05T09:46:16Z</time>
      </trkpt>
      <trkpt lat="48.04421" lon="6.91704">
        <ele>1109.8</ele>
        <time>2022-06-05T09:46:22Z</time>
      </trkpt>
      <trkpt lat="48.04426" lon="6.91706">
        <ele>1114.2</ele>
        <time>2022-06-05T09:46:27Z</time>
      </trkpt>
      <trkpt lat="48.04431" lon="6.91706">
        <ele>1113.9</ele>
        <time>2022-06-05T09:46:34Z</time>
      </trkpt>
      <trkpt lat="48.04435" lon="6.91705">
        <ele>1118.9</ele>
        <time>2022-06-05T09:46:40Z</time>
      </trkpt>
      <trkpt lat="48.04439" lon="6.91702">
        <ele>1122.7</ele>
        <time>2022-06-05T09:46:47Z</time>
      </trkpt>
      <trkpt lat="48.04444" lon="6.91697">
        <ele>1126.7</ele>
        <time>2022-06-05T09:46:53Z</time>
      </trkpt>
      <trkpt lat="48.04449" lon="6.91698">
        <ele>1126.9</ele>
        <time>2022-06-05T09:47:00Z</time>
      </trkpt>
      <trkpt lat="48.04454" lon="6.91699">
        <ele>1127.8</ele>
        <time>2022-06-05T09:47:06Z</time>
      </trkpt>
      <trkpt lat="48.04459" lon="6.91704">
        <ele>1131.7</ele>
        <time>2022-06-05T09:47:13Z</time>
      </trkpt>
      <trkpt lat="48.04462" lon="6.91709">
        <ele>1128.9</ele>
        <time>2022-06-05T09:47:20Z</time>
      </trkpt>
      <trkpt lat="48.04466" lon="6.91714">
        <ele>1126.6</ele>
        <time>2022-06-05T09:47:26Z</time>
      </trkpt>
      <trkpt lat="48.04468" lon="6.91721">
        <ele>1125</ele>
        <time>2022-06-05T09:47:33Z</time>
      </trkpt>
      <trkpt lat="48.04473" lon="6.91724">
        <ele>1123.3</ele>
        <time>2022-06-05T09:47:41Z</time>
      </trkpt>
      <trkpt lat="48.04475" lon="6.9173">
        <ele>1123.7</ele>
        <time>2022-06-05T09:47:48Z</time>
      </trkpt>
      <trkpt lat="48.04479" lon="6.91736">
        <ele>1125.8</ele>
        <time>2022-06-05T09:47:57Z</time>
      </trkpt>
      <trkpt lat="48.04482" lon="6.91742">
        <ele>1126.7</ele>
        <time>2022-06-05T09:48:04Z</time>
      </trkpt>
      <trkpt lat="48.04483" lon="6.91748">
        <ele>1128.2</ele>
        <time>2022-06-05T09:48:10Z</time>
      </trkpt>
      <trkpt lat="48.04488" lon="6.91752">
        <ele>1126.7</ele>
        <time>2022-06-05T09:48:18Z</time>
      </trkpt>
      <trkpt lat="48.04493" lon="6.9175">
        <ele>1124</ele>
        <time>2022-06-05T09:48:25Z</time>
      </trkpt>
      <trkpt lat="48.04498" lon="6.91747">
        <ele>1126.5</ele>
        <time>2022-06-05T09:48:31Z</time>
      </trkpt>
      <trkpt lat="48.04503" lon="6.91743">
        <ele>1129.9</ele>
        <time>2022-06-05T09:48:37Z</time>
      </trkpt>
      <trkpt lat="48.04506" lon="6.91738">
        <ele>1129.3</ele>
        <time>2022-06-05T09:48:42Z</time>
      </trkpt>
      <trkpt lat="48.0451" lon="6.91734">
        <ele>1129.5</ele>
        <time>2022-06-05T09:48:47Z</time>
      </trkpt>
      <trkpt lat="48.04514" lon="6.91729">
        <ele>1131.3</ele>
        <time>2022-06-05T09:48:53Z</time>
      </trkpt>
      <trkpt lat="48.04518" lon="6.91726">
        <ele>1129.2</ele>
        <time>2022-06-05T09:48:59Z</time>
      </trkpt>
      <trkpt lat="48.04523" lon="6.91724">
        <ele>1127.7</ele>
        <time>2022-06-05T09:49:05Z</time>
      </trkpt>
      <trkpt lat="48.04528" lon="6.91723">
        <ele>1124.9</ele>
        <time>2022-06-05T09:49:11Z</time>
      </trkpt>
      <trkpt lat="48.04532" lon="6.91722">
        <ele>1127.2</ele>
        <time>2022-06-05T09:49:16Z</time>
      </trkpt>
      <trkpt lat="48.04537" lon="6.91724">
        <ele>1128.4</ele>
        <time>2022-06-05T09:49:22Z</time>
      </trkpt>
      <trkpt lat="48.04542" lon="6.91724">
        <ele>1129.5</ele>
        <time>2022-06-05T09:49:28Z</time>
      </trkpt>
      <trkpt lat="48.04548" lon="6.91723">
        <ele>1131.9</ele>
        <time>2022-06-05T09:49:34Z</time>
      </trkpt>
      <trkpt lat="48.04553" lon="6.91724">
        <ele>1132.5</ele>
        <time>2022-06-05T09:49:42Z</time>
      </trkpt>
      <trkpt lat="48.04558" lon="6.91721">
        <ele>1129.2</ele>
        <time>2022-06-05T09:49:48Z</time>
      </trkpt>
      <trkpt lat="48.04563" lon="6.91721">
        <ele>1128.2</ele>
        <time>2022-06-05T09:49:54Z</time>
      </trkpt>
      <trkpt lat="48.04568" lon="6.91722">
        <ele>1126.4</ele>
        <time>2022-06-05T09:50:02Z</time>
      </trkpt>
      <trkpt lat="48.04573" lon="6.9172">
        <ele>1123.6</ele>
        <time>2022-06-05T09:50:07Z</time>
      </trkpt>
      <trkpt lat="48.04578" lon="6.91716">
        <ele>1124.6</ele>
        <time>2022-06-05T09:50:14Z</time>
      </trkpt>
      <trkpt lat="48.04583" lon="6.91713">
        <ele>1125.3</ele>
        <time>2022-06-05T09:50:18Z</time>
      </trkpt>
      <trkpt lat="48.04588" lon="6.91712">
        <ele>1124.6</ele>
        <time>2022-06-05T09:50:22Z</time>
      </trkpt>
      <trkpt lat="48.04593" lon="6.91712">
        <ele>1126.4</ele>
        <time>2022-06-05T09:50:25Z</time>
      </trkpt>
      <trkpt lat="48.04598" lon="6.91712">
        <ele>1127.9</ele>
        <time>2022-06-05T09:50:29Z</time>
      </trkpt>
      <trkpt lat="48.04603" lon="6.9171">
        <ele>1128.3</ele>
        <time>2022-06-05T09:50:33Z</time>
      </trkpt>
      <trkpt lat="48.04608" lon="6.91707">
        <ele>1128.2</ele>
        <time>2022-06-05T09:50:36Z</time>
      </trkpt>
      <trkpt lat="48.04613" lon="6.91705">
        <ele>1130.1</ele>
        <time>2022-06-05T09:50:41Z</time>
      </trkpt>
      <trkpt lat="48.04618" lon="6.91704">
        <ele>1131.3</ele>
        <time>2022-06-05T09:50:45Z</time>
      </trkpt>
      <trkpt lat="48.04624" lon="6.91704">
        <ele>1132.9</ele>
        <time>2022-06-05T09:50:50Z</time>
      </trkpt>
      <trkpt lat="48.04628" lon="6.91703">
        <ele>1132.9</ele>
        <time>2022-06-05T09:50:55Z</time>
      </trkpt>
      <trkpt lat="48.04634" lon="6.91701">
        <ele>1133.8</ele>
        <time>2022-06-05T09:51:00Z</time>
      </trkpt>
      <trkpt lat="48.04639" lon="6.91697">
        <ele>1131.8</ele>
        <time>2022-06-05T09:51:07Z</time>
      </trkpt>
      <trkpt lat="48.04644" lon="6.91693">
        <ele>1132.7</ele>
        <time>2022-06-05T09:51:13Z</time>
      </trkpt>
      <trkpt lat="48.04649" lon="6.91693">
        <ele>1133.6</ele>
        <time>2022-06-05T09:51:18Z</time>
      </trkpt>
      <trkpt lat="48.0465" lon="6.91686">
        <ele>1129.3</ele>
        <time>2022-06-05T09:51:31Z</time>
      </trkpt>
      <trkpt lat="48.04654" lon="6.91682">
        <ele>1131</ele>
        <time>2022-06-05T09:51:36Z</time>
      </trkpt>
      <trkpt lat="48.0466" lon="6.91684">
        <ele>1135.2</ele>
        <time>2022-06-05T09:51:41Z</time>
      </trkpt>
      <trkpt lat="48.04665" lon="6.91685">
        <ele>1138.4</ele>
        <time>2022-06-05T09:51:46Z</time>
      </trkpt>
      <trkpt lat="48.0467" lon="6.91682">
        <ele>1140.4</ele>
        <time>2022-06-05T09:51:52Z</time>
      </trkpt>
      <trkpt lat="48.04675" lon="6.91681">
        <ele>1139.2</ele>
        <time>2022-06-05T09:51:59Z</time>
      </trkpt>
      <trkpt lat="48.0468" lon="6.91675">
        <ele>1143.2</ele>
        <time>2022-06-05T09:52:05Z</time>
      </trkpt>
      <trkpt lat="48.04685" lon="6.91672">
        <ele>1144.7</ele>
        <time>2022-06-05T09:52:10Z</time>
      </trkpt>
      <trkpt lat="48.04685" lon="6.91665">
        <ele>1125.9</ele>
        <time>2022-06-05T09:52:35Z</time>
      </trkpt>
      <trkpt lat="48.0469" lon="6.91663">
        <ele>1133.3</ele>
        <time>2022-06-05T09:52:46Z</time>
      </trkpt>
      <trkpt lat="48.04694" lon="6.91667">
        <ele>1135.6</ele>
        <time>2022-06-05T09:52:52Z</time>
      </trkpt>
      <trkpt lat="48.04689" lon="6.91662">
        <ele>1141.8</ele>
        <time>2022-06-05T09:53:07Z</time>
      </trkpt>
      <trkpt lat="48.04685" lon="6.91662">
        <ele>1144.3</ele>
        <time>2022-06-05T09:53:10Z</time>
      </trkpt>
      <trkpt lat="48.0468" lon="6.9166">
        <ele>1148.1</ele>
        <time>2022-06-05T09:53:15Z</time>
      </trkpt>
      <trkpt lat="48.04676" lon="6.91663">
        <ele>1148.2</ele>
        <time>2022-06-05T09:53:20Z</time>
      </trkpt>
      <trkpt lat="48.04675" lon="6.9167">
        <ele>1145.8</ele>
        <time>2022-06-05T09:53:27Z</time>
      </trkpt>
      <trkpt lat="48.04677" lon="6.91677">
        <ele>1146.2</ele>
        <time>2022-06-05T09:53:30Z</time>
      </trkpt>
      <trkpt lat="48.04681" lon="6.91673">
        <ele>1139.7</ele>
        <time>2022-06-05T09:54:46Z</time>
      </trkpt>
      <trkpt lat="48.04684" lon="6.91669">
        <ele>1141.6</ele>
        <time>2022-06-05T09:55:02Z</time>
      </trkpt>
      <trkpt lat="48.04689" lon="6.91671">
        <ele>1138.5</ele>
        <time>2022-06-05T09:55:16Z</time>
      </trkpt>
      <trkpt lat="48.04694" lon="6.91673">
        <ele>1138.8</ele>
        <time>2022-06-05T09:55:24Z</time>
      </trkpt>
      <trkpt lat="48.0469" lon="6.91677">
        <ele>1134.9</ele>
        <time>2022-06-05T09:55:37Z</time>
      </trkpt>
      <trkpt lat="48.04686" lon="6.91681">
        <ele>1134.1</ele>
        <time>2022-06-05T09:55:43Z</time>
      </trkpt>
      <trkpt lat="48.04681" lon="6.91685">
        <ele>1134</ele>
        <time>2022-06-05T09:55:49Z</time>
      </trkpt>
      <trkpt lat="48.04676" lon="6.91687">
        <ele>1133.5</ele>
        <time>2022-06-05T09:55:55Z</time>
      </trkpt>
      <trkpt lat="48.04672" lon="6.91683">
        <ele>1133</ele>
        <time>2022-06-05T09:56:00Z</time>
      </trkpt>
      <trkpt lat="48.04667" lon="6.91682">
        <ele>1132.3</ele>
        <time>2022-06-05T09:56:05Z</time>
      </trkpt>
      <trkpt lat="48.04662" lon="6.91684">
        <ele>1132.8</ele>
        <time>2022-06-05T09:56:12Z</time>
      </trkpt>
      <trkpt lat="48.04658" lon="6.91688">
        <ele>1131.8</ele>
        <time>2022-06-05T09:56:21Z</time>
      </trkpt>
      <trkpt lat="48.04654" lon="6.91693">
        <ele>1132.2</ele>
        <time>2022-06-05T09:56:28Z</time>
      </trkpt>
      <trkpt lat="48.04649" lon="6.91695">
        <ele>1131.1</ele>
        <time>2022-06-05T09:56:33Z</time>
      </trkpt>
      <trkpt lat="48.04649" lon="6.91702">
        <ele>1129.2</ele>
        <time>2022-06-05T09:56:51Z</time>
      </trkpt>
      <trkpt lat="48.04654" lon="6.91704">
        <ele>1128.1</ele>
        <time>2022-06-05T09:56:58Z</time>
      </trkpt>
      <trkpt lat="48.04656" lon="6.91698">
        <ele>1126.6</ele>
        <time>2022-06-05T09:58:01Z</time>
      </trkpt>
      <trkpt lat="48.04656" lon="6.91691">
        <ele>1127.4</ele>
        <time>2022-06-05T10:09:05Z</time>
      </trkpt>
      <trkpt lat="48.04655" lon="6.91699">
        <ele>1125.5</ele>
        <time>2022-06-05T10:10:44Z</time>
      </trkpt>
      <trkpt lat="48.04651" lon="6.91704">
        <ele>1127.4</ele>
        <time>2022-06-05T10:14:07Z</time>
      </trkpt>
      <trkpt lat="48.04647" lon="6.91707">
        <ele>1126.7</ele>
        <time>2022-06-05T10:14:12Z</time>
      </trkpt>
      <trkpt lat="48.04642" lon="6.9171">
        <ele>1125.1</ele>
        <time>2022-06-05T10:14:19Z</time>
      </trkpt>
      <trkpt lat="48.04637" lon="6.9171">
        <ele>1124.8</ele>
        <time>2022-06-05T10:14:26Z</time>
      </trkpt>
      <trkpt lat="48.04632" lon="6.91708">
        <ele>1124.8</ele>
        <time>2022-06-05T10:14:30Z</time>
      </trkpt>
      <trkpt lat="48.04627" lon="6.91709">
        <ele>1121.3</ele>
        <time>2022-06-05T10:14:36Z</time>
      </trkpt>
      <trkpt lat="48.04624" lon="6.91716">
        <ele>1120.1</ele>
        <time>2022-06-05T10:14:40Z</time>
      </trkpt>
      <trkpt lat="48.04621" lon="6.91722">
        <ele>1118.6</ele>
        <time>2022-06-05T10:14:45Z</time>
      </trkpt>
      <trkpt lat="48.04617" lon="6.91726">
        <ele>1117.9</ele>
        <time>2022-06-05T10:14:49Z</time>
      </trkpt>
      <trkpt lat="48.04613" lon="6.91733">
        <ele>1118.1</ele>
        <time>2022-06-05T10:14:55Z</time>
      </trkpt>
      <trkpt lat="48.04609" lon="6.91737">
        <ele>1116.6</ele>
        <time>2022-06-05T10:15:00Z</time>
      </trkpt>
      <trkpt lat="48.04605" lon="6.91742">
        <ele>1116.6</ele>
        <time>2022-06-05T10:15:05Z</time>
      </trkpt>
      <trkpt lat="48.04601" lon="6.91746">
        <ele>1119.4</ele>
        <time>2022-06-05T10:15:09Z</time>
      </trkpt>
      <trkpt lat="48.04598" lon="6.91752">
        <ele>1119.3</ele>
        <time>2022-06-05T10:15:14Z</time>
      </trkpt>
      <trkpt lat="48.04594" lon="6.91757">
        <ele>1118</ele>
        <time>2022-06-05T10:15:17Z</time>
      </trkpt>
      <trkpt lat="48.04591" lon="6.91764">
        <ele>1120.2</ele>
        <time>2022-06-05T10:15:23Z</time>
      </trkpt>
      <trkpt lat="48.04587" lon="6.9177">
        <ele>1121</ele>
        <time>2022-06-05T10:15:28Z</time>
      </trkpt>
      <trkpt lat="48.04584" lon="6.91778">
        <ele>1126.5</ele>
        <time>2022-06-05T10:15:33Z</time>
      </trkpt>
      <trkpt lat="48.04582" lon="6.91786">
        <ele>1131.8</ele>
        <time>2022-06-05T10:15:38Z</time>
      </trkpt>
      <trkpt lat="48.04585" lon="6.91794">
        <ele>1128.9</ele>
        <time>2022-06-05T10:15:48Z</time>
      </trkpt>
      <trkpt lat="48.04581" lon="6.91797">
        <ele>1127.7</ele>
        <time>2022-06-05T10:15:56Z</time>
      </trkpt>
      <trkpt lat="48.04581" lon="6.91806">
        <ele>1129.3</ele>
        <time>2022-06-05T10:16:05Z</time>
      </trkpt>
      <trkpt lat="48.04581" lon="6.91815">
        <ele>1127.6</ele>
        <time>2022-06-05T10:16:10Z</time>
      </trkpt>
      <trkpt lat="48.04578" lon="6.9182">
        <ele>1125.1</ele>
        <time>2022-06-05T10:16:14Z</time>
      </trkpt>
      <trkpt lat="48.04573" lon="6.91824">
        <ele>1125.2</ele>
        <time>2022-06-05T10:16:18Z</time>
      </trkpt>
      <trkpt lat="48.04569" lon="6.91828">
        <ele>1127.5</ele>
        <time>2022-06-05T10:16:24Z</time>
      </trkpt>
      <trkpt lat="48.04564" lon="6.91833">
        <ele>1118.3</ele>
        <time>2022-06-05T10:16:42Z</time>
      </trkpt>
      <trkpt lat="48.0456" lon="6.91837">
        <ele>1119.5</ele>
        <time>2022-06-05T10:16:46Z</time>
      </trkpt>
      <trkpt lat="48.04555" lon="6.9184">
        <ele>1119</ele>
        <time>2022-06-05T10:16:50Z</time>
      </trkpt>
      <trkpt lat="48.0455" lon="6.91845">
        <ele>1117.3</ele>
        <time>2022-06-05T10:16:54Z</time>
      </trkpt>
      <trkpt lat="48.04545" lon="6.91849">
        <ele>1120.5</ele>
        <time>2022-06-05T10:17:00Z</time>
      </trkpt>
      <trkpt lat="48.0454" lon="6.91852">
        <ele>1120.9</ele>
        <time>2022-06-05T10:17:05Z</time>
      </trkpt>
      <trkpt lat="48.04535" lon="6.91855">
        <ele>1122.6</ele>
        <time>2022-06-05T10:17:09Z</time>
      </trkpt>
      <trkpt lat="48.0453" lon="6.91859">
        <ele>1119.5</ele>
        <time>2022-06-05T10:17:15Z</time>
      </trkpt>
      <trkpt lat="48.04526" lon="6.91863">
        <ele>1116.2</ele>
        <time>2022-06-05T10:17:20Z</time>
      </trkpt>
      <trkpt lat="48.04522" lon="6.91868">
        <ele>1115.6</ele>
        <time>2022-06-05T10:17:26Z</time>
      </trkpt>
      <trkpt lat="48.04523" lon="6.91875">
        <ele>1114.4</ele>
        <time>2022-06-05T10:17:30Z</time>
      </trkpt>
      <trkpt lat="48.04519" lon="6.91881">
        <ele>1113</ele>
        <time>2022-06-05T10:17:35Z</time>
      </trkpt>
      <trkpt lat="48.04514" lon="6.91885">
        <ele>1111.9</ele>
        <time>2022-06-05T10:17:39Z</time>
      </trkpt>
      <trkpt lat="48.0451" lon="6.91888">
        <ele>1115</ele>
        <time>2022-06-05T10:17:44Z</time>
      </trkpt>
      <trkpt lat="48.04505" lon="6.91892">
        <ele>1116.2</ele>
        <time>2022-06-05T10:17:48Z</time>
      </trkpt>
      <trkpt lat="48.045" lon="6.91894">
        <ele>1116.7</ele>
        <time>2022-06-05T10:17:53Z</time>
      </trkpt>
      <trkpt lat="48.04495" lon="6.91892">
        <ele>1116.9</ele>
        <time>2022-06-05T10:17:58Z</time>
      </trkpt>
      <trkpt lat="48.04491" lon="6.91894">
        <ele>1117.2</ele>
        <time>2022-06-05T10:18:03Z</time>
      </trkpt>
      <trkpt lat="48.04486" lon="6.91896">
        <ele>1121</ele>
        <time>2022-06-05T10:18:08Z</time>
      </trkpt>
      <trkpt lat="48.04482" lon="6.91901">
        <ele>1115.1</ele>
        <time>2022-06-05T10:18:12Z</time>
      </trkpt>
      <trkpt lat="48.04482" lon="6.91908">
        <ele>1115.5</ele>
        <time>2022-06-05T10:18:15Z</time>
      </trkpt>
      <trkpt lat="48.04484" lon="6.91915">
        <ele>1112.6</ele>
        <time>2022-06-05T10:18:20Z</time>
      </trkpt>
      <trkpt lat="48.04488" lon="6.91921">
        <ele>1111.5</ele>
        <time>2022-06-05T10:18:24Z</time>
      </trkpt>
      <trkpt lat="48.04493" lon="6.91925">
        <ele>1110.9</ele>
        <time>2022-06-05T10:18:29Z</time>
      </trkpt>
      <trkpt lat="48.04498" lon="6.91929">
        <ele>1111.3</ele>
        <time>2022-06-05T10:18:33Z</time>
      </trkpt>
      <trkpt lat="48.04502" lon="6.91932">
        <ele>1108.7</ele>
        <time>2022-06-05T10:18:37Z</time>
      </trkpt>
      <trkpt lat="48.04507" lon="6.91933">
        <ele>1104.6</ele>
        <time>2022-06-05T10:18:42Z</time>
      </trkpt>
      <trkpt lat="48.04512" lon="6.91936">
        <ele>1104.5</ele>
        <time>2022-06-05T10:18:46Z</time>
      </trkpt>
      <trkpt lat="48.04517" lon="6.91937">
        <ele>1103.8</ele>
        <time>2022-06-05T10:18:51Z</time>
      </trkpt>
      <trkpt lat="48.04523" lon="6.91938">
        <ele>1105.4</ele>
        <time>2022-06-05T10:18:56Z</time>
      </trkpt>
      <trkpt lat="48.04527" lon="6.91942">
        <ele>1108.4</ele>
        <time>2022-06-05T10:19:02Z</time>
      </trkpt>
      <trkpt lat="48.04532" lon="6.91939">
        <ele>1106.6</ele>
        <time>2022-06-05T10:19:15Z</time>
      </trkpt>
      <trkpt lat="48.04537" lon="6.91937">
        <ele>1104.1</ele>
        <time>2022-06-05T10:19:18Z</time>
      </trkpt>
      <trkpt lat="48.04541" lon="6.91937">
        <ele>1104.4</ele>
        <time>2022-06-05T10:19:22Z</time>
      </trkpt>
      <trkpt lat="48.04547" lon="6.91938">
        <ele>1103.1</ele>
        <time>2022-06-05T10:19:26Z</time>
      </trkpt>
      <trkpt lat="48.04551" lon="6.91937">
        <ele>1103.9</ele>
        <time>2022-06-05T10:19:31Z</time>
      </trkpt>
      <trkpt lat="48.04556" lon="6.91937">
        <ele>1105.9</ele>
        <time>2022-06-05T10:19:36Z</time>
      </trkpt>
      <trkpt lat="48.04562" lon="6.91936">
        <ele>1104.1</ele>
        <time>2022-06-05T10:19:41Z</time>
      </trkpt>
      <trkpt lat="48.04567" lon="6.91935">
        <ele>1103.6</ele>
        <time>2022-06-05T10:19:46Z</time>
      </trkpt>
      <trkpt lat="48.04573" lon="6.91935">
        <ele>1107.2</ele>
        <time>2022-06-05T10:19:51Z</time>
      </trkpt>
      <trkpt lat="48.04579" lon="6.91932">
        <ele>1103.6</ele>
        <time>2022-06-05T10:19:56Z</time>
      </trkpt>
      <trkpt lat="48.04584" lon="6.91932">
        <ele>1104.1</ele>
        <time>2022-06-05T10:20:01Z</time>
      </trkpt>
      <trkpt lat="48.0459" lon="6.91933">
        <ele>1103.9</ele>
        <time>2022-06-05T10:20:06Z</time>
      </trkpt>
      <trkpt lat="48.04595" lon="6.91934">
        <ele>1108</ele>
        <time>2022-06-05T10:20:11Z</time>
      </trkpt>
      <trkpt lat="48.04601" lon="6.91937">
        <ele>1106.9</ele>
        <time>2022-06-05T10:20:16Z</time>
      </trkpt>
      <trkpt lat="48.04605" lon="6.91937">
        <ele>1108.6</ele>
        <time>2022-06-05T10:20:21Z</time>
      </trkpt>
      <trkpt lat="48.04611" lon="6.91936">
        <ele>1110.4</ele>
        <time>2022-06-05T10:20:25Z</time>
      </trkpt>
      <trkpt lat="48.04616" lon="6.91936">
        <ele>1110.3</ele>
        <time>2022-06-05T10:20:30Z</time>
      </trkpt>
      <trkpt lat="48.04622" lon="6.91936">
        <ele>1110.7</ele>
        <time>2022-06-05T10:20:34Z</time>
      </trkpt>
      <trkpt lat="48.04627" lon="6.91935">
        <ele>1108.3</ele>
        <time>2022-06-05T10:20:39Z</time>
      </trkpt>
      <trkpt lat="48.04632" lon="6.91936">
        <ele>1102.1</ele>
        <time>2022-06-05T10:20:43Z</time>
      </trkpt>
      <trkpt lat="48.04636" lon="6.91935">
        <ele>1102.8</ele>
        <time>2022-06-05T10:20:46Z</time>
      </trkpt>
      <trkpt lat="48.04642" lon="6.91932">
        <ele>1103.6</ele>
        <time>2022-06-05T10:20:52Z</time>
      </trkpt>
      <trkpt lat="48.04647" lon="6.91932">
        <ele>1103</ele>
        <time>2022-06-05T10:20:56Z</time>
      </trkpt>
      <trkpt lat="48.04653" lon="6.91934">
        <ele>1104.6</ele>
        <time>2022-06-05T10:21:02Z</time>
      </trkpt>
      <trkpt lat="48.04659" lon="6.91935">
        <ele>1104.5</ele>
        <time>2022-06-05T10:21:07Z</time>
      </trkpt>
      <trkpt lat="48.04664" lon="6.91932">
        <ele>1104.5</ele>
        <time>2022-06-05T10:21:12Z</time>
      </trkpt>
      <trkpt lat="48.04669" lon="6.91934">
        <ele>1100</ele>
        <time>2022-06-05T10:21:17Z</time>
      </trkpt>
      <trkpt lat="48.04676" lon="6.91934">
        <ele>1100.9</ele>
        <time>2022-06-05T10:21:22Z</time>
      </trkpt>
      <trkpt lat="48.04681" lon="6.91935">
        <ele>1102.4</ele>
        <time>2022-06-05T10:21:27Z</time>
      </trkpt>
      <trkpt lat="48.04687" lon="6.91934">
        <ele>1102</ele>
        <time>2022-06-05T10:21:32Z</time>
      </trkpt>
      <trkpt lat="48.04692" lon="6.91934">
        <ele>1097.3</ele>
        <time>2022-06-05T10:21:37Z</time>
      </trkpt>
      <trkpt lat="48.04699" lon="6.91933">
        <ele>1094.5</ele>
        <time>2022-06-05T10:21:47Z</time>
      </trkpt>
      <trkpt lat="48.04704" lon="6.91932">
        <ele>1096.2</ele>
        <time>2022-06-05T10:21:51Z</time>
      </trkpt>
      <trkpt lat="48.0471" lon="6.9193">
        <ele>1097.3</ele>
        <time>2022-06-05T10:21:57Z</time>
      </trkpt>
      <trkpt lat="48.04715" lon="6.91928">
        <ele>1097.5</ele>
        <time>2022-06-05T10:22:01Z</time>
      </trkpt>
      <trkpt lat="48.04719" lon="6.91925">
        <ele>1098.5</ele>
        <time>2022-06-05T10:22:05Z</time>
      </trkpt>
      <trkpt lat="48.04724" lon="6.91922">
        <ele>1099.8</ele>
        <time>2022-06-05T10:22:10Z</time>
      </trkpt>
      <trkpt lat="48.04727" lon="6.91916">
        <ele>1093.9</ele>
        <time>2022-06-05T10:22:15Z</time>
      </trkpt>
      <trkpt lat="48.04728" lon="6.91909">
        <ele>1095.1</ele>
        <time>2022-06-05T10:22:18Z</time>
      </trkpt>
      <trkpt lat="48.0473" lon="6.91899">
        <ele>1095.1</ele>
        <time>2022-06-05T10:22:22Z</time>
      </trkpt>
      <trkpt lat="48.04734" lon="6.91891">
        <ele>1096.5</ele>
        <time>2022-06-05T10:22:27Z</time>
      </trkpt>
      <trkpt lat="48.04738" lon="6.91885">
        <ele>1096.7</ele>
        <time>2022-06-05T10:22:32Z</time>
      </trkpt>
      <trkpt lat="48.04743" lon="6.91879">
        <ele>1096</ele>
        <time>2022-06-05T10:22:37Z</time>
      </trkpt>
      <trkpt lat="48.04747" lon="6.91878">
        <ele>1091.4</ele>
        <time>2022-06-05T10:22:42Z</time>
      </trkpt>
      <trkpt lat="48.04752" lon="6.91877">
        <ele>1089.6</ele>
        <time>2022-06-05T10:22:47Z</time>
      </trkpt>
      <trkpt lat="48.04757" lon="6.91872">
        <ele>1090.6</ele>
        <time>2022-06-05T10:22:53Z</time>
      </trkpt>
      <trkpt lat="48.0476" lon="6.91865">
        <ele>1091.9</ele>
        <time>2022-06-05T10:22:57Z</time>
      </trkpt>
      <trkpt lat="48.04764" lon="6.91859">
        <ele>1089.5</ele>
        <time>2022-06-05T10:23:03Z</time>
      </trkpt>
      <trkpt lat="48.04767" lon="6.91854">
        <ele>1084.8</ele>
        <time>2022-06-05T10:23:07Z</time>
      </trkpt>
      <trkpt lat="48.0477" lon="6.91848">
        <ele>1084.2</ele>
        <time>2022-06-05T10:23:12Z</time>
      </trkpt>
      <trkpt lat="48.04775" lon="6.91846">
        <ele>1086.2</ele>
        <time>2022-06-05T10:23:28Z</time>
      </trkpt>
      <trkpt lat="48.04781" lon="6.91844">
        <ele>1084.5</ele>
        <time>2022-06-05T10:23:33Z</time>
      </trkpt>
      <trkpt lat="48.04786" lon="6.91841">
        <ele>1083.5</ele>
        <time>2022-06-05T10:23:37Z</time>
      </trkpt>
      <trkpt lat="48.04793" lon="6.91844">
        <ele>1085.2</ele>
        <time>2022-06-05T10:23:43Z</time>
      </trkpt>
      <trkpt lat="48.04797" lon="6.9185">
        <ele>1081.3</ele>
        <time>2022-06-05T10:23:48Z</time>
      </trkpt>
      <trkpt lat="48.04794" lon="6.91858">
        <ele>1080.7</ele>
        <time>2022-06-05T10:23:52Z</time>
      </trkpt>
      <trkpt lat="48.0479" lon="6.91864">
        <ele>1080.9</ele>
        <time>2022-06-05T10:23:58Z</time>
      </trkpt>
      <trkpt lat="48.04786" lon="6.91871">
        <ele>1076.7</ele>
        <time>2022-06-05T10:24:02Z</time>
      </trkpt>
      <trkpt lat="48.04784" lon="6.91879">
        <ele>1075.8</ele>
        <time>2022-06-05T10:24:08Z</time>
      </trkpt>
      <trkpt lat="48.04783" lon="6.91888">
        <ele>1077.1</ele>
        <time>2022-06-05T10:24:13Z</time>
      </trkpt>
      <trkpt lat="48.04782" lon="6.91896">
        <ele>1080</ele>
        <time>2022-06-05T10:24:18Z</time>
      </trkpt>
      <trkpt lat="48.04779" lon="6.91901">
        <ele>1077.8</ele>
        <time>2022-06-05T10:24:25Z</time>
      </trkpt>
      <trkpt lat="48.04779" lon="6.91908">
        <ele>1074.3</ele>
        <time>2022-06-05T10:24:30Z</time>
      </trkpt>
      <trkpt lat="48.04779" lon="6.91916">
        <ele>1070.6</ele>
        <time>2022-06-05T10:24:36Z</time>
      </trkpt>
      <trkpt lat="48.0478" lon="6.91923">
        <ele>1073.7</ele>
        <time>2022-06-05T10:24:40Z</time>
      </trkpt>
      <trkpt lat="48.04782" lon="6.9193">
        <ele>1075</ele>
        <time>2022-06-05T10:24:43Z</time>
      </trkpt>
      <trkpt lat="48.04784" lon="6.91937">
        <ele>1070.1</ele>
        <time>2022-06-05T10:24:47Z</time>
      </trkpt>
      <trkpt lat="48.04787" lon="6.91942">
        <ele>1068.7</ele>
        <time>2022-06-05T10:24:52Z</time>
      </trkpt>
      <trkpt lat="48.04788" lon="6.91949">
        <ele>1071.2</ele>
        <time>2022-06-05T10:24:55Z</time>
      </trkpt>
      <trkpt lat="48.04789" lon="6.91957">
        <ele>1074.3</ele>
        <time>2022-06-05T10:24:58Z</time>
      </trkpt>
      <trkpt lat="48.04791" lon="6.91964">
        <ele>1076.3</ele>
        <time>2022-06-05T10:25:01Z</time>
      </trkpt>
      <trkpt lat="48.04793" lon="6.9197">
        <ele>1072.6</ele>
        <time>2022-06-05T10:25:05Z</time>
      </trkpt>
      <trkpt lat="48.04795" lon="6.91977">
        <ele>1072.5</ele>
        <time>2022-06-05T10:25:08Z</time>
      </trkpt>
      <trkpt lat="48.04796" lon="6.91984">
        <ele>1072.8</ele>
        <time>2022-06-05T10:25:12Z</time>
      </trkpt>
      <trkpt lat="48.04798" lon="6.91991">
        <ele>1071.1</ele>
        <time>2022-06-05T10:25:16Z</time>
      </trkpt>
      <trkpt lat="48.04802" lon="6.91996">
        <ele>1065.6</ele>
        <time>2022-06-05T10:25:21Z</time>
      </trkpt>
      <trkpt lat="48.04807" lon="6.92">
        <ele>1066</ele>
        <time>2022-06-05T10:25:25Z</time>
      </trkpt>
      <trkpt lat="48.0481" lon="6.92006">
        <ele>1069.2</ele>
        <time>2022-06-05T10:25:30Z</time>
      </trkpt>
      <trkpt lat="48.04812" lon="6.92012">
        <ele>1066.1</ele>
        <time>2022-06-05T10:25:33Z</time>
      </trkpt>
      <trkpt lat="48.04814" lon="6.92022">
        <ele>1069.7</ele>
        <time>2022-06-05T10:25:38Z</time>
      </trkpt>
      <trkpt lat="48.04815" lon="6.92029">
        <ele>1070.7</ele>
        <time>2022-06-05T10:25:43Z</time>
      </trkpt>
      <trkpt lat="48.04815" lon="6.92035">
        <ele>1072.4</ele>
        <time>2022-06-05T10:25:46Z</time>
      </trkpt>
      <trkpt lat="48.04816" lon="6.92044">
        <ele>1075.2</ele>
        <time>2022-06-05T10:25:50Z</time>
      </trkpt>
      <trkpt lat="48.04816" lon="6.92051">
        <ele>1076.7</ele>
        <time>2022-06-05T10:25:55Z</time>
      </trkpt>
      <trkpt lat="48.0482" lon="6.92055">
        <ele>1069.2</ele>
        <time>2022-06-05T10:26:05Z</time>
      </trkpt>
      <trkpt lat="48.04824" lon="6.9206">
        <ele>1062.4</ele>
        <time>2022-06-05T10:26:13Z</time>
      </trkpt>
      <trkpt lat="48.04827" lon="6.92067">
        <ele>1063.4</ele>
        <time>2022-06-05T10:26:16Z</time>
      </trkpt>
      <trkpt lat="48.04828" lon="6.92074">
        <ele>1062.6</ele>
        <time>2022-06-05T10:26:20Z</time>
      </trkpt>
      <trkpt lat="48.04831" lon="6.92079">
        <ele>1061.5</ele>
        <time>2022-06-05T10:26:23Z</time>
      </trkpt>
      <trkpt lat="48.04835" lon="6.92085">
        <ele>1062.8</ele>
        <time>2022-06-05T10:26:29Z</time>
      </trkpt>
      <trkpt lat="48.04838" lon="6.92091">
        <ele>1060.5</ele>
        <time>2022-06-05T10:26:33Z</time>
      </trkpt>
      <trkpt lat="48.04841" lon="6.921">
        <ele>1057.2</ele>
        <time>2022-06-05T10:26:38Z</time>
      </trkpt>
      <trkpt lat="48.04843" lon="6.92109">
        <ele>1058.8</ele>
        <time>2022-06-05T10:26:44Z</time>
      </trkpt>
      <trkpt lat="48.04846" lon="6.92114">
        <ele>1057.8</ele>
        <time>2022-06-05T10:26:49Z</time>
      </trkpt>
      <trkpt lat="48.04851" lon="6.92116">
        <ele>1056.6</ele>
        <time>2022-06-05T10:26:53Z</time>
      </trkpt>
      <trkpt lat="48.04854" lon="6.92121">
        <ele>1056.3</ele>
        <time>2022-06-05T10:26:59Z</time>
      </trkpt>
      <trkpt lat="48.04858" lon="6.92126">
        <ele>1057.8</ele>
        <time>2022-06-05T10:27:04Z</time>
      </trkpt>
      <trkpt lat="48.04862" lon="6.9213">
        <ele>1060.6</ele>
        <time>2022-06-05T10:27:08Z</time>
      </trkpt>
      <trkpt lat="48.04866" lon="6.92134">
        <ele>1061.7</ele>
        <time>2022-06-05T10:27:12Z</time>
      </trkpt>
      <trkpt lat="48.0487" lon="6.92138">
        <ele>1061.7</ele>
        <time>2022-06-05T10:27:16Z</time>
      </trkpt>
      <trkpt lat="48.04874" lon="6.92144">
        <ele>1061.8</ele>
        <time>2022-06-05T10:27:21Z</time>
      </trkpt>
      <trkpt lat="48.04877" lon="6.92149">
        <ele>1064.1</ele>
        <time>2022-06-05T10:27:25Z</time>
      </trkpt>
      <trkpt lat="48.0488" lon="6.92155">
        <ele>1064.8</ele>
        <time>2022-06-05T10:27:30Z</time>
      </trkpt>
      <trkpt lat="48.04882" lon="6.92163">
        <ele>1066.1</ele>
        <time>2022-06-05T10:27:36Z</time>
      </trkpt>
      <trkpt lat="48.04885" lon="6.92169">
        <ele>1063.8</ele>
        <time>2022-06-05T10:27:40Z</time>
      </trkpt>
      <trkpt lat="48.04885" lon="6.92176">
        <ele>1062.9</ele>
        <time>2022-06-05T10:27:44Z</time>
      </trkpt>
      <trkpt lat="48.04887" lon="6.92183">
        <ele>1061.4</ele>
        <time>2022-06-05T10:27:48Z</time>
      </trkpt>
      <trkpt lat="48.04891" lon="6.92191">
        <ele>1063.3</ele>
        <time>2022-06-05T10:27:52Z</time>
      </trkpt>
      <trkpt lat="48.04895" lon="6.92195">
        <ele>1063.4</ele>
        <time>2022-06-05T10:27:56Z</time>
      </trkpt>
      <trkpt lat="48.04897" lon="6.92201">
        <ele>1062.5</ele>
        <time>2022-06-05T10:28:00Z</time>
      </trkpt>
      <trkpt lat="48.04899" lon="6.92208">
        <ele>1062.6</ele>
        <time>2022-06-05T10:28:03Z</time>
      </trkpt>
      <trkpt lat="48.04902" lon="6.92215">
        <ele>1062.1</ele>
        <time>2022-06-05T10:28:07Z</time>
      </trkpt>
      <trkpt lat="48.04906" lon="6.92225">
        <ele>1061.4</ele>
        <time>2022-06-05T10:28:12Z</time>
      </trkpt>
      <trkpt lat="48.04909" lon="6.92234">
        <ele>1061.6</ele>
        <time>2022-06-05T10:28:16Z</time>
      </trkpt>
      <trkpt lat="48.04912" lon="6.9224">
        <ele>1060.5</ele>
        <time>2022-06-05T10:28:21Z</time>
      </trkpt>
      <trkpt lat="48.04916" lon="6.92243">
        <ele>1058.3</ele>
        <time>2022-06-05T10:28:25Z</time>
      </trkpt>
      <trkpt lat="48.0492" lon="6.92246">
        <ele>1057</ele>
        <time>2022-06-05T10:28:28Z</time>
      </trkpt>
      <trkpt lat="48.04924" lon="6.92249">
        <ele>1058.1</ele>
        <time>2022-06-05T10:28:31Z</time>
      </trkpt>
      <trkpt lat="48.04929" lon="6.92253">
        <ele>1058</ele>
        <time>2022-06-05T10:28:34Z</time>
      </trkpt>
      <trkpt lat="48.04932" lon="6.92258">
        <ele>1057.9</ele>
        <time>2022-06-05T10:28:38Z</time>
      </trkpt>
      <trkpt lat="48.04937" lon="6.92262">
        <ele>1056.6</ele>
        <time>2022-06-05T10:28:42Z</time>
      </trkpt>
      <trkpt lat="48.04939" lon="6.92269">
        <ele>1056.9</ele>
        <time>2022-06-05T10:28:46Z</time>
      </trkpt>
      <trkpt lat="48.04942" lon="6.92275">
        <ele>1055.9</ele>
        <time>2022-06-05T10:28:50Z</time>
      </trkpt>
      <trkpt lat="48.04946" lon="6.9228">
        <ele>1056.2</ele>
        <time>2022-06-05T10:28:53Z</time>
      </trkpt>
      <trkpt lat="48.04949" lon="6.92285">
        <ele>1058.3</ele>
        <time>2022-06-05T10:28:56Z</time>
      </trkpt>
      <trkpt lat="48.04953" lon="6.92291">
        <ele>1058.5</ele>
        <time>2022-06-05T10:29:00Z</time>
      </trkpt>
      <trkpt lat="48.04957" lon="6.92296">
        <ele>1059.4</ele>
        <time>2022-06-05T10:29:04Z</time>
      </trkpt>
      <trkpt lat="48.04961" lon="6.923">
        <ele>1061.3</ele>
        <time>2022-06-05T10:29:08Z</time>
      </trkpt>
      <trkpt lat="48.04967" lon="6.92304">
        <ele>1066.1</ele>
        <time>2022-06-05T10:29:12Z</time>
      </trkpt>
      <trkpt lat="48.04973" lon="6.92312">
        <ele>1068.9</ele>
        <time>2022-06-05T10:29:17Z</time>
      </trkpt>
      <trkpt lat="48.04974" lon="6.92319">
        <ele>1067.7</ele>
        <time>2022-06-05T10:29:22Z</time>
      </trkpt>
      <trkpt lat="48.04977" lon="6.92325">
        <ele>1065.3</ele>
        <time>2022-06-05T10:29:25Z</time>
      </trkpt>
      <trkpt lat="48.0498" lon="6.92331">
        <ele>1063</ele>
        <time>2022-06-05T10:29:29Z</time>
      </trkpt>
      <trkpt lat="48.04985" lon="6.92334">
        <ele>1057.9</ele>
        <time>2022-06-05T10:29:34Z</time>
      </trkpt>
      <trkpt lat="48.04989" lon="6.92336">
        <ele>1055.6</ele>
        <time>2022-06-05T10:29:38Z</time>
      </trkpt>
      <trkpt lat="48.04994" lon="6.92338">
        <ele>1055</ele>
        <time>2022-06-05T10:29:42Z</time>
      </trkpt>
      <trkpt lat="48.04999" lon="6.92342">
        <ele>1056.5</ele>
        <time>2022-06-05T10:29:47Z</time>
      </trkpt>
      <trkpt lat="48.05003" lon="6.92346">
        <ele>1058.6</ele>
        <time>2022-06-05T10:29:50Z</time>
      </trkpt>
      <trkpt lat="48.05009" lon="6.92351">
        <ele>1059.6</ele>
        <time>2022-06-05T10:29:56Z</time>
      </trkpt>
      <trkpt lat="48.05014" lon="6.92356">
        <ele>1059.8</ele>
        <time>2022-06-05T10:30:00Z</time>
      </trkpt>
      <trkpt lat="48.05018" lon="6.9236">
        <ele>1060.4</ele>
        <time>2022-06-05T10:30:05Z</time>
      </trkpt>
      <trkpt lat="48.05022" lon="6.92364">
        <ele>1059.6</ele>
        <time>2022-06-05T10:30:08Z</time>
      </trkpt>
      <trkpt lat="48.05026" lon="6.9237">
        <ele>1063.9</ele>
        <time>2022-06-05T10:30:13Z</time>
      </trkpt>
      <trkpt lat="48.0503" lon="6.92375">
        <ele>1060.7</ele>
        <time>2022-06-05T10:30:16Z</time>
      </trkpt>
      <trkpt lat="48.05033" lon="6.92383">
        <ele>1059.6</ele>
        <time>2022-06-05T10:30:21Z</time>
      </trkpt>
      <trkpt lat="48.05037" lon="6.9239">
        <ele>1058.7</ele>
        <time>2022-06-05T10:30:26Z</time>
      </trkpt>
      <trkpt lat="48.05041" lon="6.92397">
        <ele>1061.7</ele>
        <time>2022-06-05T10:30:31Z</time>
      </trkpt>
      <trkpt lat="48.05045" lon="6.92402">
        <ele>1062.9</ele>
        <time>2022-06-05T10:30:35Z</time>
      </trkpt>
      <trkpt lat="48.05049" lon="6.92407">
        <ele>1063.3</ele>
        <time>2022-06-05T10:30:39Z</time>
      </trkpt>
      <trkpt lat="48.05052" lon="6.92412">
        <ele>1064.7</ele>
        <time>2022-06-05T10:30:42Z</time>
      </trkpt>
      <trkpt lat="48.05056" lon="6.92421">
        <ele>1064.9</ele>
        <time>2022-06-05T10:30:46Z</time>
      </trkpt>
      <trkpt lat="48.0506" lon="6.92425">
        <ele>1067.8</ele>
        <time>2022-06-05T10:30:50Z</time>
      </trkpt>
      <trkpt lat="48.05066" lon="6.92424">
        <ele>1068</ele>
        <time>2022-06-05T10:30:54Z</time>
      </trkpt>
      <trkpt lat="48.05071" lon="6.92425">
        <ele>1070.7</ele>
        <time>2022-06-05T10:30:58Z</time>
      </trkpt>
      <trkpt lat="48.05076" lon="6.92428">
        <ele>1068.4</ele>
        <time>2022-06-05T10:31:02Z</time>
      </trkpt>
      <trkpt lat="48.0508" lon="6.92431">
        <ele>1066.8</ele>
        <time>2022-06-05T10:31:06Z</time>
      </trkpt>
      <trkpt lat="48.05085" lon="6.92436">
        <ele>1067.9</ele>
        <time>2022-06-05T10:31:10Z</time>
      </trkpt>
      <trkpt lat="48.05091" lon="6.92439">
        <ele>1064.4</ele>
        <time>2022-06-05T10:31:16Z</time>
      </trkpt>
      <trkpt lat="48.05095" lon="6.92441">
        <ele>1061.4</ele>
        <time>2022-06-05T10:31:21Z</time>
      </trkpt>
      <trkpt lat="48.05101" lon="6.92441">
        <ele>1061</ele>
        <time>2022-06-05T10:31:25Z</time>
      </trkpt>
      <trkpt lat="48.05108" lon="6.92441">
        <ele>1061.6</ele>
        <time>2022-06-05T10:31:31Z</time>
      </trkpt>
      <trkpt lat="48.05114" lon="6.92444">
        <ele>1064.6</ele>
        <time>2022-06-05T10:31:36Z</time>
      </trkpt>
      <trkpt lat="48.05118" lon="6.92448">
        <ele>1064.2</ele>
        <time>2022-06-05T10:31:41Z</time>
      </trkpt>
      <trkpt lat="48.05123" lon="6.92451">
        <ele>1063</ele>
        <time>2022-06-05T10:31:45Z</time>
      </trkpt>
      <trkpt lat="48.05127" lon="6.92454">
        <ele>1062.7</ele>
        <time>2022-06-05T10:31:48Z</time>
      </trkpt>
      <trkpt lat="48.05132" lon="6.92455">
        <ele>1061.4</ele>
        <time>2022-06-05T10:31:51Z</time>
      </trkpt>
      <trkpt lat="48.05138" lon="6.92455">
        <ele>1061.9</ele>
        <time>2022-06-05T10:31:56Z</time>
      </trkpt>
      <trkpt lat="48.05144" lon="6.92458">
        <ele>1061</ele>
        <time>2022-06-05T10:32:01Z</time>
      </trkpt>
      <trkpt lat="48.05149" lon="6.92458">
        <ele>1061.6</ele>
        <time>2022-06-05T10:32:06Z</time>
      </trkpt>
      <trkpt lat="48.05154" lon="6.92455">
        <ele>1061.5</ele>
        <time>2022-06-05T10:32:10Z</time>
      </trkpt>
      <trkpt lat="48.05159" lon="6.92455">
        <ele>1060.6</ele>
        <time>2022-06-05T10:32:15Z</time>
      </trkpt>
      <trkpt lat="48.05165" lon="6.92454">
        <ele>1059.7</ele>
        <time>2022-06-05T10:32:20Z</time>
      </trkpt>
      <trkpt lat="48.05171" lon="6.92454">
        <ele>1063.7</ele>
        <time>2022-06-05T10:32:24Z</time>
      </trkpt>
      <trkpt lat="48.05176" lon="6.92455">
        <ele>1062.9</ele>
        <time>2022-06-05T10:32:29Z</time>
      </trkpt>
      <trkpt lat="48.0518" lon="6.92452">
        <ele>1060.8</ele>
        <time>2022-06-05T10:32:32Z</time>
      </trkpt>
      <trkpt lat="48.05187" lon="6.9245">
        <ele>1060.7</ele>
        <time>2022-06-05T10:32:36Z</time>
      </trkpt>
      <trkpt lat="48.05194" lon="6.92453">
        <ele>1062.3</ele>
        <time>2022-06-05T10:32:42Z</time>
      </trkpt>
      <trkpt lat="48.05198" lon="6.92455">
        <ele>1060.8</ele>
        <time>2022-06-05T10:32:46Z</time>
      </trkpt>
      <trkpt lat="48.05202" lon="6.92456">
        <ele>1062.9</ele>
        <time>2022-06-05T10:32:51Z</time>
      </trkpt>
      <trkpt lat="48.05204" lon="6.92464">
        <ele>1069.7</ele>
        <time>2022-06-05T10:33:17Z</time>
      </trkpt>
      <trkpt lat="48.05208" lon="6.92469">
        <ele>1070</ele>
        <time>2022-06-05T10:33:21Z</time>
      </trkpt>
      <trkpt lat="48.05212" lon="6.92473">
        <ele>1069.7</ele>
        <time>2022-06-05T10:33:24Z</time>
      </trkpt>
      <trkpt lat="48.05217" lon="6.92472">
        <ele>1068.3</ele>
        <time>2022-06-05T10:33:27Z</time>
      </trkpt>
      <trkpt lat="48.05222" lon="6.9247">
        <ele>1066.4</ele>
        <time>2022-06-05T10:33:30Z</time>
      </trkpt>
      <trkpt lat="48.05229" lon="6.92463">
        <ele>1061.9</ele>
        <time>2022-06-05T10:33:36Z</time>
      </trkpt>
      <trkpt lat="48.05234" lon="6.92464">
        <ele>1064.3</ele>
        <time>2022-06-05T10:33:39Z</time>
      </trkpt>
      <trkpt lat="48.0524" lon="6.92465">
        <ele>1065</ele>
        <time>2022-06-05T10:33:44Z</time>
      </trkpt>
      <trkpt lat="48.05245" lon="6.92466">
        <ele>1064.4</ele>
        <time>2022-06-05T10:33:48Z</time>
      </trkpt>
      <trkpt lat="48.0525" lon="6.92467">
        <ele>1062</ele>
        <time>2022-06-05T10:33:52Z</time>
      </trkpt>
      <trkpt lat="48.05255" lon="6.9247">
        <ele>1059.8</ele>
        <time>2022-06-05T10:33:55Z</time>
      </trkpt>
      <trkpt lat="48.05261" lon="6.92476">
        <ele>1056.3</ele>
        <time>2022-06-05T10:34:00Z</time>
      </trkpt>
      <trkpt lat="48.05268" lon="6.92474">
        <ele>1056.8</ele>
        <time>2022-06-05T10:34:05Z</time>
      </trkpt>
      <trkpt lat="48.05271" lon="6.92478">
        <ele>1054.5</ele>
        <time>2022-06-05T10:34:09Z</time>
      </trkpt>
      <trkpt lat="48.05275" lon="6.92484">
        <ele>1055.7</ele>
        <time>2022-06-05T10:34:12Z</time>
      </trkpt>
      <trkpt lat="48.05279" lon="6.92487">
        <ele>1057.5</ele>
        <time>2022-06-05T10:34:15Z</time>
      </trkpt>
      <trkpt lat="48.05283" lon="6.92493">
        <ele>1056.8</ele>
        <time>2022-06-05T10:34:19Z</time>
      </trkpt>
      <trkpt lat="48.05288" lon="6.92497">
        <ele>1056.7</ele>
        <time>2022-06-05T10:34:24Z</time>
      </trkpt>
      <trkpt lat="48.05294" lon="6.92498">
        <ele>1054</ele>
        <time>2022-06-05T10:34:28Z</time>
      </trkpt>
      <trkpt lat="48.05298" lon="6.92501">
        <ele>1057.3</ele>
        <time>2022-06-05T10:34:32Z</time>
      </trkpt>
      <trkpt lat="48.05303" lon="6.92505">
        <ele>1060.6</ele>
        <time>2022-06-05T10:34:37Z</time>
      </trkpt>
      <trkpt lat="48.05308" lon="6.92506">
        <ele>1061</ele>
        <time>2022-06-05T10:34:40Z</time>
      </trkpt>
      <trkpt lat="48.05316" lon="6.92505">
        <ele>1059.9</ele>
        <time>2022-06-05T10:34:47Z</time>
      </trkpt>
      <trkpt lat="48.05321" lon="6.92508">
        <ele>1062</ele>
        <time>2022-06-05T10:34:50Z</time>
      </trkpt>
      <trkpt lat="48.05325" lon="6.92512">
        <ele>1063.8</ele>
        <time>2022-06-05T10:34:54Z</time>
      </trkpt>
      <trkpt lat="48.05331" lon="6.92514">
        <ele>1059.5</ele>
        <time>2022-06-05T10:34:58Z</time>
      </trkpt>
      <trkpt lat="48.05335" lon="6.92516">
        <ele>1057.4</ele>
        <time>2022-06-05T10:35:01Z</time>
      </trkpt>
      <trkpt lat="48.05339" lon="6.92521">
        <ele>1055.5</ele>
        <time>2022-06-05T10:35:05Z</time>
      </trkpt>
      <trkpt lat="48.05343" lon="6.92525">
        <ele>1055.2</ele>
        <time>2022-06-05T10:35:09Z</time>
      </trkpt>
      <trkpt lat="48.05347" lon="6.92529">
        <ele>1055.6</ele>
        <time>2022-06-05T10:35:12Z</time>
      </trkpt>
      <trkpt lat="48.05353" lon="6.92532">
        <ele>1054.7</ele>
        <time>2022-06-05T10:35:16Z</time>
      </trkpt>
      <trkpt lat="48.05359" lon="6.92527">
        <ele>1050.5</ele>
        <time>2022-06-05T10:35:21Z</time>
      </trkpt>
      <trkpt lat="48.05365" lon="6.92522">
        <ele>1050</ele>
        <time>2022-06-05T10:35:25Z</time>
      </trkpt>
      <trkpt lat="48.05369" lon="6.92519">
        <ele>1050.6</ele>
        <time>2022-06-05T10:35:30Z</time>
      </trkpt>
      <trkpt lat="48.05374" lon="6.92519">
        <ele>1050.7</ele>
        <time>2022-06-05T10:35:33Z</time>
      </trkpt>
      <trkpt lat="48.05379" lon="6.9252">
        <ele>1052.1</ele>
        <time>2022-06-05T10:35:36Z</time>
      </trkpt>
      <trkpt lat="48.05385" lon="6.92526">
        <ele>1053.5</ele>
        <time>2022-06-05T10:35:41Z</time>
      </trkpt>
      <trkpt lat="48.0539" lon="6.92528">
        <ele>1054.8</ele>
        <time>2022-06-05T10:35:45Z</time>
      </trkpt>
      <trkpt lat="48.05394" lon="6.92528">
        <ele>1054.8</ele>
        <time>2022-06-05T10:35:48Z</time>
      </trkpt>
      <trkpt lat="48.054" lon="6.92528">
        <ele>1054.6</ele>
        <time>2022-06-05T10:35:51Z</time>
      </trkpt>
      <trkpt lat="48.05406" lon="6.92529">
        <ele>1056.9</ele>
        <time>2022-06-05T10:35:56Z</time>
      </trkpt>
      <trkpt lat="48.05413" lon="6.92531">
        <ele>1059.5</ele>
        <time>2022-06-05T10:36:00Z</time>
      </trkpt>
      <trkpt lat="48.05417" lon="6.92534">
        <ele>1058.4</ele>
        <time>2022-06-05T10:36:05Z</time>
      </trkpt>
      <trkpt lat="48.05422" lon="6.92534">
        <ele>1057.2</ele>
        <time>2022-06-05T10:36:08Z</time>
      </trkpt>
      <trkpt lat="48.05427" lon="6.92532">
        <ele>1058.8</ele>
        <time>2022-06-05T10:36:11Z</time>
      </trkpt>
      <trkpt lat="48.05432" lon="6.92531">
        <ele>1057.5</ele>
        <time>2022-06-05T10:36:16Z</time>
      </trkpt>
      <trkpt lat="48.05436" lon="6.9253">
        <ele>1056</ele>
        <time>2022-06-05T10:36:19Z</time>
      </trkpt>
      <trkpt lat="48.05441" lon="6.92528">
        <ele>1055.9</ele>
        <time>2022-06-05T10:36:22Z</time>
      </trkpt>
      <trkpt lat="48.05448" lon="6.92526">
        <ele>1055.4</ele>
        <time>2022-06-05T10:36:26Z</time>
      </trkpt>
      <trkpt lat="48.05461" lon="6.92512">
        <ele>1055.5</ele>
        <time>2022-06-05T10:36:38Z</time>
      </trkpt>
      <trkpt lat="48.05467" lon="6.92509">
        <ele>1060.2</ele>
        <time>2022-06-05T10:36:43Z</time>
      </trkpt>
      <trkpt lat="48.05476" lon="6.92513">
        <ele>1061.5</ele>
        <time>2022-06-05T10:36:48Z</time>
      </trkpt>
      <trkpt lat="48.05481" lon="6.92511">
        <ele>1061.8</ele>
        <time>2022-06-05T10:36:51Z</time>
      </trkpt>
      <trkpt lat="48.05486" lon="6.92509">
        <ele>1061</ele>
        <time>2022-06-05T10:36:55Z</time>
      </trkpt>
      <trkpt lat="48.05491" lon="6.92507">
        <ele>1061.3</ele>
        <time>2022-06-05T10:36:58Z</time>
      </trkpt>
      <trkpt lat="48.05498" lon="6.92504">
        <ele>1058.7</ele>
        <time>2022-06-05T10:37:02Z</time>
      </trkpt>
      <trkpt lat="48.05507" lon="6.925">
        <ele>1058.3</ele>
        <time>2022-06-05T10:37:11Z</time>
      </trkpt>
      <trkpt lat="48.05513" lon="6.92499">
        <ele>1056.2</ele>
        <time>2022-06-05T10:37:15Z</time>
      </trkpt>
      <trkpt lat="48.05518" lon="6.92501">
        <ele>1055.3</ele>
        <time>2022-06-05T10:37:18Z</time>
      </trkpt>
      <trkpt lat="48.05521" lon="6.92506">
        <ele>1052.8</ele>
        <time>2022-06-05T10:37:21Z</time>
      </trkpt>
      <trkpt lat="48.05523" lon="6.92513">
        <ele>1053.3</ele>
        <time>2022-06-05T10:37:25Z</time>
      </trkpt>
      <trkpt lat="48.05523" lon="6.92522">
        <ele>1054.8</ele>
        <time>2022-06-05T10:37:29Z</time>
      </trkpt>
      <trkpt lat="48.05521" lon="6.92531">
        <ele>1052.5</ele>
        <time>2022-06-05T10:37:32Z</time>
      </trkpt>
      <trkpt lat="48.05518" lon="6.92539">
        <ele>1052.5</ele>
        <time>2022-06-05T10:37:35Z</time>
      </trkpt>
      <trkpt lat="48.05514" lon="6.92545">
        <ele>1051.7</ele>
        <time>2022-06-05T10:37:38Z</time>
      </trkpt>
      <trkpt lat="48.05511" lon="6.92552">
        <ele>1049.4</ele>
        <time>2022-06-05T10:37:41Z</time>
      </trkpt>
      <trkpt lat="48.05508" lon="6.92558">
        <ele>1051.2</ele>
        <time>2022-06-05T10:37:45Z</time>
      </trkpt>
      <trkpt lat="48.05504" lon="6.92564">
        <ele>1049.4</ele>
        <time>2022-06-05T10:37:48Z</time>
      </trkpt>
      <trkpt lat="48.05501" lon="6.9257">
        <ele>1048.3</ele>
        <time>2022-06-05T10:37:53Z</time>
      </trkpt>
      <trkpt lat="48.055" lon="6.92577">
        <ele>1049.9</ele>
        <time>2022-06-05T10:37:58Z</time>
      </trkpt>
      <trkpt lat="48.05502" lon="6.92585">
        <ele>1051.1</ele>
        <time>2022-06-05T10:38:03Z</time>
      </trkpt>
      <trkpt lat="48.05509" lon="6.9259">
        <ele>1051.8</ele>
        <time>2022-06-05T10:38:12Z</time>
      </trkpt>
      <trkpt lat="48.05507" lon="6.92596">
        <ele>1054.5</ele>
        <time>2022-06-05T10:38:22Z</time>
      </trkpt>
      <trkpt lat="48.05501" lon="6.92596">
        <ele>1051</ele>
        <time>2022-06-05T10:38:26Z</time>
      </trkpt>
      <trkpt lat="48.05496" lon="6.92596">
        <ele>1050.7</ele>
        <time>2022-06-05T10:38:29Z</time>
      </trkpt>
      <trkpt lat="48.05491" lon="6.92596">
        <ele>1052.6</ele>
        <time>2022-06-05T10:38:32Z</time>
      </trkpt>
      <trkpt lat="48.05486" lon="6.92596">
        <ele>1054.6</ele>
        <time>2022-06-05T10:38:36Z</time>
      </trkpt>
      <trkpt lat="48.05464" lon="6.92601">
        <ele>1057.3</ele>
        <time>2022-06-05T10:38:47Z</time>
      </trkpt>
      <trkpt lat="48.0546" lon="6.92604">
        <ele>1056.8</ele>
        <time>2022-06-05T10:38:50Z</time>
      </trkpt>
      <trkpt lat="48.05455" lon="6.92608">
        <ele>1056.5</ele>
        <time>2022-06-05T10:38:54Z</time>
      </trkpt>
      <trkpt lat="48.05451" lon="6.92611">
        <ele>1057.2</ele>
        <time>2022-06-05T10:38:57Z</time>
      </trkpt>
      <trkpt lat="48.05448" lon="6.92622">
        <ele>1058.8</ele>
        <time>2022-06-05T10:39:05Z</time>
      </trkpt>
      <trkpt lat="48.05446" lon="6.9263">
        <ele>1059.1</ele>
        <time>2022-06-05T10:39:09Z</time>
      </trkpt>
      <trkpt lat="48.05441" lon="6.92637">
        <ele>1059.5</ele>
        <time>2022-06-05T10:39:14Z</time>
      </trkpt>
      <trkpt lat="48.05438" lon="6.92642">
        <ele>1057.1</ele>
        <time>2022-06-05T10:39:19Z</time>
      </trkpt>
      <trkpt lat="48.05437" lon="6.92651">
        <ele>1052.9</ele>
        <time>2022-06-05T10:39:23Z</time>
      </trkpt>
      <trkpt lat="48.05436" lon="6.92658">
        <ele>1054.2</ele>
        <time>2022-06-05T10:39:27Z</time>
      </trkpt>
      <trkpt lat="48.05433" lon="6.92665">
        <ele>1053.4</ele>
        <time>2022-06-05T10:39:30Z</time>
      </trkpt>
      <trkpt lat="48.0543" lon="6.9267">
        <ele>1054.2</ele>
        <time>2022-06-05T10:39:33Z</time>
      </trkpt>
      <trkpt lat="48.05426" lon="6.92675">
        <ele>1055.2</ele>
        <time>2022-06-05T10:39:36Z</time>
      </trkpt>
      <trkpt lat="48.05421" lon="6.92679">
        <ele>1053.8</ele>
        <time>2022-06-05T10:39:39Z</time>
      </trkpt>
      <trkpt lat="48.05416" lon="6.92681">
        <ele>1051.5</ele>
        <time>2022-06-05T10:39:44Z</time>
      </trkpt>
      <trkpt lat="48.05412" lon="6.92684">
        <ele>1050.5</ele>
        <time>2022-06-05T10:39:47Z</time>
      </trkpt>
      <trkpt lat="48.05408" lon="6.92688">
        <ele>1050.1</ele>
        <time>2022-06-05T10:39:49Z</time>
      </trkpt>
      <trkpt lat="48.05405" lon="6.92694">
        <ele>1052.8</ele>
        <time>2022-06-05T10:39:54Z</time>
      </trkpt>
      <trkpt lat="48.05402" lon="6.92703">
        <ele>1053</ele>
        <time>2022-06-05T10:40:00Z</time>
      </trkpt>
      <trkpt lat="48.05397" lon="6.92709">
        <ele>1051.5</ele>
        <time>2022-06-05T10:40:04Z</time>
      </trkpt>
      <trkpt lat="48.05391" lon="6.92712">
        <ele>1056.2</ele>
        <time>2022-06-05T10:40:08Z</time>
      </trkpt>
      <trkpt lat="48.05386" lon="6.92713">
        <ele>1053</ele>
        <time>2022-06-05T10:40:13Z</time>
      </trkpt>
      <trkpt lat="48.05381" lon="6.92714">
        <ele>1051.7</ele>
        <time>2022-06-05T10:40:16Z</time>
      </trkpt>
      <trkpt lat="48.05378" lon="6.92719">
        <ele>1050.2</ele>
        <time>2022-06-05T10:40:20Z</time>
      </trkpt>
      <trkpt lat="48.05374" lon="6.92726">
        <ele>1047.9</ele>
        <time>2022-06-05T10:40:24Z</time>
      </trkpt>
      <trkpt lat="48.05372" lon="6.92733">
        <ele>1045.4</ele>
        <time>2022-06-05T10:40:28Z</time>
      </trkpt>
      <trkpt lat="48.0537" lon="6.92739">
        <ele>1044.3</ele>
        <time>2022-06-05T10:40:31Z</time>
      </trkpt>
      <trkpt lat="48.05368" lon="6.92746">
        <ele>1044.9</ele>
        <time>2022-06-05T10:40:34Z</time>
      </trkpt>
      <trkpt lat="48.05363" lon="6.92753">
        <ele>1045.2</ele>
        <time>2022-06-05T10:40:39Z</time>
      </trkpt>
      <trkpt lat="48.05358" lon="6.9276">
        <ele>1048.4</ele>
        <time>2022-06-05T10:40:43Z</time>
      </trkpt>
      <trkpt lat="48.05354" lon="6.92764">
        <ele>1047.5</ele>
        <time>2022-06-05T10:40:48Z</time>
      </trkpt>
      <trkpt lat="48.05349" lon="6.92768">
        <ele>1050.4</ele>
        <time>2022-06-05T10:40:51Z</time>
      </trkpt>
      <trkpt lat="48.05345" lon="6.9277">
        <ele>1050.5</ele>
        <time>2022-06-05T10:40:54Z</time>
      </trkpt>
      <trkpt lat="48.05339" lon="6.92777">
        <ele>1052.5</ele>
        <time>2022-06-05T10:40:59Z</time>
      </trkpt>
      <trkpt lat="48.05336" lon="6.92784">
        <ele>1051.1</ele>
        <time>2022-06-05T10:41:04Z</time>
      </trkpt>
      <trkpt lat="48.05336" lon="6.92791">
        <ele>1051.1</ele>
        <time>2022-06-05T10:41:07Z</time>
      </trkpt>
      <trkpt lat="48.05337" lon="6.92798">
        <ele>1053.6</ele>
        <time>2022-06-05T10:41:10Z</time>
      </trkpt>
      <trkpt lat="48.05338" lon="6.92807">
        <ele>1051.1</ele>
        <time>2022-06-05T10:41:14Z</time>
      </trkpt>
      <trkpt lat="48.05338" lon="6.92817">
        <ele>1053.9</ele>
        <time>2022-06-05T10:41:19Z</time>
      </trkpt>
      <trkpt lat="48.05337" lon="6.92824">
        <ele>1057.4</ele>
        <time>2022-06-05T10:41:23Z</time>
      </trkpt>
      <trkpt lat="48.05336" lon="6.9283">
        <ele>1058.2</ele>
        <time>2022-06-05T10:41:26Z</time>
      </trkpt>
      <trkpt lat="48.05337" lon="6.92838">
        <ele>1057</ele>
        <time>2022-06-05T10:41:30Z</time>
      </trkpt>
      <trkpt lat="48.05338" lon="6.92846">
        <ele>1058.7</ele>
        <time>2022-06-05T10:41:34Z</time>
      </trkpt>
      <trkpt lat="48.05337" lon="6.92855">
        <ele>1059.2</ele>
        <time>2022-06-05T10:41:39Z</time>
      </trkpt>
      <trkpt lat="48.05332" lon="6.92862">
        <ele>1055</ele>
        <time>2022-06-05T10:41:44Z</time>
      </trkpt>
      <trkpt lat="48.05331" lon="6.92869">
        <ele>1054.6</ele>
        <time>2022-06-05T10:41:48Z</time>
      </trkpt>
      <trkpt lat="48.05327" lon="6.92873">
        <ele>1056.9</ele>
        <time>2022-06-05T10:41:52Z</time>
      </trkpt>
      <trkpt lat="48.05326" lon="6.92881">
        <ele>1057.7</ele>
        <time>2022-06-05T10:41:57Z</time>
      </trkpt>
      <trkpt lat="48.05328" lon="6.92888">
        <ele>1056.2</ele>
        <time>2022-06-05T10:42:00Z</time>
      </trkpt>
      <trkpt lat="48.05331" lon="6.92895">
        <ele>1054.8</ele>
        <time>2022-06-05T10:42:03Z</time>
      </trkpt>
      <trkpt lat="48.05334" lon="6.92901">
        <ele>1052.8</ele>
        <time>2022-06-05T10:42:07Z</time>
      </trkpt>
      <trkpt lat="48.05337" lon="6.92906">
        <ele>1051.4</ele>
        <time>2022-06-05T10:42:10Z</time>
      </trkpt>
      <trkpt lat="48.05339" lon="6.92913">
        <ele>1052.7</ele>
        <time>2022-06-05T10:42:15Z</time>
      </trkpt>
      <trkpt lat="48.05341" lon="6.9292">
        <ele>1055.9</ele>
        <time>2022-06-05T10:42:18Z</time>
      </trkpt>
      <trkpt lat="48.05341" lon="6.92928">
        <ele>1054.7</ele>
        <time>2022-06-05T10:42:21Z</time>
      </trkpt>
      <trkpt lat="48.05343" lon="6.92937">
        <ele>1054.9</ele>
        <time>2022-06-05T10:42:24Z</time>
      </trkpt>
      <trkpt lat="48.05345" lon="6.92944">
        <ele>1057.4</ele>
        <time>2022-06-05T10:42:29Z</time>
      </trkpt>
      <trkpt lat="48.05347" lon="6.9295">
        <ele>1059.3</ele>
        <time>2022-06-05T10:42:32Z</time>
      </trkpt>
      <trkpt lat="48.05348" lon="6.92958">
        <ele>1060.3</ele>
        <time>2022-06-05T10:42:34Z</time>
      </trkpt>
      <trkpt lat="48.05349" lon="6.92965">
        <ele>1058.9</ele>
        <time>2022-06-05T10:42:38Z</time>
      </trkpt>
      <trkpt lat="48.0535" lon="6.92973">
        <ele>1057.5</ele>
        <time>2022-06-05T10:42:41Z</time>
      </trkpt>
      <trkpt lat="48.05349" lon="6.92981">
        <ele>1059.9</ele>
        <time>2022-06-05T10:42:44Z</time>
      </trkpt>
      <trkpt lat="48.05349" lon="6.92989">
        <ele>1060.2</ele>
        <time>2022-06-05T10:42:50Z</time>
      </trkpt>
      <trkpt lat="48.05347" lon="6.92996">
        <ele>1059.5</ele>
        <time>2022-06-05T10:42:53Z</time>
      </trkpt>
      <trkpt lat="48.05346" lon="6.93003">
        <ele>1060.2</ele>
        <time>2022-06-05T10:42:56Z</time>
      </trkpt>
      <trkpt lat="48.05347" lon="6.93011">
        <ele>1058.6</ele>
        <time>2022-06-05T10:43:00Z</time>
      </trkpt>
      <trkpt lat="48.05349" lon="6.93018">
        <ele>1056</ele>
        <time>2022-06-05T10:43:05Z</time>
      </trkpt>
      <trkpt lat="48.05353" lon="6.93023">
        <ele>1055.2</ele>
        <time>2022-06-05T10:43:09Z</time>
      </trkpt>
      <trkpt lat="48.05356" lon="6.93029">
        <ele>1053.1</ele>
        <time>2022-06-05T10:43:12Z</time>
      </trkpt>
      <trkpt lat="48.0536" lon="6.93034">
        <ele>1054.2</ele>
        <time>2022-06-05T10:43:16Z</time>
      </trkpt>
      <trkpt lat="48.05364" lon="6.93039">
        <ele>1055.6</ele>
        <time>2022-06-05T10:43:19Z</time>
      </trkpt>
      <trkpt lat="48.05367" lon="6.93046">
        <ele>1057</ele>
        <time>2022-06-05T10:43:23Z</time>
      </trkpt>
      <trkpt lat="48.05368" lon="6.93054">
        <ele>1056.9</ele>
        <time>2022-06-05T10:43:27Z</time>
      </trkpt>
      <trkpt lat="48.05366" lon="6.93062">
        <ele>1057</ele>
        <time>2022-06-05T10:43:31Z</time>
      </trkpt>
      <trkpt lat="48.05365" lon="6.9307">
        <ele>1056.7</ele>
        <time>2022-06-05T10:43:35Z</time>
      </trkpt>
      <trkpt lat="48.05364" lon="6.93077">
        <ele>1056.9</ele>
        <time>2022-06-05T10:43:39Z</time>
      </trkpt>
      <trkpt lat="48.05365" lon="6.93085">
        <ele>1054.8</ele>
        <time>2022-06-05T10:43:43Z</time>
      </trkpt>
      <trkpt lat="48.05367" lon="6.93092">
        <ele>1053.7</ele>
        <time>2022-06-05T10:43:47Z</time>
      </trkpt>
      <trkpt lat="48.05369" lon="6.931">
        <ele>1055.1</ele>
        <time>2022-06-05T10:43:51Z</time>
      </trkpt>
      <trkpt lat="48.0537" lon="6.93106">
        <ele>1052.6</ele>
        <time>2022-06-05T10:43:55Z</time>
      </trkpt>
      <trkpt lat="48.05371" lon="6.93114">
        <ele>1047.6</ele>
        <time>2022-06-05T10:43:58Z</time>
      </trkpt>
      <trkpt lat="48.05372" lon="6.93121">
        <ele>1049.5</ele>
        <time>2022-06-05T10:44:02Z</time>
      </trkpt>
      <trkpt lat="48.05371" lon="6.9313">
        <ele>1050.7</ele>
        <time>2022-06-05T10:44:06Z</time>
      </trkpt>
      <trkpt lat="48.05371" lon="6.93138">
        <ele>1049</ele>
        <time>2022-06-05T10:44:12Z</time>
      </trkpt>
      <trkpt lat="48.05371" lon="6.93147">
        <ele>1050.8</ele>
        <time>2022-06-05T10:44:16Z</time>
      </trkpt>
      <trkpt lat="48.0537" lon="6.93154">
        <ele>1049.6</ele>
        <time>2022-06-05T10:44:20Z</time>
      </trkpt>
      <trkpt lat="48.05368" lon="6.93162">
        <ele>1047.1</ele>
        <time>2022-06-05T10:44:25Z</time>
      </trkpt>
      <trkpt lat="48.05368" lon="6.93171">
        <ele>1047.7</ele>
        <time>2022-06-05T10:44:30Z</time>
      </trkpt>
      <trkpt lat="48.0537" lon="6.93179">
        <ele>1049.2</ele>
        <time>2022-06-05T10:44:34Z</time>
      </trkpt>
      <trkpt lat="48.0537" lon="6.93186">
        <ele>1048.4</ele>
        <time>2022-06-05T10:44:37Z</time>
      </trkpt>
      <trkpt lat="48.0537" lon="6.93196">
        <ele>1047.6</ele>
        <time>2022-06-05T10:44:42Z</time>
      </trkpt>
      <trkpt lat="48.0537" lon="6.93206">
        <ele>1045.5</ele>
        <time>2022-06-05T10:44:47Z</time>
      </trkpt>
      <trkpt lat="48.0537" lon="6.93212">
        <ele>1042.7</ele>
        <time>2022-06-05T10:44:51Z</time>
      </trkpt>
      <trkpt lat="48.0537" lon="6.93221">
        <ele>1044.1</ele>
        <time>2022-06-05T10:44:56Z</time>
      </trkpt>
      <trkpt lat="48.0537" lon="6.9323">
        <ele>1042.3</ele>
        <time>2022-06-05T10:45:00Z</time>
      </trkpt>
      <trkpt lat="48.05371" lon="6.93236">
        <ele>1041.6</ele>
        <time>2022-06-05T10:45:03Z</time>
      </trkpt>
      <trkpt lat="48.05372" lon="6.93244">
        <ele>1042.8</ele>
        <time>2022-06-05T10:45:06Z</time>
      </trkpt>
      <trkpt lat="48.05374" lon="6.93254">
        <ele>1041.6</ele>
        <time>2022-06-05T10:45:12Z</time>
      </trkpt>
      <trkpt lat="48.05376" lon="6.93262">
        <ele>1043.2</ele>
        <time>2022-06-05T10:45:17Z</time>
      </trkpt>
      <trkpt lat="48.05379" lon="6.93269">
        <ele>1042.5</ele>
        <time>2022-06-05T10:45:21Z</time>
      </trkpt>
      <trkpt lat="48.05381" lon="6.93278">
        <ele>1044.3</ele>
        <time>2022-06-05T10:45:27Z</time>
      </trkpt>
      <trkpt lat="48.05382" lon="6.93288">
        <ele>1042.8</ele>
        <time>2022-06-05T10:45:32Z</time>
      </trkpt>
      <trkpt lat="48.05385" lon="6.93295">
        <ele>1042.8</ele>
        <time>2022-06-05T10:45:37Z</time>
      </trkpt>
      <trkpt lat="48.05389" lon="6.93302">
        <ele>1038.3</ele>
        <time>2022-06-05T10:45:42Z</time>
      </trkpt>
      <trkpt lat="48.0539" lon="6.93312">
        <ele>1041.6</ele>
        <time>2022-06-05T10:45:47Z</time>
      </trkpt>
      <trkpt lat="48.0539" lon="6.93321">
        <ele>1042.8</ele>
        <time>2022-06-05T10:45:52Z</time>
      </trkpt>
      <trkpt lat="48.05388" lon="6.93328">
        <ele>1042.9</ele>
        <time>2022-06-05T10:45:56Z</time>
      </trkpt>
      <trkpt lat="48.05385" lon="6.93335">
        <ele>1042.8</ele>
        <time>2022-06-05T10:46:00Z</time>
      </trkpt>
      <trkpt lat="48.05383" lon="6.93341">
        <ele>1041.9</ele>
        <time>2022-06-05T10:46:03Z</time>
      </trkpt>
      <trkpt lat="48.05381" lon="6.93347">
        <ele>1041.9</ele>
        <time>2022-06-05T10:46:07Z</time>
      </trkpt>
      <trkpt lat="48.05379" lon="6.93356">
        <ele>1043</ele>
        <time>2022-06-05T10:46:12Z</time>
      </trkpt>
      <trkpt lat="48.05378" lon="6.93364">
        <ele>1040.9</ele>
        <time>2022-06-05T10:46:17Z</time>
      </trkpt>
      <trkpt lat="48.05378" lon="6.93371">
        <ele>1038.6</ele>
        <time>2022-06-05T10:46:23Z</time>
      </trkpt>
      <trkpt lat="48.05379" lon="6.93379">
        <ele>1037.5</ele>
        <time>2022-06-05T10:46:27Z</time>
      </trkpt>
      <trkpt lat="48.05378" lon="6.93387">
        <ele>1037.9</ele>
        <time>2022-06-05T10:46:31Z</time>
      </trkpt>
      <trkpt lat="48.05378" lon="6.93394">
        <ele>1040.6</ele>
        <time>2022-06-05T10:46:36Z</time>
      </trkpt>
      <trkpt lat="48.05381" lon="6.934">
        <ele>1040.6</ele>
        <time>2022-06-05T10:46:40Z</time>
      </trkpt>
      <trkpt lat="48.05385" lon="6.93403">
        <ele>1039.2</ele>
        <time>2022-06-05T10:46:43Z</time>
      </trkpt>
      <trkpt lat="48.05388" lon="6.93409">
        <ele>1037.3</ele>
        <time>2022-06-05T10:46:47Z</time>
      </trkpt>
      <trkpt lat="48.0539" lon="6.93417">
        <ele>1038.4</ele>
        <time>2022-06-05T10:46:52Z</time>
      </trkpt>
      <trkpt lat="48.05393" lon="6.93423">
        <ele>1038.6</ele>
        <time>2022-06-05T10:46:57Z</time>
      </trkpt>
      <trkpt lat="48.05396" lon="6.9343">
        <ele>1038</ele>
        <time>2022-06-05T10:47:03Z</time>
      </trkpt>
      <trkpt lat="48.05401" lon="6.93435">
        <ele>1036.9</ele>
        <time>2022-06-05T10:47:07Z</time>
      </trkpt>
      <trkpt lat="48.05405" lon="6.93431">
        <ele>1037.7</ele>
        <time>2022-06-05T10:47:13Z</time>
      </trkpt>
      <trkpt lat="48.05409" lon="6.93436">
        <ele>1035.4</ele>
        <time>2022-06-05T10:47:18Z</time>
      </trkpt>
      <trkpt lat="48.0541" lon="6.93443">
        <ele>1025.3</ele>
        <time>2022-06-05T10:47:30Z</time>
      </trkpt>
      <trkpt lat="48.05411" lon="6.93451">
        <ele>1024.7</ele>
        <time>2022-06-05T10:47:34Z</time>
      </trkpt>
      <trkpt lat="48.05411" lon="6.9346">
        <ele>1023.8</ele>
        <time>2022-06-05T10:47:38Z</time>
      </trkpt>
      <trkpt lat="48.05414" lon="6.9347">
        <ele>1020.5</ele>
        <time>2022-06-05T10:47:42Z</time>
      </trkpt>
      <trkpt lat="48.05416" lon="6.93476">
        <ele>1020.6</ele>
        <time>2022-06-05T10:47:48Z</time>
      </trkpt>
      <trkpt lat="48.05419" lon="6.93482">
        <ele>1021.5</ele>
        <time>2022-06-05T10:47:53Z</time>
      </trkpt>
      <trkpt lat="48.05421" lon="6.93488">
        <ele>1023.3</ele>
        <time>2022-06-05T10:47:57Z</time>
      </trkpt>
      <trkpt lat="48.05424" lon="6.93494">
        <ele>1021.6</ele>
        <time>2022-06-05T10:48:01Z</time>
      </trkpt>
      <trkpt lat="48.05427" lon="6.93502">
        <ele>1021.4</ele>
        <time>2022-06-05T10:48:07Z</time>
      </trkpt>
      <trkpt lat="48.05427" lon="6.93509">
        <ele>1020.8</ele>
        <time>2022-06-05T10:48:11Z</time>
      </trkpt>
      <trkpt lat="48.0543" lon="6.93515">
        <ele>1020.1</ele>
        <time>2022-06-05T10:48:15Z</time>
      </trkpt>
      <trkpt lat="48.05432" lon="6.93521">
        <ele>1016.8</ele>
        <time>2022-06-05T10:48:21Z</time>
      </trkpt>
      <trkpt lat="48.05436" lon="6.93526">
        <ele>1015.5</ele>
        <time>2022-06-05T10:48:27Z</time>
      </trkpt>
      <trkpt lat="48.05438" lon="6.93533">
        <ele>1014.7</ele>
        <time>2022-06-05T10:48:32Z</time>
      </trkpt>
      <trkpt lat="48.0544" lon="6.93542">
        <ele>1013.8</ele>
        <time>2022-06-05T10:48:36Z</time>
      </trkpt>
      <trkpt lat="48.0544" lon="6.9355">
        <ele>1010.3</ele>
        <time>2022-06-05T10:48:40Z</time>
      </trkpt>
      <trkpt lat="48.05442" lon="6.93558">
        <ele>1012.8</ele>
        <time>2022-06-05T10:48:45Z</time>
      </trkpt>
      <trkpt lat="48.05443" lon="6.93565">
        <ele>1010.4</ele>
        <time>2022-06-05T10:48:50Z</time>
      </trkpt>
      <trkpt lat="48.05446" lon="6.93571">
        <ele>1011.6</ele>
        <time>2022-06-05T10:48:54Z</time>
      </trkpt>
      <trkpt lat="48.05449" lon="6.93578">
        <ele>1011.1</ele>
        <time>2022-06-05T10:48:58Z</time>
      </trkpt>
      <trkpt lat="48.05452" lon="6.93585">
        <ele>1011.7</ele>
        <time>2022-06-05T10:49:03Z</time>
      </trkpt>
      <trkpt lat="48.05454" lon="6.93594">
        <ele>1012.2</ele>
        <time>2022-06-05T10:49:09Z</time>
      </trkpt>
      <trkpt lat="48.05458" lon="6.93602">
        <ele>1012.8</ele>
        <time>2022-06-05T10:49:13Z</time>
      </trkpt>
      <trkpt lat="48.0546" lon="6.9361">
        <ele>1013</ele>
        <time>2022-06-05T10:49:18Z</time>
      </trkpt>
      <trkpt lat="48.05461" lon="6.93616">
        <ele>1012</ele>
        <time>2022-06-05T10:49:23Z</time>
      </trkpt>
      <trkpt lat="48.05465" lon="6.93622">
        <ele>1011.9</ele>
        <time>2022-06-05T10:49:27Z</time>
      </trkpt>
      <trkpt lat="48.05468" lon="6.93626">
        <ele>1010.5</ele>
        <time>2022-06-05T10:49:30Z</time>
      </trkpt>
      <trkpt lat="48.05473" lon="6.93628">
        <ele>1009.4</ele>
        <time>2022-06-05T10:49:33Z</time>
      </trkpt>
      <trkpt lat="48.05477" lon="6.93633">
        <ele>1007.1</ele>
        <time>2022-06-05T10:49:38Z</time>
      </trkpt>
      <trkpt lat="48.05481" lon="6.93638">
        <ele>1006.2</ele>
        <time>2022-06-05T10:49:42Z</time>
      </trkpt>
      <trkpt lat="48.05486" lon="6.93643">
        <ele>1005.6</ele>
        <time>2022-06-05T10:49:46Z</time>
      </trkpt>
      <trkpt lat="48.05489" lon="6.93649">
        <ele>1004.6</ele>
        <time>2022-06-05T10:49:51Z</time>
      </trkpt>
      <trkpt lat="48.05488" lon="6.93656">
        <ele>1003.9</ele>
        <time>2022-06-05T10:49:55Z</time>
      </trkpt>
      <trkpt lat="48.05491" lon="6.93662">
        <ele>1004.6</ele>
        <time>2022-06-05T10:50:00Z</time>
      </trkpt>
      <trkpt lat="48.05496" lon="6.93664">
        <ele>1003.1</ele>
        <time>2022-06-05T10:50:05Z</time>
      </trkpt>
      <trkpt lat="48.05498" lon="6.93671">
        <ele>1002</ele>
        <time>2022-06-05T10:50:08Z</time>
      </trkpt>
      <trkpt lat="48.055" lon="6.93678">
        <ele>1002.5</ele>
        <time>2022-06-05T10:50:13Z</time>
      </trkpt>
      <trkpt lat="48.05499" lon="6.93686">
        <ele>1002.1</ele>
        <time>2022-06-05T10:50:17Z</time>
      </trkpt>
      <trkpt lat="48.05498" lon="6.93694">
        <ele>1001.8</ele>
        <time>2022-06-05T10:50:20Z</time>
      </trkpt>
      <trkpt lat="48.05497" lon="6.93702">
        <ele>1000.5</ele>
        <time>2022-06-05T10:50:23Z</time>
      </trkpt>
      <trkpt lat="48.05496" lon="6.93711">
        <ele>1001.6</ele>
        <time>2022-06-05T10:50:28Z</time>
      </trkpt>
      <trkpt lat="48.05497" lon="6.93718">
        <ele>1002.1</ele>
        <time>2022-06-05T10:50:32Z</time>
      </trkpt>
      <trkpt lat="48.05498" lon="6.93725">
        <ele>1001.7</ele>
        <time>2022-06-05T10:50:35Z</time>
      </trkpt>
      <trkpt lat="48.055" lon="6.93731">
        <ele>1001.6</ele>
        <time>2022-06-05T10:50:38Z</time>
      </trkpt>
      <trkpt lat="48.05502" lon="6.93738">
        <ele>1001.6</ele>
        <time>2022-06-05T10:50:43Z</time>
      </trkpt>
      <trkpt lat="48.05503" lon="6.93745">
        <ele>1005.2</ele>
        <time>2022-06-05T10:50:47Z</time>
      </trkpt>
      <trkpt lat="48.05505" lon="6.93752">
        <ele>1006.3</ele>
        <time>2022-06-05T10:50:50Z</time>
      </trkpt>
      <trkpt lat="48.05507" lon="6.93758">
        <ele>1008.4</ele>
        <time>2022-06-05T10:50:54Z</time>
      </trkpt>
      <trkpt lat="48.05509" lon="6.93766">
        <ele>1011.7</ele>
        <time>2022-06-05T10:50:58Z</time>
      </trkpt>
      <trkpt lat="48.05509" lon="6.93773">
        <ele>1013.2</ele>
        <time>2022-06-05T10:51:01Z</time>
      </trkpt>
      <trkpt lat="48.05509" lon="6.93779">
        <ele>1012.5</ele>
        <time>2022-06-05T10:51:03Z</time>
      </trkpt>
      <trkpt lat="48.0551" lon="6.93788">
        <ele>1012.9</ele>
        <time>2022-06-05T10:51:09Z</time>
      </trkpt>
      <trkpt lat="48.05512" lon="6.93796">
        <ele>1011.6</ele>
        <time>2022-06-05T10:51:13Z</time>
      </trkpt>
      <trkpt lat="48.05514" lon="6.93804">
        <ele>1010.3</ele>
        <time>2022-06-05T10:51:18Z</time>
      </trkpt>
      <trkpt lat="48.05516" lon="6.93811">
        <ele>1009.2</ele>
        <time>2022-06-05T10:51:22Z</time>
      </trkpt>
      <trkpt lat="48.05519" lon="6.93819">
        <ele>1009.2</ele>
        <time>2022-06-05T10:51:27Z</time>
      </trkpt>
      <trkpt lat="48.05521" lon="6.93826">
        <ele>1007.7</ele>
        <time>2022-06-05T10:51:31Z</time>
      </trkpt>
      <trkpt lat="48.05526" lon="6.93833">
        <ele>1007.5</ele>
        <time>2022-06-05T10:51:36Z</time>
      </trkpt>
      <trkpt lat="48.05529" lon="6.93841">
        <ele>1006.7</ele>
        <time>2022-06-05T10:51:41Z</time>
      </trkpt>
      <trkpt lat="48.0553" lon="6.93849">
        <ele>1007</ele>
        <time>2022-06-05T10:51:46Z</time>
      </trkpt>
      <trkpt lat="48.05529" lon="6.93859">
        <ele>1007.3</ele>
        <time>2022-06-05T10:51:52Z</time>
      </trkpt>
      <trkpt lat="48.05529" lon="6.93867">
        <ele>1006.6</ele>
        <time>2022-06-05T10:51:56Z</time>
      </trkpt>
      <trkpt lat="48.05528" lon="6.93875">
        <ele>1005.9</ele>
        <time>2022-06-05T10:52:00Z</time>
      </trkpt>
      <trkpt lat="48.05526" lon="6.93883">
        <ele>1003.2</ele>
        <time>2022-06-05T10:52:05Z</time>
      </trkpt>
      <trkpt lat="48.05527" lon="6.9389">
        <ele>1004.1</ele>
        <time>2022-06-05T10:52:08Z</time>
      </trkpt>
      <trkpt lat="48.05528" lon="6.93898">
        <ele>1005.2</ele>
        <time>2022-06-05T10:52:13Z</time>
      </trkpt>
      <trkpt lat="48.0553" lon="6.93905">
        <ele>1004.1</ele>
        <time>2022-06-05T10:52:17Z</time>
      </trkpt>
      <trkpt lat="48.05532" lon="6.93912">
        <ele>1004.1</ele>
        <time>2022-06-05T10:52:22Z</time>
      </trkpt>
      <trkpt lat="48.05535" lon="6.93917">
        <ele>1004.6</ele>
        <time>2022-06-05T10:52:26Z</time>
      </trkpt>
      <trkpt lat="48.05538" lon="6.93924">
        <ele>1003.2</ele>
        <time>2022-06-05T10:52:31Z</time>
      </trkpt>
      <trkpt lat="48.05539" lon="6.93931">
        <ele>1004.2</ele>
        <time>2022-06-05T10:52:35Z</time>
      </trkpt>
      <trkpt lat="48.05538" lon="6.93939">
        <ele>1002.5</ele>
        <time>2022-06-05T10:52:39Z</time>
      </trkpt>
      <trkpt lat="48.05539" lon="6.93948">
        <ele>1002.5</ele>
        <time>2022-06-05T10:52:43Z</time>
      </trkpt>
      <trkpt lat="48.0554" lon="6.93956">
        <ele>1002.4</ele>
        <time>2022-06-05T10:52:49Z</time>
      </trkpt>
      <trkpt lat="48.0554" lon="6.93964">
        <ele>1003.8</ele>
        <time>2022-06-05T10:52:54Z</time>
      </trkpt>
      <trkpt lat="48.05542" lon="6.93971">
        <ele>1002.7</ele>
        <time>2022-06-05T10:52:58Z</time>
      </trkpt>
      <trkpt lat="48.05542" lon="6.93978">
        <ele>1002.8</ele>
        <time>2022-06-05T10:53:04Z</time>
      </trkpt>
      <trkpt lat="48.0554" lon="6.93986">
        <ele>1001.6</ele>
        <time>2022-06-05T10:53:10Z</time>
      </trkpt>
      <trkpt lat="48.05541" lon="6.93993">
        <ele>1000.9</ele>
        <time>2022-06-05T10:53:15Z</time>
      </trkpt>
      <trkpt lat="48.05541" lon="6.94">
        <ele>998.8</ele>
        <time>2022-06-05T10:53:21Z</time>
      </trkpt>
      <trkpt lat="48.05542" lon="6.94007">
        <ele>999.3</ele>
        <time>2022-06-05T10:53:28Z</time>
      </trkpt>
      <trkpt lat="48.05545" lon="6.94015">
        <ele>999.1</ele>
        <time>2022-06-05T10:53:33Z</time>
      </trkpt>
      <trkpt lat="48.05547" lon="6.94023">
        <ele>996.9</ele>
        <time>2022-06-05T10:53:39Z</time>
      </trkpt>
      <trkpt lat="48.05547" lon="6.9403">
        <ele>996.3</ele>
        <time>2022-06-05T10:53:46Z</time>
      </trkpt>
      <trkpt lat="48.0555" lon="6.94037">
        <ele>995.7</ele>
        <time>2022-06-05T10:53:50Z</time>
      </trkpt>
      <trkpt lat="48.05552" lon="6.94044">
        <ele>993.9</ele>
        <time>2022-06-05T10:53:55Z</time>
      </trkpt>
      <trkpt lat="48.05553" lon="6.94051">
        <ele>993.6</ele>
        <time>2022-06-05T10:54:01Z</time>
      </trkpt>
      <trkpt lat="48.05553" lon="6.94058">
        <ele>993.6</ele>
        <time>2022-06-05T10:54:06Z</time>
      </trkpt>
      <trkpt lat="48.05554" lon="6.94066">
        <ele>991.8</ele>
        <time>2022-06-05T10:54:12Z</time>
      </trkpt>
      <trkpt lat="48.05557" lon="6.94072">
        <ele>990.8</ele>
        <time>2022-06-05T10:54:17Z</time>
      </trkpt>
      <trkpt lat="48.0556" lon="6.94079">
        <ele>989.1</ele>
        <time>2022-06-05T10:54:23Z</time>
      </trkpt>
      <trkpt lat="48.05561" lon="6.94085">
        <ele>987.7</ele>
        <time>2022-06-05T10:54:27Z</time>
      </trkpt>
      <trkpt lat="48.05565" lon="6.94091">
        <ele>988.2</ele>
        <time>2022-06-05T10:54:33Z</time>
      </trkpt>
      <trkpt lat="48.05567" lon="6.94097">
        <ele>987.5</ele>
        <time>2022-06-05T10:54:37Z</time>
      </trkpt>
      <trkpt lat="48.05567" lon="6.94104">
        <ele>987.2</ele>
        <time>2022-06-05T10:54:43Z</time>
      </trkpt>
      <trkpt lat="48.05569" lon="6.9411">
        <ele>985.1</ele>
        <time>2022-06-05T10:54:48Z</time>
      </trkpt>
      <trkpt lat="48.05572" lon="6.94115">
        <ele>984.6</ele>
        <time>2022-06-05T10:54:52Z</time>
      </trkpt>
      <trkpt lat="48.05576" lon="6.94121">
        <ele>980.8</ele>
        <time>2022-06-05T10:54:57Z</time>
      </trkpt>
      <trkpt lat="48.05581" lon="6.94127">
        <ele>973.3</ele>
        <time>2022-06-05T10:55:02Z</time>
      </trkpt>
      <trkpt lat="48.05584" lon="6.94133">
        <ele>972.2</ele>
        <time>2022-06-05T10:55:08Z</time>
      </trkpt>
      <trkpt lat="48.05584" lon="6.9414">
        <ele>969.3</ele>
        <time>2022-06-05T10:55:13Z</time>
      </trkpt>
      <trkpt lat="48.05586" lon="6.94147">
        <ele>971.8</ele>
        <time>2022-06-05T10:55:17Z</time>
      </trkpt>
      <trkpt lat="48.05587" lon="6.94154">
        <ele>975.1</ele>
        <time>2022-06-05T10:55:25Z</time>
      </trkpt>
      <trkpt lat="48.05589" lon="6.94161">
        <ele>975.6</ele>
        <time>2022-06-05T10:55:29Z</time>
      </trkpt>
      <trkpt lat="48.05594" lon="6.94165">
        <ele>978.3</ele>
        <time>2022-06-05T10:55:35Z</time>
      </trkpt>
      <trkpt lat="48.05596" lon="6.94171">
        <ele>972.6</ele>
        <time>2022-06-05T10:55:42Z</time>
      </trkpt>
      <trkpt lat="48.05599" lon="6.94177">
        <ele>971.2</ele>
        <time>2022-06-05T10:55:52Z</time>
      </trkpt>
      <trkpt lat="48.05603" lon="6.94181">
        <ele>971.4</ele>
        <time>2022-06-05T10:55:58Z</time>
      </trkpt>
      <trkpt lat="48.05607" lon="6.94187">
        <ele>966.8</ele>
        <time>2022-06-05T10:56:03Z</time>
      </trkpt>
      <trkpt lat="48.0561" lon="6.94193">
        <ele>961.4</ele>
        <time>2022-06-05T10:56:07Z</time>
      </trkpt>
      <trkpt lat="48.05614" lon="6.94197">
        <ele>963.1</ele>
        <time>2022-06-05T10:56:13Z</time>
      </trkpt>
      <trkpt lat="48.05618" lon="6.942">
        <ele>961.5</ele>
        <time>2022-06-05T10:56:17Z</time>
      </trkpt>
      <trkpt lat="48.05623" lon="6.94204">
        <ele>960.7</ele>
        <time>2022-06-05T10:56:23Z</time>
      </trkpt>
      <trkpt lat="48.05627" lon="6.94208">
        <ele>960.8</ele>
        <time>2022-06-05T10:56:27Z</time>
      </trkpt>
      <trkpt lat="48.0563" lon="6.94213">
        <ele>961.4</ele>
        <time>2022-06-05T10:56:33Z</time>
      </trkpt>
      <trkpt lat="48.05635" lon="6.94216">
        <ele>960.9</ele>
        <time>2022-06-05T10:56:38Z</time>
      </trkpt>
      <trkpt lat="48.05639" lon="6.9422">
        <ele>959.6</ele>
        <time>2022-06-05T10:56:43Z</time>
      </trkpt>
      <trkpt lat="48.05642" lon="6.94225">
        <ele>958.1</ele>
        <time>2022-06-05T10:56:48Z</time>
      </trkpt>
      <trkpt lat="48.05646" lon="6.94229">
        <ele>953.5</ele>
        <time>2022-06-05T10:56:54Z</time>
      </trkpt>
      <trkpt lat="48.05651" lon="6.94231">
        <ele>949.6</ele>
        <time>2022-06-05T10:56:59Z</time>
      </trkpt>
      <trkpt lat="48.05655" lon="6.94235">
        <ele>948.9</ele>
        <time>2022-06-05T10:57:04Z</time>
      </trkpt>
      <trkpt lat="48.05659" lon="6.9424">
        <ele>945</ele>
        <time>2022-06-05T10:57:10Z</time>
      </trkpt>
      <trkpt lat="48.05664" lon="6.94242">
        <ele>944.1</ele>
        <time>2022-06-05T10:57:16Z</time>
      </trkpt>
      <trkpt lat="48.05669" lon="6.94245">
        <ele>943.5</ele>
        <time>2022-06-05T10:57:22Z</time>
      </trkpt>
      <trkpt lat="48.05674" lon="6.94246">
        <ele>941.7</ele>
        <time>2022-06-05T10:57:27Z</time>
      </trkpt>
      <trkpt lat="48.05677" lon="6.94254">
        <ele>940.9</ele>
        <time>2022-06-05T10:57:33Z</time>
      </trkpt>
      <trkpt lat="48.05678" lon="6.94262">
        <ele>939.3</ele>
        <time>2022-06-05T10:57:38Z</time>
      </trkpt>
      <trkpt lat="48.0568" lon="6.94269">
        <ele>940</ele>
        <time>2022-06-05T10:57:45Z</time>
      </trkpt>
      <trkpt lat="48.05684" lon="6.94273">
        <ele>939.6</ele>
        <time>2022-06-05T10:57:49Z</time>
      </trkpt>
      <trkpt lat="48.0569" lon="6.94275">
        <ele>940.5</ele>
        <time>2022-06-05T10:57:54Z</time>
      </trkpt>
      <trkpt lat="48.05695" lon="6.94276">
        <ele>940.7</ele>
        <time>2022-06-05T10:57:58Z</time>
      </trkpt>
      <trkpt lat="48.057" lon="6.94277">
        <ele>943.4</ele>
        <time>2022-06-05T10:58:04Z</time>
      </trkpt>
      <trkpt lat="48.05705" lon="6.94279">
        <ele>943.4</ele>
        <time>2022-06-05T10:58:09Z</time>
      </trkpt>
      <trkpt lat="48.05708" lon="6.94285">
        <ele>940.8</ele>
        <time>2022-06-05T10:58:13Z</time>
      </trkpt>
      <trkpt lat="48.0571" lon="6.94292">
        <ele>935.1</ele>
        <time>2022-06-05T10:58:19Z</time>
      </trkpt>
      <trkpt lat="48.05706" lon="6.94298">
        <ele>933.7</ele>
        <time>2022-06-05T10:58:23Z</time>
      </trkpt>
      <trkpt lat="48.05705" lon="6.94305">
        <ele>930.6</ele>
        <time>2022-06-05T10:58:29Z</time>
      </trkpt>
      <trkpt lat="48.05705" lon="6.94313">
        <ele>927.4</ele>
        <time>2022-06-05T10:58:34Z</time>
      </trkpt>
      <trkpt lat="48.05708" lon="6.94319">
        <ele>928.2</ele>
        <time>2022-06-05T10:58:40Z</time>
      </trkpt>
      <trkpt lat="48.05711" lon="6.94312">
        <ele>930.1</ele>
        <time>2022-06-05T10:59:16Z</time>
      </trkpt>
      <trkpt lat="48.05706" lon="6.94312">
        <ele>933.2</ele>
        <time>2022-06-05T11:00:10Z</time>
      </trkpt>
      <trkpt lat="48.05701" lon="6.94313">
        <ele>935.4</ele>
        <time>2022-06-05T11:00:30Z</time>
      </trkpt>
      <trkpt lat="48.05705" lon="6.94316">
        <ele>929.3</ele>
        <time>2022-06-05T11:01:29Z</time>
      </trkpt>
      <trkpt lat="48.05708" lon="6.94322">
        <ele>929</ele>
        <time>2022-06-05T11:01:32Z</time>
      </trkpt>
      <trkpt lat="48.05711" lon="6.94329">
        <ele>929.9</ele>
        <time>2022-06-05T11:02:13Z</time>
      </trkpt>
      <trkpt lat="48.05714" lon="6.94341">
        <ele>933.4</ele>
        <time>2022-06-05T11:02:31Z</time>
      </trkpt>
      <trkpt lat="48.05718" lon="6.94345">
        <ele>935.3</ele>
        <time>2022-06-05T11:02:40Z</time>
      </trkpt>
      <trkpt lat="48.05723" lon="6.94349">
        <ele>937.1</ele>
        <time>2022-06-05T11:02:56Z</time>
      </trkpt>
      <trkpt lat="48.05732" lon="6.94373">
        <ele>942.9</ele>
        <time>2022-06-05T11:03:35Z</time>
      </trkpt>
      <trkpt lat="48.05732" lon="6.94386">
        <ele>946.6</ele>
        <time>2022-06-05T11:03:44Z</time>
      </trkpt>
      <trkpt lat="48.05726" lon="6.94388">
        <ele>944.5</ele>
        <time>2022-06-05T11:04:22Z</time>
      </trkpt>
      <trkpt lat="48.05722" lon="6.94394">
        <ele>942.3</ele>
        <time>2022-06-05T11:04:27Z</time>
      </trkpt>
      <trkpt lat="48.05721" lon="6.94402">
        <ele>939.7</ele>
        <time>2022-06-05T11:04:32Z</time>
      </trkpt>
      <trkpt lat="48.05721" lon="6.94409">
        <ele>943.9</ele>
        <time>2022-06-05T11:04:39Z</time>
      </trkpt>
      <trkpt lat="48.05716" lon="6.94415">
        <ele>942</ele>
        <time>2022-06-05T11:04:43Z</time>
      </trkpt>
      <trkpt lat="48.05715" lon="6.94422">
        <ele>941</ele>
        <time>2022-06-05T11:04:51Z</time>
      </trkpt>
      <trkpt lat="48.05715" lon="6.94428">
        <ele>944.9</ele>
        <time>2022-06-05T11:05:08Z</time>
      </trkpt>
      <trkpt lat="48.05711" lon="6.94429">
        <ele>946.1</ele>
        <time>2022-06-05T11:05:13Z</time>
      </trkpt>
      <trkpt lat="48.05706" lon="6.94431">
        <ele>949.1</ele>
        <time>2022-06-05T11:05:20Z</time>
      </trkpt>
      <trkpt lat="48.05705" lon="6.94437">
        <ele>952.4</ele>
        <time>2022-06-05T11:05:26Z</time>
      </trkpt>
      <trkpt lat="48.05704" lon="6.94445">
        <ele>956.1</ele>
        <time>2022-06-05T11:05:31Z</time>
      </trkpt>
      <trkpt lat="48.05702" lon="6.94455">
        <ele>957.4</ele>
        <time>2022-06-05T11:05:37Z</time>
      </trkpt>
      <trkpt lat="48.05703" lon="6.94462">
        <ele>958</ele>
        <time>2022-06-05T11:05:42Z</time>
      </trkpt>
      <trkpt lat="48.05706" lon="6.94472">
        <ele>955.7</ele>
        <time>2022-06-05T11:05:47Z</time>
      </trkpt>
      <trkpt lat="48.05711" lon="6.94479">
        <ele>953.1</ele>
        <time>2022-06-05T11:05:52Z</time>
      </trkpt>
      <trkpt lat="48.05712" lon="6.94488">
        <ele>952.1</ele>
        <time>2022-06-05T11:05:57Z</time>
      </trkpt>
      <trkpt lat="48.05711" lon="6.94496">
        <ele>952.5</ele>
        <time>2022-06-05T11:06:03Z</time>
      </trkpt>
      <trkpt lat="48.05708" lon="6.94502">
        <ele>954.8</ele>
        <time>2022-06-05T11:06:07Z</time>
      </trkpt>
      <trkpt lat="48.05703" lon="6.94505">
        <ele>957.8</ele>
        <time>2022-06-05T11:06:19Z</time>
      </trkpt>
      <trkpt lat="48.05702" lon="6.94512">
        <ele>955.4</ele>
        <time>2022-06-05T11:06:30Z</time>
      </trkpt>
      <trkpt lat="48.05699" lon="6.94518">
        <ele>958.6</ele>
        <time>2022-06-05T11:06:35Z</time>
      </trkpt>
      <trkpt lat="48.05695" lon="6.94523">
        <ele>960.5</ele>
        <time>2022-06-05T11:06:39Z</time>
      </trkpt>
      <trkpt lat="48.05692" lon="6.94528">
        <ele>961</ele>
        <time>2022-06-05T11:06:42Z</time>
      </trkpt>
      <trkpt lat="48.05688" lon="6.94531">
        <ele>961.9</ele>
        <time>2022-06-05T11:06:48Z</time>
      </trkpt>
      <trkpt lat="48.05684" lon="6.94535">
        <ele>962.7</ele>
        <time>2022-06-05T11:06:55Z</time>
      </trkpt>
      <trkpt lat="48.0568" lon="6.94539">
        <ele>967.3</ele>
        <time>2022-06-05T11:07:01Z</time>
      </trkpt>
      <trkpt lat="48.05676" lon="6.94547">
        <ele>970.5</ele>
        <time>2022-06-05T11:07:07Z</time>
      </trkpt>
      <trkpt lat="48.05671" lon="6.94569">
        <ele>980.1</ele>
        <time>2022-06-05T11:07:24Z</time>
      </trkpt>
      <trkpt lat="48.05671" lon="6.94576">
        <ele>976.5</ele>
        <time>2022-06-05T11:07:34Z</time>
      </trkpt>
      <trkpt lat="48.05673" lon="6.94584">
        <ele>975.7</ele>
        <time>2022-06-05T11:07:43Z</time>
      </trkpt>
      <trkpt lat="48.05675" lon="6.94591">
        <ele>977.8</ele>
        <time>2022-06-05T11:07:49Z</time>
      </trkpt>
      <trkpt lat="48.05676" lon="6.946">
        <ele>981.9</ele>
        <time>2022-06-05T11:07:59Z</time>
      </trkpt>
      <trkpt lat="48.05674" lon="6.94607">
        <ele>978.2</ele>
        <time>2022-06-05T11:08:08Z</time>
      </trkpt>
      <trkpt lat="48.05671" lon="6.94612">
        <ele>978.7</ele>
        <time>2022-06-05T11:08:15Z</time>
      </trkpt>
      <trkpt lat="48.05668" lon="6.94617">
        <ele>982</ele>
        <time>2022-06-05T11:08:23Z</time>
      </trkpt>
      <trkpt lat="48.05666" lon="6.94625">
        <ele>984.2</ele>
        <time>2022-06-05T11:08:30Z</time>
      </trkpt>
      <trkpt lat="48.0567" lon="6.94632">
        <ele>980.6</ele>
        <time>2022-06-05T11:08:39Z</time>
      </trkpt>
      <trkpt lat="48.05662" lon="6.94646">
        <ele>986.5</ele>
        <time>2022-06-05T11:08:56Z</time>
      </trkpt>
      <trkpt lat="48.05663" lon="6.94654">
        <ele>987.2</ele>
        <time>2022-06-05T11:09:06Z</time>
      </trkpt>
      <trkpt lat="48.05651" lon="6.94656">
        <ele>977.4</ele>
        <time>2022-06-05T11:09:27Z</time>
      </trkpt>
      <trkpt lat="48.05646" lon="6.94661">
        <ele>984.2</ele>
        <time>2022-06-05T11:09:44Z</time>
      </trkpt>
      <trkpt lat="48.05646" lon="6.94669">
        <ele>988.7</ele>
        <time>2022-06-05T11:09:52Z</time>
      </trkpt>
      <trkpt lat="48.05647" lon="6.94676">
        <ele>991.2</ele>
        <time>2022-06-05T11:09:58Z</time>
      </trkpt>
      <trkpt lat="48.05648" lon="6.94683">
        <ele>990.2</ele>
        <time>2022-06-05T11:10:03Z</time>
      </trkpt>
      <trkpt lat="48.05647" lon="6.94691">
        <ele>997.3</ele>
        <time>2022-06-05T11:10:12Z</time>
      </trkpt>
      <trkpt lat="48.05645" lon="6.94697">
        <ele>995.7</ele>
        <time>2022-06-05T11:10:23Z</time>
      </trkpt>
      <trkpt lat="48.05639" lon="6.94691">
        <ele>990.8</ele>
        <time>2022-06-05T11:10:30Z</time>
      </trkpt>
      <trkpt lat="48.05639" lon="6.94716">
        <ele>995</ele>
        <time>2022-06-05T11:10:47Z</time>
      </trkpt>
      <trkpt lat="48.05642" lon="6.94723">
        <ele>997.7</ele>
        <time>2022-06-05T11:10:56Z</time>
      </trkpt>
      <trkpt lat="48.05643" lon="6.9473">
        <ele>995.5</ele>
        <time>2022-06-05T11:11:04Z</time>
      </trkpt>
      <trkpt lat="48.05646" lon="6.94738">
        <ele>991.1</ele>
        <time>2022-06-05T11:11:10Z</time>
      </trkpt>
      <trkpt lat="48.05648" lon="6.9475">
        <ele>997.1</ele>
        <time>2022-06-05T11:11:25Z</time>
      </trkpt>
      <trkpt lat="48.05647" lon="6.94757">
        <ele>999.7</ele>
        <time>2022-06-05T11:11:31Z</time>
      </trkpt>
      <trkpt lat="48.05651" lon="6.94763">
        <ele>999.9</ele>
        <time>2022-06-05T11:11:36Z</time>
      </trkpt>
      <trkpt lat="48.0565" lon="6.94773">
        <ele>999.3</ele>
        <time>2022-06-05T11:11:42Z</time>
      </trkpt>
      <trkpt lat="48.05652" lon="6.9478">
        <ele>995.8</ele>
        <time>2022-06-05T11:11:48Z</time>
      </trkpt>
      <trkpt lat="48.05654" lon="6.94786">
        <ele>1001.7</ele>
        <time>2022-06-05T11:11:53Z</time>
      </trkpt>
      <trkpt lat="48.05656" lon="6.94792">
        <ele>1004.4</ele>
        <time>2022-06-05T11:11:59Z</time>
      </trkpt>
      <trkpt lat="48.05657" lon="6.948">
        <ele>1002.1</ele>
        <time>2022-06-05T11:12:06Z</time>
      </trkpt>
      <trkpt lat="48.05659" lon="6.94806">
        <ele>1004.1</ele>
        <time>2022-06-05T11:12:15Z</time>
      </trkpt>
      <trkpt lat="48.05664" lon="6.94803">
        <ele>1009.2</ele>
        <time>2022-06-05T11:12:21Z</time>
      </trkpt>
      <trkpt lat="48.05662" lon="6.9481">
        <ele>1012.9</ele>
        <time>2022-06-05T11:12:30Z</time>
      </trkpt>
      <trkpt lat="48.05658" lon="6.94804">
        <ele>1012.9</ele>
        <time>2022-06-05T11:12:38Z</time>
      </trkpt>
      <trkpt lat="48.05661" lon="6.94814">
        <ele>1013.2</ele>
        <time>2022-06-05T11:12:51Z</time>
      </trkpt>
      <trkpt lat="48.05661" lon="6.94822">
        <ele>1013.5</ele>
        <time>2022-06-05T11:12:57Z</time>
      </trkpt>
      <trkpt lat="48.0566" lon="6.94829">
        <ele>1016.6</ele>
        <time>2022-06-05T11:13:03Z</time>
      </trkpt>
      <trkpt lat="48.05655" lon="6.94832">
        <ele>1020</ele>
        <time>2022-06-05T11:13:09Z</time>
      </trkpt>
      <trkpt lat="48.0565" lon="6.94834">
        <ele>1021.1</ele>
        <time>2022-06-05T11:13:17Z</time>
      </trkpt>
      <trkpt lat="48.05647" lon="6.9483">
        <ele>1017.2</ele>
        <time>2022-06-05T11:13:24Z</time>
      </trkpt>
      <trkpt lat="48.05645" lon="6.94836">
        <ele>1025.7</ele>
        <time>2022-06-05T11:13:36Z</time>
      </trkpt>
      <trkpt lat="48.05649" lon="6.94841">
        <ele>1023.8</ele>
        <time>2022-06-05T11:13:39Z</time>
      </trkpt>
      <trkpt lat="48.05653" lon="6.94845">
        <ele>1020.2</ele>
        <time>2022-06-05T11:13:43Z</time>
      </trkpt>
      <trkpt lat="48.05654" lon="6.94853">
        <ele>1022.2</ele>
        <time>2022-06-05T11:13:48Z</time>
      </trkpt>
      <trkpt lat="48.05653" lon="6.94861">
        <ele>1023.9</ele>
        <time>2022-06-05T11:13:54Z</time>
      </trkpt>
      <trkpt lat="48.05653" lon="6.94869">
        <ele>1022.5</ele>
        <time>2022-06-05T11:14:05Z</time>
      </trkpt>
      <trkpt lat="48.05658" lon="6.9487">
        <ele>1013.7</ele>
        <time>2022-06-05T11:14:21Z</time>
      </trkpt>
      <trkpt lat="48.05654" lon="6.94875">
        <ele>1011.5</ele>
        <time>2022-06-05T11:14:29Z</time>
      </trkpt>
      <trkpt lat="48.05654" lon="6.94882">
        <ele>1010.7</ele>
        <time>2022-06-05T11:14:38Z</time>
      </trkpt>
      <trkpt lat="48.05657" lon="6.94889">
        <ele>1016.8</ele>
        <time>2022-06-05T11:14:45Z</time>
      </trkpt>
      <trkpt lat="48.05655" lon="6.94897">
        <ele>1022.8</ele>
        <time>2022-06-05T11:15:06Z</time>
      </trkpt>
      <trkpt lat="48.05655" lon="6.94905">
        <ele>1023.8</ele>
        <time>2022-06-05T11:15:11Z</time>
      </trkpt>
      <trkpt lat="48.05658" lon="6.9491">
        <ele>1024.8</ele>
        <time>2022-06-05T11:15:16Z</time>
      </trkpt>
      <trkpt lat="48.05656" lon="6.94918">
        <ele>1027.5</ele>
        <time>2022-06-05T11:15:24Z</time>
      </trkpt>
      <trkpt lat="48.05658" lon="6.94927">
        <ele>1027.8</ele>
        <time>2022-06-05T11:15:31Z</time>
      </trkpt>
      <trkpt lat="48.05662" lon="6.94932">
        <ele>1026.1</ele>
        <time>2022-06-05T11:15:36Z</time>
      </trkpt>
      <trkpt lat="48.05667" lon="6.94933">
        <ele>1025.6</ele>
        <time>2022-06-05T11:15:42Z</time>
      </trkpt>
      <trkpt lat="48.0567" lon="6.94939">
        <ele>1017.8</ele>
        <time>2022-06-05T11:15:48Z</time>
      </trkpt>
      <trkpt lat="48.05675" lon="6.9494">
        <ele>1015.3</ele>
        <time>2022-06-05T11:15:55Z</time>
      </trkpt>
      <trkpt lat="48.0568" lon="6.94944">
        <ele>1016.7</ele>
        <time>2022-06-05T11:16:01Z</time>
      </trkpt>
      <trkpt lat="48.05685" lon="6.94945">
        <ele>1020.4</ele>
        <time>2022-06-05T11:16:08Z</time>
      </trkpt>
      <trkpt lat="48.05689" lon="6.94948">
        <ele>1020.7</ele>
        <time>2022-06-05T11:16:14Z</time>
      </trkpt>
      <trkpt lat="48.05694" lon="6.94953">
        <ele>1020</ele>
        <time>2022-06-05T11:16:20Z</time>
      </trkpt>
      <trkpt lat="48.05699" lon="6.94957">
        <ele>1020.2</ele>
        <time>2022-06-05T11:16:26Z</time>
      </trkpt>
      <trkpt lat="48.05703" lon="6.94962">
        <ele>1022.4</ele>
        <time>2022-06-05T11:16:34Z</time>
      </trkpt>
      <trkpt lat="48.05705" lon="6.94968">
        <ele>1020.3</ele>
        <time>2022-06-05T11:16:39Z</time>
      </trkpt>
      <trkpt lat="48.05708" lon="6.94973">
        <ele>1021.2</ele>
        <time>2022-06-05T11:16:46Z</time>
      </trkpt>
      <trkpt lat="48.05711" lon="6.94979">
        <ele>1021.6</ele>
        <time>2022-06-05T11:16:52Z</time>
      </trkpt>
      <trkpt lat="48.05713" lon="6.94986">
        <ele>1020.9</ele>
        <time>2022-06-05T11:16:57Z</time>
      </trkpt>
      <trkpt lat="48.05717" lon="6.9499">
        <ele>1022.7</ele>
        <time>2022-06-05T11:17:02Z</time>
      </trkpt>
      <trkpt lat="48.0572" lon="6.94996">
        <ele>1021.9</ele>
        <time>2022-06-05T11:17:08Z</time>
      </trkpt>
      <trkpt lat="48.05723" lon="6.95001">
        <ele>1023.2</ele>
        <time>2022-06-05T11:17:12Z</time>
      </trkpt>
      <trkpt lat="48.05725" lon="6.95008">
        <ele>1023.6</ele>
        <time>2022-06-05T11:17:17Z</time>
      </trkpt>
      <trkpt lat="48.05723" lon="6.95015">
        <ele>1024.5</ele>
        <time>2022-06-05T11:17:22Z</time>
      </trkpt>
      <trkpt lat="48.05724" lon="6.95024">
        <ele>1023.4</ele>
        <time>2022-06-05T11:17:28Z</time>
      </trkpt>
      <trkpt lat="48.05726" lon="6.95031">
        <ele>1027.5</ele>
        <time>2022-06-05T11:17:33Z</time>
      </trkpt>
      <trkpt lat="48.05728" lon="6.95039">
        <ele>1030.8</ele>
        <time>2022-06-05T11:17:37Z</time>
      </trkpt>
      <trkpt lat="48.05728" lon="6.95047">
        <ele>1031.8</ele>
        <time>2022-06-05T11:17:42Z</time>
      </trkpt>
      <trkpt lat="48.05728" lon="6.95055">
        <ele>1033.2</ele>
        <time>2022-06-05T11:17:47Z</time>
      </trkpt>
      <trkpt lat="48.05726" lon="6.95062">
        <ele>1030.9</ele>
        <time>2022-06-05T11:17:52Z</time>
      </trkpt>
      <trkpt lat="48.05724" lon="6.95068">
        <ele>1027.3</ele>
        <time>2022-06-05T11:17:57Z</time>
      </trkpt>
      <trkpt lat="48.05722" lon="6.95076">
        <ele>1030.9</ele>
        <time>2022-06-05T11:18:03Z</time>
      </trkpt>
      <trkpt lat="48.05722" lon="6.95085">
        <ele>1032.6</ele>
        <time>2022-06-05T11:18:07Z</time>
      </trkpt>
      <trkpt lat="48.05723" lon="6.95094">
        <ele>1031</ele>
        <time>2022-06-05T11:18:12Z</time>
      </trkpt>
      <trkpt lat="48.05724" lon="6.95102">
        <ele>1033.6</ele>
        <time>2022-06-05T11:18:17Z</time>
      </trkpt>
      <trkpt lat="48.05725" lon="6.95109">
        <ele>1034.9</ele>
        <time>2022-06-05T11:18:22Z</time>
      </trkpt>
      <trkpt lat="48.05726" lon="6.95116">
        <ele>1032.9</ele>
        <time>2022-06-05T11:18:25Z</time>
      </trkpt>
      <trkpt lat="48.05727" lon="6.95123">
        <ele>1033.7</ele>
        <time>2022-06-05T11:18:29Z</time>
      </trkpt>
      <trkpt lat="48.05727" lon="6.9513">
        <ele>1032.7</ele>
        <time>2022-06-05T11:18:32Z</time>
      </trkpt>
      <trkpt lat="48.0573" lon="6.95136">
        <ele>1034.2</ele>
        <time>2022-06-05T11:18:37Z</time>
      </trkpt>
      <trkpt lat="48.05733" lon="6.95143">
        <ele>1035.3</ele>
        <time>2022-06-05T11:18:41Z</time>
      </trkpt>
      <trkpt lat="48.05733" lon="6.95151">
        <ele>1033.7</ele>
        <time>2022-06-05T11:18:46Z</time>
      </trkpt>
      <trkpt lat="48.05732" lon="6.95158">
        <ele>1034.5</ele>
        <time>2022-06-05T11:18:51Z</time>
      </trkpt>
      <trkpt lat="48.05732" lon="6.95166">
        <ele>1030.8</ele>
        <time>2022-06-05T11:18:57Z</time>
      </trkpt>
      <trkpt lat="48.05733" lon="6.95173">
        <ele>1032.5</ele>
        <time>2022-06-05T11:19:02Z</time>
      </trkpt>
      <trkpt lat="48.05733" lon="6.9518">
        <ele>1030.9</ele>
        <time>2022-06-05T11:19:07Z</time>
      </trkpt>
      <trkpt lat="48.05734" lon="6.95187">
        <ele>1031.9</ele>
        <time>2022-06-05T11:19:11Z</time>
      </trkpt>
      <trkpt lat="48.05736" lon="6.95195">
        <ele>1035.1</ele>
        <time>2022-06-05T11:19:17Z</time>
      </trkpt>
      <trkpt lat="48.05737" lon="6.95203">
        <ele>1037.2</ele>
        <time>2022-06-05T11:19:22Z</time>
      </trkpt>
      <trkpt lat="48.05736" lon="6.9521">
        <ele>1039.5</ele>
        <time>2022-06-05T11:19:26Z</time>
      </trkpt>
      <trkpt lat="48.05736" lon="6.95219">
        <ele>1036</ele>
        <time>2022-06-05T11:19:32Z</time>
      </trkpt>
      <trkpt lat="48.05737" lon="6.95227">
        <ele>1033.4</ele>
        <time>2022-06-05T11:19:37Z</time>
      </trkpt>
      <trkpt lat="48.05739" lon="6.95233">
        <ele>1037.3</ele>
        <time>2022-06-05T11:19:42Z</time>
      </trkpt>
      <trkpt lat="48.05742" lon="6.95241">
        <ele>1036.4</ele>
        <time>2022-06-05T11:19:48Z</time>
      </trkpt>
      <trkpt lat="48.05745" lon="6.95248">
        <ele>1038.9</ele>
        <time>2022-06-05T11:19:53Z</time>
      </trkpt>
      <trkpt lat="48.05748" lon="6.95255">
        <ele>1045.5</ele>
        <time>2022-06-05T11:19:59Z</time>
      </trkpt>
      <trkpt lat="48.05749" lon="6.95262">
        <ele>1044.8</ele>
        <time>2022-06-05T11:20:03Z</time>
      </trkpt>
      <trkpt lat="48.05749" lon="6.9527">
        <ele>1042.1</ele>
        <time>2022-06-05T11:20:09Z</time>
      </trkpt>
      <trkpt lat="48.05751" lon="6.95277">
        <ele>1038.6</ele>
        <time>2022-06-05T11:20:15Z</time>
      </trkpt>
      <trkpt lat="48.05753" lon="6.95284">
        <ele>1043</ele>
        <time>2022-06-05T11:20:20Z</time>
      </trkpt>
      <trkpt lat="48.05753" lon="6.95291">
        <ele>1045.9</ele>
        <time>2022-06-05T11:20:25Z</time>
      </trkpt>
      <trkpt lat="48.05751" lon="6.95301">
        <ele>1047.1</ele>
        <time>2022-06-05T11:20:33Z</time>
      </trkpt>
      <trkpt lat="48.05752" lon="6.95308">
        <ele>1049</ele>
        <time>2022-06-05T11:20:41Z</time>
      </trkpt>
      <trkpt lat="48.05752" lon="6.95316">
        <ele>1048.7</ele>
        <time>2022-06-05T11:20:46Z</time>
      </trkpt>
      <trkpt lat="48.05754" lon="6.95324">
        <ele>1049.1</ele>
        <time>2022-06-05T11:20:52Z</time>
      </trkpt>
      <trkpt lat="48.05754" lon="6.95331">
        <ele>1050</ele>
        <time>2022-06-05T11:20:56Z</time>
      </trkpt>
      <trkpt lat="48.05753" lon="6.95338">
        <ele>1047.4</ele>
        <time>2022-06-05T11:21:01Z</time>
      </trkpt>
      <trkpt lat="48.05751" lon="6.95344">
        <ele>1047.2</ele>
        <time>2022-06-05T11:21:06Z</time>
      </trkpt>
      <trkpt lat="48.05749" lon="6.95352">
        <ele>1047.2</ele>
        <time>2022-06-05T11:21:13Z</time>
      </trkpt>
      <trkpt lat="48.05742" lon="6.95357">
        <ele>1048.2</ele>
        <time>2022-06-05T11:21:22Z</time>
      </trkpt>
      <trkpt lat="48.05738" lon="6.9536">
        <ele>1049.4</ele>
        <time>2022-06-05T11:21:31Z</time>
      </trkpt>
      <trkpt lat="48.05734" lon="6.95366">
        <ele>1052.1</ele>
        <time>2022-06-05T11:21:40Z</time>
      </trkpt>
      <trkpt lat="48.05731" lon="6.95371">
        <ele>1053</ele>
        <time>2022-06-05T11:21:45Z</time>
      </trkpt>
      <trkpt lat="48.05726" lon="6.95373">
        <ele>1054.7</ele>
        <time>2022-06-05T11:21:51Z</time>
      </trkpt>
      <trkpt lat="48.0572" lon="6.95377">
        <ele>1057.2</ele>
        <time>2022-06-05T11:21:57Z</time>
      </trkpt>
      <trkpt lat="48.05712" lon="6.95377">
        <ele>1060.7</ele>
        <time>2022-06-05T11:22:05Z</time>
      </trkpt>
      <trkpt lat="48.05714" lon="6.95385">
        <ele>1059.1</ele>
        <time>2022-06-05T11:22:10Z</time>
      </trkpt>
      <trkpt lat="48.05716" lon="6.95391">
        <ele>1061.8</ele>
        <time>2022-06-05T11:22:14Z</time>
      </trkpt>
      <trkpt lat="48.05718" lon="6.95399">
        <ele>1063.3</ele>
        <time>2022-06-05T11:22:19Z</time>
      </trkpt>
      <trkpt lat="48.05725" lon="6.95417">
        <ele>1070.6</ele>
        <time>2022-06-05T11:22:31Z</time>
      </trkpt>
      <trkpt lat="48.0572" lon="6.9542">
        <ele>1074.8</ele>
        <time>2022-06-05T11:22:39Z</time>
      </trkpt>
      <trkpt lat="48.05719" lon="6.95428">
        <ele>1076.2</ele>
        <time>2022-06-05T11:22:46Z</time>
      </trkpt>
      <trkpt lat="48.05716" lon="6.95433">
        <ele>1079.4</ele>
        <time>2022-06-05T11:22:56Z</time>
      </trkpt>
      <trkpt lat="48.05712" lon="6.95439">
        <ele>1079.5</ele>
        <time>2022-06-05T11:23:01Z</time>
      </trkpt>
      <trkpt lat="48.05711" lon="6.95446">
        <ele>1074.7</ele>
        <time>2022-06-05T11:23:12Z</time>
      </trkpt>
      <trkpt lat="48.05713" lon="6.95452">
        <ele>1071</ele>
        <time>2022-06-05T11:23:17Z</time>
      </trkpt>
      <trkpt lat="48.05716" lon="6.95459">
        <ele>1067.9</ele>
        <time>2022-06-05T11:23:21Z</time>
      </trkpt>
      <trkpt lat="48.05719" lon="6.95467">
        <ele>1068.7</ele>
        <time>2022-06-05T11:23:26Z</time>
      </trkpt>
      <trkpt lat="48.05719" lon="6.95474">
        <ele>1070.9</ele>
        <time>2022-06-05T11:23:31Z</time>
      </trkpt>
      <trkpt lat="48.05718" lon="6.95481">
        <ele>1073.2</ele>
        <time>2022-06-05T11:23:37Z</time>
      </trkpt>
      <trkpt lat="48.05715" lon="6.95486">
        <ele>1069.3</ele>
        <time>2022-06-05T11:23:42Z</time>
      </trkpt>
      <trkpt lat="48.05712" lon="6.95491">
        <ele>1070.6</ele>
        <time>2022-06-05T11:23:48Z</time>
      </trkpt>
      <trkpt lat="48.05708" lon="6.95496">
        <ele>1069.3</ele>
        <time>2022-06-05T11:23:54Z</time>
      </trkpt>
      <trkpt lat="48.05704" lon="6.95499">
        <ele>1073.5</ele>
        <time>2022-06-05T11:23:59Z</time>
      </trkpt>
      <trkpt lat="48.057" lon="6.95504">
        <ele>1072.5</ele>
        <time>2022-06-05T11:24:03Z</time>
      </trkpt>
      <trkpt lat="48.05697" lon="6.95511">
        <ele>1071.4</ele>
        <time>2022-06-05T11:24:09Z</time>
      </trkpt>
      <trkpt lat="48.05695" lon="6.95518">
        <ele>1074.7</ele>
        <time>2022-06-05T11:24:14Z</time>
      </trkpt>
      <trkpt lat="48.05694" lon="6.95524">
        <ele>1073.8</ele>
        <time>2022-06-05T11:24:20Z</time>
      </trkpt>
      <trkpt lat="48.05693" lon="6.95532">
        <ele>1074.3</ele>
        <time>2022-06-05T11:24:24Z</time>
      </trkpt>
      <trkpt lat="48.05688" lon="6.95538">
        <ele>1075.3</ele>
        <time>2022-06-05T11:24:29Z</time>
      </trkpt>
      <trkpt lat="48.05683" lon="6.95543">
        <ele>1074.1</ele>
        <time>2022-06-05T11:24:34Z</time>
      </trkpt>
      <trkpt lat="48.0568" lon="6.95549">
        <ele>1073.8</ele>
        <time>2022-06-05T11:24:39Z</time>
      </trkpt>
      <trkpt lat="48.05678" lon="6.95557">
        <ele>1073.6</ele>
        <time>2022-06-05T11:24:43Z</time>
      </trkpt>
      <trkpt lat="48.05677" lon="6.95564">
        <ele>1075.5</ele>
        <time>2022-06-05T11:24:47Z</time>
      </trkpt>
      <trkpt lat="48.05673" lon="6.95571">
        <ele>1074.5</ele>
        <time>2022-06-05T11:24:52Z</time>
      </trkpt>
      <trkpt lat="48.05668" lon="6.95576">
        <ele>1077.4</ele>
        <time>2022-06-05T11:24:56Z</time>
      </trkpt>
      <trkpt lat="48.05665" lon="6.95584">
        <ele>1077</ele>
        <time>2022-06-05T11:25:01Z</time>
      </trkpt>
      <trkpt lat="48.05662" lon="6.9559">
        <ele>1076.1</ele>
        <time>2022-06-05T11:25:06Z</time>
      </trkpt>
      <trkpt lat="48.0566" lon="6.95596">
        <ele>1077.1</ele>
        <time>2022-06-05T11:25:10Z</time>
      </trkpt>
      <trkpt lat="48.05656" lon="6.95602">
        <ele>1076.5</ele>
        <time>2022-06-05T11:25:15Z</time>
      </trkpt>
      <trkpt lat="48.05651" lon="6.95603">
        <ele>1076.7</ele>
        <time>2022-06-05T11:25:20Z</time>
      </trkpt>
      <trkpt lat="48.05647" lon="6.95599">
        <ele>1075</ele>
        <time>2022-06-05T11:25:24Z</time>
      </trkpt>
      <trkpt lat="48.05643" lon="6.95595">
        <ele>1075.2</ele>
        <time>2022-06-05T11:25:28Z</time>
      </trkpt>
      <trkpt lat="48.05638" lon="6.95593">
        <ele>1075.2</ele>
        <time>2022-06-05T11:25:34Z</time>
      </trkpt>
      <trkpt lat="48.05634" lon="6.95593">
        <ele>1074.7</ele>
        <time>2022-06-05T11:25:40Z</time>
      </trkpt>
      <trkpt lat="48.05628" lon="6.95592">
        <ele>1074.5</ele>
        <time>2022-06-05T11:25:45Z</time>
      </trkpt>
      <trkpt lat="48.05623" lon="6.9559">
        <ele>1073</ele>
        <time>2022-06-05T11:25:50Z</time>
      </trkpt>
      <trkpt lat="48.05619" lon="6.95585">
        <ele>1072.3</ele>
        <time>2022-06-05T11:25:54Z</time>
      </trkpt>
      <trkpt lat="48.05618" lon="6.95579">
        <ele>1072.6</ele>
        <time>2022-06-05T11:25:56Z</time>
      </trkpt>
      <trkpt lat="48.05614" lon="6.95577">
        <ele>1075.4</ele>
        <time>2022-06-05T11:26:03Z</time>
      </trkpt>
      <trkpt lat="48.05608" lon="6.95575">
        <ele>1076</ele>
        <time>2022-06-05T11:26:08Z</time>
      </trkpt>
      <trkpt lat="48.05603" lon="6.95575">
        <ele>1076</ele>
        <time>2022-06-05T11:26:13Z</time>
      </trkpt>
      <trkpt lat="48.05598" lon="6.95576">
        <ele>1077.1</ele>
        <time>2022-06-05T11:26:17Z</time>
      </trkpt>
      <trkpt lat="48.05593" lon="6.95577">
        <ele>1078.5</ele>
        <time>2022-06-05T11:26:23Z</time>
      </trkpt>
      <trkpt lat="48.05589" lon="6.95575">
        <ele>1078.8</ele>
        <time>2022-06-05T11:26:28Z</time>
      </trkpt>
      <trkpt lat="48.05583" lon="6.95569">
        <ele>1075.7</ele>
        <time>2022-06-05T11:26:33Z</time>
      </trkpt>
      <trkpt lat="48.05578" lon="6.95564">
        <ele>1077.9</ele>
        <time>2022-06-05T11:26:37Z</time>
      </trkpt>
      <trkpt lat="48.05573" lon="6.9556">
        <ele>1078.8</ele>
        <time>2022-06-05T11:26:42Z</time>
      </trkpt>
      <trkpt lat="48.05568" lon="6.95557">
        <ele>1079.3</ele>
        <time>2022-06-05T11:26:46Z</time>
      </trkpt>
      <trkpt lat="48.05564" lon="6.95556">
        <ele>1076.9</ele>
        <time>2022-06-05T11:26:51Z</time>
      </trkpt>
      <trkpt lat="48.05558" lon="6.95556">
        <ele>1072.7</ele>
        <time>2022-06-05T11:26:56Z</time>
      </trkpt>
      <trkpt lat="48.05553" lon="6.95555">
        <ele>1068.2</ele>
        <time>2022-06-05T11:27:00Z</time>
      </trkpt>
      <trkpt lat="48.05547" lon="6.95555">
        <ele>1068</ele>
        <time>2022-06-05T11:27:05Z</time>
      </trkpt>
      <trkpt lat="48.05543" lon="6.95555">
        <ele>1065.8</ele>
        <time>2022-06-05T11:27:08Z</time>
      </trkpt>
      <trkpt lat="48.05536" lon="6.95557">
        <ele>1067.7</ele>
        <time>2022-06-05T11:27:13Z</time>
      </trkpt>
      <trkpt lat="48.05531" lon="6.95559">
        <ele>1064.5</ele>
        <time>2022-06-05T11:27:17Z</time>
      </trkpt>
      <trkpt lat="48.05526" lon="6.95563">
        <ele>1067.1</ele>
        <time>2022-06-05T11:27:22Z</time>
      </trkpt>
      <trkpt lat="48.05522" lon="6.95567">
        <ele>1069.2</ele>
        <time>2022-06-05T11:27:25Z</time>
      </trkpt>
      <trkpt lat="48.05518" lon="6.9557">
        <ele>1068.5</ele>
        <time>2022-06-05T11:27:29Z</time>
      </trkpt>
      <trkpt lat="48.05514" lon="6.95574">
        <ele>1066.9</ele>
        <time>2022-06-05T11:27:33Z</time>
      </trkpt>
      <trkpt lat="48.05509" lon="6.95578">
        <ele>1065.7</ele>
        <time>2022-06-05T11:27:38Z</time>
      </trkpt>
      <trkpt lat="48.05504" lon="6.95581">
        <ele>1068.2</ele>
        <time>2022-06-05T11:27:43Z</time>
      </trkpt>
      <trkpt lat="48.05499" lon="6.95585">
        <ele>1067.4</ele>
        <time>2022-06-05T11:27:48Z</time>
      </trkpt>
      <trkpt lat="48.05494" lon="6.95589">
        <ele>1067.6</ele>
        <time>2022-06-05T11:27:53Z</time>
      </trkpt>
      <trkpt lat="48.05489" lon="6.95593">
        <ele>1070.3</ele>
        <time>2022-06-05T11:27:58Z</time>
      </trkpt>
      <trkpt lat="48.05485" lon="6.95597">
        <ele>1071</ele>
        <time>2022-06-05T11:28:02Z</time>
      </trkpt>
      <trkpt lat="48.05481" lon="6.956">
        <ele>1073.5</ele>
        <time>2022-06-05T11:28:06Z</time>
      </trkpt>
      <trkpt lat="48.05476" lon="6.95602">
        <ele>1073.7</ele>
        <time>2022-06-05T11:28:11Z</time>
      </trkpt>
      <trkpt lat="48.0547" lon="6.95603">
        <ele>1076</ele>
        <time>2022-06-05T11:28:16Z</time>
      </trkpt>
      <trkpt lat="48.05465" lon="6.95604">
        <ele>1076.3</ele>
        <time>2022-06-05T11:28:20Z</time>
      </trkpt>
      <trkpt lat="48.05461" lon="6.95605">
        <ele>1075.3</ele>
        <time>2022-06-05T11:28:24Z</time>
      </trkpt>
      <trkpt lat="48.05455" lon="6.95605">
        <ele>1076.3</ele>
        <time>2022-06-05T11:28:29Z</time>
      </trkpt>
      <trkpt lat="48.05451" lon="6.95608">
        <ele>1079.1</ele>
        <time>2022-06-05T11:28:33Z</time>
      </trkpt>
      <trkpt lat="48.05447" lon="6.95613">
        <ele>1080.8</ele>
        <time>2022-06-05T11:28:37Z</time>
      </trkpt>
      <trkpt lat="48.05443" lon="6.95617">
        <ele>1080.7</ele>
        <time>2022-06-05T11:28:41Z</time>
      </trkpt>
      <trkpt lat="48.05438" lon="6.9562">
        <ele>1081.3</ele>
        <time>2022-06-05T11:28:46Z</time>
      </trkpt>
      <trkpt lat="48.05434" lon="6.95624">
        <ele>1082.9</ele>
        <time>2022-06-05T11:28:50Z</time>
      </trkpt>
      <trkpt lat="48.0543" lon="6.95628">
        <ele>1083.2</ele>
        <time>2022-06-05T11:28:55Z</time>
      </trkpt>
      <trkpt lat="48.05427" lon="6.95633">
        <ele>1083.1</ele>
        <time>2022-06-05T11:28:58Z</time>
      </trkpt>
      <trkpt lat="48.05424" lon="6.95639">
        <ele>1082.1</ele>
        <time>2022-06-05T11:29:03Z</time>
      </trkpt>
      <trkpt lat="48.0542" lon="6.95644">
        <ele>1083.7</ele>
        <time>2022-06-05T11:29:07Z</time>
      </trkpt>
      <trkpt lat="48.05416" lon="6.95648">
        <ele>1086.3</ele>
        <time>2022-06-05T11:29:11Z</time>
      </trkpt>
      <trkpt lat="48.05413" lon="6.95653">
        <ele>1087.2</ele>
        <time>2022-06-05T11:29:14Z</time>
      </trkpt>
      <trkpt lat="48.05409" lon="6.95661">
        <ele>1089.7</ele>
        <time>2022-06-05T11:29:19Z</time>
      </trkpt>
      <trkpt lat="48.05408" lon="6.9567">
        <ele>1089.8</ele>
        <time>2022-06-05T11:29:24Z</time>
      </trkpt>
      <trkpt lat="48.05408" lon="6.95681">
        <ele>1087.9</ele>
        <time>2022-06-05T11:29:28Z</time>
      </trkpt>
      <trkpt lat="48.05409" lon="6.95688">
        <ele>1088.5</ele>
        <time>2022-06-05T11:29:33Z</time>
      </trkpt>
      <trkpt lat="48.05408" lon="6.95695">
        <ele>1088.7</ele>
        <time>2022-06-05T11:29:37Z</time>
      </trkpt>
      <trkpt lat="48.05407" lon="6.95703">
        <ele>1087.7</ele>
        <time>2022-06-05T11:29:42Z</time>
      </trkpt>
      <trkpt lat="48.05407" lon="6.95711">
        <ele>1087.7</ele>
        <time>2022-06-05T11:29:46Z</time>
      </trkpt>
      <trkpt lat="48.05406" lon="6.95719">
        <ele>1088.6</ele>
        <time>2022-06-05T11:29:51Z</time>
      </trkpt>
      <trkpt lat="48.05404" lon="6.95726">
        <ele>1090</ele>
        <time>2022-06-05T11:29:55Z</time>
      </trkpt>
      <trkpt lat="48.05401" lon="6.95732">
        <ele>1090.6</ele>
        <time>2022-06-05T11:30:00Z</time>
      </trkpt>
      <trkpt lat="48.05397" lon="6.95737">
        <ele>1092</ele>
        <time>2022-06-05T11:30:05Z</time>
      </trkpt>
      <trkpt lat="48.05392" lon="6.9574">
        <ele>1092.6</ele>
        <time>2022-06-05T11:30:10Z</time>
      </trkpt>
      <trkpt lat="48.05387" lon="6.9574">
        <ele>1089.3</ele>
        <time>2022-06-05T11:30:14Z</time>
      </trkpt>
      <trkpt lat="48.05381" lon="6.95741">
        <ele>1087.8</ele>
        <time>2022-06-05T11:30:20Z</time>
      </trkpt>
      <trkpt lat="48.05377" lon="6.95745">
        <ele>1087.1</ele>
        <time>2022-06-05T11:30:24Z</time>
      </trkpt>
      <trkpt lat="48.05372" lon="6.95748">
        <ele>1085.3</ele>
        <time>2022-06-05T11:30:29Z</time>
      </trkpt>
      <trkpt lat="48.05367" lon="6.95751">
        <ele>1083.9</ele>
        <time>2022-06-05T11:30:34Z</time>
      </trkpt>
      <trkpt lat="48.05362" lon="6.95753">
        <ele>1082.2</ele>
        <time>2022-06-05T11:30:40Z</time>
      </trkpt>
      <trkpt lat="48.05357" lon="6.95755">
        <ele>1079.3</ele>
        <time>2022-06-05T11:30:46Z</time>
      </trkpt>
      <trkpt lat="48.05352" lon="6.95759">
        <ele>1072.3</ele>
        <time>2022-06-05T11:30:56Z</time>
      </trkpt>
      <trkpt lat="48.05348" lon="6.95764">
        <ele>1073.8</ele>
        <time>2022-06-05T11:31:00Z</time>
      </trkpt>
      <trkpt lat="48.05344" lon="6.95768">
        <ele>1075.4</ele>
        <time>2022-06-05T11:31:05Z</time>
      </trkpt>
      <trkpt lat="48.05339" lon="6.95772">
        <ele>1075.2</ele>
        <time>2022-06-05T11:31:10Z</time>
      </trkpt>
      <trkpt lat="48.05334" lon="6.95774">
        <ele>1074.3</ele>
        <time>2022-06-05T11:31:13Z</time>
      </trkpt>
      <trkpt lat="48.0533" lon="6.95778">
        <ele>1073</ele>
        <time>2022-06-05T11:31:16Z</time>
      </trkpt>
      <trkpt lat="48.05325" lon="6.95782">
        <ele>1071.5</ele>
        <time>2022-06-05T11:31:21Z</time>
      </trkpt>
      <trkpt lat="48.05322" lon="6.95789">
        <ele>1072.3</ele>
        <time>2022-06-05T11:31:25Z</time>
      </trkpt>
      <trkpt lat="48.05318" lon="6.95794">
        <ele>1071.5</ele>
        <time>2022-06-05T11:31:30Z</time>
      </trkpt>
      <trkpt lat="48.05314" lon="6.95796">
        <ele>1070.7</ele>
        <time>2022-06-05T11:31:34Z</time>
      </trkpt>
      <trkpt lat="48.05309" lon="6.958">
        <ele>1069.9</ele>
        <time>2022-06-05T11:31:38Z</time>
      </trkpt>
      <trkpt lat="48.05305" lon="6.95804">
        <ele>1071.9</ele>
        <time>2022-06-05T11:31:41Z</time>
      </trkpt>
      <trkpt lat="48.05301" lon="6.95809">
        <ele>1076.2</ele>
        <time>2022-06-05T11:31:45Z</time>
      </trkpt>
      <trkpt lat="48.05296" lon="6.95815">
        <ele>1075.5</ele>
        <time>2022-06-05T11:31:50Z</time>
      </trkpt>
      <trkpt lat="48.05292" lon="6.9582">
        <ele>1072.2</ele>
        <time>2022-06-05T11:31:55Z</time>
      </trkpt>
      <trkpt lat="48.05292" lon="6.95827">
        <ele>1072.9</ele>
        <time>2022-06-05T11:32:01Z</time>
      </trkpt>
      <trkpt lat="48.05296" lon="6.95833">
        <ele>1069.8</ele>
        <time>2022-06-05T11:32:05Z</time>
      </trkpt>
      <trkpt lat="48.05301" lon="6.95835">
        <ele>1068.2</ele>
        <time>2022-06-05T11:32:09Z</time>
      </trkpt>
      <trkpt lat="48.05307" lon="6.95836">
        <ele>1066.4</ele>
        <time>2022-06-05T11:32:12Z</time>
      </trkpt>
      <trkpt lat="48.05313" lon="6.95839">
        <ele>1064.1</ele>
        <time>2022-06-05T11:32:15Z</time>
      </trkpt>
      <trkpt lat="48.05318" lon="6.95847">
        <ele>1064.7</ele>
        <time>2022-06-05T11:32:21Z</time>
      </trkpt>
      <trkpt lat="48.05321" lon="6.95853">
        <ele>1061.5</ele>
        <time>2022-06-05T11:32:24Z</time>
      </trkpt>
      <trkpt lat="48.05324" lon="6.9586">
        <ele>1062.6</ele>
        <time>2022-06-05T11:32:29Z</time>
      </trkpt>
      <trkpt lat="48.05328" lon="6.95862">
        <ele>1061.6</ele>
        <time>2022-06-05T11:32:33Z</time>
      </trkpt>
      <trkpt lat="48.05333" lon="6.95864">
        <ele>1060.5</ele>
        <time>2022-06-05T11:32:36Z</time>
      </trkpt>
      <trkpt lat="48.05335" lon="6.9587">
        <ele>1061.5</ele>
        <time>2022-06-05T11:32:41Z</time>
      </trkpt>
      <trkpt lat="48.05338" lon="6.95876">
        <ele>1063.1</ele>
        <time>2022-06-05T11:32:49Z</time>
      </trkpt>
      <trkpt lat="48.0534" lon="6.95884">
        <ele>1066.4</ele>
        <time>2022-06-05T11:32:53Z</time>
      </trkpt>
      <trkpt lat="48.05343" lon="6.9589">
        <ele>1069.8</ele>
        <time>2022-06-05T11:33:02Z</time>
      </trkpt>
      <trkpt lat="48.05345" lon="6.95898">
        <ele>1070.2</ele>
        <time>2022-06-05T11:33:08Z</time>
      </trkpt>
      <trkpt lat="48.05345" lon="6.95906">
        <ele>1071.5</ele>
        <time>2022-06-05T11:33:16Z</time>
      </trkpt>
      <trkpt lat="48.05349" lon="6.9591">
        <ele>1076</ele>
        <time>2022-06-05T11:33:21Z</time>
      </trkpt>
      <trkpt lat="48.05352" lon="6.95904">
        <ele>1077.1</ele>
        <time>2022-06-05T11:33:39Z</time>
      </trkpt>
      <trkpt lat="48.05354" lon="6.9591">
        <ele>1077.3</ele>
        <time>2022-06-05T11:33:50Z</time>
      </trkpt>
      <trkpt lat="48.05356" lon="6.95922">
        <ele>1081.5</ele>
        <time>2022-06-05T11:34:11Z</time>
      </trkpt>
      <trkpt lat="48.05355" lon="6.95929">
        <ele>1079.6</ele>
        <time>2022-06-05T11:34:26Z</time>
      </trkpt>
      <trkpt lat="48.05359" lon="6.95935">
        <ele>1078.6</ele>
        <time>2022-06-05T11:34:33Z</time>
      </trkpt>
      <trkpt lat="48.05363" lon="6.95939">
        <ele>1078.6</ele>
        <time>2022-06-05T11:34:43Z</time>
      </trkpt>
      <trkpt lat="48.05366" lon="6.95944">
        <ele>1079.2</ele>
        <time>2022-06-05T11:35:05Z</time>
      </trkpt>
      <trkpt lat="48.0537" lon="6.95948">
        <ele>1079.1</ele>
        <time>2022-06-05T11:35:18Z</time>
      </trkpt>
      <trkpt lat="48.05369" lon="6.95954">
        <ele>1081.8</ele>
        <time>2022-06-05T11:35:33Z</time>
      </trkpt>
      <trkpt lat="48.05368" lon="6.95963">
        <ele>1084.8</ele>
        <time>2022-06-05T11:35:43Z</time>
      </trkpt>
      <trkpt lat="48.0537" lon="6.95969">
        <ele>1086.6</ele>
        <time>2022-06-05T11:35:49Z</time>
      </trkpt>
      <trkpt lat="48.05369" lon="6.95976">
        <ele>1089.9</ele>
        <time>2022-06-05T11:36:00Z</time>
      </trkpt>
      <trkpt lat="48.05365" lon="6.95978">
        <ele>1090.6</ele>
        <time>2022-06-05T11:36:10Z</time>
      </trkpt>
      <trkpt lat="48.05364" lon="6.95985">
        <ele>1089.3</ele>
        <time>2022-06-05T11:36:26Z</time>
      </trkpt>
      <trkpt lat="48.0536" lon="6.9598">
        <ele>1089.1</ele>
        <time>2022-06-05T11:37:16Z</time>
      </trkpt>
      <trkpt lat="48.05352" lon="6.95986">
        <ele>1089.9</ele>
        <time>2022-06-05T11:37:22Z</time>
      </trkpt>
      <trkpt lat="48.05347" lon="6.95987">
        <ele>1091.4</ele>
        <time>2022-06-05T11:37:30Z</time>
      </trkpt>
      <trkpt lat="48.05343" lon="6.95988">
        <ele>1091.1</ele>
        <time>2022-06-05T11:37:33Z</time>
      </trkpt>
      <trkpt lat="48.05338" lon="6.95988">
        <ele>1090.5</ele>
        <time>2022-06-05T11:37:37Z</time>
      </trkpt>
      <trkpt lat="48.05333" lon="6.95989">
        <ele>1092.9</ele>
        <time>2022-06-05T11:37:40Z</time>
      </trkpt>
      <trkpt lat="48.05329" lon="6.95993">
        <ele>1094.6</ele>
        <time>2022-06-05T11:37:46Z</time>
      </trkpt>
      <trkpt lat="48.05327" lon="6.95999">
        <ele>1091.6</ele>
        <time>2022-06-05T11:37:53Z</time>
      </trkpt>
      <trkpt lat="48.05322" lon="6.96">
        <ele>1093.2</ele>
        <time>2022-06-05T11:38:02Z</time>
      </trkpt>
      <trkpt lat="48.05318" lon="6.96004">
        <ele>1091.7</ele>
        <time>2022-06-05T11:38:07Z</time>
      </trkpt>
      <trkpt lat="48.05313" lon="6.96005">
        <ele>1091.3</ele>
        <time>2022-06-05T11:38:12Z</time>
      </trkpt>
      <trkpt lat="48.05309" lon="6.96003">
        <ele>1091.4</ele>
        <time>2022-06-05T11:38:15Z</time>
      </trkpt>
      <trkpt lat="48.05304" lon="6.96">
        <ele>1090.4</ele>
        <time>2022-06-05T11:38:19Z</time>
      </trkpt>
      <trkpt lat="48.05301" lon="6.96006">
        <ele>1091.3</ele>
        <time>2022-06-05T11:38:22Z</time>
      </trkpt>
      <trkpt lat="48.05294" lon="6.96009">
        <ele>1087.5</ele>
        <time>2022-06-05T11:38:39Z</time>
      </trkpt>
      <trkpt lat="48.05289" lon="6.96008">
        <ele>1083.5</ele>
        <time>2022-06-05T11:38:47Z</time>
      </trkpt>
      <trkpt lat="48.05289" lon="6.96001">
        <ele>1075.1</ele>
        <time>2022-06-05T11:39:00Z</time>
      </trkpt>
      <trkpt lat="48.05286" lon="6.95995">
        <ele>1073.6</ele>
        <time>2022-06-05T11:39:09Z</time>
      </trkpt>
      <trkpt lat="48.05284" lon="6.95989">
        <ele>1073.2</ele>
        <time>2022-06-05T11:39:13Z</time>
      </trkpt>
      <trkpt lat="48.05279" lon="6.95984">
        <ele>1075.3</ele>
        <time>2022-06-05T11:39:16Z</time>
      </trkpt>
      <trkpt lat="48.05275" lon="6.9598">
        <ele>1076.3</ele>
        <time>2022-06-05T11:39:19Z</time>
      </trkpt>
      <trkpt lat="48.05274" lon="6.95972">
        <ele>1077.6</ele>
        <time>2022-06-05T11:39:24Z</time>
      </trkpt>
      <trkpt lat="48.05271" lon="6.95967">
        <ele>1080.6</ele>
        <time>2022-06-05T11:39:29Z</time>
      </trkpt>
      <trkpt lat="48.05266" lon="6.95963">
        <ele>1080.4</ele>
        <time>2022-06-05T11:39:35Z</time>
      </trkpt>
      <trkpt lat="48.05263" lon="6.95958">
        <ele>1083.5</ele>
        <time>2022-06-05T11:39:42Z</time>
      </trkpt>
      <trkpt lat="48.0526" lon="6.95953">
        <ele>1081</ele>
        <time>2022-06-05T11:39:47Z</time>
      </trkpt>
      <trkpt lat="48.05256" lon="6.95948">
        <ele>1081.2</ele>
        <time>2022-06-05T11:39:51Z</time>
      </trkpt>
      <trkpt lat="48.05252" lon="6.95945">
        <ele>1074.5</ele>
        <time>2022-06-05T11:40:01Z</time>
      </trkpt>
      <trkpt lat="48.05248" lon="6.95941">
        <ele>1073.6</ele>
        <time>2022-06-05T11:40:08Z</time>
      </trkpt>
      <trkpt lat="48.05243" lon="6.95937">
        <ele>1074.6</ele>
        <time>2022-06-05T11:40:13Z</time>
      </trkpt>
      <trkpt lat="48.05238" lon="6.95936">
        <ele>1073.4</ele>
        <time>2022-06-05T11:40:18Z</time>
      </trkpt>
      <trkpt lat="48.05234" lon="6.95939">
        <ele>1073</ele>
        <time>2022-06-05T11:40:22Z</time>
      </trkpt>
      <trkpt lat="48.05228" lon="6.9594">
        <ele>1071.8</ele>
        <time>2022-06-05T11:40:28Z</time>
      </trkpt>
      <trkpt lat="48.05223" lon="6.95937">
        <ele>1069.5</ele>
        <time>2022-06-05T11:40:32Z</time>
      </trkpt>
      <trkpt lat="48.0522" lon="6.95943">
        <ele>1071.4</ele>
        <time>2022-06-05T11:40:36Z</time>
      </trkpt>
      <trkpt lat="48.05216" lon="6.95946">
        <ele>1067.1</ele>
        <time>2022-06-05T11:40:41Z</time>
      </trkpt>
      <trkpt lat="48.0521" lon="6.95946">
        <ele>1068.2</ele>
        <time>2022-06-05T11:40:46Z</time>
      </trkpt>
      <trkpt lat="48.05207" lon="6.9594">
        <ele>1071.9</ele>
        <time>2022-06-05T11:40:51Z</time>
      </trkpt>
      <trkpt lat="48.05202" lon="6.95942">
        <ele>1070.6</ele>
        <time>2022-06-05T11:40:56Z</time>
      </trkpt>
      <trkpt lat="48.05198" lon="6.9594">
        <ele>1066.4</ele>
        <time>2022-06-05T11:41:01Z</time>
      </trkpt>
      <trkpt lat="48.05193" lon="6.95944">
        <ele>1063.4</ele>
        <time>2022-06-05T11:41:07Z</time>
      </trkpt>
      <trkpt lat="48.05191" lon="6.95951">
        <ele>1061.9</ele>
        <time>2022-06-05T11:41:13Z</time>
      </trkpt>
      <trkpt lat="48.05187" lon="6.95956">
        <ele>1060.5</ele>
        <time>2022-06-05T11:41:17Z</time>
      </trkpt>
      <trkpt lat="48.05181" lon="6.95958">
        <ele>1060.4</ele>
        <time>2022-06-05T11:41:24Z</time>
      </trkpt>
      <trkpt lat="48.05176" lon="6.95955">
        <ele>1059.8</ele>
        <time>2022-06-05T11:41:29Z</time>
      </trkpt>
      <trkpt lat="48.05172" lon="6.95951">
        <ele>1056.9</ele>
        <time>2022-06-05T11:41:33Z</time>
      </trkpt>
      <trkpt lat="48.05167" lon="6.95955">
        <ele>1054.8</ele>
        <time>2022-06-05T11:41:39Z</time>
      </trkpt>
      <trkpt lat="48.05163" lon="6.9596">
        <ele>1052.6</ele>
        <time>2022-06-05T11:41:43Z</time>
      </trkpt>
      <trkpt lat="48.05159" lon="6.95964">
        <ele>1052.3</ele>
        <time>2022-06-05T11:41:50Z</time>
      </trkpt>
      <trkpt lat="48.05154" lon="6.95966">
        <ele>1053.3</ele>
        <time>2022-06-05T11:41:55Z</time>
      </trkpt>
      <trkpt lat="48.0515" lon="6.95971">
        <ele>1050.9</ele>
        <time>2022-06-05T11:42:00Z</time>
      </trkpt>
      <trkpt lat="48.05148" lon="6.95977">
        <ele>1049.8</ele>
        <time>2022-06-05T11:42:06Z</time>
      </trkpt>
      <trkpt lat="48.05147" lon="6.95985">
        <ele>1049.7</ele>
        <time>2022-06-05T11:42:10Z</time>
      </trkpt>
      <trkpt lat="48.05143" lon="6.95987">
        <ele>1047.2</ele>
        <time>2022-06-05T11:42:18Z</time>
      </trkpt>
      <trkpt lat="48.05139" lon="6.95984">
        <ele>1047.7</ele>
        <time>2022-06-05T11:42:21Z</time>
      </trkpt>
      <trkpt lat="48.05137" lon="6.95976">
        <ele>1047.1</ele>
        <time>2022-06-05T11:42:55Z</time>
      </trkpt>
      <trkpt lat="48.05135" lon="6.95967">
        <ele>1045.2</ele>
        <time>2022-06-05T11:42:57Z</time>
      </trkpt>
      <trkpt lat="48.05132" lon="6.95974">
        <ele>1044.8</ele>
        <time>2022-06-05T11:43:02Z</time>
      </trkpt>
      <trkpt lat="48.05133" lon="6.95983">
        <ele>1044.8</ele>
        <time>2022-06-05T11:43:05Z</time>
      </trkpt>
      <trkpt lat="48.05132" lon="6.95991">
        <ele>1042.6</ele>
        <time>2022-06-05T11:43:08Z</time>
      </trkpt>
      <trkpt lat="48.05128" lon="6.95996">
        <ele>1043.7</ele>
        <time>2022-06-05T11:43:14Z</time>
      </trkpt>
      <trkpt lat="48.05124" lon="6.96001">
        <ele>1044.6</ele>
        <time>2022-06-05T11:43:18Z</time>
      </trkpt>
      <trkpt lat="48.05123" lon="6.9601">
        <ele>1043.5</ele>
        <time>2022-06-05T11:43:22Z</time>
      </trkpt>
      <trkpt lat="48.05123" lon="6.9602">
        <ele>1049</ele>
        <time>2022-06-05T11:43:25Z</time>
      </trkpt>
      <trkpt lat="48.05122" lon="6.96029">
        <ele>1052</ele>
        <time>2022-06-05T11:43:30Z</time>
      </trkpt>
      <trkpt lat="48.05121" lon="6.96037">
        <ele>1056.5</ele>
        <time>2022-06-05T11:43:34Z</time>
      </trkpt>
      <trkpt lat="48.05119" lon="6.96045">
        <ele>1056.4</ele>
        <time>2022-06-05T11:43:38Z</time>
      </trkpt>
      <trkpt lat="48.05116" lon="6.96051">
        <ele>1051</ele>
        <time>2022-06-05T11:43:44Z</time>
      </trkpt>
      <trkpt lat="48.05113" lon="6.96057">
        <ele>1048.9</ele>
        <time>2022-06-05T11:43:47Z</time>
      </trkpt>
      <trkpt lat="48.05113" lon="6.96066">
        <ele>1048</ele>
        <time>2022-06-05T11:43:51Z</time>
      </trkpt>
      <trkpt lat="48.05111" lon="6.96073">
        <ele>1050.8</ele>
        <time>2022-06-05T11:43:54Z</time>
      </trkpt>
      <trkpt lat="48.05108" lon="6.96079">
        <ele>1052.6</ele>
        <time>2022-06-05T11:43:58Z</time>
      </trkpt>
      <trkpt lat="48.05107" lon="6.96087">
        <ele>1052.6</ele>
        <time>2022-06-05T11:44:01Z</time>
      </trkpt>
      <trkpt lat="48.05103" lon="6.96094">
        <ele>1052.6</ele>
        <time>2022-06-05T11:44:05Z</time>
      </trkpt>
      <trkpt lat="48.051" lon="6.961">
        <ele>1052</ele>
        <time>2022-06-05T11:44:08Z</time>
      </trkpt>
      <trkpt lat="48.05097" lon="6.96105">
        <ele>1052</ele>
        <time>2022-06-05T11:44:12Z</time>
      </trkpt>
      <trkpt lat="48.05094" lon="6.96114">
        <ele>1049.3</ele>
        <time>2022-06-05T11:44:16Z</time>
      </trkpt>
      <trkpt lat="48.05096" lon="6.96122">
        <ele>1041.8</ele>
        <time>2022-06-05T11:44:20Z</time>
      </trkpt>
      <trkpt lat="48.05098" lon="6.9613">
        <ele>1037.7</ele>
        <time>2022-06-05T11:44:23Z</time>
      </trkpt>
      <trkpt lat="48.05099" lon="6.96138">
        <ele>1036.3</ele>
        <time>2022-06-05T11:44:27Z</time>
      </trkpt>
      <trkpt lat="48.05098" lon="6.96145">
        <ele>1034.3</ele>
        <time>2022-06-05T11:44:30Z</time>
      </trkpt>
      <trkpt lat="48.05098" lon="6.96153">
        <ele>1035</ele>
        <time>2022-06-05T11:44:34Z</time>
      </trkpt>
      <trkpt lat="48.05098" lon="6.9616">
        <ele>1034.1</ele>
        <time>2022-06-05T11:44:37Z</time>
      </trkpt>
      <trkpt lat="48.051" lon="6.96167">
        <ele>1032.6</ele>
        <time>2022-06-05T11:44:40Z</time>
      </trkpt>
      <trkpt lat="48.05102" lon="6.96173">
        <ele>1031.5</ele>
        <time>2022-06-05T11:44:43Z</time>
      </trkpt>
      <trkpt lat="48.05106" lon="6.96182">
        <ele>1031.7</ele>
        <time>2022-06-05T11:44:47Z</time>
      </trkpt>
      <trkpt lat="48.05108" lon="6.96188">
        <ele>1031.8</ele>
        <time>2022-06-05T11:44:52Z</time>
      </trkpt>
      <trkpt lat="48.0511" lon="6.96195">
        <ele>1031.5</ele>
        <time>2022-06-05T11:44:56Z</time>
      </trkpt>
      <trkpt lat="48.05112" lon="6.96202">
        <ele>1032.6</ele>
        <time>2022-06-05T11:44:59Z</time>
      </trkpt>
      <trkpt lat="48.05114" lon="6.96209">
        <ele>1031.2</ele>
        <time>2022-06-05T11:45:03Z</time>
      </trkpt>
      <trkpt lat="48.05114" lon="6.96215">
        <ele>1032.4</ele>
        <time>2022-06-05T11:45:07Z</time>
      </trkpt>
      <trkpt lat="48.05115" lon="6.96223">
        <ele>1032.2</ele>
        <time>2022-06-05T11:45:11Z</time>
      </trkpt>
      <trkpt lat="48.05115" lon="6.9623">
        <ele>1032.2</ele>
        <time>2022-06-05T11:45:14Z</time>
      </trkpt>
      <trkpt lat="48.05116" lon="6.96238">
        <ele>1035.1</ele>
        <time>2022-06-05T11:45:17Z</time>
      </trkpt>
      <trkpt lat="48.05115" lon="6.96246">
        <ele>1036.5</ele>
        <time>2022-06-05T11:45:22Z</time>
      </trkpt>
      <trkpt lat="48.05115" lon="6.96253">
        <ele>1038.9</ele>
        <time>2022-06-05T11:45:25Z</time>
      </trkpt>
      <trkpt lat="48.05114" lon="6.96261">
        <ele>1042.3</ele>
        <time>2022-06-05T11:45:30Z</time>
      </trkpt>
      <trkpt lat="48.05113" lon="6.96268">
        <ele>1044.8</ele>
        <time>2022-06-05T11:45:33Z</time>
      </trkpt>
      <trkpt lat="48.05109" lon="6.96276">
        <ele>1047</ele>
        <time>2022-06-05T11:45:38Z</time>
      </trkpt>
      <trkpt lat="48.05104" lon="6.9628">
        <ele>1046.9</ele>
        <time>2022-06-05T11:45:43Z</time>
      </trkpt>
      <trkpt lat="48.05099" lon="6.96284">
        <ele>1043.4</ele>
        <time>2022-06-05T11:45:48Z</time>
      </trkpt>
      <trkpt lat="48.05094" lon="6.96287">
        <ele>1044.2</ele>
        <time>2022-06-05T11:45:52Z</time>
      </trkpt>
      <trkpt lat="48.0509" lon="6.96292">
        <ele>1044.7</ele>
        <time>2022-06-05T11:45:57Z</time>
      </trkpt>
      <trkpt lat="48.05085" lon="6.96297">
        <ele>1047</ele>
        <time>2022-06-05T11:46:01Z</time>
      </trkpt>
      <trkpt lat="48.05081" lon="6.96301">
        <ele>1043.2</ele>
        <time>2022-06-05T11:46:04Z</time>
      </trkpt>
      <trkpt lat="48.05077" lon="6.96307">
        <ele>1041.3</ele>
        <time>2022-06-05T11:46:07Z</time>
      </trkpt>
      <trkpt lat="48.05071" lon="6.96316">
        <ele>1041</ele>
        <time>2022-06-05T11:46:17Z</time>
      </trkpt>
      <trkpt lat="48.05068" lon="6.96323">
        <ele>1042.6</ele>
        <time>2022-06-05T11:46:21Z</time>
      </trkpt>
      <trkpt lat="48.05065" lon="6.96329">
        <ele>1041.5</ele>
        <time>2022-06-05T11:46:26Z</time>
      </trkpt>
      <trkpt lat="48.05062" lon="6.96335">
        <ele>1040.8</ele>
        <time>2022-06-05T11:46:30Z</time>
      </trkpt>
      <trkpt lat="48.05061" lon="6.96343">
        <ele>1042.9</ele>
        <time>2022-06-05T11:46:34Z</time>
      </trkpt>
      <trkpt lat="48.05059" lon="6.96349">
        <ele>1043.2</ele>
        <time>2022-06-05T11:46:37Z</time>
      </trkpt>
      <trkpt lat="48.05057" lon="6.96357">
        <ele>1042.8</ele>
        <time>2022-06-05T11:46:41Z</time>
      </trkpt>
      <trkpt lat="48.05056" lon="6.96366">
        <ele>1040.9</ele>
        <time>2022-06-05T11:46:47Z</time>
      </trkpt>
      <trkpt lat="48.05054" lon="6.96375">
        <ele>1037.1</ele>
        <time>2022-06-05T11:46:51Z</time>
      </trkpt>
      <trkpt lat="48.05053" lon="6.96382">
        <ele>1035.5</ele>
        <time>2022-06-05T11:46:56Z</time>
      </trkpt>
      <trkpt lat="48.05052" lon="6.9639">
        <ele>1036.1</ele>
        <time>2022-06-05T11:47:00Z</time>
      </trkpt>
      <trkpt lat="48.05051" lon="6.96398">
        <ele>1034.4</ele>
        <time>2022-06-05T11:47:04Z</time>
      </trkpt>
      <trkpt lat="48.0505" lon="6.96405">
        <ele>1032.7</ele>
        <time>2022-06-05T11:47:08Z</time>
      </trkpt>
      <trkpt lat="48.05049" lon="6.96413">
        <ele>1031.2</ele>
        <time>2022-06-05T11:47:12Z</time>
      </trkpt>
      <trkpt lat="48.05046" lon="6.96421">
        <ele>1032.2</ele>
        <time>2022-06-05T11:47:17Z</time>
      </trkpt>
      <trkpt lat="48.05043" lon="6.96427">
        <ele>1028.1</ele>
        <time>2022-06-05T11:47:21Z</time>
      </trkpt>
      <trkpt lat="48.0504" lon="6.96434">
        <ele>1025.6</ele>
        <time>2022-06-05T11:47:26Z</time>
      </trkpt>
      <trkpt lat="48.05037" lon="6.9644">
        <ele>1023.9</ele>
        <time>2022-06-05T11:47:29Z</time>
      </trkpt>
      <trkpt lat="48.05034" lon="6.96445">
        <ele>1023.8</ele>
        <time>2022-06-05T11:47:33Z</time>
      </trkpt>
      <trkpt lat="48.0503" lon="6.96449">
        <ele>1024.2</ele>
        <time>2022-06-05T11:47:37Z</time>
      </trkpt>
      <trkpt lat="48.05025" lon="6.96453">
        <ele>1024.3</ele>
        <time>2022-06-05T11:47:41Z</time>
      </trkpt>
      <trkpt lat="48.05021" lon="6.96456">
        <ele>1023.5</ele>
        <time>2022-06-05T11:47:45Z</time>
      </trkpt>
      <trkpt lat="48.05016" lon="6.96459">
        <ele>1022.7</ele>
        <time>2022-06-05T11:47:50Z</time>
      </trkpt>
      <trkpt lat="48.05012" lon="6.96463">
        <ele>1022</ele>
        <time>2022-06-05T11:47:53Z</time>
      </trkpt>
      <trkpt lat="48.05008" lon="6.96468">
        <ele>1021.5</ele>
        <time>2022-06-05T11:47:57Z</time>
      </trkpt>
      <trkpt lat="48.05003" lon="6.96473">
        <ele>1021.9</ele>
        <time>2022-06-05T11:48:02Z</time>
      </trkpt>
      <trkpt lat="48.04999" lon="6.9648">
        <ele>1020.3</ele>
        <time>2022-06-05T11:48:07Z</time>
      </trkpt>
      <trkpt lat="48.04994" lon="6.96482">
        <ele>1018.6</ele>
        <time>2022-06-05T11:48:12Z</time>
      </trkpt>
      <trkpt lat="48.0499" lon="6.96485">
        <ele>1015.6</ele>
        <time>2022-06-05T11:48:16Z</time>
      </trkpt>
      <trkpt lat="48.04986" lon="6.96488">
        <ele>1013.9</ele>
        <time>2022-06-05T11:48:20Z</time>
      </trkpt>
      <trkpt lat="48.04981" lon="6.96493">
        <ele>1012.2</ele>
        <time>2022-06-05T11:48:24Z</time>
      </trkpt>
      <trkpt lat="48.04978" lon="6.96499">
        <ele>1013.4</ele>
        <time>2022-06-05T11:48:28Z</time>
      </trkpt>
      <trkpt lat="48.04974" lon="6.96503">
        <ele>1013.3</ele>
        <time>2022-06-05T11:48:32Z</time>
      </trkpt>
      <trkpt lat="48.0497" lon="6.96506">
        <ele>1010</ele>
        <time>2022-06-05T11:48:36Z</time>
      </trkpt>
      <trkpt lat="48.04966" lon="6.96512">
        <ele>1010.2</ele>
        <time>2022-06-05T11:48:41Z</time>
      </trkpt>
      <trkpt lat="48.04963" lon="6.96517">
        <ele>1012.2</ele>
        <time>2022-06-05T11:48:45Z</time>
      </trkpt>
      <trkpt lat="48.04958" lon="6.96523">
        <ele>1015.1</ele>
        <time>2022-06-05T11:48:49Z</time>
      </trkpt>
      <trkpt lat="48.04956" lon="6.96529">
        <ele>1017</ele>
        <time>2022-06-05T11:48:53Z</time>
      </trkpt>
      <trkpt lat="48.04953" lon="6.96536">
        <ele>1015.9</ele>
        <time>2022-06-05T11:48:57Z</time>
      </trkpt>
      <trkpt lat="48.04953" lon="6.96543">
        <ele>1015.9</ele>
        <time>2022-06-05T11:49:01Z</time>
      </trkpt>
      <trkpt lat="48.04956" lon="6.9655">
        <ele>1014.8</ele>
        <time>2022-06-05T11:49:05Z</time>
      </trkpt>
      <trkpt lat="48.04954" lon="6.96558">
        <ele>1012.7</ele>
        <time>2022-06-05T11:49:08Z</time>
      </trkpt>
      <trkpt lat="48.0495" lon="6.96564">
        <ele>1009.1</ele>
        <time>2022-06-05T11:49:13Z</time>
      </trkpt>
      <trkpt lat="48.04945" lon="6.96564">
        <ele>1004.3</ele>
        <time>2022-06-05T11:49:17Z</time>
      </trkpt>
      <trkpt lat="48.0494" lon="6.96562">
        <ele>1003.8</ele>
        <time>2022-06-05T11:49:22Z</time>
      </trkpt>
      <trkpt lat="48.04935" lon="6.96557">
        <ele>1001.5</ele>
        <time>2022-06-05T11:49:27Z</time>
      </trkpt>
      <trkpt lat="48.04931" lon="6.96552">
        <ele>1002.8</ele>
        <time>2022-06-05T11:49:39Z</time>
      </trkpt>
      <trkpt lat="48.04925" lon="6.96553">
        <ele>1003</ele>
        <time>2022-06-05T11:50:03Z</time>
      </trkpt>
      <trkpt lat="48.0492" lon="6.96553">
        <ele>1001.2</ele>
        <time>2022-06-05T11:50:07Z</time>
      </trkpt>
      <trkpt lat="48.04915" lon="6.96557">
        <ele>1002.4</ele>
        <time>2022-06-05T11:50:10Z</time>
      </trkpt>
      <trkpt lat="48.04913" lon="6.96564">
        <ele>1003.2</ele>
        <time>2022-06-05T11:50:14Z</time>
      </trkpt>
      <trkpt lat="48.04909" lon="6.96572">
        <ele>1001.6</ele>
        <time>2022-06-05T11:50:19Z</time>
      </trkpt>
      <trkpt lat="48.04907" lon="6.96579">
        <ele>998.7</ele>
        <time>2022-06-05T11:50:24Z</time>
      </trkpt>
      <trkpt lat="48.04903" lon="6.96585">
        <ele>994.4</ele>
        <time>2022-06-05T11:50:29Z</time>
      </trkpt>
      <trkpt lat="48.04899" lon="6.96592">
        <ele>997.5</ele>
        <time>2022-06-05T11:50:34Z</time>
      </trkpt>
      <trkpt lat="48.04895" lon="6.96597">
        <ele>1000.5</ele>
        <time>2022-06-05T11:50:38Z</time>
      </trkpt>
      <trkpt lat="48.04892" lon="6.96603">
        <ele>1001.7</ele>
        <time>2022-06-05T11:50:42Z</time>
      </trkpt>
      <trkpt lat="48.0489" lon="6.9661">
        <ele>1003.1</ele>
        <time>2022-06-05T11:50:47Z</time>
      </trkpt>
      <trkpt lat="48.04888" lon="6.96616">
        <ele>1004.3</ele>
        <time>2022-06-05T11:50:51Z</time>
      </trkpt>
      <trkpt lat="48.04885" lon="6.96621">
        <ele>1006.1</ele>
        <time>2022-06-05T11:50:56Z</time>
      </trkpt>
      <trkpt lat="48.04883" lon="6.9663">
        <ele>1006.8</ele>
        <time>2022-06-05T11:51:00Z</time>
      </trkpt>
      <trkpt lat="48.04883" lon="6.96637">
        <ele>1007</ele>
        <time>2022-06-05T11:51:03Z</time>
      </trkpt>
      <trkpt lat="48.04882" lon="6.96644">
        <ele>1007.3</ele>
        <time>2022-06-05T11:51:07Z</time>
      </trkpt>
      <trkpt lat="48.04879" lon="6.96652">
        <ele>1006.5</ele>
        <time>2022-06-05T11:51:11Z</time>
      </trkpt>
      <trkpt lat="48.04878" lon="6.96659">
        <ele>1005.9</ele>
        <time>2022-06-05T11:51:15Z</time>
      </trkpt>
      <trkpt lat="48.04875" lon="6.96667">
        <ele>1002.7</ele>
        <time>2022-06-05T11:51:19Z</time>
      </trkpt>
      <trkpt lat="48.04872" lon="6.96673">
        <ele>1002.9</ele>
        <time>2022-06-05T11:51:23Z</time>
      </trkpt>
      <trkpt lat="48.0487" lon="6.9668">
        <ele>1004</ele>
        <time>2022-06-05T11:51:28Z</time>
      </trkpt>
      <trkpt lat="48.04867" lon="6.96687">
        <ele>1005</ele>
        <time>2022-06-05T11:51:32Z</time>
      </trkpt>
      <trkpt lat="48.04865" lon="6.96692">
        <ele>1009.7</ele>
        <time>2022-06-05T11:51:37Z</time>
      </trkpt>
      <trkpt lat="48.04862" lon="6.96699">
        <ele>1009.9</ele>
        <time>2022-06-05T11:51:41Z</time>
      </trkpt>
      <trkpt lat="48.04861" lon="6.96707">
        <ele>1010.4</ele>
        <time>2022-06-05T11:51:45Z</time>
      </trkpt>
      <trkpt lat="48.04861" lon="6.96715">
        <ele>1012.2</ele>
        <time>2022-06-05T11:51:49Z</time>
      </trkpt>
      <trkpt lat="48.04859" lon="6.96724">
        <ele>1012.1</ele>
        <time>2022-06-05T11:51:54Z</time>
      </trkpt>
      <trkpt lat="48.04858" lon="6.96732">
        <ele>1009</ele>
        <time>2022-06-05T11:51:59Z</time>
      </trkpt>
      <trkpt lat="48.04856" lon="6.9674">
        <ele>1008.2</ele>
        <time>2022-06-05T11:52:04Z</time>
      </trkpt>
      <trkpt lat="48.04854" lon="6.96748">
        <ele>1008.6</ele>
        <time>2022-06-05T11:52:09Z</time>
      </trkpt>
      <trkpt lat="48.04854" lon="6.96756">
        <ele>1010</ele>
        <time>2022-06-05T11:52:14Z</time>
      </trkpt>
      <trkpt lat="48.04852" lon="6.96763">
        <ele>1009.5</ele>
        <time>2022-06-05T11:52:18Z</time>
      </trkpt>
      <trkpt lat="48.04848" lon="6.9677">
        <ele>1009.6</ele>
        <time>2022-06-05T11:52:22Z</time>
      </trkpt>
      <trkpt lat="48.04844" lon="6.96774">
        <ele>1008.8</ele>
        <time>2022-06-05T11:52:26Z</time>
      </trkpt>
      <trkpt lat="48.04841" lon="6.96779">
        <ele>1010</ele>
        <time>2022-06-05T11:52:29Z</time>
      </trkpt>
      <trkpt lat="48.04838" lon="6.96786">
        <ele>1012.3</ele>
        <time>2022-06-05T11:52:33Z</time>
      </trkpt>
      <trkpt lat="48.04836" lon="6.96795">
        <ele>1013.8</ele>
        <time>2022-06-05T11:52:39Z</time>
      </trkpt>
      <trkpt lat="48.04835" lon="6.96805">
        <ele>1015.3</ele>
        <time>2022-06-05T11:52:44Z</time>
      </trkpt>
      <trkpt lat="48.04834" lon="6.96814">
        <ele>1013.6</ele>
        <time>2022-06-05T11:52:48Z</time>
      </trkpt>
      <trkpt lat="48.0483" lon="6.9682">
        <ele>1013.1</ele>
        <time>2022-06-05T11:52:54Z</time>
      </trkpt>
      <trkpt lat="48.04827" lon="6.96829">
        <ele>1009.3</ele>
        <time>2022-06-05T11:53:00Z</time>
      </trkpt>
      <trkpt lat="48.04823" lon="6.96836">
        <ele>1012.4</ele>
        <time>2022-06-05T11:53:04Z</time>
      </trkpt>
      <trkpt lat="48.04821" lon="6.96844">
        <ele>1012.8</ele>
        <time>2022-06-05T11:53:08Z</time>
      </trkpt>
      <trkpt lat="48.0482" lon="6.96851">
        <ele>1011</ele>
        <time>2022-06-05T11:53:14Z</time>
      </trkpt>
      <trkpt lat="48.04816" lon="6.96856">
        <ele>1006.1</ele>
        <time>2022-06-05T11:53:19Z</time>
      </trkpt>
      <trkpt lat="48.04811" lon="6.96857">
        <ele>1007.1</ele>
        <time>2022-06-05T11:53:23Z</time>
      </trkpt>
      <trkpt lat="48.04805" lon="6.96856">
        <ele>1008</ele>
        <time>2022-06-05T11:53:27Z</time>
      </trkpt>
      <trkpt lat="48.04801" lon="6.96855">
        <ele>1007.9</ele>
        <time>2022-06-05T11:53:30Z</time>
      </trkpt>
      <trkpt lat="48.04796" lon="6.96854">
        <ele>1007.9</ele>
        <time>2022-06-05T11:53:33Z</time>
      </trkpt>
      <trkpt lat="48.04791" lon="6.96853">
        <ele>1010.5</ele>
        <time>2022-06-05T11:53:37Z</time>
      </trkpt>
      <trkpt lat="48.04786" lon="6.96858">
        <ele>1007.6</ele>
        <time>2022-06-05T11:53:41Z</time>
      </trkpt>
      <trkpt lat="48.04781" lon="6.9686">
        <ele>1005</ele>
        <time>2022-06-05T11:53:45Z</time>
      </trkpt>
      <trkpt lat="48.04776" lon="6.96859">
        <ele>1006.3</ele>
        <time>2022-06-05T11:53:49Z</time>
      </trkpt>
      <trkpt lat="48.04771" lon="6.9686">
        <ele>1004.1</ele>
        <time>2022-06-05T11:53:53Z</time>
      </trkpt>
      <trkpt lat="48.04766" lon="6.96856">
        <ele>1004.4</ele>
        <time>2022-06-05T11:53:57Z</time>
      </trkpt>
      <trkpt lat="48.0476" lon="6.96854">
        <ele>1006.7</ele>
        <time>2022-06-05T11:54:02Z</time>
      </trkpt>
      <trkpt lat="48.04756" lon="6.9685">
        <ele>1004.8</ele>
        <time>2022-06-05T11:54:06Z</time>
      </trkpt>
      <trkpt lat="48.04751" lon="6.9685">
        <ele>1004.4</ele>
        <time>2022-06-05T11:54:11Z</time>
      </trkpt>
      <trkpt lat="48.04746" lon="6.96848">
        <ele>1003</ele>
        <time>2022-06-05T11:54:15Z</time>
      </trkpt>
      <trkpt lat="48.04742" lon="6.96843">
        <ele>1006.8</ele>
        <time>2022-06-05T11:54:18Z</time>
      </trkpt>
      <trkpt lat="48.04739" lon="6.96838">
        <ele>1010</ele>
        <time>2022-06-05T11:54:22Z</time>
      </trkpt>
      <trkpt lat="48.04737" lon="6.96831">
        <ele>1005.3</ele>
        <time>2022-06-05T11:54:27Z</time>
      </trkpt>
      <trkpt lat="48.04731" lon="6.96835">
        <ele>1005.8</ele>
        <time>2022-06-05T11:54:32Z</time>
      </trkpt>
      <trkpt lat="48.04725" lon="6.96836">
        <ele>1007</ele>
        <time>2022-06-05T11:54:37Z</time>
      </trkpt>
      <trkpt lat="48.04722" lon="6.9683">
        <ele>1007.3</ele>
        <time>2022-06-05T11:54:42Z</time>
      </trkpt>
      <trkpt lat="48.04716" lon="6.96829">
        <ele>1004.2</ele>
        <time>2022-06-05T11:54:47Z</time>
      </trkpt>
      <trkpt lat="48.04716" lon="6.9682">
        <ele>997.8</ele>
        <time>2022-06-05T11:54:53Z</time>
      </trkpt>
      <trkpt lat="48.04718" lon="6.96814">
        <ele>994.6</ele>
        <time>2022-06-05T11:54:57Z</time>
      </trkpt>
      <trkpt lat="48.04722" lon="6.9681">
        <ele>994.1</ele>
        <time>2022-06-05T11:55:00Z</time>
      </trkpt>
      <trkpt lat="48.04725" lon="6.96805">
        <ele>991</ele>
        <time>2022-06-05T11:55:03Z</time>
      </trkpt>
      <trkpt lat="48.04726" lon="6.96798">
        <ele>990.1</ele>
        <time>2022-06-05T11:55:07Z</time>
      </trkpt>
      <trkpt lat="48.04725" lon="6.9679">
        <ele>989.8</ele>
        <time>2022-06-05T11:55:13Z</time>
      </trkpt>
      <trkpt lat="48.04727" lon="6.96783">
        <ele>989.2</ele>
        <time>2022-06-05T11:55:17Z</time>
      </trkpt>
      <trkpt lat="48.0473" lon="6.96778">
        <ele>988.1</ele>
        <time>2022-06-05T11:55:22Z</time>
      </trkpt>
      <trkpt lat="48.04734" lon="6.96773">
        <ele>988.8</ele>
        <time>2022-06-05T11:55:25Z</time>
      </trkpt>
      <trkpt lat="48.04733" lon="6.96765">
        <ele>990.1</ele>
        <time>2022-06-05T11:55:29Z</time>
      </trkpt>
      <trkpt lat="48.04729" lon="6.96759">
        <ele>986.7</ele>
        <time>2022-06-05T11:55:32Z</time>
      </trkpt>
      <trkpt lat="48.04724" lon="6.96758">
        <ele>985</ele>
        <time>2022-06-05T11:55:37Z</time>
      </trkpt>
      <trkpt lat="48.0472" lon="6.96756">
        <ele>986.9</ele>
        <time>2022-06-05T11:55:42Z</time>
      </trkpt>
      <trkpt lat="48.04716" lon="6.9675">
        <ele>988.7</ele>
        <time>2022-06-05T11:55:48Z</time>
      </trkpt>
      <trkpt lat="48.04713" lon="6.96744">
        <ele>990</ele>
        <time>2022-06-05T11:55:53Z</time>
      </trkpt>
    </trkseg>
  </trk>
</gpx>